# Wetter Temperatur Luftdruck Luftfeuchtigkeit Sichtweite Windgeschwindigkeit Windrichtung Zeit
1 Fog 15 1021 100 500 1.5 60 09:19 08.04.2020
2 Fog 14 1021 100 400 1.5 160 08:58 08.04.2020
3 Fog 14 1021 100 400 1.5 160 08:39 08.04.2020
4 Fog 14 1021 100 100 2.1 90 08:21 08.04.2020
5 Fog 14 1021 100 100 2.1 90 07:43 08.04.2020
6 Clouds 14 1021 100 10000 1.5 100 07:22 08.04.2020
7 Clouds 14 1021 100 10000 1.5 90 06:32 08.04.2020
8 Clouds 14 1022 100 10000 1.77 145 04:59 08.04.2020
9 Clouds 15 1023 93 10000 2.1 210 02:51 08.04.2020
10 Clouds 15 1023 100 10000 1 210 02:22 08.04.2020
11 Clouds 15 1023 100 10000 2.1 230 01:56 08.04.2020
12 Clouds 15 1023 100 10000 2.1 230 01:28 08.04.2020
13 Clouds 15 1023 100 10000 3.1 240 00:47 08.04.2020
14 Clouds 15 1023 100 10000 3.1 240 00:26 08.04.2020
15 Mist 15 1022 93 1700 2.1 250 23:57 07.04.2020
16 Mist 15 1022 93 1700 2.1 250 23:38 07.04.2020
17 Clouds 15 1022 87 10000 2.1 240 23:19 07.04.2020
18 Clouds 16 1022 87 10000 2.6 220 22:56 07.04.2020
19 Clouds 16 1022 87 10000 2.6 220 22:37 07.04.2020
20 Clouds 16 1021 72 10000 2.6 240 22:18 07.04.2020
21 Clouds 17 1021 72 10000 2.6 240 21:42 07.04.2020
22 Clouds 17 1021 72 10000 2.6 220 21:21 07.04.2020
23 Clouds 18 1021 68 10000 3.1 210 20:59 07.04.2020
24 Clouds 18 1021 68 10000 3.1 210 20:40 07.04.2020
25 Clouds 18 1021 68 10000 3.1 210 20:21 07.04.2020
26 Clouds 19 1021 63 10000 3.1 230 19:58 07.04.2020
27 Clouds 19 1021 68 10000 4.1 230 19:38 07.04.2020
28 Clouds 19 1021 68 10000 4.1 230 19:38 07.04.2020
29 Clouds 19 1021 68 10000 4.1 230 19:20 07.04.2020
30 Clouds 19 1021 72 10000 4.6 220 18:59 07.04.2020
31 Clouds 19 1021 68 10000 5.1 230 18:40 07.04.2020
32 Clouds 19 1021 68 10000 5.1 230 18:40 07.04.2020
33 Clouds 18 1021 68 10000 5.1 220 18:21 07.04.2020
34 Clouds 18 1021 68 10000 5.1 220 17:47 07.04.2020
35 Clouds 19 1021 72 10000 6.2 210 17:25 07.04.2020
36 Clouds 19 1021 72 10000 6.2 210 16:59 07.04.2020
37 Clouds 19 1021 72 10000 6.2 220 16:41 07.04.2020
38 Clouds 18 1021 77 10000 5.7 220 16:22 07.04.2020
39 Clouds 19 1021 77 10000 5.7 220 15:44 07.04.2020
40 Clouds 18 1021 82 10000 6.7 220 15:26 07.04.2020
41 Clouds 18 1022 88 10000 6.7 210 14:55 07.04.2020
42 Clouds 18 1022 88 10000 6.7 210 14:37 07.04.2020
43 Clouds 18 1022 88 10000 6.2 210 14:18 07.04.2020
44 Clouds 17 1021 93 9000 5.1 200 13:42 07.04.2020
45 Clouds 17 1021 93 8000 3.1 150 13:19 07.04.2020
46 Clouds 17 1021 93 8000 3.1 150 13:19 07.04.2020
47 Clouds 17 1021 93 8000 3.1 150 12:57 07.04.2020
48 Clouds 17 1021 93 8000 3.1 150 12:37 07.04.2020
49 Clouds 16 1021 100 6000 3.1 140 12:19 07.04.2020
50 Mist 16 1021 100 1200 3.1 130 11:56 07.04.2020
51 Mist 16 1021 100 1200 3.1 130 11:38 07.04.2020
52 Mist 16 1021 100 3000 2.1 180 11:19 07.04.2020
53 Mist 16 1021 100 3500 1.5 200 10:39 07.04.2020
54 Mist 15 1020 100 3000 1.5 220 10:20 07.04.2020
55 Mist 15 1020 100 4000 2.1 180 09:56 07.04.2020
56 Clouds 15 1020 100 7000 1.5 210 09:37 07.04.2020
57 Clouds 15 1020 100 7000 1.5 210 09:18 07.04.2020
58 Clouds 15 1019 100 9000 2.6 210 08:39 07.04.2020
59 Clouds 15 1019 100 9000 2.1 210 08:20 07.04.2020
60 Clouds 15 1019 100 9000 2.1 210 07:46 07.04.2020
61 Clouds 15 1019 100 9000 2.1 220 07:26 07.04.2020
62 Clouds 15 1019 100 10000 3.1 220 06:53 07.04.2020
63 Clouds 15 1019 100 10000 2.1 230 06:26 07.04.2020
64 Clouds 15 1019 100 10000 3.6 230 05:56 07.04.2020
65 Mist 16 1019 100 4500 4.1 240 05:26 07.04.2020
66 Fog 16 1019 100 600 3.1 230 04:22 07.04.2020
67 Mist 16 1019 100 4000 3.1 220 03:23 07.04.2020
68 Mist 16 1019 100 1100 2.1 210 02:46 07.04.2020
69 Mist 16 1019 100 1100 2.6 210 01:40 07.04.2020
70 Mist 16 1019 100 1100 2.6 210 01:21 07.04.2020
71 Drizzle 16 1019 100 1100 4.1 220 00:26 07.04.2020
72 Drizzle 16 1019 100 900 4.6 220 23:43 06.04.2020
73 Drizzle 16 1019 100 2800 5.1 210 23:22 06.04.2020
74 Drizzle 16 1019 100 2800 5.1 210 23:22 06.04.2020
75 Drizzle 16 1018 100 2500 5.7 210 22:56 06.04.2020
76 Drizzle 16 1018 100 2500 5.7 210 22:37 06.04.2020
77 Drizzle 16 1018 100 2500 6.2 210 22:19 06.04.2020
78 Drizzle 16 1018 100 3000 6.2 210 21:56 06.04.2020
79 Drizzle 16 1018 100 3000 6.2 210 21:37 06.04.2020
80 Clouds 16 1018 100 7000 6.2 200 21:18 06.04.2020
81 Clouds 16 1018 100 7000 7.2 200 20:41 06.04.2020
82 Clouds 16 1018 100 7000 7.2 200 20:21 06.04.2020
83 Rain 16 1018 100 4000 7.7 200 19:58 06.04.2020
84 Rain 16 1018 100 4000 7.7 200 19:39 06.04.2020
85 Clouds 16 1017 100 10000 8.2 200 19:20 06.04.2020
86 Clouds 16 1017 100 10000 6.7 200 18:45 06.04.2020
87 Clouds 16 1017 100 9000 6.7 190 18:24 06.04.2020
88 Clouds 16 1017 100 9000 6.7 190 18:24 06.04.2020
89 Rain 16 1018 100 2000 4.1 140 17:59 06.04.2020
90 Rain 15 1018 100 2000 4.1 140 17:41 06.04.2020
91 Rain 15 1018 100 1400 4.1 150 17:19 06.04.2020
92 Rain 15 1018 100 1400 4.1 150 16:49 06.04.2020
93 Rain 15 1018 100 1400 4.1 150 16:49 06.04.2020
94 Rain 15 1019 93 4500 5.7 160 16:31 06.04.2020
95 Clouds 16 1019 100 10000 6.2 160 15:40 06.04.2020
96 Clouds 16 1019 100 10000 6.2 160 15:40 06.04.2020
97 Rain 15 1019 93 7000 5.1 170 13:45 06.04.2020
98 Rain 15 1019 93 7000 5.1 170 13:23 06.04.2020
99 Clouds 15 1019 93 10000 5.1 160 12:53 06.04.2020
100 Clouds 15 1019 93 10000 5.1 160 12:53 06.04.2020
101 Clouds 15 1019 93 10000 5.1 160 12:53 06.04.2020
102 Clouds 15 1019 93 10000 4.6 160 12:21 06.04.2020
103 Clouds 15 1019 93 10000 4.6 160 12:21 06.04.2020
104 Rain 15 1018 100 8000 3.1 130 11:54 06.04.2020
105 Rain 15 1018 100 8000 3.1 130 11:54 06.04.2020
106 Rain 15 1018 100 8000 3.1 130 11:54 06.04.2020
107 Rain 15 1018 100 8000 3.1 130 11:54 06.04.2020
108 Rain 15 1018 100 8000 3.1 130 11:54 06.04.2020
109 Rain 15 1018 100 8000 3.1 130 11:28 06.04.2020
110 Rain 15 1018 100 8000 3.1 130 11:28 06.04.2020
111 Rain 15 1018 100 8000 3.1 130 11:28 06.04.2020
112 Rain 15 1018 100 8000 3.1 130 11:28 06.04.2020
113 Rain 15 1018 100 8000 3.1 130 11:28 06.04.2020
114 Clouds 15 1018 100 8000 3.1 150 10:50 06.04.2020
115 Clouds 15 1018 100 8000 3.1 150 10:50 06.04.2020
116 Clouds 15 1018 100 8000 3.1 150 10:50 06.04.2020
117 Clouds 15 1018 100 8000 3.1 150 10:50 06.04.2020
118 Clouds 15 1018 100 8000 3.1 150 10:50 06.04.2020
119 Clouds 14 1018 100 8000 2.1 130 10:21 06.04.2020
120 Clouds 14 1018 100 7000 2.1 150 09:44 06.04.2020
121 Mist 14 1017 100 3000 2.1 160 09:20 06.04.2020
122 Mist 14 1017 100 3000 2.1 150 08:53 06.04.2020
123 Mist 14 1017 100 3000 2.1 150 08:30 06.04.2020
124 Clouds 14 1017 93 10000 1 0 07:26 06.04.2020
125 Fog 14 1017 100 300 1 0 06:40 06.04.2020
126 Fog 14 1017 100 300 1 0 06:40 06.04.2020
127 Fog 14 1017 100 300 1 0 06:18 06.04.2020
128 Fog 14 1017 100 800 2.6 230 04:18 06.04.2020
129 Clouds 13 1017 93 10000 2.1 170 02:56 06.04.2020
130 Mist 14 1017 93 5000 3.1 200 02:18 06.04.2020
131 Clouds 14 1017 93 10000 2.1 240 01:23 06.04.2020
132 Clouds 14 1017 93 10000 2.1 230 00:41 06.04.2020
133 Clouds 14 1017 93 10000 2.1 230 00:21 06.04.2020
134 Clouds 14 1017 93 10000 2.1 230 00:21 06.04.2020
135 Clouds 14 1017 93 10000 2.1 230 00:21 06.04.2020
136 Clouds 14 1016 93 10000 2.1 260 23:41 05.04.2020
137 Clouds 15 1016 93 10000 2.1 260 23:23 05.04.2020
138 Clouds 15 1016 93 10000 2.1 260 23:23 05.04.2020
139 Clouds 15 1016 93 10000 2.1 260 23:21 05.04.2020
140 Clouds 15 1016 93 10000 2.6 250 22:54 05.04.2020
141 Clouds 15 1016 93 10000 2.6 250 22:54 05.04.2020
142 Clouds 15 1015 93 10000 3.1 260 22:36 05.04.2020
143 Clouds 15 1015 87 10000 3.1 270 22:18 05.04.2020
144 Clouds 15 1014 87 10000 3.1 270 21:44 05.04.2020
145 Clouds 15 1014 87 10000 3.1 270 21:44 05.04.2020
146 Clouds 15 1014 87 10000 3.1 270 21:44 05.04.2020
147 Clouds 15 1014 87 10000 3.1 270 21:23 05.04.2020
148 Clouds 16 1014 93 10000 4.6 260 20:25 05.04.2020
149 Clouds 16 1014 93 10000 4.6 260 20:25 05.04.2020
150 Clouds 16 1013 93 10000 6.2 260 20:25 05.04.2020
151 Clouds 16 1012 93 10000 7.7 260 19:45 05.04.2020
152 Clouds 16 1012 93 10000 7.7 260 19:26 05.04.2020
153 Clouds 16 1011 93 8000 8.2 220 18:50 05.04.2020
154 Clouds 17 1011 93 8000 8.2 220 18:28 05.04.2020
155 Clouds 17 1011 93 8000 8.2 220 18:28 05.04.2020
156 Clouds 17 1011 93 8000 8.2 220 18:28 05.04.2020
157 Clouds 17 1011 93 8000 8.2 220 18:28 05.04.2020
158 Clouds 17 1011 93 8000 8.2 220 18:28 05.04.2020
159 Drizzle 17 1011 100 7000 12.9 190 17:50 05.04.2020
160 Drizzle 17 1011 100 7000 12.9 190 17:50 05.04.2020
161 Drizzle 17 1011 100 7000 12.9 190 17:50 05.04.2020
162 Drizzle 17 1011 100 7000 12.9 190 17:49 05.04.2020
163 Drizzle 17 1011 100 7000 12.9 190 17:49 05.04.2020
164 Rain 17 1011 100 6000 10.8 180 17:23 05.04.2020
165 Rain 17 1012 100 8000 9.3 180 16:47 05.04.2020
166 Rain 17 1012 93 6000 9.3 190 16:19 05.04.2020
167 Rain 17 1012 93 8000 9.3 200 15:46 05.04.2020
168 Rain 17 1012 93 8000 9.3 200 15:46 05.04.2020
169 Rain 16 1012 93 8000 9.3 200 15:28 05.04.2020
170 Clouds 17 1012 93 10000 9.3 190 14:48 05.04.2020
171 Clouds 17 1012 93 10000 9.3 190 14:48 05.04.2020
172 Clouds 17 1012 93 10000 9.3 190 14:48 05.04.2020
173 Clouds 17 1012 93 10000 9.3 190 14:48 05.04.2020
174 Clouds 17 1012 93 10000 9.3 190 14:48 05.04.2020
175 Rain 17 1012 100 10000 10.3 190 14:23 05.04.2020
176 Rain 17 1012 100 10000 10.3 190 14:23 05.04.2020
177 Clouds 17 1012 93 10000 9.3 190 14:23 05.04.2020
178 Clouds 17 1012 93 10000 9.3 190 14:23 05.04.2020
179 Clouds 17 1012 93 10000 9.3 190 14:23 05.04.2020
180 Rain 17 1012 100 10000 10.3 190 13:40 05.04.2020
181 Clouds 17 1012 93 10000 8.7 190 12:41 05.04.2020
182 Clouds 17 1012 93 10000 8.7 190 12:41 05.04.2020
183 Clouds 17 1012 93 10000 8.7 190 12:40 05.04.2020
184 Clouds 17 1012 93 10000 8.7 190 12:40 05.04.2020
185 Clouds 17 1012 93 10000 8.7 190 12:32 05.04.2020
186 Drizzle 16 1012 100 9000 6.7 200 11:41 05.04.2020
187 Drizzle 16 1011 100 9000 6.2 180 11:20 05.04.2020
188 Drizzle 16 1011 100 9000 5.7 170 10:48 05.04.2020
189 Rain 16 1012 100 9000 5.7 180 10:24 05.04.2020
190 Rain 16 1012 100 9000 5.7 180 10:24 05.04.2020
191 Drizzle 16 1011 100 9000 5.7 170 10:24 05.04.2020
192 Drizzle 16 1011 100 9000 5.7 170 10:24 05.04.2020
193 Rain 16 1012 100 9000 5.7 180 10:24 05.04.2020
194 Rain 16 1012 100 9000 5.7 180 09:56 05.04.2020
195 Rain 16 1012 100 9000 5.7 180 09:56 05.04.2020
196 Drizzle 16 1012 100 10000 5.7 170 09:31 05.04.2020
197 Drizzle 16 1012 100 10000 5.7 170 09:31 05.04.2020
198 Clouds 16 1011 100 10000 5.7 170 08:39 05.04.2020
199 Clouds 16 1011 100 10000 5.7 170 08:39 05.04.2020
200 Clouds 16 1011 100 10000 5.7 170 08:39 05.04.2020
201 Clouds 16 1011 100 10000 5.7 170 08:38 05.04.2020
202 Clouds 16 1011 100 10000 5.7 170 08:38 05.04.2020
203 Clouds 15 1011 100 10000 6.2 170 07:24 05.04.2020
204 Clouds 15 1011 100 10000 6.2 170 07:24 05.04.2020
205 Clouds 16 1011 82 10000 6.2 160 04:33 05.04.2020
206 Clouds 16 1011 82 10000 6.7 160 03:29 05.04.2020
207 Clouds 16 1011 82 10000 7.7 160 02:49 05.04.2020
208 Clouds 16 1012 82 10000 6.2 170 01:46 05.04.2020
209 Clouds 16 1012 82 10000 6.2 170 01:23 05.04.2020
210 Clouds 16 1012 82 10000 6.7 170 00:43 05.04.2020
211 Clouds 16 1012 82 10000 6.7 170 00:21 05.04.2020
212 Clouds 16 1011 82 10000 7.2 180 23:42 04.04.2020
213 Clouds 16 1011 82 10000 7.2 180 23:42 04.04.2020
214 Clouds 16 1011 77 10000 7.2 180 23:23 04.04.2020
215 Clouds 16 1011 77 10000 7.2 180 22:57 04.04.2020
216 Clouds 16 1011 72 10000 7.2 170 22:39 04.04.2020
217 Clouds 16 1010 77 10000 6.7 170 22:21 04.04.2020
218 Clouds 16 1010 77 10000 6.7 170 21:58 04.04.2020
219 Clouds 16 1010 72 10000 7.2 180 21:39 04.04.2020
220 Clouds 16 1010 77 10000 6.2 160 21:19 04.04.2020
221 Clouds 17 1010 77 10000 6.2 160 20:58 04.04.2020
222 Clouds 17 1010 68 10000 7.7 170 20:39 04.04.2020
223 Clouds 17 1010 68 10000 6.2 170 20:20 04.04.2020
224 Clouds 17 1010 77 10000 6.2 180 19:56 04.04.2020
225 Clouds 17 1010 68 10000 6.2 170 19:36 04.04.2020
226 Clouds 17 1010 68 10000 5.7 170 19:18 04.04.2020
227 Rain 17 1010 72 10000 5.7 180 18:55 04.04.2020
228 Rain 17 1010 72 10000 5.7 180 18:37 04.04.2020
229 Rain 17 1010 67 10000 7.2 170 18:18 04.04.2020
230 Clouds 17 1010 68 10000 5.1 130 17:40 04.04.2020
231 Clouds 17 1010 72 10000 4.6 130 17:20 04.04.2020
232 Clouds 17 1010 72 10000 4.6 130 16:55 04.04.2020
233 Clouds 17 1010 72 10000 4.1 120 16:37 04.04.2020
234 Clouds 17 1010 72 10000 4.1 120 16:37 04.04.2020
235 Clouds 17 1011 77 10000 4.1 130 16:18 04.04.2020
236 Rain 16 1011 77 10000 4.1 140 15:40 04.04.2020
237 Rain 16 1011 72 10000 5.1 130 15:22 04.04.2020
238 Rain 16 1011 72 10000 5.1 130 14:57 04.04.2020
239 Rain 16 1011 72 10000 5.1 130 14:57 04.04.2020
240 Rain 15 1011 77 10000 5.1 140 14:39 04.04.2020
241 Clouds 15 1011 72 10000 5.7 130 14:20 04.04.2020
242 Clouds 15 1011 71 10000 4.6 110 13:55 04.04.2020
243 Clouds 15 1011 71 10000 4.6 110 13:37 04.04.2020
244 Clouds 15 1011 71 10000 4.6 110 13:18 04.04.2020
245 Clouds 15 1011 71 10000 5.1 120 12:44 04.04.2020
246 Clouds 15 1011 71 10000 4.6 120 12:23 04.04.2020
247 Clouds 14 1011 81 10000 3.1 90 11:55 04.04.2020
248 Clouds 14 1010 71 10000 6.2 130 11:37 04.04.2020
249 Clouds 13 1010 87 10000 3.6 90 11:18 04.04.2020
250 Clouds 13 1010 87 10000 3.6 90 10:55 04.04.2020
251 Clouds 13 1010 87 10000 2.6 80 10:37 04.04.2020
252 Clouds 13 1010 87 10000 1.5 70 10:18 04.04.2020
253 Clouds 13 1010 87 10000 1.5 70 09:54 04.04.2020
254 Clouds 12 1010 87 10000 2.6 70 09:36 04.04.2020
255 Clouds 12 1010 87 10000 2.6 60 09:18 04.04.2020
256 Clouds 12 1010 87 10000 2.6 50 08:38 04.04.2020
257 Clouds 11 1010 87 10000 1.5 50 08:19 04.04.2020
258 Clouds 11 1010 87 10000 1.5 50 07:40 04.04.2020
259 Clouds 11 1010 93 10000 2.1 60 07:22 04.04.2020
260 Clouds 11 1010 87 10000 2.1 20 06:46 04.04.2020
261 Clouds 11 1011 81 10000 2.1 80 06:18 04.04.2020
262 Clouds 11 1011 76 10000 1 20 05:40 04.04.2020
263 Clouds 11 1011 76 10000 1 30 05:22 04.04.2020
264 Clouds 11 1011 76 10000 1 30 04:25 04.04.2020
265 Clouds 11 1012 76 10000 2.6 10 03:47 04.04.2020
266 Clouds 12 1012 66 10000 1.5 10 02:49 04.04.2020
267 Clouds 12 1012 66 10000 1.5 10 02:30 04.04.2020
268 Clouds 12 1013 71 10000 1.43 76 01:51 04.04.2020
269 Clouds 13 1013 71 10000 1.43 76 01:24 04.04.2020
270 Clouds 13 1013 66 10000 1.43 76 00:48 04.04.2020
271 Clouds 14 1013 66 10000 1.43 76 00:28 04.04.2020
272 Clouds 14 1013 54 10000 1.5 280 23:39 03.04.2020
273 Clouds 15 1013 51 10000 1.5 280 23:21 03.04.2020
274 Clouds 15 1013 51 10000 1.5 280 22:57 03.04.2020
275 Clouds 15 1013 51 10000 2.1 270 22:39 03.04.2020
276 Clouds 15 1013 51 10000 3.6 250 22:18 03.04.2020
277 Clouds 16 1013 48 10000 3.6 250 21:43 03.04.2020
278 Clear 16 1013 42 10000 4.1 250 21:24 03.04.2020
279 Clear 17 1013 39 10000 4.6 230 20:57 03.04.2020
280 Clear 17 1013 39 10000 4.6 230 20:57 03.04.2020
281 Clear 17 1013 39 10000 4.6 230 20:37 03.04.2020
282 Clear 18 1013 39 10000 3.1 230 20:19 03.04.2020
283 Clouds 18 1012 59 10000 4.1 260 19:57 03.04.2020
284 Clear 19 1013 39 10000 3.1 230 19:38 03.04.2020
285 Clear 19 1013 39 10000 3.1 230 19:38 03.04.2020
286 Clear 19 1012 39 10000 3.1 220 19:20 03.04.2020
287 Clear 19 1013 39 10000 4.1 240 18:58 03.04.2020
288 Clear 19 1013 39 10000 4.1 240 18:40 03.04.2020
289 Clouds 19 1013 42 10000 4.6 240 18:22 03.04.2020
290 Clouds 19 1013 39 10000 5.1 220 17:54 03.04.2020
291 Clouds 19 1013 39 10000 5.1 220 17:36 03.04.2020
292 Clouds 19 1014 48 10000 4.6 220 17:18 03.04.2020
293 Clouds 19 1014 48 10000 4.6 220 16:42 03.04.2020
294 Clouds 19 1014 45 10000 3.6 180 16:21 03.04.2020
295 Clouds 19 1014 45 10000 3.6 180 15:58 03.04.2020
296 Clouds 19 1014 52 10000 2.1 140 15:39 03.04.2020
297 Clouds 19 1015 52 10000 2.6 120 15:19 03.04.2020
298 Clear 18 1016 59 10000 2.6 90 14:55 03.04.2020
299 Clear 18 1016 59 10000 2.6 90 14:55 03.04.2020
300 Clear 18 1016 59 10000 2.6 90 14:37 03.04.2020
301 Clear 18 1016 59 10000 2.6 90 14:19 03.04.2020
302 Clear 17 1016 59 10000 2.6 90 13:42 03.04.2020
303 Clear 17 1016 63 10000 2.6 80 13:24 03.04.2020
304 Clouds 16 1016 67 10000 2.6 110 12:44 03.04.2020
305 Clouds 15 1016 76 10000 2.1 0 12:21 03.04.2020
306 Clouds 15 1016 76 10000 2.1 0 11:57 03.04.2020
307 Clouds 14 1016 82 10000 2.1 110 11:39 03.04.2020
308 Clouds 14 1016 87 10000 2.6 60 11:21 03.04.2020
309 Clouds 14 1016 87 10000 2.6 60 11:21 03.04.2020
310 Clouds 13 1016 87 10000 2.6 60 10:59 03.04.2020
311 Fog 13 1016 93 10000 1.5 50 10:39 03.04.2020
312 Fog 12 1016 100 10000 1.86 115 10:20 03.04.2020
313 Fog 11 1016 100 10000 1.86 115 09:59 03.04.2020
314 Clouds 10 1016 100 10000 2.1 20 09:40 03.04.2020
315 Clouds 10 1016 100 10000 2.1 20 09:40 03.04.2020
316 Clouds 9 1016 100 10000 1 0 09:22 03.04.2020
317 Clouds 9 1015 93 10000 0.5 0 08:56 03.04.2020
318 Clouds 9 1015 93 10000 0.5 0 08:38 03.04.2020
319 Clouds 9 1015 93 10000 0.5 0 08:20 03.04.2020
320 Clouds 9 1015 100 10000 1 0 07:46 03.04.2020
321 Clear 9 1015 93 10000 3.6 310 07:28 03.04.2020
322 Clear 10 1015 87 10000 3.6 310 06:42 03.04.2020
323 Clear 10 1015 93 10000 3.1 300 06:23 03.04.2020
324 Clear 10 1015 87 10000 3.1 320 05:39 03.04.2020
325 Clear 10 1016 87 10000 1.5 40 03:42 03.04.2020
326 Clear 11 1016 81 10000 3.6 310 02:56 03.04.2020
327 Clear 11 1016 87 10000 4.1 320 02:18 03.04.2020
328 Clear 12 1017 81 10000 3.6 310 01:22 03.04.2020
329 Clear 12 1017 87 10000 4.6 310 00:37 03.04.2020
330 Clear 12 1017 87 10000 4.6 310 00:19 03.04.2020
331 Clouds 12 1016 87 10000 4.1 310 23:42 02.04.2020
332 Clouds 12 1016 87 10000 4.1 330 23:23 02.04.2020
333 Clouds 12 1016 87 10000 4.1 330 22:58 02.04.2020
334 Clouds 13 1016 82 10000 4.1 310 22:38 02.04.2020
335 Clouds 13 1016 82 10000 4.6 300 22:20 02.04.2020
336 Clouds 13 1016 76 10000 3.6 310 21:39 02.04.2020
337 Clouds 14 1015 67 10000 3.6 330 21:20 02.04.2020
338 Clouds 14 1015 67 10000 3.6 330 20:58 02.04.2020
339 Clouds 15 1015 59 10000 3.6 310 20:40 02.04.2020
340 Clouds 16 1015 59 10000 4.6 310 20:21 02.04.2020
341 Clouds 16 1015 59 10000 4.6 310 19:44 02.04.2020
342 Clouds 17 1015 51 10000 5.7 330 19:21 02.04.2020
343 Clouds 17 1015 45 10000 4.6 300 18:59 02.04.2020
344 Clouds 18 1015 45 10000 4.6 300 18:39 02.04.2020
345 Clouds 17 1015 42 10000 4.6 310 18:20 02.04.2020
346 Clouds 18 1015 42 10000 4.6 310 17:57 02.04.2020
347 Clouds 18 1015 39 10000 4.6 300 17:39 02.04.2020
348 Clouds 18 1015 45 10000 6.2 340 17:20 02.04.2020
349 Clouds 18 1015 45 10000 6.2 340 16:56 02.04.2020
350 Clouds 18 1015 39 10000 4.6 320 16:37 02.04.2020
351 Clouds 18 1015 45 10000 6.2 330 16:19 02.04.2020
352 Clouds 18 1015 55 10000 5.1 330 15:54 02.04.2020
353 Clouds 17 1015 55 10000 5.1 330 15:36 02.04.2020
354 Clouds 17 1015 55 10000 4.1 320 15:18 02.04.2020
355 Clouds 17 1015 55 10000 3.6 320 14:40 02.04.2020
356 Clouds 17 1015 55 10000 3.6 320 14:21 02.04.2020
357 Clouds 17 1015 59 10000 4.1 310 13:58 02.04.2020
358 Clouds 16 1015 59 10000 4.1 310 13:39 02.04.2020
359 Clouds 16 1015 59 10000 4.1 310 13:21 02.04.2020
360 Clouds 16 1015 59 10000 4.1 310 12:56 02.04.2020
361 Clouds 16 1015 59 10000 4.1 310 12:56 02.04.2020
362 Clouds 16 1015 59 10000 4.1 310 12:56 02.04.2020
363 Clouds 16 1015 59 10000 3.6 10 12:37 02.04.2020
364 Clouds 14 1015 67 10000 3.1 350 12:19 02.04.2020
365 Clear 14 1014 71 10000 4.6 340 11:57 02.04.2020
366 Clear 14 1014 71 10000 4.6 340 11:38 02.04.2020
367 Clear 13 1014 76 10000 4.6 330 11:19 02.04.2020
368 Clear 13 1014 76 10000 4.6 330 10:55 02.04.2020
369 Clear 12 1014 76 10000 4.6 330 10:37 02.04.2020
370 Clouds 11 1013 81 10000 3.6 320 10:19 02.04.2020
371 Clouds 9 1013 81 10000 3.1 310 09:43 02.04.2020
372 Clouds 9 1013 87 10000 3.1 300 09:25 02.04.2020
373 Clouds 8 1013 87 10000 3.1 300 08:59 02.04.2020
374 Clouds 8 1012 93 10000 1.5 290 08:40 02.04.2020
375 Clouds 7 1012 93 10000 1.5 290 08:22 02.04.2020
376 Clear 7 1012 87 10000 2.6 340 07:45 02.04.2020
377 Clouds 8 1012 87 10000 2.1 310 07:20 02.04.2020
378 Clouds 8 1012 87 10000 2.1 310 06:58 02.04.2020
379 Clouds 8 1012 87 10000 3.1 320 06:21 02.04.2020
380 Clouds 8 1012 87 10000 2.6 310 05:45 02.04.2020
381 Clouds 8 1011 93 10000 2.1 330 04:35 02.04.2020
382 Clouds 8 1011 93 10000 4.6 330 01:51 02.04.2020
383 Clouds 8 1011 93 10000 4.1 340 00:50 02.04.2020
384 Clouds 8 1011 93 10000 4.1 340 00:28 02.04.2020
385 Clouds 8 1011 87 10000 2.6 330 23:57 01.04.2020
386 Clouds 9 1010 81 10000 1.5 310 23:37 01.04.2020
387 Clouds 9 1010 81 10000 1.5 310 23:37 01.04.2020
388 Clouds 9 1010 81 10000 2.6 260 23:18 01.04.2020
389 Clouds 10 1010 81 10000 1.5 240 22:41 01.04.2020
390 Clouds 9 1009 87 10000 2.6 250 22:22 01.04.2020
391 Clouds 10 1009 87 10000 2.6 250 21:57 01.04.2020
392 Clouds 10 1009 76 10000 2.6 230 21:39 01.04.2020
393 Clouds 10 1009 76 10000 2.6 250 21:18 01.04.2020
394 Clouds 11 1009 76 10000 2.6 250 20:55 01.04.2020
395 Rain 11 1008 71 10000 5.1 260 20:37 01.04.2020
396 Clouds 12 1008 71 10000 3.6 270 20:18 01.04.2020
397 Clouds 12 1008 71 10000 3.6 270 19:43 01.04.2020
398 Clouds 12 1008 71 10000 4.1 290 19:22 01.04.2020
399 Clouds 12 1008 71 10000 4.1 290 18:59 01.04.2020
400 Clouds 12 1008 71 10000 4.1 290 18:59 01.04.2020
401 Clouds 12 1008 71 10000 4.1 290 18:59 01.04.2020
402 Clouds 13 1008 66 10000 4.1 280 18:40 01.04.2020
403 Clouds 13 1008 76 10000 5.1 240 18:21 01.04.2020
404 Clouds 12 1007 76 10000 6.2 240 17:56 01.04.2020
405 Clouds 12 1007 76 10000 6.2 240 17:56 01.04.2020
406 Clouds 12 1007 76 10000 6.2 240 17:36 01.04.2020
407 Rain 12 1007 93 10000 5.7 190 17:18 01.04.2020
408 Rain 12 1007 93 10000 5.7 190 16:54 01.04.2020
409 Rain 12 1007 93 10000 5.7 190 16:36 01.04.2020
410 Rain 11 1008 93 6000 3.6 130 16:18 01.04.2020
411 Rain 10 1009 100 6000 3.6 110 15:42 01.04.2020
412 Rain 10 1009 100 8000 4.1 150 15:22 01.04.2020
413 Rain 10 1009 100 8000 4.1 150 14:58 01.04.2020
414 Rain 10 1009 100 6000 3.6 170 14:39 01.04.2020
415 Rain 10 1010 100 8000 2.6 180 14:20 01.04.2020
416 Rain 10 1010 100 8000 2.6 180 13:59 01.04.2020
417 Rain 10 1010 87 10000 2.6 230 13:38 01.04.2020
418 Rain 10 1010 93 6000 3.1 150 13:19 01.04.2020
419 Rain 10 1010 93 6000 3.1 150 12:57 01.04.2020
420 Rain 10 1010 100 7000 2.1 130 12:37 01.04.2020
421 Rain 9 1010 100 8000 3.6 140 12:18 01.04.2020
422 Rain 9 1010 100 8000 3.6 140 12:18 01.04.2020
423 Clouds 10 1009 93 10000 3.6 130 11:56 01.04.2020
424 Clouds 10 1009 93 10000 3.6 130 11:37 01.04.2020
425 Clouds 10 1009 93 10000 3.6 130 11:37 01.04.2020
426 Clouds 10 1009 93 10000 3.6 130 11:37 01.04.2020
427 Clouds 9 1009 100 10000 3.1 120 11:18 01.04.2020
428 Clouds 9 1010 93 10000 2.6 100 10:38 01.04.2020
429 Rain 8 1009 100 10000 2.6 130 10:20 01.04.2020
430 Rain 8 1009 100 10000 2.6 130 09:58 01.04.2020
431 Thunderstorm 8 1010 93 8000 4.6 270 09:39 01.04.2020
432 Thunderstorm 7 1009 100 10000 1 0 09:19 01.04.2020
433 Clouds 7 1009 100 10000 1 10 08:44 01.04.2020
434 Clouds 8 1009 100 10000 1.5 0 08:19 01.04.2020
435 Clouds 7 1009 100 10000 2.85 230 07:56 01.04.2020
436 Clouds 7 1009 100 10000 2.85 230 07:38 01.04.2020
437 Clouds 7 1009 100 10000 2.85 230 07:18 01.04.2020
438 Clouds 7 1009 100 10000 0.5 0 06:39 01.04.2020
439 Clouds 7 1009 93 10000 4.16 208 06:20 01.04.2020
440 Clouds 8 1009 93 10000 2.1 230 04:55 01.04.2020
441 Clouds 8 1009 93 10000 2.6 270 03:36 01.04.2020
442 Clouds 8 1009 81 10000 1.5 190 02:59 01.04.2020
443 Clouds 8 1009 93 10000 1 230 02:31 01.04.2020
444 Clouds 8 1009 81 10000 1 180 01:46 01.04.2020
445 Clouds 9 1009 81 10000 1 180 01:24 01.04.2020
446 Clouds 9 1009 76 10000 1.5 260 00:47 01.04.2020
447 Clouds 10 1009 70 10000 2.1 270 00:22 01.04.2020
448 Clouds 9 1009 75 10000 3.19 272 23:55 31.03.2020
449 Clouds 9 1009 75 10000 3.19 272 23:37 31.03.2020
450 Clouds 10 1009 70 10000 1 0 23:19 31.03.2020
451 Clouds 10 1009 70 10000 2.1 230 22:40 31.03.2020
452 Clouds 10 1008 61 10000 2.6 240 22:21 31.03.2020
453 Clouds 10 1008 57 10000 3.1 260 21:58 31.03.2020
454 Clouds 10 1008 57 10000 3.1 260 21:39 31.03.2020
455 Clouds 11 1007 57 10000 4.6 250 21:21 31.03.2020
456 Clouds 11 1007 57 10000 3.6 270 20:57 31.03.2020
457 Clouds 11 1006 57 10000 4.1 260 20:37 31.03.2020
458 Clouds 11 1006 57 10000 4.1 260 20:19 31.03.2020
459 Clouds 11 1006 54 10000 4.1 270 19:56 31.03.2020
460 Clouds 11 1006 54 10000 4.1 270 19:37 31.03.2020
461 Clouds 11 1006 57 10000 4.6 270 19:19 31.03.2020
462 Clouds 12 1006 62 10000 4.6 280 18:43 31.03.2020
463 Clouds 12 1005 58 10000 5.7 260 18:20 31.03.2020
464 Clouds 12 1005 50 10000 4.6 280 17:57 31.03.2020
465 Clouds 12 1005 50 10000 4.6 280 17:39 31.03.2020
466 Clouds 12 1005 58 10000 4.6 290 17:21 31.03.2020
467 Clouds 12 1005 58 10000 4.6 290 16:56 31.03.2020
468 Clouds 12 1005 58 10000 4.1 280 16:36 31.03.2020
469 Clouds 11 1005 71 10000 3.6 260 16:18 31.03.2020
470 Clouds 11 1005 71 10000 3.6 260 15:55 31.03.2020
471 Clouds 11 1005 76 10000 1.5 0 15:36 31.03.2020
472 Clouds 10 1005 81 10000 1.5 250 15:18 31.03.2020
473 Clouds 10 1005 81 10000 1 0 14:42 31.03.2020
474 Clouds 10 1005 81 10000 1 0 14:23 31.03.2020
475 Clouds 9 1005 87 10000 1.5 360 13:59 31.03.2020
476 Clouds 9 1005 81 10000 2.1 360 13:40 31.03.2020
477 Clouds 9 1005 81 10000 2.1 360 13:19 31.03.2020
478 Clouds 9 1005 81 10000 2.6 360 12:46 31.03.2020
479 Clouds 8 1005 87 10000 3.6 360 12:21 31.03.2020
480 Clouds 8 1005 87 10000 3.6 360 12:21 31.03.2020
481 Clouds 8 1005 87 10000 3.6 360 11:59 31.03.2020
482 Clouds 7 1004 87 10000 3.6 360 11:38 31.03.2020
483 Clouds 8 1004 87 10000 4.6 10 11:19 31.03.2020
484 Clouds 7 1004 87 10000 4.6 10 10:56 31.03.2020
485 Clouds 7 1004 87 10000 4.6 10 10:38 31.03.2020
486 Clouds 7 1004 87 10000 4.1 360 10:20 31.03.2020
487 Clouds 7 1004 87 10000 4.1 360 09:55 31.03.2020
488 Clouds 7 1004 87 10000 5.7 20 09:37 31.03.2020
489 Clouds 7 1004 87 10000 5.7 20 09:19 31.03.2020
490 Clouds 7 1003 93 10000 5.1 10 08:54 31.03.2020
491 Clouds 7 1003 93 10000 5.1 10 08:36 31.03.2020
492 Clouds 7 1003 93 10000 6.2 20 08:18 31.03.2020
493 Clouds 7 1003 93 10000 6.2 20 07:43 31.03.2020
494 Clouds 7 1003 87 10000 7.2 30 07:23 31.03.2020
495 Drizzle 7 1003 87 10000 5.7 30 06:58 31.03.2020
496 Drizzle 7 1003 87 10000 5.7 30 06:39 31.03.2020
497 Drizzle 7 1003 87 10000 5.7 40 05:42 31.03.2020
498 Clouds 7 1004 93 10000 6.2 30 05:23 31.03.2020
499 Drizzle 8 1004 93 10000 7.7 40 02:56 31.03.2020
500 Clouds 8 1005 93 10000 8.7 30 01:47 31.03.2020
501 Clouds 8 1005 93 10000 8.7 30 01:22 31.03.2020
502 Clouds 8 1005 93 10000 7.7 40 00:43 31.03.2020
503 Clouds 9 1005 93 10000 6.7 40 00:23 31.03.2020
504 Clouds 9 1005 100 10000 7.7 40 23:40 30.03.2020
505 Rain 9 1005 93 10000 7.2 40 23:20 30.03.2020
506 Rain 10 1005 93 10000 7.2 40 22:58 30.03.2020
507 Drizzle 10 1006 93 10000 7.2 40 22:38 30.03.2020
508 Rain 10 1006 93 10000 8.2 30 22:19 30.03.2020
509 Rain 10 1006 93 10000 8.2 30 21:57 30.03.2020
510 Rain 11 1005 93 10000 7.7 30 21:38 30.03.2020
511 Rain 11 1005 87 10000 6.2 40 21:20 30.03.2020
512 -273 0 0 0 0 0 21:20 30.03.2020
513 -273 0 0 0 0 0 21:20 30.03.2020
514 Rain 12 1005 87 10000 6.2 40 20:58 30.03.2020
515 Clouds 12 1006 81 10000 5.7 40 20:39 30.03.2020
516 Clouds 12 1006 93 10000 5.7 50 20:19 30.03.2020
517 Clouds 12 1006 93 10000 6.2 40 19:56 30.03.2020
518 Clouds 13 1006 93 10000 6.2 40 19:37 30.03.2020
519 Clouds 13 1006 93 10000 6.2 40 19:19 30.03.2020
520 Clouds 14 1006 87 10000 5.1 50 18:42 30.03.2020
521 Clouds 13 1007 93 10000 4.6 50 18:24 30.03.2020
522 Clouds 13 1007 93 10000 4.1 60 17:58 30.03.2020
523 Clouds 14 1007 93 10000 4.1 60 17:39 30.03.2020
524 Rain 13 1008 100 10000 4.1 50 17:19 30.03.2020
525 Rain 13 1008 100 10000 4.1 50 16:57 30.03.2020
526 Drizzle 14 1008 93 9000 5.1 70 16:39 30.03.2020
527 Drizzle 13 1009 93 7000 3.6 70 16:20 30.03.2020
528 Drizzle 13 1009 93 7000 3.6 70 16:20 30.03.2020
529 Drizzle 13 1009 93 7000 3.6 70 15:55 30.03.2020
530 Drizzle 13 1009 93 4000 4.1 70 15:37 30.03.2020
531 Rain 13 1010 87 10000 4.1 70 15:19 30.03.2020
532 Rain 13 1010 87 10000 4.1 70 15:19 30.03.2020
533 Rain 13 1010 87 10000 4.1 70 14:55 30.03.2020
534 Clouds 13 1010 87 10000 4.6 70 14:37 30.03.2020
535 Clouds 13 1010 93 9000 5.1 60 14:18 30.03.2020
536 Clouds 13 1010 87 10000 4.1 50 13:55 30.03.2020
537 Clouds 13 1010 93 9000 5.7 60 13:37 30.03.2020
538 Rain 13 1011 100 10000 3.6 90 13:18 30.03.2020
539 Rain 13 1011 100 10000 3.6 90 12:43 30.03.2020
540 Rain 13 1011 93 5000 2.1 80 12:20 30.03.2020
541 Drizzle 13 1012 93 9000 1 0 11:57 30.03.2020
542 Drizzle 13 1012 93 9000 1 0 11:39 30.03.2020
543 Clouds 12 1012 93 9000 1.5 340 11:21 30.03.2020
544 Clouds 12 1012 100 10000 2.1 60 10:41 30.03.2020
545 Clouds 12 1012 100 10000 2.1 60 10:23 30.03.2020
546 Clouds 12 1012 100 9000 2.1 80 09:59 30.03.2020
547 Clouds 12 1012 93 9000 1.5 350 09:40 30.03.2020
548 Clouds 12 1012 93 10000 1.5 350 09:19 30.03.2020
549 Clouds 12 1012 93 10000 1 50 08:47 30.03.2020
550 Clouds 12 1012 93 10000 1 50 08:28 30.03.2020
551 Clouds 12 1012 93 10000 1 40 07:55 30.03.2020
552 Clouds 12 1012 93 10000 1 40 07:37 30.03.2020
553 Clouds 12 1012 93 10000 0.5 350 07:18 30.03.2020
554 Clouds 12 1012 93 10000 1.5 30 06:37 30.03.2020
555 Clouds 12 1013 87 10000 0.36 95 06:18 30.03.2020
556 Clouds 12 1014 87 10000 0.36 95 05:39 30.03.2020
557 Clouds 12 1014 87 10000 0.36 95 04:28 30.03.2020
558 Clouds 12 1015 93 10000 1.5 250 03:52 30.03.2020
559 Clouds 12 1015 87 10000 1.5 260 02:44 30.03.2020
560 Clouds 12 1016 87 10000 2.1 250 01:54 30.03.2020
561 Clouds 12 1016 87 10000 2.1 250 00:57 30.03.2020
562 Clouds 12 1016 87 10000 1 0 00:26 30.03.2020
563 Clouds 13 1016 76 10000 1.5 240 23:55 29.03.2020
564 Clouds 13 1016 76 10000 1.5 240 23:36 29.03.2020
565 Clouds 13 1016 76 10000 1.5 300 23:18 29.03.2020
566 Clouds 13 1016 71 10000 2.6 240 22:40 29.03.2020
567 Clouds 14 1016 67 10000 2.6 250 22:20 29.03.2020
568 Clouds 14 1016 76 10000 2.6 250 21:59 29.03.2020
569 Clouds 14 1016 54 10000 3.6 240 21:38 29.03.2020
570 Clouds 15 1016 54 10000 3.6 240 21:20 29.03.2020
571 Clouds 15 1016 58 10000 4.1 230 20:55 29.03.2020
572 Clouds 15 1016 58 10000 4.1 230 20:55 29.03.2020
573 Clouds 15 1016 58 10000 4.1 230 20:37 29.03.2020
574 Clouds 15 1016 55 10000 4.1 230 20:19 29.03.2020
575 Clouds 16 1016 59 10000 4.6 240 19:56 29.03.2020
576 Clouds 16 1016 59 10000 4.6 240 19:38 29.03.2020
577 Clouds 16 1016 51 10000 4.6 230 19:19 29.03.2020
578 Clouds 16 1016 42 10000 5.7 210 18:57 29.03.2020
579 Clouds 17 1016 42 10000 5.7 210 18:38 29.03.2020
580 Clouds 17 1016 51 10000 5.1 220 18:18 29.03.2020
581 Clouds 17 1017 51 10000 5.7 220 17:55 29.03.2020
582 Clouds 16 1017 51 10000 5.7 220 17:37 29.03.2020
583 Clouds 17 1017 59 10000 6.2 210 17:18 29.03.2020
584 Clouds 17 1017 59 10000 6.2 210 16:55 29.03.2020
585 Clouds 17 1017 59 10000 6.2 210 16:36 29.03.2020
586 Clouds 17 1018 59 10000 6.2 210 16:18 29.03.2020
587 Clouds 17 1018 59 10000 6.2 220 15:41 29.03.2020
588 Clouds 17 1018 63 10000 6.2 210 15:23 29.03.2020
589 Clouds 17 1018 63 10000 6.2 210 15:23 29.03.2020
590 Clouds 18 1018 55 10000 4.1 190 14:57 29.03.2020
591 Clouds 18 1018 55 10000 4.1 190 14:39 29.03.2020
592 Clouds 17 1018 55 10000 4.1 190 14:20 29.03.2020
593 Clouds 17 1018 52 10000 3.6 150 13:57 29.03.2020
594 Clouds 17 1018 52 10000 3.6 150 13:57 29.03.2020
595 Clouds 17 1018 52 10000 3.6 150 13:39 29.03.2020
596 Clouds 16 1018 72 10000 2.6 130 13:19 29.03.2020
597 Clouds 16 1018 67 10000 4.6 190 12:55 29.03.2020
598 Clouds 16 1018 67 10000 4.6 190 12:37 29.03.2020
599 Clouds 16 1018 67 10000 3.1 170 12:18 29.03.2020
600 Clouds 14 1018 76 10000 2.1 140 11:40 29.03.2020
601 Clouds 14 1018 87 10000 1.5 60 11:21 29.03.2020
602 Clouds 13 1018 87 10000 1.5 60 10:59 29.03.2020
603 Clouds 13 1018 87 10000 1.5 60 10:38 29.03.2020
604 Clouds 13 1018 93 10000 1.5 50 10:18 29.03.2020
605 Clouds 13 1018 93 10000 1.5 50 10:18 29.03.2020
606 Clouds 11 1018 93 10000 1 10 09:41 29.03.2020
607 Clouds 11 1018 93 10000 2.1 30 09:20 29.03.2020
608 Clouds 11 1018 93 10000 2.1 30 08:54 29.03.2020
609 Clouds 11 1018 93 10000 2.1 30 08:54 29.03.2020
610 Clouds 11 1017 87 10000 2.6 60 08:30 29.03.2020
611 Clouds 11 1017 87 10000 2.6 60 07:59 29.03.2020
612 Clouds 11 1017 87 10000 3.1 70 07:41 29.03.2020
613 Clouds 11 1017 87 10000 0.5 0 07:21 29.03.2020
614 Clouds 11 1018 76 10000 2.53 74 05:46 29.03.2020
615 Clouds 11 1018 76 10000 1 320 04:27 29.03.2020
616 Clouds 12 1018 76 10000 1.5 350 03:31 29.03.2020
617 Clouds 12 1018 71 10000 3.1 310 01:51 29.03.2020
618 Clouds 13 1018 71 10000 3.1 310 01:23 29.03.2020
619 Clouds 12 1018 76 10000 3.1 320 00:56 29.03.2020
620 Clouds 12 1018 76 10000 3.1 320 00:33 29.03.2020
621 Clouds 13 1018 76 10000 3.6 320 23:56 28.03.2020
622 Clouds 13 1018 76 10000 3.6 320 23:38 28.03.2020
623 Clouds 13 1018 71 10000 3.6 320 23:18 28.03.2020
624 Clouds 13 1018 71 10000 5.1 320 22:39 28.03.2020
625 Clouds 13 1018 71 10000 4.6 320 22:21 28.03.2020
626 Clouds 13 1017 67 10000 3.6 310 21:55 28.03.2020
627 Clouds 13 1017 67 10000 3.6 310 21:37 28.03.2020
628 Clouds 14 1017 58 10000 2.6 340 21:18 28.03.2020
629 Clouds 14 1016 48 10000 3.6 40 20:42 28.03.2020
630 Clouds 15 1016 48 10000 4.1 60 20:24 28.03.2020
631 Clouds 15 1016 48 10000 4.1 60 19:58 28.03.2020
632 Clouds 16 1016 48 10000 4.1 60 19:39 28.03.2020
633 Clouds 16 1016 45 10000 2.1 30 19:21 28.03.2020
634 Clouds 17 1016 45 10000 2.1 30 18:59 28.03.2020
635 Clouds 17 1016 45 10000 3.6 40 18:39 28.03.2020
636 Clouds 17 1016 39 10000 3.1 90 18:20 28.03.2020
637 Clouds 17 1015 42 10000 3.1 30 17:39 28.03.2020
638 Clouds 17 1015 39 10000 3.6 60 17:21 28.03.2020
639 Clouds 17 1015 45 10000 3.6 30 16:55 28.03.2020
640 Clouds 17 1015 45 10000 3.6 30 16:37 28.03.2020
641 Clouds 17 1015 45 10000 3.6 30 16:37 28.03.2020
642 Clouds 17 1016 45 10000 4.1 90 16:18 28.03.2020
643 Clouds 17 1016 45 10000 4.1 70 15:39 28.03.2020
644 Clouds 17 1016 45 10000 5.1 70 15:19 28.03.2020
645 Clouds 17 1016 48 10000 6.2 80 14:57 28.03.2020
646 Clouds 17 1016 48 10000 6.2 80 14:39 28.03.2020
647 Clouds 16 1016 51 10000 5.7 80 14:20 28.03.2020
648 Clouds 16 1016 51 10000 5.7 80 14:20 28.03.2020
649 Clouds 16 1016 51 10000 5.7 80 13:41 28.03.2020
650 Clouds 16 1016 51 10000 7.2 40 13:22 28.03.2020
651 Clouds 15 1016 51 10000 6.2 50 12:41 28.03.2020
652 Clouds 14 1016 54 10000 6.7 40 12:22 28.03.2020
653 Clouds 14 1016 58 10000 7.2 60 11:43 28.03.2020
654 Clouds 13 1016 58 10000 7.2 60 11:23 28.03.2020
655 Clouds 12 1016 62 10000 5.7 50 10:58 28.03.2020
656 Clouds 12 1016 62 10000 5.7 50 10:38 28.03.2020
657 Clouds 12 1016 66 10000 4.6 60 10:18 28.03.2020
658 Clouds 11 1016 71 10000 4.6 60 09:43 28.03.2020
659 Clouds 11 1016 70 10000 4.1 50 09:23 28.03.2020
660 Clouds 10 1016 70 10000 4.1 50 08:55 28.03.2020
661 Clouds 10 1015 75 10000 4.1 50 08:37 28.03.2020
662 Clouds 9 1015 75 10000 3.6 50 08:18 28.03.2020
663 Clouds 8 1015 75 10000 3.6 50 07:42 28.03.2020
664 Clouds 8 1015 75 10000 3.1 50 06:59 28.03.2020
665 Clouds 9 1015 75 10000 3.6 50 06:35 28.03.2020
666 Clouds 9 1014 76 10000 3.1 50 05:43 28.03.2020
667 Clouds 9 1014 76 10000 3.1 50 05:21 28.03.2020
668 Clouds 10 1014 71 10000 3.6 50 04:41 28.03.2020
669 Clouds 11 1014 71 10000 4.1 60 03:54 28.03.2020
670 Clouds 11 1014 76 10000 3.1 330 02:21 28.03.2020
671 Clouds 11 1014 76 10000 2.6 320 01:30 28.03.2020
672 Clouds 12 1013 76 10000 3.1 330 00:59 28.03.2020
673 Clouds 12 1013 76 10000 3.1 330 00:36 28.03.2020
674 Clouds 12 1013 71 10000 4.1 320 23:57 27.03.2020
675 Clouds 12 1013 71 10000 4.1 320 23:39 27.03.2020
676 Clouds 12 1013 76 10000 4.1 330 23:21 27.03.2020
677 Clouds 12 1013 66 10000 4.1 310 22:56 27.03.2020
678 Clouds 12 1013 66 10000 4.1 310 22:37 27.03.2020
679 Clouds 12 1013 66 10000 4.1 310 22:37 27.03.2020
680 Clouds 12 1012 66 10000 5.1 320 22:19 27.03.2020
681 Clouds 12 1012 66 10000 5.1 320 21:44 27.03.2020
682 Clouds 12 1011 76 10000 6.2 310 21:25 27.03.2020
683 Clouds 12 1011 76 10000 6.2 310 21:25 27.03.2020
684 Clouds 12 1011 71 10000 4.1 320 20:59 27.03.2020
685 Clouds 13 1011 76 10000 6.2 310 20:41 27.03.2020
686 Clouds 13 1010 67 10000 4.6 300 20:20 27.03.2020
687 Clouds 13 1010 62 10000 3.6 280 19:58 27.03.2020
688 Clouds 14 1010 62 10000 4.1 300 19:40 27.03.2020
689 Clouds 14 1010 58 10000 4.1 300 19:20 27.03.2020
690 Clouds 15 1010 58 10000 4.1 300 18:44 27.03.2020
691 Clouds 16 1010 55 10000 3.6 310 18:25 27.03.2020
692 Clouds 16 1010 55 10000 3.1 310 17:59 27.03.2020
693 Clouds 16 1010 55 10000 3.1 310 17:39 27.03.2020
694 Clouds 16 1009 51 10000 4.1 310 17:20 27.03.2020
695 Clouds 17 1009 51 10000 3.6 310 16:44 27.03.2020
696 Clouds 17 1010 48 10000 3.1 300 16:25 27.03.2020
697 Clouds 17 1009 45 10000 3.1 340 15:56 27.03.2020
698 Clouds 16 1010 48 10000 3.1 300 15:38 27.03.2020
699 Clouds 17 1010 45 10000 2.1 10 15:20 27.03.2020
700 Clouds 16 1010 55 10000 3.6 270 14:45 27.03.2020
701 Clouds 16 1010 51 10000 2.6 0 14:24 27.03.2020
702 Clouds 16 1010 51 10000 2.6 0 13:56 27.03.2020
703 Clouds 16 1010 51 10000 2.6 0 13:37 27.03.2020
704 Clouds 15 1010 48 10000 3.6 290 13:18 27.03.2020
705 Clouds 15 1011 54 10000 3.6 330 12:45 27.03.2020
706 Clouds 14 1011 58 10000 3.6 310 12:20 27.03.2020
707 Clouds 14 1011 58 10000 4.1 350 11:59 27.03.2020
708 Clouds 14 1011 58 10000 4.1 350 11:59 27.03.2020
709 Clouds 14 1011 58 10000 4.1 350 11:59 27.03.2020
710 Clouds 14 1011 58 10000 4.1 350 11:40 27.03.2020
711 Clouds 14 1011 62 10000 5.1 350 11:22 27.03.2020
712 Clouds 13 1011 62 10000 5.1 340 10:54 27.03.2020
713 Clouds 13 1011 62 10000 5.1 340 10:36 27.03.2020
714 Clouds 13 1010 76 10000 2.6 340 10:18 27.03.2020
715 Clouds 12 1010 76 10000 2.6 340 09:54 27.03.2020
716 Clouds 12 1010 76 10000 2.6 340 09:36 27.03.2020
717 Clouds 12 1010 81 10000 1 0 09:18 27.03.2020
718 Clouds 11 1010 87 10000 2.1 250 08:54 27.03.2020
719 Clouds 11 1010 87 10000 2.1 250 08:36 27.03.2020
720 Clouds 10 1010 87 10000 1.5 240 08:18 27.03.2020
721 Clouds 10 1010 87 10000 1.5 240 07:41 27.03.2020
722 Clouds 10 1010 81 10000 1 0 07:21 27.03.2020
723 Clouds 10 1010 81 10000 0.5 0 06:41 27.03.2020
724 Clouds 10 1010 81 10000 2.6 320 06:18 27.03.2020
725 Clouds 11 1011 81 10000 3.6 310 03:42 27.03.2020
726 Clouds 11 1011 81 10000 2.1 290 02:19 27.03.2020
727 Clouds 11 1011 81 10000 2.1 290 01:19 27.03.2020
728 Clouds 11 1012 81 10000 1 0 00:44 27.03.2020
729 Clouds 11 1012 76 10000 1.5 0 00:20 27.03.2020
730 Clouds 12 1012 81 10000 2.1 330 23:42 26.03.2020
731 Clouds 12 1012 81 10000 3.1 310 23:19 26.03.2020
732 Clouds 12 1012 76 10000 3.6 310 22:57 26.03.2020
733 Clouds 12 1012 76 10000 3.6 310 22:36 26.03.2020
734 Clouds 12 1012 71 10000 3.1 320 22:18 26.03.2020
735 Clouds 12 1012 76 10000 7.2 330 21:40 26.03.2020
736 Clouds 13 1012 76 10000 7.2 330 21:22 26.03.2020
737 Clouds 13 1012 76 10000 7.2 330 20:59 26.03.2020
738 Clouds 13 1012 71 10000 4.1 310 20:40 26.03.2020
739 Clouds 13 1012 71 10000 4.1 310 20:22 26.03.2020
740 Clouds 14 1012 71 10000 4.1 310 19:58 26.03.2020
741 Clouds 14 1012 71 10000 4.1 310 19:40 26.03.2020
742 Clouds 14 1012 67 10000 5.7 310 19:21 26.03.2020
743 Clouds 15 1012 62 10000 6.2 310 18:58 26.03.2020
744 Clouds 14 1012 62 10000 6.2 310 18:40 26.03.2020
745 Clouds 15 1012 62 10000 6.7 310 18:22 26.03.2020
746 Clouds 16 1012 55 10000 6.7 320 17:45 26.03.2020
747 Clouds 16 1012 59 10000 6.2 320 17:20 26.03.2020
748 Clouds 16 1013 59 10000 6.2 300 16:57 26.03.2020
749 Clouds 16 1013 59 10000 6.2 300 16:57 26.03.2020
750 Clouds 16 1013 59 10000 6.2 300 16:38 26.03.2020
751 Clouds 16 1013 63 10000 5.7 310 16:19 26.03.2020
752 Clouds 16 1013 63 10000 5.7 310 15:56 26.03.2020
753 Clouds 16 1013 63 10000 5.7 310 15:38 26.03.2020
754 Clouds 16 1014 63 10000 5.1 310 15:18 26.03.2020
755 Clouds 16 1014 63 10000 4.6 300 14:43 26.03.2020
756 Clouds 16 1014 55 10000 3.6 300 14:24 26.03.2020
757 Clouds 17 1014 55 10000 3.6 300 13:56 26.03.2020
758 Clouds 16 1014 72 10000 3.6 300 13:38 26.03.2020
759 Clouds 16 1014 72 10000 3.6 300 13:20 26.03.2020
760 Clouds 15 1015 72 10000 4.1 310 12:39 26.03.2020
761 Clouds 15 1015 72 10000 4.1 320 12:20 26.03.2020
762 Clouds 15 1015 72 10000 4.1 300 11:55 26.03.2020
763 Clouds 15 1015 72 10000 4.1 300 11:36 26.03.2020
764 Clouds 14 1015 71 10000 4.6 310 11:18 26.03.2020
765 Clouds 14 1015 76 10000 4.6 320 10:42 26.03.2020
766 Clouds 13 1015 76 10000 5.1 320 10:20 26.03.2020
767 Clouds 13 1015 81 10000 4.6 310 09:45 26.03.2020
768 Clouds 13 1015 81 10000 4.6 310 09:24 26.03.2020
769 Clouds 12 1015 87 10000 2.1 320 08:58 26.03.2020
770 Clouds 12 1015 87 10000 2.1 320 08:39 26.03.2020
771 Clouds 12 1014 87 10000 3.6 300 08:20 26.03.2020
772 Clouds 11 1014 87 10000 3.6 300 07:46 26.03.2020
773 Clouds 11 1014 87 10000 3.6 310 07:24 26.03.2020
774 Clouds 11 1014 87 10000 3.6 310 06:59 26.03.2020
775 Clouds 12 1014 81 10000 5.7 320 06:33 26.03.2020
776 Clouds 12 1015 81 10000 5.7 330 05:47 26.03.2020
777 Clouds 12 1015 87 10000 5.1 310 03:46 26.03.2020
778 Clear 12 1015 81 10000 2.6 310 02:58 26.03.2020
779 Clouds 12 1016 87 10000 3.1 310 01:51 26.03.2020
780 Clouds 11 1016 87 10000 3.1 310 01:18 26.03.2020
781 Clouds 12 1016 93 10000 2.1 300 00:32 26.03.2020
782 Clouds 12 1016 87 10000 3.6 330 23:44 25.03.2020
783 Clouds 12 1016 87 10000 3.6 330 23:24 25.03.2020
784 Clear 13 1016 82 10000 5.7 310 22:54 25.03.2020
785 Clear 13 1016 82 10000 5.7 310 22:36 25.03.2020
786 Clear 13 1016 82 10000 5.7 310 22:18 25.03.2020
787 Clear 13 1016 82 10000 5.7 310 21:42 25.03.2020
788 Clouds 13 1015 76 10000 4.1 360 21:24 25.03.2020
789 Clouds 14 1015 82 10000 6.2 320 20:58 25.03.2020
790 Clouds 14 1015 82 10000 6.2 320 20:38 25.03.2020
791 Clouds 15 1015 72 10000 6.2 320 20:19 25.03.2020
792 Clouds 15 1015 72 10000 6.2 320 19:55 25.03.2020
793 Clouds 16 1015 72 10000 6.2 320 19:37 25.03.2020
794 Clouds 17 1015 67 10000 6.2 330 19:18 25.03.2020
795 Clouds 18 1015 55 10000 6.2 320 18:43 25.03.2020
796 Clouds 18 1015 52 10000 5.7 330 18:25 25.03.2020
797 Clouds 19 1015 59 10000 4.6 300 17:58 25.03.2020
798 Clouds 19 1015 59 10000 4.6 300 17:40 25.03.2020
799 Clouds 19 1015 59 10000 5.7 320 17:22 25.03.2020
800 Clouds 19 1015 59 10000 4.1 340 16:58 25.03.2020
801 Clouds 19 1015 59 10000 4.1 340 16:39 25.03.2020
802 Clouds 21 1015 46 10000 2.1 0 16:20 25.03.2020
803 Clouds 21 1015 46 10000 2.1 0 15:42 25.03.2020
804 Clouds 21 1016 40 10000 3.1 90 15:21 25.03.2020
805 Clouds 21 1016 40 10000 3.1 90 14:57 25.03.2020
806 Clouds 21 1016 40 10000 3.1 90 14:57 25.03.2020
807 Clouds 21 1016 40 10000 3.1 90 14:39 25.03.2020
808 Clouds 21 1016 40 10000 3.1 90 14:39 25.03.2020
809 Clouds 19 1016 45 10000 3.6 80 14:20 25.03.2020
810 Clear 19 1017 45 10000 4.1 60 13:44 25.03.2020
811 Clear 19 1017 45 10000 4.1 60 13:24 25.03.2020
812 Clear 19 1017 52 10000 4.6 60 12:39 25.03.2020
813 Clear 18 1017 52 10000 5.1 50 12:21 25.03.2020
814 Clear 17 1017 55 10000 4.1 40 11:59 25.03.2020
815 Clear 17 1017 55 10000 4.1 40 11:40 25.03.2020
816 Clear 16 1017 59 10000 5.1 50 11:21 25.03.2020
817 Clear 15 1017 67 10000 5.7 60 10:58 25.03.2020
818 Clear 15 1017 67 10000 5.7 60 10:39 25.03.2020
819 Clear 14 1017 67 10000 5.7 60 10:18 25.03.2020
820 Clear 14 1016 71 10000 3.6 30 09:56 25.03.2020
821 Clear 14 1016 71 10000 3.6 30 09:38 25.03.2020
822 Clear 13 1016 76 10000 4.1 40 09:19 25.03.2020
823 Clear 13 1016 76 10000 3.6 40 08:41 25.03.2020
824 Clear 12 1016 76 10000 3.6 40 08:23 25.03.2020
825 Clear 12 1016 76 10000 4.1 40 07:56 25.03.2020
826 Clear 12 1016 76 10000 4.1 40 07:37 25.03.2020
827 Clear 12 1015 76 10000 4.1 40 07:18 25.03.2020
828 Clear 12 1015 76 10000 3.6 30 06:41 25.03.2020
829 Clear 12 1015 76 10000 4.1 30 06:23 25.03.2020
830 Clear 13 1015 76 10000 4.1 30 05:47 25.03.2020
831 Clear 14 1015 76 10000 3.1 350 04:42 25.03.2020
832 Clear 14 1015 71 10000 3.6 350 03:57 25.03.2020
833 Clear 14 1015 71 10000 3.6 350 03:32 25.03.2020
834 Clouds 15 1015 71 10000 3.6 320 01:40 25.03.2020
835 -273 0 0 0 0 0 00:50 25.03.2020
836 Clouds 15 1015 62 10000 3.1 330 00:27 25.03.2020
837 Clouds 15 1015 67 10000 3.1 320 23:58 24.03.2020
838 Clouds 15 1015 67 10000 3.1 320 23:39 24.03.2020
839 Clouds 15 1015 62 10000 2.1 340 23:19 24.03.2020
840 Clouds 15 1014 62 10000 3.6 330 22:54 24.03.2020
841 Clouds 15 1014 62 10000 3.6 330 22:36 24.03.2020
842 Clouds 15 1014 82 10000 2.6 20 22:18 24.03.2020
843 Clouds 16 1014 59 0 3.1 20 21:42 24.03.2020
844 Clouds 17 1013 59 10000 4.1 30 21:19 24.03.2020
845 Clouds 17 1013 59 10000 4.1 30 20:59 24.03.2020
846 Clouds 18 1013 55 10000 4.6 40 20:40 24.03.2020
847 Rain 18 1012 59 10000 3.6 40 20:22 24.03.2020
848 Rain 19 1012 55 10000 4.6 50 19:48 24.03.2020
849 Clouds 19 1012 52 10000 4.6 50 19:23 24.03.2020
850 Clouds 20 1012 52 10000 4.6 50 18:59 24.03.2020
851 Clouds 20 1012 52 10000 5.1 60 18:40 24.03.2020
852 Clouds 20 1012 52 10000 6.2 60 18:20 24.03.2020
853 Clouds 21 1012 49 10000 5.1 40 17:58 24.03.2020
854 Clouds 21 1012 49 10000 5.1 40 17:40 24.03.2020
855 Clouds 21 1012 49 10000 7.2 40 17:22 24.03.2020
856 Clouds 21 1012 46 10000 6.2 50 16:57 24.03.2020
857 Clouds 21 1012 46 10000 6.2 50 16:38 24.03.2020
858 Clouds 20 1012 49 10000 5.1 80 16:20 24.03.2020
859 Clouds 20 1012 49 10000 6.2 60 15:44 24.03.2020
860 Clouds 20 1012 49 10000 6.2 60 15:44 24.03.2020
861 Clouds 20 1012 52 10000 5.7 30 15:25 24.03.2020
862 Clouds 20 1012 52 10000 6.2 40 14:57 24.03.2020
863 Clouds 20 1012 52 10000 6.2 40 14:39 24.03.2020
864 Clouds 19 1013 52 10000 5.7 50 14:18 24.03.2020
865 Clouds 19 1013 52 10000 6.2 60 13:41 24.03.2020
866 Clouds 19 1013 59 10000 5.7 40 13:22 24.03.2020
867 Clouds 18 1013 63 10000 5.1 40 12:47 24.03.2020
868 Clouds 18 1013 63 10000 5.1 40 12:28 24.03.2020
869 Clouds 17 1013 63 10000 6.7 40 11:58 24.03.2020
870 Clouds 17 1013 63 10000 6.7 40 11:39 24.03.2020
871 Clouds 16 1013 67 10000 5.7 40 11:18 24.03.2020
872 Clear 15 1013 67 10000 5.7 50 10:42 24.03.2020
873 Clear 15 1013 71 10000 6.7 40 10:19 24.03.2020
874 Clear 14 1013 71 10000 4.6 40 09:55 24.03.2020
875 Clear 14 1013 71 10000 4.6 40 09:37 24.03.2020
876 Clear 14 1013 76 10000 4.1 20 09:19 24.03.2020
877 Clear 12 1013 81 10000 4.1 30 08:38 24.03.2020
878 Clear 11 1012 81 10000 5.7 30 08:20 24.03.2020
879 Clear 11 1012 76 10000 4.6 40 07:47 24.03.2020
880 Clear 11 1012 76 10000 2.6 10 07:24 24.03.2020
881 Clear 11 1012 76 10000 2.6 10 06:50 24.03.2020
882 Clear 11 1012 76 10000 4.1 20 06:24 24.03.2020
883 Clear 12 1012 76 10000 5.1 40 04:57 24.03.2020
884 Clear 12 1013 76 10000 3.6 340 03:46 24.03.2020
885 Clear 13 1013 81 10000 3.1 330 02:49 24.03.2020
886 Clouds 13 1013 81 10000 2.6 340 01:42 24.03.2020
887 Clouds 14 1013 76 10000 2.6 350 00:44 24.03.2020
888 Clouds 14 1013 76 10000 3.1 340 00:23 24.03.2020
889 Clouds 14 1013 71 10000 3.6 350 23:44 23.03.2020
890 Clouds 14 1013 71 10000 4.6 330 23:26 23.03.2020
891 Rain 15 1013 76 10000 6.7 340 22:55 23.03.2020
892 Rain 14 1013 76 10000 6.7 340 22:36 23.03.2020
893 Rain 14 1013 76 10000 6.7 340 22:18 23.03.2020
894 Rain 14 1012 72 10000 7.2 340 21:42 23.03.2020
895 Rain 15 1012 67 10000 5.1 360 21:20 23.03.2020
896 Rain 15 1012 67 10000 5.1 360 20:57 23.03.2020
897 Clouds 15 1012 72 10000 6.2 330 20:39 23.03.2020
898 Clouds 15 1011 67 10000 6.2 330 20:19 23.03.2020
899 Clouds 16 1011 67 10000 6.2 330 19:45 23.03.2020
900 Clouds 16 1011 67 10000 6.2 330 19:45 23.03.2020
901 Clouds 16 1011 67 10000 6.2 350 19:27 23.03.2020
902 Clouds 17 1011 45 10000 5.1 40 18:59 23.03.2020
903 Clouds 18 1011 45 10000 5.1 40 18:41 23.03.2020
904 Clouds 18 1011 48 10000 4.6 50 18:21 23.03.2020
905 Clouds 20 1011 48 10000 5.7 60 17:44 23.03.2020
906 Clouds 19 1011 48 10000 6.2 60 17:22 23.03.2020
907 Clouds 19 1011 49 10000 6.2 50 16:59 23.03.2020
908 Clouds 19 1011 49 10000 6.2 50 16:41 23.03.2020
909 Clouds 19 1012 55 10000 5.7 50 16:23 23.03.2020
910 Clouds 19 1012 55 10000 5.7 50 15:42 23.03.2020
911 Clouds 19 1012 59 10000 4.1 330 15:20 23.03.2020
912 Clouds 19 1012 59 10000 4.1 330 14:55 23.03.2020
913 Clouds 18 1012 52 10000 6.2 60 14:36 23.03.2020
914 Clouds 19 1013 55 10000 5.7 60 14:18 23.03.2020
915 Clouds 18 1013 55 10000 5.7 60 13:40 23.03.2020
916 Clouds 18 1013 48 10000 4.6 70 13:22 23.03.2020
917 Clouds 18 1014 63 10000 5.1 50 12:55 23.03.2020
918 Clouds 17 1014 63 10000 5.1 50 12:37 23.03.2020
919 Clouds 17 1014 67 10000 5.1 50 12:19 23.03.2020
920 Clouds 16 1014 72 10000 5.1 60 11:42 23.03.2020
921 Clouds 15 1014 77 10000 6.2 60 11:21 23.03.2020
922 Clouds 14 1014 82 10000 3.6 50 10:58 23.03.2020
923 Clouds 14 1014 82 10000 3.6 50 10:39 23.03.2020
924 Clouds 14 1014 87 10000 3.6 10 10:21 23.03.2020
925 Clouds 14 1014 87 10000 3.6 10 09:57 23.03.2020
926 Clouds 13 1014 87 10000 3.6 10 09:37 23.03.2020
927 Clear 13 1014 87 10000 3.1 350 09:18 23.03.2020
928 Clouds 12 1013 93 10000 4.1 330 08:37 23.03.2020
929 Clouds 12 1013 93 10000 4.1 330 08:19 23.03.2020
930 Clouds 12 1013 93 10000 5.1 340 07:50 23.03.2020
931 Clouds 12 1013 93 10000 5.1 340 07:50 23.03.2020
932 Clouds 12 1013 93 10000 5.1 340 07:31 23.03.2020
933 Clouds 12 1013 87 10000 4.1 330 06:53 23.03.2020
934 Clouds 12 1013 87 10000 4.1 320 06:25 23.03.2020
935 Clouds 12 1012 87 10000 4.1 320 05:42 23.03.2020
936 Clouds 12 1013 87 10000 4.1 310 03:45 23.03.2020
937 Clouds 12 1013 87 10000 5.7 320 02:43 23.03.2020
938 Clear 12 1013 87 10000 4.1 310 01:38 23.03.2020
939 Clouds 12 1014 87 10000 3.1 320 00:44 23.03.2020
940 Clouds 12 1013 87 10000 5.1 320 23:54 22.03.2020
941 Clouds 12 1013 87 10000 5.1 320 23:36 22.03.2020
942 Clouds 12 1013 87 10000 3.6 300 23:18 22.03.2020
943 Clouds 12 1013 87 10000 3.6 320 22:40 22.03.2020
944 Clouds 12 1013 87 10000 4.6 320 22:19 22.03.2020
945 Clouds 13 1013 82 10000 4.6 310 21:40 22.03.2020
946 Clouds 13 1013 82 10000 4.1 300 21:21 22.03.2020
947 Clouds 14 1012 76 10000 3.6 310 20:58 22.03.2020
948 Clouds 14 1012 76 10000 3.6 310 20:40 22.03.2020
949 Clouds 14 1012 67 10000 3.6 300 20:21 22.03.2020
950 Clouds 14 1012 67 10000 3.6 300 19:56 22.03.2020
951 Clouds 15 1012 67 10000 3.6 310 19:37 22.03.2020
952 Clouds 15 1012 67 10000 3.6 310 19:19 22.03.2020
953 Clouds 15 1012 63 10000 5.1 330 18:57 22.03.2020
954 Clouds 16 1012 63 10000 5.1 330 18:39 22.03.2020
955 Clouds 16 1011 63 10000 5.1 340 18:18 22.03.2020
956 Clouds 16 1011 59 10000 4.6 300 17:56 22.03.2020
957 Clouds 17 1011 59 10000 4.6 300 17:37 22.03.2020
958 Clouds 16 1011 63 10000 4.6 340 17:19 22.03.2020
959 Clouds 16 1011 51 10000 2.1 310 16:55 22.03.2020
960 Clouds 16 1011 51 10000 2.1 310 16:37 22.03.2020
961 Clouds 17 1011 45 10000 3.1 70 16:19 22.03.2020
962 Clouds 17 1011 45 10000 3.1 70 16:19 22.03.2020
963 Clouds 17 1012 48 10000 4.1 100 15:39 22.03.2020
964 Clouds 17 1012 55 10000 4.6 100 15:19 22.03.2020
965 Clouds 17 1012 55 10000 4.1 60 14:46 22.03.2020
966 Clouds 17 1012 51 10000 3.6 50 14:18 22.03.2020
967 Clouds 17 1013 59 10000 3.1 80 13:42 22.03.2020
968 Clouds 16 1013 59 10000 3.1 80 13:20 22.03.2020
969 Clouds 16 1013 59 10000 3.1 80 12:57 22.03.2020
970 Clouds 15 1013 67 10000 4.6 70 12:38 22.03.2020
971 Clouds 15 1013 62 10000 4.6 60 12:18 22.03.2020
972 Clouds 14 1013 71 10000 4.1 60 11:43 22.03.2020
973 Clouds 14 1013 71 10000 4.6 60 11:24 22.03.2020
974 Clear 13 1013 76 10000 4.1 50 10:58 22.03.2020
975 Clear 13 1013 76 10000 4.1 50 10:39 22.03.2020
976 Clear 13 1012 81 10000 2.6 40 10:21 22.03.2020
977 Clear 12 1012 87 10000 2.1 40 09:43 22.03.2020
978 Clear 11 1012 87 10000 2.1 40 09:43 22.03.2020
979 Clear 11 1012 93 10000 4.1 30 09:24 22.03.2020
980 Clear 9 1011 87 10000 3.1 360 08:48 22.03.2020
981 Clear 9 1011 87 10000 3.1 360 08:48 22.03.2020
982 Clear 9 1011 87 10000 3.1 360 08:29 22.03.2020
983 Clear 8 1011 87 10000 2.1 350 07:53 22.03.2020
984 Clear 8 1011 87 10000 2.1 350 07:32 22.03.2020
985 Clear 8 1011 87 10000 2.6 360 06:40 22.03.2020
986 Clear 8 1011 87 10000 2.6 350 05:37 22.03.2020
987 Clear 9 1011 81 10000 2.1 340 03:47 22.03.2020
988 Clear 9 1011 81 10000 2.1 340 01:36 22.03.2020
989 Clear 9 1011 81 10000 1.5 320 00:49 22.03.2020
990 Clear 10 1011 81 10000 1.5 310 00:29 22.03.2020
991 Clear 10 1011 76 10000 1.5 320 23:45 21.03.2020
992 Clear 10 1011 87 10000 1 0 23:21 21.03.2020
993 Clouds 10 1010 81 10000 2.1 340 22:58 21.03.2020
994 Clouds 10 1010 81 10000 2.1 340 22:37 21.03.2020
995 Clouds 10 1010 87 10000 2.6 30 22:19 21.03.2020
996 Clouds 11 1010 87 10000 2.6 30 21:57 21.03.2020
997 Clouds 11 1010 76 10000 2.1 320 21:37 21.03.2020
998 Clouds 11 1010 76 10000 2.1 320 21:18 21.03.2020
999 Clouds 12 1010 81 10000 2.6 330 20:42 21.03.2020
1000 Rain 12 1009 71 10000 1.5 310 20:21 21.03.2020
1001 Rain 13 1009 71 10000 2.6 300 19:54 21.03.2020
1002 Rain 13 1009 71 10000 2.6 300 19:36 21.03.2020
1003 Rain 14 1009 71 10000 2.6 300 19:18 21.03.2020
1004 Rain 14 1009 71 10000 2.1 360 18:40 21.03.2020
1005 Rain 14 1009 62 10000 3.1 240 18:20 21.03.2020
1006 Rain 15 1009 62 10000 3.6 250 17:58 21.03.2020
1007 Rain 15 1009 62 10000 3.6 250 17:39 21.03.2020
1008 Rain 15 1009 62 10000 2.6 300 17:21 21.03.2020
1009 Rain 14 1009 62 10000 3.1 300 16:42 21.03.2020
1010 Clouds 15 1009 62 10000 1 0 16:22 21.03.2020
1011 Clouds 14 1009 62 10000 1 0 15:58 21.03.2020
1012 Clouds 14 1009 66 10000 2.1 100 15:39 21.03.2020
1013 Clouds 14 1010 54 10000 2.1 0 15:21 21.03.2020
1014 Clouds 14 1010 62 10000 3.1 250 14:55 21.03.2020
1015 Clouds 14 1010 62 10000 3.1 250 14:37 21.03.2020
1016 Clouds 14 1010 62 10000 3.1 230 14:19 21.03.2020
1017 Clouds 14 1010 62 10000 3.1 230 13:57 21.03.2020
1018 Clouds 13 1010 67 10000 4.1 240 13:38 21.03.2020
1019 Clouds 13 1010 67 10000 4.1 240 13:20 21.03.2020
1020 Clouds 13 1010 71 10000 2.6 220 12:41 21.03.2020
1021 Clouds 14 1011 81 10000 3.1 100 12:21 21.03.2020
1022 Clouds 14 1011 82 10000 2.6 80 11:59 21.03.2020
1023 Clouds 14 1011 82 10000 2.6 80 11:39 21.03.2020
1024 Clouds 14 1011 82 10000 2.6 80 11:39 21.03.2020
1025 Clouds 13 1011 87 10000 2.6 40 11:20 21.03.2020
1026 Clouds 13 1011 93 10000 2.6 50 10:58 21.03.2020
1027 Clouds 13 1011 93 10000 2.6 50 10:58 21.03.2020
1028 Clouds 12 1011 93 10000 2.6 50 10:40 21.03.2020
1029 Clouds 12 1010 100 10000 2.1 60 10:22 21.03.2020
1030 Clouds 11 1010 100 10000 2.1 60 09:59 21.03.2020
1031 Clouds 11 1010 100 10000 0.5 0 09:39 21.03.2020
1032 Clouds 10 1010 100 10000 1.5 330 09:21 21.03.2020
1033 Clouds 9 1010 100 10000 1.5 330 08:56 21.03.2020
1034 Clouds 9 1010 100 10000 1.5 129 08:38 21.03.2020
1035 Clouds 9 1010 100 10000 2.38 79 08:19 21.03.2020
1036 Clouds 8 1010 100 10000 2.38 79 07:39 21.03.2020
1037 Clouds 8 1010 100 10000 2.38 79 07:20 21.03.2020
1038 Clouds 8 1010 93 10000 2.38 79 06:44 21.03.2020
1039 Clouds 8 1010 100 10000 2.38 79 06:25 21.03.2020
1040 Clouds 9 1010 93 10000 2.38 79 05:41 21.03.2020
1041 Clouds 9 1010 93 10000 0.5 0 04:34 21.03.2020
1042 Clouds 10 1011 87 10000 1.5 260 02:37 21.03.2020
1043 Clouds 10 1012 93 10000 2.6 250 01:49 21.03.2020
1044 Clouds 10 1012 93 10000 2.6 250 01:26 21.03.2020
1045 Clouds 10 1012 93 10000 2.6 260 00:43 21.03.2020
1046 Clouds 11 1012 87 10000 1.5 280 00:24 21.03.2020
1047 Clouds 11 1012 87 10000 2.1 250 23:45 20.03.2020
1048 Clouds 11 1012 81 10000 2.1 280 23:22 20.03.2020
1049 Clouds 11 1012 87 10000 2.1 270 22:44 20.03.2020
1050 Clouds 12 1012 81 10000 2.6 260 22:25 20.03.2020
1051 Clouds 12 1012 81 10000 2.6 260 21:59 20.03.2020
1052 Clouds 12 1012 81 10000 2.6 270 21:41 20.03.2020
1053 Clouds 12 1012 76 10000 2.1 280 21:20 20.03.2020
1054 Clouds 12 1012 76 10000 2.1 280 20:59 20.03.2020
1055 Clouds 12 1012 76 10000 2.1 280 20:41 20.03.2020
1056 Clouds 13 1012 71 10000 3.6 310 20:20 20.03.2020
1057 Clouds 13 1012 71 10000 3.6 310 19:58 20.03.2020
1058 Clouds 13 1012 71 10000 3.6 310 19:39 20.03.2020
1059 Clouds 14 1012 67 10000 3.1 300 19:18 20.03.2020
1060 Clouds 14 1012 82 10000 1.5 20 18:39 20.03.2020
1061 Clouds 14 1012 82 10000 2.1 340 18:20 20.03.2020
1062 Clouds 14 1012 82 10000 1 0 17:56 20.03.2020
1063 Clouds 14 1012 82 10000 1 0 17:38 20.03.2020
1064 Rain 14 1012 82 10000 4.1 270 17:19 20.03.2020
1065 Clouds 14 1012 71 10000 2.6 300 16:43 20.03.2020
1066 Clouds 14 1013 76 10000 2.1 300 16:21 20.03.2020
1067 Clouds 14 1013 76 10000 2.1 300 15:59 20.03.2020
1068 Rain 14 1013 82 10000 1.5 270 15:41 20.03.2020
1069 Rain 13 1013 87 10000 1.5 310 15:20 20.03.2020
1070 Rain 14 1013 87 10000 1.5 310 14:42 20.03.2020
1071 Rain 13 1013 87 10000 2.1 300 14:21 20.03.2020
1072 Rain 13 1013 87 10000 2.1 300 13:55 20.03.2020
1073 Rain 14 1013 87 10000 2.1 300 13:36 20.03.2020
1074 Clouds 13 1014 93 10000 2.6 290 13:18 20.03.2020
1075 Rain 13 1014 93 10000 2.6 290 12:39 20.03.2020
1076 Drizzle 13 1014 93 9000 2.6 310 12:20 20.03.2020
1077 Clouds 12 1014 93 10000 2.6 290 11:42 20.03.2020
1078 Drizzle 12 1014 93 3000 4.1 300 11:22 20.03.2020
1079 Drizzle 12 1014 93 5000 2.6 310 10:59 20.03.2020
1080 Drizzle 12 1014 93 5000 2.6 310 10:41 20.03.2020
1081 Rain 12 1014 93 5000 3.1 310 10:20 20.03.2020
1082 Clouds 12 1013 93 10000 3.1 300 09:47 20.03.2020
1083 Clouds 12 1013 93 10000 3.6 300 09:22 20.03.2020
1084 Clouds 12 1013 93 10000 3.6 300 08:59 20.03.2020
1085 Clouds 12 1013 93 10000 3.6 300 08:40 20.03.2020
1086 Clouds 13 1013 87 10000 4.6 300 08:20 20.03.2020
1087 Clouds 13 1013 87 10000 4.6 300 07:48 20.03.2020
1088 Clouds 13 1013 87 10000 4.1 320 07:26 20.03.2020
1089 Clouds 13 1013 87 10000 4.6 310 06:51 20.03.2020
1090 Clouds 13 1013 87 10000 4.6 310 06:32 20.03.2020
1091 Clouds 13 1013 87 10000 4.6 310 04:51 20.03.2020
1092 Clouds 13 1014 87 10000 5.1 310 03:21 20.03.2020
1093 Clouds 13 1014 87 10000 4.6 310 01:57 20.03.2020
1094 Clouds 13 1014 87 10000 5.7 310 00:51 20.03.2020
1095 Clouds 13 1014 87 10000 5.7 310 00:29 20.03.2020
1096 Clouds 13 1014 87 10000 5.7 310 23:47 19.03.2020
1097 Clear 14 1014 87 10000 5.7 310 23:28 19.03.2020
1098 Clear 14 1015 87 10000 5.7 310 22:56 19.03.2020
1099 Clear 14 1015 87 10000 5.7 310 22:56 19.03.2020
1100 Clear 14 1015 87 10000 5.7 310 22:38 19.03.2020
1101 Clear 14 1014 77 10000 3.6 320 22:19 19.03.2020
1102 Clouds 14 1015 82 10000 5.7 320 21:42 19.03.2020
1103 Clouds 14 1015 82 10000 5.7 320 21:20 19.03.2020
1104 Clouds 14 1015 82 10000 5.7 320 20:59 19.03.2020
1105 Clouds 14 1015 77 10000 5.7 310 20:41 19.03.2020
1106 Clouds 15 1014 72 10000 5.1 310 20:22 19.03.2020
1107 Rain 16 1014 72 10000 4.1 300 19:55 19.03.2020
1108 Rain 16 1014 72 10000 4.1 300 19:37 19.03.2020
1109 Clouds 17 1014 63 10000 3.6 300 19:19 19.03.2020
1110 Clouds 18 1014 60 10000 2.6 310 18:55 19.03.2020
1111 Clouds 19 1014 60 10000 2.6 310 18:37 19.03.2020
1112 Clouds 19 1014 60 10000 2.6 310 18:37 19.03.2020
1113 Clouds 19 1014 60 10000 3.6 280 18:19 19.03.2020
1114 Clouds 19 1014 60 10000 1.5 0 17:41 19.03.2020
1115 Clouds 19 1015 56 10000 2.6 100 17:19 19.03.2020
1116 Clouds 19 1015 56 10000 2.6 80 16:44 19.03.2020
1117 Clouds 20 1015 49 10000 2.1 0 16:24 19.03.2020
1118 Clouds 20 1015 52 10000 1.5 0 15:46 19.03.2020
1119 Clouds 20 1015 52 10000 1.5 0 15:28 19.03.2020
1120 Clouds 20 1016 52 10000 1.5 0 14:58 19.03.2020
1121 Clouds 20 1016 56 10000 1.5 0 14:40 19.03.2020
1122 Clear 19 1016 55 10000 3.1 330 14:20 19.03.2020
1123 Clouds 20 1017 59 10000 2.6 40 13:41 19.03.2020
1124 Clouds 19 1017 63 10000 3.1 0 13:19 19.03.2020
1125 Clear 18 1018 59 10000 4.1 70 12:56 19.03.2020
1126 Clear 19 1018 59 10000 4.1 70 12:38 19.03.2020
1127 Clear 18 1018 63 10000 4.6 60 12:19 19.03.2020
1128 Clear 17 1018 67 10000 4.6 60 11:42 19.03.2020
1129 Clear 16 1018 67 10000 3.6 70 11:23 19.03.2020
1130 Clear 16 1018 67 10000 4.1 60 10:57 19.03.2020
1131 Clear 16 1018 67 10000 4.1 60 10:37 19.03.2020
1132 Clear 15 1018 71 10000 2.1 70 10:18 19.03.2020
1133 Clear 15 1017 76 10000 2.6 50 09:44 19.03.2020
1134 Clear 14 1017 76 10000 2.6 50 09:26 19.03.2020
1135 Clear 14 1018 76 10000 3.1 30 08:57 19.03.2020
1136 Clear 14 1018 76 10000 3.1 30 08:38 19.03.2020
1137 Clear 14 1018 76 10000 2.1 50 08:18 19.03.2020
1138 Clear 14 1018 76 10000 2.1 50 07:43 19.03.2020
1139 Clear 14 1018 76 10000 2.1 30 07:22 19.03.2020
1140 Clear 14 1018 71 10000 2.6 50 06:32 19.03.2020
1141 Clear 15 1018 67 10000 2.6 60 05:46 19.03.2020
1142 Clear 15 1018 67 10000 3.1 50 04:51 19.03.2020
1143 Clear 15 1018 76 10000 3.6 30 04:24 19.03.2020
1144 Clear 16 1019 63 10000 3.6 30 02:34 19.03.2020
1145 Clear 17 1019 63 10000 3.6 30 00:57 19.03.2020
1146 Clear 17 1019 59 10000 3.6 20 00:21 19.03.2020
1147 Clear 17 1019 55 10000 5.1 30 23:46 18.03.2020
1148 Clear 17 1019 55 10000 5.7 30 23:26 18.03.2020
1149 Clear 18 1019 52 10000 5.1 40 22:44 18.03.2020
1150 Clear 18 1019 55 10000 5.1 40 22:24 18.03.2020
1151 Clear 18 1019 55 10000 5.1 40 21:59 18.03.2020
1152 Clear 18 1019 52 10000 5.7 40 21:41 18.03.2020
1153 Clear 19 1018 63 10000 3.6 30 21:21 18.03.2020
1154 Clear 19 1018 63 10000 3.6 30 20:57 18.03.2020
1155 Clear 20 1018 55 10000 4.1 30 20:39 18.03.2020
1156 Clear 20 1018 52 10000 3.6 40 20:20 18.03.2020
1157 Clouds 21 1018 49 10000 5.1 30 19:55 18.03.2020
1158 Clouds 21 1018 49 10000 5.1 30 19:36 18.03.2020
1159 Clouds 22 1018 46 0 6.2 30 19:18 18.03.2020
1160 Clouds 22 1018 49 10000 5.7 40 18:41 18.03.2020
1161 Clouds 23 1018 43 10000 5.7 30 18:20 18.03.2020
1162 Clouds 22 1018 43 10000 6.2 30 17:57 18.03.2020
1163 Clouds 23 1018 43 10000 6.2 30 17:39 18.03.2020
1164 Clouds 23 1018 43 10000 5.7 40 17:21 18.03.2020
1165 Clouds 23 1018 43 10000 4.6 40 16:54 18.03.2020
1166 Clouds 23 1018 43 10000 4.6 40 16:36 18.03.2020
1167 Clouds 22 1019 46 10000 4.6 50 16:18 18.03.2020
1168 Clouds 22 1019 46 10000 4.6 50 15:44 18.03.2020
1169 Clouds 22 1019 46 10000 4.6 50 15:20 18.03.2020
1170 Clouds 22 1019 46 10000 4.6 40 14:45 18.03.2020
1171 Clear 21 1020 52 10000 4.6 60 14:22 18.03.2020
1172 Clear 21 1020 52 10000 4.6 60 13:56 18.03.2020
1173 Clear 21 1020 52 10000 4.6 60 13:36 18.03.2020
1174 Clouds 20 1020 52 10000 5.1 80 13:18 18.03.2020
1175 Clouds 19 1021 55 10000 5.7 60 12:41 18.03.2020
1176 Clouds 19 1021 55 10000 5.7 60 12:19 18.03.2020
1177 Clouds 18 1021 59 10000 7.2 60 11:40 18.03.2020
1178 Clear 18 1021 67 10000 6.7 60 11:21 18.03.2020
1179 Clear 17 1021 67 10000 7.2 60 10:58 18.03.2020
1180 Clear 16 1021 67 10000 7.2 60 10:39 18.03.2020
1181 Clear 16 1021 67 10000 7.2 40 10:20 18.03.2020
1182 Clear 16 1021 72 10000 7.2 40 09:44 18.03.2020
1183 Clear 16 1021 72 10000 7.2 40 09:26 18.03.2020
1184 Clear 15 1021 72 10000 7.2 40 08:58 18.03.2020
1185 Clear 15 1020 76 10000 6.7 30 08:39 18.03.2020
1186 Clear 15 1020 71 10000 7.2 30 08:21 18.03.2020
1187 Clear 14 1020 71 10000 7.2 30 07:49 18.03.2020
1188 Clear 14 1020 71 10000 7.2 30 07:30 18.03.2020
1189 Clear 14 1020 67 10000 6.7 30 06:50 18.03.2020
1190 Clear 14 1019 71 10000 5.7 20 06:24 18.03.2020
1191 Clear 14 1019 67 10000 7.2 30 05:35 18.03.2020
1192 Clear 15 1020 62 10000 6.2 30 04:27 18.03.2020
1193 Clear 15 1020 54 10000 5.1 350 02:51 18.03.2020
1194 Clouds 14 1020 54 10000 5.1 350 02:23 18.03.2020
1195 Clouds 14 1021 50 10000 5.1 340 01:29 18.03.2020
1196 Clouds 14 1021 50 10000 5.7 340 00:26 18.03.2020
1197 Clear 14 1022 50 10000 4.6 350 23:59 17.03.2020
1198 Clear 14 1022 50 10000 4.6 350 23:40 17.03.2020
1199 Clouds 14 1022 50 10000 4.1 360 23:19 17.03.2020
1200 Clouds 14 1022 47 10000 5.1 20 22:42 17.03.2020
1201 Clear 14 1022 50 10000 4.6 20 22:23 17.03.2020
1202 Clouds 14 1022 58 10000 3.6 360 21:42 17.03.2020
1203 Clear 15 1021 54 10000 4.6 30 21:22 17.03.2020
1204 Clouds 15 1021 54 10000 4.6 30 20:56 17.03.2020
1205 Clear 15 1021 48 10000 4.6 30 20:37 17.03.2020
1206 Clouds 16 1021 55 10000 4.1 20 20:19 17.03.2020
1207 Clouds 16 1021 44 10000 5.7 30 19:41 17.03.2020
1208 Clouds 17 1021 42 10000 4.6 50 19:18 17.03.2020
1209 Clouds 17 1021 45 10000 5.1 50 18:57 17.03.2020
1210 Clouds 17 1021 45 10000 5.1 50 18:39 17.03.2020
1211 Clouds 17 1020 45 10000 6.7 60 18:21 17.03.2020
1212 Clouds 17 1020 44 10000 6.7 70 17:55 17.03.2020
1213 Clouds 17 1020 44 10000 6.7 70 17:36 17.03.2020
1214 Clouds 17 1020 48 10000 6.2 70 17:18 17.03.2020
1215 Clouds 17 1020 42 10000 7.7 50 16:41 17.03.2020
1216 Clouds 17 1020 45 10000 7.2 60 16:19 17.03.2020
1217 Clouds 17 1020 44 10000 8.2 50 15:45 17.03.2020
1218 Clouds 17 1020 44 10000 8.2 50 15:22 17.03.2020
1219 Clouds 16 1020 44 10000 8.7 70 14:44 17.03.2020
1220 Clouds 16 1020 44 10000 8.7 70 14:25 17.03.2020
1221 Clouds 16 1020 48 10000 8.7 60 13:58 17.03.2020
1222 Clouds 16 1020 48 10000 8.7 60 13:39 17.03.2020
1223 Clouds 15 1020 50 10000 8.2 60 13:21 17.03.2020
1224 Clouds 15 1020 44 10000 9.8 60 12:44 17.03.2020
1225 Clouds 15 1020 44 10000 8.7 60 12:24 17.03.2020
1226 Clouds 14 1020 58 10000 9.3 40 11:48 17.03.2020
1227 Clouds 13 1020 54 10000 9.3 50 11:30 17.03.2020
1228 Clouds 13 1020 58 10000 9.3 40 10:59 17.03.2020
1229 Clouds 12 1020 58 10000 9.3 40 10:59 17.03.2020
1230 Clouds 12 1020 58 10000 9.3 40 10:40 17.03.2020
1231 Clouds 12 1020 58 10000 8.2 40 10:22 17.03.2020
1232 Clouds 12 1020 58 10000 8.2 40 10:22 17.03.2020
1233 Clouds 12 1020 58 10000 8.2 40 09:59 17.03.2020
1234 Clouds 11 1020 62 10000 7.7 40 09:41 17.03.2020
1235 Clouds 11 1020 66 10000 6.2 30 09:20 17.03.2020
1236 Clouds 10 1020 70 10000 4.6 30 08:51 17.03.2020
1237 Clouds 10 1019 70 10000 5.1 10 08:24 17.03.2020
1238 Clouds 9 1019 70 10000 5.1 10 07:58 17.03.2020
1239 Clouds 9 1019 70 10000 5.1 10 07:39 17.03.2020
1240 Clouds 9 1019 70 10000 5.7 20 07:19 17.03.2020
1241 Clouds 10 1019 70 10000 4.6 30 06:40 17.03.2020
1242 Clouds 10 1018 71 10000 5.1 40 06:19 17.03.2020
1243 Clouds 11 1018 71 10000 5.7 350 04:40 17.03.2020
1244 Clouds 11 1018 71 10000 6.2 340 03:19 17.03.2020
1245 Clouds 12 1018 71 10000 8.2 330 01:49 17.03.2020
1246 Clouds 12 1018 71 10000 8.2 330 01:29 17.03.2020
1247 Clouds 12 1019 76 10000 7.7 340 00:50 17.03.2020
1248 Clouds 12 1019 76 10000 6.2 340 23:51 16.03.2020
1249 Clouds 12 1019 76 10000 7.2 330 23:33 16.03.2020
1250 Clouds 12 1020 76 10000 4.1 350 22:47 16.03.2020
1251 Clouds 12 1019 66 10000 7.2 350 22:27 16.03.2020
1252 Clouds 12 1019 66 10000 7.2 350 21:59 16.03.2020
1253 Clouds 12 1019 71 10000 6.7 340 21:41 16.03.2020
1254 Clouds 12 1019 71 10000 6.7 340 21:23 16.03.2020
1255 Clouds 12 1019 66 10000 6.2 330 20:58 16.03.2020
1256 Clouds 12 1019 66 10000 6.2 330 20:38 16.03.2020
1257 Clouds 12 1019 62 10000 9.3 350 20:20 16.03.2020
1258 Clouds 12 1019 66 10000 6.7 340 19:42 16.03.2020
1259 Clouds 13 1019 62 10000 8.7 340 19:23 16.03.2020
1260 Clouds 13 1019 62 10000 8.7 340 18:57 16.03.2020
1261 Clouds 13 1019 62 10000 10.8 340 18:38 16.03.2020
1262 Clouds 13 1019 54 10000 11.3 330 18:18 16.03.2020
1263 Clouds 13 1019 54 10000 9.8 340 17:45 16.03.2020
1264 Clouds 13 1019 54 10000 10.3 340 17:24 16.03.2020
1265 Clouds 14 1019 47 10000 13.4 330 16:49 16.03.2020
1266 Clouds 14 1019 47 10000 13.4 330 16:31 16.03.2020
1267 Clouds 14 1019 50 10000 10.3 330 15:58 16.03.2020
1268 Clouds 14 1018 47 10000 10.8 310 15:40 16.03.2020
1269 Clouds 14 1019 47 10000 12.3 330 15:20 16.03.2020
1270 Clouds 14 1020 50 10000 11.8 330 14:44 16.03.2020
1271 Clouds 14 1020 47 10000 8.7 340 14:20 16.03.2020
1272 Clouds 14 1020 47 10000 8.7 340 14:20 16.03.2020
1273 Clouds 14 1020 50 10000 10.8 340 13:44 16.03.2020
1274 Clouds 14 1020 50 10000 10.8 340 13:25 16.03.2020
1275 Clouds 13 1020 58 10000 9.8 330 12:56 16.03.2020
1276 Clouds 13 1020 58 10000 9.8 330 12:37 16.03.2020
1277 Clouds 13 1021 58 10000 10.3 340 12:19 16.03.2020
1278 Clouds 13 1021 62 10000 9.8 340 11:42 16.03.2020
1279 Clouds 13 1021 62 10000 9.8 340 11:20 16.03.2020
1280 Clouds 12 1021 71 10000 6.7 340 10:43 16.03.2020
1281 Clouds 12 1021 76 10000 6.2 330 10:24 16.03.2020
1282 Clouds 11 1021 76 10000 6.2 330 09:47 16.03.2020
1283 Clouds 11 1021 76 10000 6.2 330 09:28 16.03.2020
1284 Clouds 10 1020 71 10000 5.7 320 08:59 16.03.2020
1285 Clouds 10 1020 76 10000 6.2 330 08:36 16.03.2020
1286 Clouds 10 1019 70 10000 5.1 330 08:18 16.03.2020
1287 Clouds 10 1019 70 10000 5.1 330 07:40 16.03.2020
1288 Clear 10 1019 70 10000 5.7 320 07:18 16.03.2020
1289 Clear 10 1019 70 10000 5.1 330 06:28 16.03.2020
1290 Clear 9 1019 70 10000 5.1 330 05:55 16.03.2020
1291 Clouds 10 1019 76 10000 2.1 330 03:54 16.03.2020
1292 Clouds 10 1019 76 10000 1.5 330 01:44 16.03.2020
1293 Clouds 10 1019 76 10000 2.1 340 00:44 16.03.2020
1294 Clouds 10 1019 76 10000 5.1 340 00:25 16.03.2020
1295 Clouds 10 1019 71 10000 5.7 340 23:39 15.03.2020
1296 Clouds 11 1019 66 10000 4.6 340 23:18 15.03.2020
1297 Clouds 11 1019 71 10000 5.7 340 22:42 15.03.2020
1298 Clouds 11 1018 62 10000 5.1 340 22:20 15.03.2020
1299 Clouds 11 1018 71 10000 4.1 340 21:39 15.03.2020
1300 Clouds 11 1018 66 10000 6.2 340 21:21 15.03.2020
1301 Clouds 12 1017 71 10000 6.2 340 20:55 15.03.2020
1302 Clouds 12 1017 71 10000 6.2 340 20:36 15.03.2020
1303 Clouds 12 1017 71 10000 6.7 340 20:18 15.03.2020
1304 Clouds 13 1017 76 10000 7.7 330 19:55 15.03.2020
1305 Clouds 13 1017 76 10000 7.7 330 19:37 15.03.2020
1306 Clouds 12 1017 76 10000 8.2 330 19:18 15.03.2020
1307 Clouds 13 1017 76 10000 8.2 330 18:41 15.03.2020
1308 Clouds 13 1017 76 10000 7.2 320 18:23 15.03.2020
1309 Clouds 13 1017 76 10000 7.2 320 17:58 15.03.2020
1310 Clouds 14 1016 76 10000 7.2 330 17:39 15.03.2020
1311 Clouds 15 1016 59 10000 6.2 330 17:20 15.03.2020
1312 Clouds 16 1016 51 10000 7.7 330 16:55 15.03.2020
1313 Clouds 17 1016 51 10000 7.7 330 16:36 15.03.2020
1314 Clouds 17 1016 51 10000 7.2 340 16:18 15.03.2020
1315 Clouds 17 1016 51 10000 5.7 310 15:41 15.03.2020
1316 Clouds 17 1017 55 10000 6.2 330 15:20 15.03.2020
1317 Clouds 17 1017 59 10000 5.1 320 14:47 15.03.2020
1318 Clouds 17 1017 59 10000 5.1 320 14:26 15.03.2020
1319 Clouds 17 1017 63 10000 6.7 330 13:59 15.03.2020
1320 Clouds 16 1017 63 10000 6.7 330 13:39 15.03.2020
1321 Clouds 17 1017 63 10000 5.7 320 13:21 15.03.2020
1322 Clouds 16 1017 63 10000 5.7 320 12:57 15.03.2020
1323 Clouds 16 1017 59 10000 5.1 320 12:38 15.03.2020
1324 Clouds 16 1017 67 10000 5.1 340 12:20 15.03.2020
1325 Clouds 16 1017 67 10000 4.6 310 11:40 15.03.2020
1326 Clouds 15 1017 67 10000 6.2 330 11:22 15.03.2020
1327 Clouds 14 1018 76 10000 6.2 320 10:56 15.03.2020
1328 Clouds 14 1018 76 10000 6.2 320 10:38 15.03.2020
1329 Clouds 13 1017 81 10000 5.7 320 10:20 15.03.2020
1330 Clouds 13 1017 87 10000 4.6 320 09:41 15.03.2020
1331 Clouds 13 1017 87 10000 4.6 320 09:22 15.03.2020
1332 Clouds 12 1016 93 10000 5.1 310 08:54 15.03.2020
1333 Clouds 12 1016 93 10000 5.1 310 08:36 15.03.2020
1334 Clouds 12 1016 93 10000 4.1 330 08:18 15.03.2020
1335 Clouds 12 1016 93 10000 5.7 310 07:44 15.03.2020
1336 Clouds 12 1016 93 10000 6.7 310 06:54 15.03.2020
1337 Clouds 11 1016 93 10000 4.6 310 06:24 15.03.2020
1338 Clouds 12 1016 93 10000 4.6 310 05:21 15.03.2020
1339 Clear 12 1016 87 10000 4.6 310 04:43 15.03.2020
1340 Clear 12 1016 87 10000 4.6 310 04:25 15.03.2020
1341 Clear 12 1016 81 10000 4.6 320 03:54 15.03.2020
1342 Clear 12 1017 87 10000 4.1 310 02:47 15.03.2020
1343 Clear 12 1017 81 10000 2.6 320 01:50 15.03.2020
1344 Clear 13 1017 71 10000 3.1 330 00:51 15.03.2020
1345 Clear 13 1017 71 10000 2.1 330 00:28 15.03.2020
1346 Clear 14 1017 67 10000 3.6 330 23:58 14.03.2020
1347 Clear 14 1017 67 10000 3.6 330 23:37 14.03.2020
1348 Clear 14 1017 71 10000 5.7 310 23:18 14.03.2020
1349 Clear 14 1017 72 10000 5.7 310 22:44 14.03.2020
1350 Clear 14 1017 72 10000 5.7 310 22:26 14.03.2020
1351 Clear 14 1017 77 10000 1 0 21:57 14.03.2020
1352 Clear 15 1017 77 10000 5.1 310 21:37 14.03.2020
1353 Clear 15 1017 77 10000 5.7 310 21:18 14.03.2020
1354 Clear 15 1017 77 10000 5.7 310 20:59 14.03.2020
1355 Clear 16 1017 72 10000 4.6 310 20:40 14.03.2020
1356 Clear 16 1017 72 10000 4.6 310 20:20 14.03.2020
1357 Clear 17 1017 72 10000 4.1 310 19:58 14.03.2020
1358 Clear 17 1017 72 10000 4.1 310 19:39 14.03.2020
1359 Clear 18 1017 68 10000 4.6 300 19:19 14.03.2020
1360 Clouds 20 1017 60 10000 2.1 300 18:37 14.03.2020
1361 Clouds 21 1017 60 10000 2.1 300 18:19 14.03.2020
1362 Clouds 22 1017 46 10000 1.5 0 17:39 14.03.2020
1363 Clouds 22 1017 43 10000 1.5 0 17:21 14.03.2020
1364 Clouds 22 1017 46 10000 2.1 110 16:42 14.03.2020
1365 Clouds 22 1017 40 10000 2.6 350 16:24 14.03.2020
1366 Clouds 22 1017 40 10000 2.6 350 15:59 14.03.2020
1367 Clouds 21 1018 52 10000 2.6 80 15:27 14.03.2020
1368 Clouds 21 1018 52 10000 2.6 80 14:59 14.03.2020
1369 Clouds 21 1018 60 10000 3.1 100 14:38 14.03.2020
1370 Clouds 20 1019 60 10000 3.1 60 14:20 14.03.2020
1371 Clouds 20 1019 68 10000 2.1 0 13:56 14.03.2020
1372 Clouds 19 1019 68 10000 2.1 0 13:38 14.03.2020
1373 Clear 19 1020 68 10000 3.1 70 13:18 14.03.2020
1374 Clear 18 1020 77 10000 2.6 80 12:43 14.03.2020
1375 Clear 18 1020 77 10000 2.6 80 12:43 14.03.2020
1376 Clear 17 1020 82 10000 2.6 80 12:24 14.03.2020
1377 Clear 16 1020 87 10000 3.1 70 11:44 14.03.2020
1378 Clear 16 1020 82 10000 2.6 50 11:25 14.03.2020
1379 Clear 15 1020 82 10000 2.6 360 10:48 14.03.2020
1380 Clear 15 1020 87 10000 3.1 350 10:28 14.03.2020
1381 Clear 14 1020 87 10000 3.1 350 09:59 14.03.2020
1382 Clouds 14 1020 93 10000 4.1 340 09:40 14.03.2020
1383 Clouds 13 1020 93 10000 3.1 340 09:21 14.03.2020
1384 Clouds 12 1019 100 10000 3.1 330 08:46 14.03.2020
1385 Clouds 12 1019 93 10000 5.7 10 08:27 14.03.2020
1386 Clouds 12 1019 93 10000 3.6 330 07:40 14.03.2020
1387 Clouds 12 1019 93 10000 3.6 330 07:21 14.03.2020
1388 Clouds 12 1019 87 10000 2.1 330 06:55 14.03.2020
1389 Clouds 12 1019 87 10000 2.1 330 06:36 14.03.2020
1390 Clouds 13 1019 93 10000 4.1 320 04:56 14.03.2020
1391 Clouds 12 1019 93 10000 4.1 320 03:37 14.03.2020
1392 Clouds 12 1020 87 10000 2.6 330 02:53 14.03.2020
1393 Clouds 13 1020 87 10000 2.1 330 01:47 14.03.2020
1394 Clouds 13 1020 87 10000 4.1 330 00:34 14.03.2020
1395 Clouds 13 1020 87 10000 5.7 330 23:44 13.03.2020
1396 Clouds 13 1020 87 10000 6.2 330 23:23 13.03.2020
1397 Clouds 13 1020 87 10000 7.2 330 22:46 13.03.2020
1398 Clouds 13 1019 82 10000 4.1 340 22:24 13.03.2020
1399 Clouds 12 1019 87 10000 5.7 330 21:42 13.03.2020
1400 Clouds 13 1019 87 10000 6.2 330 21:21 13.03.2020
1401 Clouds 13 1019 82 10000 4.6 330 20:56 13.03.2020
1402 Clouds 13 1019 82 10000 4.6 330 20:37 13.03.2020
1403 Clouds 13 1019 82 10000 4.6 330 20:18 13.03.2020
1404 Clouds 13 1019 82 10000 4.6 330 19:42 13.03.2020
1405 Clouds 13 1019 82 10000 5.7 330 19:23 13.03.2020
1406 Clouds 14 1019 76 10000 7.7 330 18:44 13.03.2020
1407 Clouds 14 1019 82 10000 6.2 340 18:25 13.03.2020
1408 Clouds 15 1019 77 10000 6.7 340 17:43 13.03.2020
1409 Clouds 15 1019 77 10000 6.7 340 17:22 13.03.2020
1410 Clouds 15 1019 77 10000 7.7 340 16:59 13.03.2020
1411 Clouds 15 1019 77 10000 7.7 340 16:39 13.03.2020
1412 Clouds 16 1019 72 10000 7.2 330 16:21 13.03.2020
1413 Clouds 16 1019 72 10000 7.2 330 15:46 13.03.2020
1414 Clouds 16 1019 72 10000 7.2 330 15:24 13.03.2020
1415 Clouds 16 1019 72 10000 7.2 330 14:59 13.03.2020
1416 Clouds 16 1019 67 10000 5.7 320 14:40 13.03.2020
1417 Clouds 16 1020 67 10000 6.7 320 14:22 13.03.2020
1418 Clouds 16 1020 67 10000 6.7 320 13:55 13.03.2020
1419 Clouds 16 1020 67 10000 6.7 320 13:36 13.03.2020
1420 Clouds 15 1020 72 10000 6.7 320 13:18 13.03.2020
1421 Clouds 15 1020 72 10000 7.2 330 12:39 13.03.2020
1422 Clouds 14 1020 72 10000 6.2 320 12:21 13.03.2020
1423 Clouds 14 1020 76 10000 6.2 330 11:57 13.03.2020
1424 Clouds 14 1020 76 10000 6.2 330 11:37 13.03.2020
1425 Clouds 14 1020 71 10000 5.7 330 11:19 13.03.2020
1426 Clouds 14 1020 76 10000 5.1 320 10:47 13.03.2020
1427 Clouds 13 1019 71 10000 2.1 360 10:26 13.03.2020
1428 Clouds 13 1019 81 10000 4.1 310 09:56 13.03.2020
1429 Clouds 13 1019 81 10000 4.1 310 09:38 13.03.2020
1430 Clouds 13 1019 81 10000 4.1 320 09:19 13.03.2020
1431 Clouds 12 1019 87 10000 4.6 340 08:42 13.03.2020
1432 Clouds 12 1019 87 10000 6.2 320 08:22 13.03.2020
1433 Clouds 12 1019 87 10000 5.7 320 07:47 13.03.2020
1434 Clouds 12 1018 87 10000 6.7 340 07:27 13.03.2020
1435 Clouds 12 1018 81 10000 7.2 330 06:46 13.03.2020
1436 Clouds 12 1018 87 10000 7.2 330 06:24 13.03.2020
1437 Clouds 12 1018 87 10000 7.7 310 05:46 13.03.2020
1438 Clouds 12 1018 87 10000 7.7 310 05:19 13.03.2020
1439 Clouds 12 1018 87 10000 8.2 310 04:35 13.03.2020
1440 Clouds 13 1019 87 10000 7.7 320 02:58 13.03.2020
1441 Clouds 13 1020 82 10000 4.1 340 01:43 13.03.2020
1442 Clouds 13 1020 87 10000 6.7 320 01:18 13.03.2020
1443 Clouds 13 1020 87 10000 6.2 320 00:46 13.03.2020
1444 Clouds 13 1020 82 10000 4.6 320 00:20 13.03.2020
1445 Clouds 13 1020 82 10000 5.7 320 23:47 12.03.2020
1446 Clouds 13 1020 82 10000 4.1 0 23:26 12.03.2020
1447 Clouds 13 1020 82 10000 7.2 340 22:55 12.03.2020
1448 Clouds 13 1020 82 10000 7.2 340 22:37 12.03.2020
1449 Clouds 13 1019 76 10000 5.7 340 22:19 12.03.2020
1450 Clouds 14 1019 82 10000 8.7 330 21:42 12.03.2020
1451 Clouds 14 1019 82 10000 8.7 330 21:24 12.03.2020
1452 Clouds 14 1019 82 10000 8.7 320 20:55 12.03.2020
1453 Clouds 14 1019 82 10000 8.7 320 20:37 12.03.2020
1454 Clouds 14 1018 72 10000 8.2 330 20:18 12.03.2020
1455 Clouds 15 1018 72 10000 8.2 330 19:39 12.03.2020
1456 Clouds 15 1018 67 10000 9.8 330 19:20 12.03.2020
1457 Clouds 16 1018 72 10000 7.2 320 18:43 12.03.2020
1458 Clouds 16 1018 67 10000 7.7 320 18:23 12.03.2020
1459 Clouds 17 1018 68 10000 7.2 330 17:56 12.03.2020
1460 Clouds 18 1018 68 10000 7.2 330 17:37 12.03.2020
1461 Clouds 19 1018 63 10000 7.7 330 17:18 12.03.2020
1462 Clouds 19 1018 68 10000 8.2 340 16:54 12.03.2020
1463 Clouds 19 1018 68 10000 8.2 340 16:36 12.03.2020
1464 Clouds 20 1018 60 10000 4.6 310 16:18 12.03.2020
1465 Clouds 20 1018 60 10000 4.6 310 15:41 12.03.2020
1466 Clouds 20 1018 56 10000 2.6 360 15:22 12.03.2020
1467 Clouds 20 1019 60 10000 5.7 340 14:39 12.03.2020
1468 Clouds 20 1018 56 10000 3.1 340 14:19 12.03.2020
1469 Clouds 20 1019 68 10000 4.6 340 13:41 12.03.2020
1470 Clouds 19 1019 68 10000 4.6 340 13:22 12.03.2020
1471 Clouds 19 1019 68 10000 4.1 350 12:55 12.03.2020
1472 Clouds 19 1019 68 10000 4.1 350 12:55 12.03.2020
1473 Clouds 19 1019 68 10000 4.1 350 12:37 12.03.2020
1474 Clouds 19 1019 68 10000 4.1 350 12:37 12.03.2020
1475 Clouds 18 1019 72 10000 5.1 330 12:18 12.03.2020
1476 Clouds 17 1019 77 10000 5.1 350 11:56 12.03.2020
1477 Clouds 18 1019 77 10000 5.1 350 11:56 12.03.2020
1478 Clouds 17 1019 77 10000 5.1 350 11:37 12.03.2020
1479 Clouds 16 1019 82 10000 6.2 330 11:19 12.03.2020
1480 Clouds 15 1019 87 10000 4.6 320 10:56 12.03.2020
1481 Clouds 15 1019 87 10000 4.6 320 10:38 12.03.2020
1482 Clouds 15 1019 82 10000 3.6 320 10:19 12.03.2020
1483 Clouds 14 1018 87 10000 5.1 310 09:43 12.03.2020
1484 Clouds 14 1018 93 10000 5.1 320 09:25 12.03.2020
1485 Clouds 14 1018 87 10000 4.6 310 08:41 12.03.2020
1486 Clouds 14 1017 82 10000 3.1 10 08:19 12.03.2020
1487 Clouds 13 1018 93 10000 4.6 310 07:53 12.03.2020
1488 Clouds 13 1017 87 10000 4.6 320 07:23 12.03.2020
1489 Clouds 13 1017 87 10000 2.1 340 06:52 12.03.2020
1490 Clouds 14 1017 82 10000 4.1 320 05:41 12.03.2020
1491 Clouds 15 1018 77 10000 1.5 10 04:29 12.03.2020
1492 Clouds 16 1019 77 10000 2.6 310 02:36 12.03.2020
1493 Clouds 16 1019 77 10000 4.6 330 01:30 12.03.2020
1494 Clouds 16 1019 77 10000 5.1 330 00:44 12.03.2020
1495 Clouds 16 1019 72 10000 4.1 320 00:26 12.03.2020
1496 Clouds 17 1019 77 10000 3.1 310 23:45 11.03.2020
1497 Clouds 17 1019 72 10000 3.6 320 23:24 11.03.2020
1498 Clouds 17 1019 72 10000 4.1 320 22:48 11.03.2020
1499 Clouds 18 1019 72 10000 4.1 320 22:29 11.03.2020
1500 Clouds 18 1019 68 10000 3.6 360 21:59 11.03.2020
1501 Clouds 20 1019 64 10000 4.1 320 21:41 11.03.2020
1502 Clouds 19 1019 64 10000 4.1 320 21:22 11.03.2020
1503 Clouds 19 1019 64 10000 4.1 320 21:22 11.03.2020
1504 Clouds 21 1019 53 10000 2.6 340 20:58 11.03.2020
1505 Clouds 21 1019 53 10000 2.6 340 20:39 11.03.2020
1506 Clouds 22 1019 49 10000 2.1 360 20:19 11.03.2020
1507 Clouds 24 1019 47 10000 3.1 40 19:44 11.03.2020
1508 Clouds 25 1019 44 10000 3.1 40 19:25 11.03.2020
1509 Clouds 25 1019 44 10000 3.1 40 18:58 11.03.2020
1510 Clouds 25 1019 41 10000 3.6 50 18:40 11.03.2020
1511 Clouds 25 1019 41 10000 3.6 50 18:40 11.03.2020
1512 Clouds 26 1019 39 10000 4.1 40 18:21 11.03.2020
1513 Clouds 26 1019 39 10000 3.1 60 17:57 11.03.2020
1514 Clouds 26 1019 39 10000 3.1 60 17:57 11.03.2020
1515 Clouds 26 1019 39 10000 3.1 60 17:39 11.03.2020
1516 Clouds 26 1019 39 10000 4.1 60 17:20 11.03.2020
1517 Clouds 26 1020 41 10000 3.1 70 16:46 11.03.2020
1518 Clouds 26 1020 38 10000 3.6 0 16:23 11.03.2020
1519 Clouds 25 1020 38 10000 3.6 0 15:46 11.03.2020
1520 Clouds 25 1020 47 10000 4.6 10 15:25 11.03.2020
1521 Clouds 25 1020 47 10000 4.6 10 14:59 11.03.2020
1522 Clouds 24 1022 46 10000 3.1 50 14:41 11.03.2020
1523 Clouds 24 1021 44 10000 4.1 60 14:22 11.03.2020
1524 Clouds 23 1022 53 10000 2.6 50 13:45 11.03.2020
1525 Clouds 22 1022 53 10000 2.6 50 13:27 11.03.2020
1526 Clouds 21 1022 53 10000 2.6 50 12:58 11.03.2020
1527 Clouds 20 1023 56 10000 2.1 60 12:40 11.03.2020
1528 Clouds 20 1023 63 10000 2.6 60 12:19 11.03.2020
1529 Clouds 19 1023 67 10000 2.6 60 11:55 11.03.2020
1530 Clouds 17 1023 67 10000 2.6 60 11:36 11.03.2020
1531 Clouds 16 1023 67 10000 2.6 70 11:18 11.03.2020
1532 Clouds 15 1023 62 10000 2.1 90 10:42 11.03.2020
1533 Clouds 15 1022 67 10000 2.1 60 10:18 11.03.2020
1534 Clouds 14 1023 76 10000 1.5 50 09:43 11.03.2020
1535 Clouds 13 1023 76 10000 1.5 40 09:25 11.03.2020
1536 Clouds 12 1023 71 10000 1.5 60 08:49 11.03.2020
1537 Clouds 12 1023 71 10000 1.5 60 08:31 11.03.2020
1538 Clear 12 1022 71 10000 1.5 360 07:59 11.03.2020
1539 Clear 12 1022 81 10000 2.6 360 07:38 11.03.2020
1540 Clear 12 1022 81 10000 2.6 360 07:18 11.03.2020
1541 Clear 11 1022 87 10000 1.5 340 06:37 11.03.2020
1542 Clear 11 1022 93 10000 3.51 33 05:36 11.03.2020
1543 Clear 11 1023 87 10000 3.14 27 04:29 11.03.2020
1544 Clear 13 1024 71 10000 2.1 340 02:20 11.03.2020
1545 Clear 14 1024 71 10000 2.1 340 01:27 11.03.2020
1546 Clear 14 1025 67 10000 3.6 320 00:46 11.03.2020
1547 Clear 15 1025 72 10000 4.1 320 23:58 10.03.2020
1548 Clear 15 1025 72 10000 4.6 310 23:40 10.03.2020
1549 Clear 15 1025 72 10000 4.6 310 23:21 10.03.2020
1550 Clear 15 1025 72 10000 4.6 310 22:39 10.03.2020
1551 Clear 16 1025 67 10000 4.6 310 22:20 10.03.2020
1552 Clear 16 1025 67 10000 4.6 310 22:20 10.03.2020
1553 Clear 16 1025 67 10000 4.1 310 21:57 10.03.2020
1554 Clear 16 1025 67 10000 4.1 310 21:57 10.03.2020
1555 Clear 16 1025 67 10000 4.1 310 21:38 10.03.2020
1556 Clear 16 1025 67 10000 4.1 310 21:38 10.03.2020
1557 Clear 16 1025 72 10000 3.6 320 21:20 10.03.2020
1558 Clear 17 1025 72 10000 3.6 320 20:58 10.03.2020
1559 Clear 17 1025 68 10000 3.6 310 20:40 10.03.2020
1560 Clear 18 1024 68 10000 4.6 320 20:18 10.03.2020
1561 Clear 18 1024 68 10000 4.6 320 19:56 10.03.2020
1562 Clear 18 1024 68 10000 4.6 320 19:37 10.03.2020
1563 Clear 19 1025 64 10000 4.1 310 19:19 10.03.2020
1564 Clear 21 1024 60 10000 3.6 320 18:44 10.03.2020
1565 Clear 21 1024 43 10000 2.1 0 18:25 10.03.2020
1566 Clear 22 1024 36 10000 2.1 70 17:57 10.03.2020
1567 Clear 22 1024 43 10000 1.5 0 17:39 10.03.2020
1568 Clear 22 1024 43 10000 1.5 0 17:39 10.03.2020
1569 Clear 22 1025 40 10000 2.6 70 17:21 10.03.2020
1570 Clear 22 1025 43 10000 2.6 70 16:39 10.03.2020
1571 Clear 22 1025 37 10000 2.6 60 16:19 10.03.2020
1572 Clear 22 1025 37 10000 2.6 60 15:56 10.03.2020
1573 Clear 22 1025 37 10000 2.6 60 15:56 10.03.2020
1574 Clear 22 1025 37 10000 2.6 60 15:37 10.03.2020
1575 Clear 21 1026 43 10000 2.6 60 15:19 10.03.2020
1576 Clear 21 1026 49 10000 2.6 60 14:41 10.03.2020
1577 Clear 20 1027 63 10000 2.1 60 14:20 10.03.2020
1578 Clear 20 1027 63 10000 2.1 60 13:59 10.03.2020
1579 Clear 19 1027 59 10000 2.1 80 13:41 10.03.2020
1580 Clear 19 1027 59 10000 2.1 80 13:22 10.03.2020
1581 Clear 18 1027 63 10000 2.1 70 12:42 10.03.2020
1582 Clear 17 1027 67 10000 2.6 60 12:21 10.03.2020
1583 Clear 16 1028 67 10000 2.6 60 11:58 10.03.2020
1584 Clear 16 1028 67 10000 2.6 60 11:40 10.03.2020
1585 Clear 15 1028 63 10000 2.1 50 11:22 10.03.2020
1586 Clear 14 1028 67 10000 1.5 10 10:43 10.03.2020
1587 Clear 14 1028 67 10000 1.5 10 10:43 10.03.2020
1588 Clear 14 1028 76 10000 2.1 320 10:23 10.03.2020
1589 Clear 13 1028 76 10000 2.1 320 09:59 10.03.2020
1590 Clear 13 1027 76 10000 1.5 20 09:41 10.03.2020
1591 Clear 11 1027 81 10000 2.6 360 09:19 10.03.2020
1592 Clear 10 1026 76 10000 3.6 320 08:51 10.03.2020
1593 Clear 10 1026 76 10000 3.6 320 08:32 10.03.2020
1594 Clear 10 1026 81 10000 3.1 320 07:51 10.03.2020
1595 Clear 10 1026 81 10000 3.1 320 07:32 10.03.2020
1596 Clear 9 1026 87 10000 1.5 330 06:48 10.03.2020
1597 Clear 10 1026 87 10000 3.1 310 06:30 10.03.2020
1598 Clear 10 1027 87 10000 1.5 320 05:42 10.03.2020
1599 Clear 11 1026 87 10000 3.1 360 04:53 10.03.2020
1600 Clear 11 1027 93 10000 3.6 340 04:24 10.03.2020
1601 Clear 11 1028 87 10000 5.1 350 02:44 10.03.2020
1602 Clear 12 1028 87 10000 4.6 340 01:31 10.03.2020
1603 Clear 12 1028 87 10000 3.1 320 00:50 10.03.2020
1604 Clear 12 1028 87 10000 4.6 330 00:27 10.03.2020
1605 Clear 12 1029 81 10000 4.6 330 23:41 09.03.2020
1606 Clear 12 1028 81 10000 4.1 330 23:22 09.03.2020
1607 Clouds 12 1028 81 10000 3.1 310 22:56 09.03.2020
1608 Clouds 12 1028 81 10000 3.1 310 22:37 09.03.2020
1609 Clouds 12 1028 71 10000 5.1 360 22:18 09.03.2020
1610 Clouds 12 1028 76 10000 4.1 330 21:42 09.03.2020
1611 Clouds 13 1028 76 10000 6.2 310 21:22 09.03.2020
1612 Clouds 13 1028 76 10000 6.2 310 20:58 09.03.2020
1613 Clouds 13 1028 76 10000 6.7 320 20:39 09.03.2020
1614 Clouds 13 1028 71 10000 7.2 330 20:20 09.03.2020
1615 Clouds 14 1028 71 10000 7.2 330 19:45 09.03.2020
1616 Clouds 15 1028 67 10000 7.7 330 19:26 09.03.2020
1617 Clouds 15 1028 67 10000 7.7 330 18:59 09.03.2020
1618 Clouds 16 1028 63 10000 5.7 340 18:40 09.03.2020
1619 Clouds 17 1028 59 10000 6.7 330 18:20 09.03.2020
1620 Clouds 17 1028 52 10000 7.2 330 17:58 09.03.2020
1621 Clouds 17 1028 52 10000 7.2 330 17:38 09.03.2020
1622 Clear 18 1028 48 10000 6.7 340 17:20 09.03.2020
1623 Clear 18 1029 52 10000 6.2 350 16:59 09.03.2020
1624 Clear 18 1029 52 10000 6.2 350 16:41 09.03.2020
1625 Clear 18 1029 48 10000 7.2 330 16:22 09.03.2020
1626 Clear 18 1029 48 10000 7.2 330 15:58 09.03.2020
1627 Clear 18 1029 48 10000 7.2 330 15:39 09.03.2020
1628 Clear 18 1029 48 10000 4.6 320 15:21 09.03.2020
1629 Clear 18 1029 52 10000 5.1 340 14:58 09.03.2020
1630 Clear 18 1030 52 10000 5.1 350 14:38 09.03.2020
1631 Clouds 18 1030 52 10000 5.1 350 14:19 09.03.2020
1632 Clouds 18 1030 52 10000 4.1 330 13:58 09.03.2020
1633 Clouds 18 1030 52 10000 4.1 330 13:38 09.03.2020
1634 Clouds 17 1030 55 10000 3.6 350 13:19 09.03.2020
1635 Clouds 17 1030 59 10000 4.6 350 12:43 09.03.2020
1636 Clouds 16 1031 59 10000 7.2 20 12:23 09.03.2020
1637 Clouds 15 1030 67 10000 6.2 360 11:58 09.03.2020
1638 Clouds 15 1030 71 10000 6.7 340 11:38 09.03.2020
1639 Clouds 15 1030 71 10000 6.7 340 11:20 09.03.2020
1640 Clouds 14 1030 76 10000 6.2 350 10:55 09.03.2020
1641 Clouds 14 1030 76 10000 6.2 350 10:37 09.03.2020
1642 Clouds 13 1030 87 10000 5.1 330 10:18 09.03.2020
1643 Clouds 12 1030 87 10000 3.6 320 09:42 09.03.2020
1644 Clouds 12 1029 93 10000 2.6 350 09:23 09.03.2020
1645 Clouds 11 1029 93 10000 0.5 0 08:45 09.03.2020
1646 Clouds 10 1029 93 10000 2.6 360 08:27 09.03.2020
1647 Clouds 10 1029 93 10000 3.6 340 07:44 09.03.2020
1648 Clouds 10 1029 93 10000 2.1 340 07:22 09.03.2020
1649 Clouds 11 1029 93 10000 1.5 360 06:59 09.03.2020
1650 Clouds 11 1029 87 10000 2.71 351 06:38 09.03.2020
1651 Clouds 11 1029 87 10000 2.71 351 06:20 09.03.2020
1652 Clouds 11 1029 93 10000 2.71 351 05:41 09.03.2020
1653 Clouds 12 1029 93 10000 1.5 340 04:48 09.03.2020
1654 Clouds 12 1029 93 10000 3.6 330 04:23 09.03.2020
1655 Clouds 12 1029 93 10000 3.1 350 03:46 09.03.2020
1656 Clouds 13 1029 93 10000 3.1 350 02:37 09.03.2020
1657 Clouds 14 1029 93 10000 2.6 340 00:42 09.03.2020
1658 Clouds 14 1030 93 10000 1.5 340 00:24 09.03.2020
1659 Clouds 14 1030 93 10000 1.5 310 23:55 08.03.2020
1660 Drizzle 14 1030 100 10000 1.5 300 23:29 08.03.2020
1661 Clouds 14 1030 93 9000 1.5 300 22:59 08.03.2020
1662 Clouds 14 1029 87 10000 3.1 320 22:40 08.03.2020
1663 Clouds 14 1029 87 10000 3.1 320 22:21 08.03.2020
1664 Clouds 14 1029 87 10000 2.6 310 21:57 08.03.2020
1665 Clouds 14 1029 87 10000 2.6 310 21:57 08.03.2020
1666 Clouds 14 1029 87 10000 2.6 310 21:39 08.03.2020
1667 Clouds 14 1029 82 10000 2.1 310 21:20 08.03.2020
1668 Clouds 14 1029 82 10000 3.6 330 20:56 08.03.2020
1669 Clouds 14 1028 82 10000 5.1 310 20:37 08.03.2020
1670 Clouds 14 1028 82 10000 5.1 310 20:19 08.03.2020
1671 Clouds 14 1028 76 10000 5.7 320 19:38 08.03.2020
1672 Clouds 15 1028 72 10000 3.6 320 19:19 08.03.2020
1673 Clouds 15 1028 72 10000 3.6 330 18:55 08.03.2020
1674 Clouds 15 1028 72 10000 4.1 340 18:37 08.03.2020
1675 Clouds 15 1028 72 10000 4.1 340 18:18 08.03.2020
1676 Clouds 16 1028 63 10000 4.6 340 17:39 08.03.2020
1677 Clouds 17 1028 63 10000 4.6 340 17:20 08.03.2020
1678 Clouds 17 1028 63 10000 4.6 340 17:20 08.03.2020
1679 Clouds 17 1028 63 10000 4.6 340 16:57 08.03.2020
1680 Clouds 17 1028 63 10000 5.1 350 16:39 08.03.2020
1681 Clouds 17 1028 63 10000 5.7 340 16:20 08.03.2020
1682 Clouds 17 1027 59 10000 3.6 320 15:41 08.03.2020
1683 Clouds 17 1027 59 10000 3.6 320 15:21 08.03.2020
1684 Clouds 17 1028 63 10000 4.1 350 14:56 08.03.2020
1685 Clouds 17 1028 63 10000 4.1 350 14:37 08.03.2020
1686 Clouds 17 1028 63 10000 4.1 350 14:19 08.03.2020
1687 Clouds 17 1029 63 10000 3.6 350 13:41 08.03.2020
1688 Clouds 16 1029 63 10000 3.6 350 13:20 08.03.2020
1689 Clouds 16 1029 67 10000 5.1 350 12:49 08.03.2020
1690 Clouds 15 1029 67 10000 4.6 330 12:30 08.03.2020
1691 Clouds 14 1029 67 10000 4.6 340 11:59 08.03.2020
1692 Clouds 14 1029 71 10000 4.1 340 11:41 08.03.2020
1693 Clouds 14 1029 71 10000 4.1 340 11:21 08.03.2020
1694 Clouds 14 1029 71 10000 4.1 340 11:21 08.03.2020
1695 Clouds 13 1029 76 10000 3.1 340 10:42 08.03.2020
1696 Clouds 13 1029 76 10000 3.1 340 10:24 08.03.2020
1697 Clouds 12 1028 76 10000 2.6 330 09:59 08.03.2020
1698 Clouds 11 1028 81 10000 2.6 320 09:38 08.03.2020
1699 Clouds 10 1028 81 10000 2.6 320 09:20 08.03.2020
1700 Clouds 9 1028 81 10000 2.1 320 08:42 08.03.2020
1701 Clouds 9 1027 87 10000 2.6 320 08:21 08.03.2020
1702 Clear 8 1027 87 10000 2.6 320 07:45 08.03.2020
1703 Clear 8 1027 87 10000 2.6 330 07:26 08.03.2020
1704 Clear 8 1027 93 10000 1.5 340 06:43 08.03.2020
1705 Clear 8 1027 93 10000 1.5 340 06:24 08.03.2020
1706 Clear 8 1027 93 10000 1.5 360 05:43 08.03.2020
1707 Clear 8 1027 81 10000 2.1 10 03:52 08.03.2020
1708 Clear 9 1028 81 10000 2.1 360 02:40 08.03.2020
1709 Clouds 10 1028 71 10000 3.6 340 01:37 08.03.2020
1710 Clouds 11 1028 71 10000 4.1 340 01:18 08.03.2020
1711 Clouds 11 1028 71 10000 4.6 330 00:30 08.03.2020
1712 Clouds 11 1028 76 10000 4.1 310 23:49 07.03.2020
1713 Clouds 11 1027 76 10000 4.6 320 23:27 07.03.2020
1714 Clear 12 1027 76 10000 4.1 320 22:58 07.03.2020
1715 Clear 12 1027 71 10000 4.6 310 22:37 07.03.2020
1716 Clear 12 1027 71 10000 4.6 310 22:19 07.03.2020
1717 Clear 12 1027 76 10000 4.1 310 21:43 07.03.2020
1718 Clear 12 1027 76 10000 4.1 310 21:43 07.03.2020
1719 Clear 13 1027 71 10000 4.1 310 21:22 07.03.2020
1720 Clear 13 1027 76 10000 4.6 320 20:41 07.03.2020
1721 Clear 14 1026 71 10000 3.6 310 20:21 07.03.2020
1722 Clear 14 1026 67 10000 5.7 330 19:42 07.03.2020
1723 Clear 15 1026 67 10000 5.1 340 19:23 07.03.2020
1724 Clear 16 1026 45 10000 2.1 90 18:59 07.03.2020
1725 Clear 18 1026 42 10000 1.5 70 18:39 07.03.2020
1726 Clear 18 1026 42 10000 1.5 70 18:21 07.03.2020
1727 Clouds 18 1026 45 10000 2.1 60 17:42 07.03.2020
1728 Clouds 18 1026 45 10000 3.1 0 17:20 07.03.2020
1729 Clouds 19 1026 45 10000 3.1 80 16:57 07.03.2020
1730 Clouds 19 1026 45 10000 3.1 80 16:39 07.03.2020
1731 Clouds 19 1026 45 10000 3.1 90 16:21 07.03.2020
1732 Clouds 19 1026 45 10000 3.1 90 16:21 07.03.2020
1733 Clouds 18 1027 48 10000 4.1 100 15:55 07.03.2020
1734 Clouds 18 1027 48 10000 4.6 60 15:37 07.03.2020
1735 Clouds 18 1027 48 10000 4.6 60 15:37 07.03.2020
1736 Clouds 18 1027 48 10000 4.6 60 15:19 07.03.2020
1737 Clear 18 1027 48 10000 4.1 70 14:44 07.03.2020
1738 Clear 18 1028 45 10000 4.6 90 14:23 07.03.2020
1739 Clear 17 1028 48 10000 4.1 90 13:57 07.03.2020
1740 Clear 17 1029 55 10000 4.6 80 13:38 07.03.2020
1741 Clear 17 1029 55 10000 4.6 80 13:18 07.03.2020
1742 Clear 16 1029 55 10000 4.6 80 12:40 07.03.2020
1743 Clear 16 1029 55 10000 4.6 50 12:20 07.03.2020
1744 Clear 15 1029 54 10000 5.1 20 11:57 07.03.2020
1745 Clear 15 1029 58 10000 4.1 20 11:38 07.03.2020
1746 Clear 14 1029 58 10000 4.1 20 11:19 07.03.2020
1747 Clear 14 1029 66 10000 3.1 360 10:40 07.03.2020
1748 Clear 13 1029 71 10000 4.1 360 10:20 07.03.2020
1749 Clear 12 1028 76 10000 5.1 350 09:56 07.03.2020
1750 Clear 11 1028 81 10000 4.6 340 09:37 07.03.2020
1751 Clear 11 1028 81 10000 4.6 340 09:18 07.03.2020
1752 Clear 10 1028 87 10000 3.6 340 08:43 07.03.2020
1753 Clear 10 1028 87 10000 3.6 350 08:21 07.03.2020
1754 Clear 9 1028 87 10000 3.6 330 07:49 07.03.2020
1755 Clear 10 1028 81 10000 4.6 340 07:23 07.03.2020
1756 Clear 10 1028 80 0 1.34 11 06:56 07.03.2020
1757 Clear 10 1027 79 0 2.68 1 06:29 07.03.2020
1758 Clear 10 1028 81 10000 6.7 350 05:52 07.03.2020
1759 Clear 11 1028 81 10000 6.7 350 04:43 07.03.2020
1760 Clear 11 1029 81 10000 5.1 350 02:47 07.03.2020
1761 Clear 11 1028 76 10000 2.1 20 02:24 07.03.2020
1762 Clear 11 1029 81 10000 1 0 01:26 07.03.2020
1763 Clear 11 1029 76 10000 2.1 350 00:38 07.03.2020
1764 Clear 11 1029 76 10000 4.6 360 00:20 07.03.2020
1765 Clear 11 1029 76 10000 6.2 360 23:45 06.03.2020
1766 Clear 11 1029 76 10000 4.6 20 23:26 06.03.2020
1767 Clouds 12 1029 71 10000 5.7 360 22:48 06.03.2020
1768 Clouds 12 1028 76 10000 7.7 350 22:21 06.03.2020
1769 Clouds 12 1028 76 10000 6.7 340 21:56 06.03.2020
1770 Clouds 12 1028 76 10000 6.7 340 21:38 06.03.2020
1771 Clouds 12 1028 76 10000 6.7 350 21:18 06.03.2020
1772 Clouds 12 1028 76 10000 6.7 350 21:18 06.03.2020
1773 Clouds 12 1028 66 10000 8.7 340 20:38 06.03.2020
1774 Clouds 12 1028 66 10000 8.7 340 20:20 06.03.2020
1775 Clouds 13 1027 66 10000 10.3 330 19:47 06.03.2020
1776 Clouds 13 1027 58 10000 10.8 340 19:28 06.03.2020
1777 Clouds 14 1027 58 10000 9.8 340 18:57 06.03.2020
1778 Clouds 14 1027 58 10000 9.8 340 18:38 06.03.2020
1779 Clouds 14 1027 58 10000 9.8 340 18:19 06.03.2020
1780 Clouds 15 1026 62 10000 10.3 330 17:42 06.03.2020
1781 Clouds 15 1026 54 10000 9.3 350 17:24 06.03.2020
1782 Clouds 15 1026 51 10000 9.8 350 16:59 06.03.2020
1783 Clouds 16 1026 51 10000 9.8 350 16:40 06.03.2020
1784 Clouds 15 1026 51 10000 9.8 350 16:20 06.03.2020
1785 Clouds 15 1027 54 10000 8.7 340 15:45 06.03.2020
1786 Clouds 16 1026 51 10000 8.2 340 15:24 06.03.2020
1787 Clouds 16 1027 51 10000 8.7 350 14:55 06.03.2020
1788 Clouds 15 1027 54 10000 9.3 340 14:37 06.03.2020
1789 Clouds 16 1027 54 10000 9.3 340 14:18 06.03.2020
1790 Clouds 15 1028 62 10000 8.2 340 13:42 06.03.2020
1791 Clouds 15 1028 62 10000 7.7 330 13:22 06.03.2020
1792 Clouds 15 1028 54 10000 9.3 350 12:57 06.03.2020
1793 Clouds 15 1027 58 10000 9.3 330 12:38 06.03.2020
1794 Clouds 14 1027 58 10000 9.3 330 12:19 06.03.2020
1795 Clouds 14 1027 62 10000 9.3 340 11:57 06.03.2020
1796 Clouds 14 1027 62 10000 9.3 340 11:38 06.03.2020
1797 Clouds 14 1027 67 10000 7.7 340 11:19 06.03.2020
1798 Clouds 13 1026 66 10000 4.6 330 10:39 06.03.2020
1799 Clouds 13 1026 66 10000 4.6 330 10:20 06.03.2020
1800 Clouds 13 1026 62 10000 6.2 330 09:55 06.03.2020
1801 Clouds 12 1026 71 10000 6.2 330 09:36 06.03.2020
1802 Clouds 12 1026 71 10000 6.2 330 09:18 06.03.2020
1803 Clouds 12 1025 76 10000 5.7 340 08:43 06.03.2020
1804 Clouds 12 1025 76 10000 4.6 330 08:25 06.03.2020
1805 Clouds 12 1025 76 10000 4.6 330 08:25 06.03.2020
1806 Clouds 12 1025 76 10000 3.1 320 07:57 06.03.2020
1807 Clouds 12 1024 76 10000 3.1 330 07:37 06.03.2020
1808 Clouds 12 1024 71 10000 5.1 330 06:58 06.03.2020
1809 Clouds 12 1024 71 10000 5.1 330 06:39 06.03.2020
1810 Clouds 13 1023 81 10000 4.1 310 05:42 06.03.2020
1811 Clouds 13 1023 81 10000 3.6 310 05:24 06.03.2020
1812 Clouds 13 1023 87 10000 4.1 300 04:57 06.03.2020
1813 Clouds 13 1024 81 10000 3.1 280 01:59 06.03.2020
1814 Clouds 13 1024 81 10000 3.1 280 01:39 06.03.2020
1815 Clouds 13 1024 81 10000 3.1 290 01:20 06.03.2020
1816 Clouds 13 1024 81 10000 3.1 290 00:32 06.03.2020
1817 Clouds 13 1024 81 10000 3.1 290 23:56 05.03.2020
1818 Clouds 13 1024 81 10000 3.1 300 23:38 05.03.2020
1819 Clouds 13 1024 81 10000 3.1 300 23:19 05.03.2020
1820 Clouds 13 1024 81 10000 2.6 290 22:40 05.03.2020
1821 Clouds 13 1024 81 10000 3.1 300 22:21 05.03.2020
1822 Clouds 13 1023 81 10000 3.1 300 21:57 05.03.2020
1823 Clouds 13 1023 81 10000 3.1 300 21:38 05.03.2020
1824 Clouds 13 1023 81 10000 3.1 300 21:20 05.03.2020
1825 Clouds 13 1023 76 10000 4.1 300 20:57 05.03.2020
1826 Clouds 13 1023 76 10000 3.1 310 20:39 05.03.2020
1827 Clouds 13 1023 76 10000 3.1 310 20:19 05.03.2020
1828 Clouds 14 1023 76 10000 3.1 310 19:56 05.03.2020
1829 Clouds 14 1023 76 10000 5.1 310 19:38 05.03.2020
1830 Clouds 14 1023 76 10000 5.1 310 19:18 05.03.2020
1831 Clouds 14 1022 71 10000 5.1 300 18:54 05.03.2020
1832 Clouds 15 1022 71 10000 4.6 300 18:36 05.03.2020
1833 Clouds 15 1022 71 10000 4.6 300 18:18 05.03.2020
1834 Clouds 15 1022 71 10000 5.7 310 17:41 05.03.2020
1835 Clouds 15 1021 71 10000 5.7 310 17:22 05.03.2020
1836 Rain 15 1021 76 10000 6.7 300 16:57 05.03.2020
1837 Clouds 16 1021 67 10000 6.7 310 16:38 05.03.2020
1838 Clouds 16 1021 67 10000 6.7 310 16:19 05.03.2020
1839 Clouds 16 1021 67 10000 6.7 300 15:45 05.03.2020
1840 Clouds 16 1021 67 10000 5.7 320 15:23 05.03.2020
1841 Clouds 16 1021 63 10000 6.2 310 14:59 05.03.2020
1842 Clouds 16 1022 72 10000 6.2 310 14:40 05.03.2020
1843 Clouds 16 1022 72 10000 6.2 310 14:21 05.03.2020
1844 Clouds 16 1022 63 10000 5.7 310 13:56 05.03.2020
1845 Clouds 16 1022 67 10000 7.2 320 13:37 05.03.2020
1846 Clouds 16 1022 67 10000 7.2 320 13:37 05.03.2020
1847 Clouds 16 1022 67 10000 7.2 320 13:19 05.03.2020
1848 Clouds 15 1021 67 10000 5.7 310 12:41 05.03.2020
1849 Clouds 15 1021 67 10000 5.7 310 12:20 05.03.2020
1850 Clouds 15 1021 62 10000 6.7 300 11:57 05.03.2020
1851 Clouds 15 1021 67 10000 6.2 310 11:37 05.03.2020
1852 Clouds 15 1021 67 10000 6.2 310 11:19 05.03.2020
1853 Clouds 15 1020 76 10000 5.7 300 10:57 05.03.2020
1854 Clouds 14 1020 76 10000 3.1 310 10:39 05.03.2020
1855 Clouds 14 1020 76 10000 3.1 310 10:21 05.03.2020
1856 Clouds 14 1020 82 10000 3.6 310 09:46 05.03.2020
1857 Clouds 14 1019 87 10000 4.1 300 09:28 05.03.2020
1858 Clouds 13 1018 87 10000 3.6 290 08:49 05.03.2020
1859 Clouds 13 1018 87 10000 3.6 290 08:49 05.03.2020
1860 Clouds 13 1018 82 10000 2.6 300 08:31 05.03.2020
1861 Drizzle 13 1018 93 10000 7.2 310 07:56 05.03.2020
1862 Drizzle 13 1018 100 4000 5.1 300 07:36 05.03.2020
1863 Drizzle 13 1018 100 4000 5.1 300 07:18 05.03.2020
1864 Drizzle 14 1017 100 6000 6.2 230 06:43 05.03.2020
1865 Rain 15 1018 87 7000 6.7 230 06:19 05.03.2020
1866 Clouds 15 1018 100 10000 5.1 220 05:33 05.03.2020
1867 Clouds 15 1019 93 10000 5.1 230 04:23 05.03.2020
1868 Clouds 15 1019 93 10000 5.1 230 03:58 05.03.2020
1869 Clouds 15 1020 93 10000 5.1 230 02:32 05.03.2020
1870 Clouds 15 1021 93 10000 4.1 240 01:26 05.03.2020
1871 Clouds 15 1022 93 10000 4.6 240 00:49 05.03.2020
1872 Clouds 15 1022 93 10000 4.6 230 23:57 04.03.2020
1873 Clouds 15 1022 93 10000 4.6 230 23:57 04.03.2020
1874 Clouds 15 1022 93 10000 5.1 230 23:39 04.03.2020
1875 Clouds 15 1022 93 10000 5.1 230 23:21 04.03.2020
1876 Clouds 15 1022 87 10000 4.1 240 22:56 04.03.2020
1877 Clouds 15 1022 87 10000 3.6 250 22:37 04.03.2020
1878 Clouds 15 1022 87 10000 3.6 250 22:18 04.03.2020
1879 Clouds 15 1023 87 10000 3.6 250 21:42 04.03.2020
1880 Clouds 15 1022 87 10000 3.1 250 21:23 04.03.2020
1881 Clouds 16 1022 87 10000 4.1 250 20:59 04.03.2020
1882 Clouds 16 1022 87 10000 4.1 250 20:40 04.03.2020
1883 Clouds 16 1022 82 10000 5.7 260 20:21 04.03.2020
1884 Clouds 16 1022 82 10000 5.7 260 20:21 04.03.2020
1885 Clouds 16 1022 82 10000 5.7 260 19:56 04.03.2020
1886 Clouds 16 1022 82 10000 5.7 260 19:38 04.03.2020
1887 Clouds 16 1022 82 10000 5.1 260 19:20 04.03.2020
1888 Clouds 16 1022 82 10000 5.1 260 19:20 04.03.2020
1889 Clouds 17 1022 77 10000 5.7 250 18:42 04.03.2020
1890 Clouds 17 1022 72 10000 5.7 230 18:23 04.03.2020
1891 Clouds 18 1022 72 10000 5.7 240 17:59 04.03.2020
1892 Clouds 18 1022 72 10000 4.1 230 17:39 04.03.2020
1893 Clouds 18 1022 72 10000 4.1 230 17:20 04.03.2020
1894 Clouds 18 1022 77 10000 4.6 230 16:56 04.03.2020
1895 Clouds 18 1023 77 10000 5.1 240 16:37 04.03.2020
1896 Clouds 18 1023 77 10000 5.1 240 16:19 04.03.2020
1897 Clouds 18 1023 72 10000 6.2 230 15:44 04.03.2020
1898 Clouds 18 1023 72 10000 6.2 230 15:26 04.03.2020
1899 Clouds 19 1024 72 10000 5.7 230 14:58 04.03.2020
1900 Clouds 19 1024 72 10000 4.6 230 14:39 04.03.2020
1901 Clouds 18 1024 72 10000 4.6 230 14:19 04.03.2020
1902 Clouds 18 1025 72 10000 5.1 230 13:58 04.03.2020
1903 Clouds 18 1025 72 10000 4.6 230 13:39 04.03.2020
1904 Clouds 18 1025 72 10000 4.6 230 13:20 04.03.2020
1905 Clouds 18 1025 72 10000 4.1 240 12:55 04.03.2020
1906 Clouds 18 1025 72 10000 4.6 230 12:37 04.03.2020
1907 Clouds 18 1025 72 10000 4.6 230 12:19 04.03.2020
1908 Clouds 17 1025 77 10000 4.1 250 11:42 04.03.2020
1909 Clouds 17 1025 77 10000 4.1 250 11:42 04.03.2020
1910 Clouds 17 1025 77 10000 4.1 250 11:23 04.03.2020
1911 Clouds 16 1025 77 10000 3.6 250 10:59 04.03.2020
1912 Clouds 17 1025 77 10000 3.6 250 10:41 04.03.2020
1913 Clouds 16 1025 77 10000 3.1 230 10:22 04.03.2020
1914 Clouds 15 1025 82 10000 2.6 270 09:44 04.03.2020
1915 Clouds 15 1024 77 10000 2.6 250 09:21 04.03.2020
1916 Clouds 15 1024 82 10000 2.6 230 08:56 04.03.2020
1917 Clouds 15 1024 82 10000 2.6 240 08:37 04.03.2020
1918 Clouds 15 1024 82 10000 2.6 240 08:19 04.03.2020
1919 Clouds 15 1024 82 10000 2.6 220 07:39 04.03.2020
1920 Clouds 15 1024 82 10000 2.1 230 07:20 04.03.2020
1921 Clouds 15 1024 82 10000 2.6 230 06:47 04.03.2020
1922 Clouds 15 1024 87 10000 2.1 250 06:25 04.03.2020
1923 Clouds 15 1024 87 10000 3.6 260 05:54 04.03.2020
1924 Clouds 15 1024 93 10000 3.1 240 04:40 04.03.2020
1925 Clouds 15 1025 93 10000 2.1 250 03:48 04.03.2020
1926 Clouds 15 1025 93 10000 2.6 230 03:30 04.03.2020
1927 Clouds 15 1025 93 10000 2.6 230 02:58 04.03.2020
1928 Clouds 15 1025 87 10000 2.6 240 02:22 04.03.2020
1929 Clouds 15 1025 87 10000 2.6 240 01:56 04.03.2020
1930 Clouds 15 1025 93 10000 3.6 240 01:22 04.03.2020
1931 Clouds 15 1025 93 10000 3.1 240 00:36 04.03.2020
1932 Clouds 15 1025 93 10000 3.1 240 00:18 04.03.2020
1933 Clouds 15 1025 87 10000 3.1 250 23:40 03.03.2020
1934 Clouds 15 1025 87 10000 3.6 250 23:22 03.03.2020
1935 Clouds 15 1025 87 10000 3.6 250 22:41 03.03.2020
1936 Clouds 15 1025 93 10000 3.6 260 22:20 03.03.2020
1937 Clouds 15 1024 87 10000 2.6 270 21:59 03.03.2020
1938 Clouds 15 1024 87 10000 3.1 270 21:40 03.03.2020
1939 Clouds 16 1024 87 10000 3.1 270 21:21 03.03.2020
1940 Clouds 16 1024 82 10000 3.1 280 20:57 03.03.2020
1941 Clouds 16 1024 82 10000 3.6 280 20:38 03.03.2020
1942 Clouds 16 1024 82 10000 3.6 280 20:18 03.03.2020
1943 Clouds 16 1024 82 10000 3.6 280 19:55 03.03.2020
1944 Clouds 16 1024 82 10000 4.1 280 19:37 03.03.2020
1945 Clouds 16 1024 82 10000 4.1 280 19:37 03.03.2020
1946 Clouds 16 1024 82 10000 4.1 280 19:18 03.03.2020
1947 Clouds 16 1023 82 10000 4.1 300 18:55 03.03.2020
1948 Clouds 17 1023 77 10000 3.6 290 18:37 03.03.2020
1949 Clouds 17 1023 77 10000 3.6 290 18:37 03.03.2020
1950 Clouds 17 1023 77 10000 3.6 290 18:18 03.03.2020
1951 Clouds 17 1023 77 10000 4.6 290 17:41 03.03.2020
1952 Clouds 17 1023 77 10000 4.6 290 17:41 03.03.2020
1953 Clouds 17 1023 77 10000 4.1 290 17:22 03.03.2020
1954 Clouds 17 1023 77 10000 5.7 290 16:59 03.03.2020
1955 Clouds 17 1023 77 10000 5.7 290 16:38 03.03.2020
1956 Clouds 17 1023 82 10000 5.1 290 16:20 03.03.2020
1957 Clouds 18 1022 77 10000 5.7 290 15:58 03.03.2020
1958 Clouds 18 1022 77 10000 5.7 290 15:40 03.03.2020
1959 Clouds 18 1023 77 10000 5.7 280 15:20 03.03.2020
1960 Clouds 18 1023 77 10000 5.7 280 14:43 03.03.2020
1961 Clouds 18 1023 72 10000 5.7 280 14:21 03.03.2020
1962 Clouds 17 1024 72 10000 5.7 280 13:59 03.03.2020
1963 Clouds 17 1024 72 10000 5.7 280 13:59 03.03.2020
1964 Clouds 17 1024 72 10000 5.7 280 13:41 03.03.2020
1965 Clouds 17 1023 77 10000 5.7 280 13:22 03.03.2020
1966 Clouds 17 1023 87 10000 4.6 280 12:49 03.03.2020
1967 Drizzle 16 1023 93 7000 5.1 270 12:27 03.03.2020
1968 Drizzle 16 1023 100 3000 4.6 240 11:59 03.03.2020
1969 Drizzle 15 1023 100 3000 4.6 240 11:38 03.03.2020
1970 Drizzle 15 1023 100 3000 5.1 240 11:19 03.03.2020
1971 Drizzle 15 1023 93 2500 4.6 230 10:57 03.03.2020
1972 Drizzle 15 1023 93 2500 4.6 230 10:38 03.03.2020
1973 Drizzle 15 1023 93 4000 5.7 230 10:19 03.03.2020
1974 Clouds 15 1023 87 10000 5.1 230 09:45 03.03.2020
1975 Rain 15 1023 93 8000 4.6 240 09:23 03.03.2020
1976 Clouds 14 1023 87 10000 4.6 250 08:59 03.03.2020
1977 Clouds 14 1023 87 10000 4.6 250 08:39 03.03.2020
1978 Clouds 14 1022 87 10000 5.1 260 08:21 03.03.2020
1979 Clouds 14 1022 87 10000 6.2 240 07:44 03.03.2020
1980 Clouds 14 1022 87 10000 5.7 240 07:23 03.03.2020
1981 Clouds 13 1022 87 10000 5.1 240 06:54 03.03.2020
1982 Clouds 13 1022 87 10000 5.1 230 06:27 03.03.2020
1983 Clouds 13 1022 87 10000 4.6 230 05:48 03.03.2020
1984 Clouds 12 1022 93 10000 3.1 230 05:30 03.03.2020
1985 Clouds 12 1022 87 10000 2.6 240 04:38 03.03.2020
1986 Clouds 11 1023 81 10000 2.6 240 01:41 03.03.2020
1987 Clouds 12 1024 87 10000 2.1 230 00:59 03.03.2020
1988 Clouds 12 1024 81 10000 1.5 260 00:37 03.03.2020
1989 Clouds 12 1024 81 10000 1.5 260 00:18 03.03.2020
1990 Clouds 12 1024 81 10000 2.6 230 23:42 02.03.2020
1991 Clouds 12 1024 81 10000 3.1 240 23:23 02.03.2020
1992 Clear 13 1024 81 10000 2.6 250 22:56 02.03.2020
1993 Clear 13 1024 81 10000 2.6 250 22:37 02.03.2020
1994 Clear 13 1023 81 10000 2.1 250 22:19 02.03.2020
1995 Clear 13 1023 76 10000 1.5 280 21:42 02.03.2020
1996 Clouds 13 1023 76 10000 2.1 300 21:24 02.03.2020
1997 Clouds 13 1022 71 10000 2.1 300 20:59 02.03.2020
1998 Clouds 13 1022 71 10000 2.1 300 20:41 02.03.2020
1999 Clouds 13 1022 71 10000 2.6 310 20:21 02.03.2020
2000 Clouds 13 1021 71 10000 4.1 300 19:57 02.03.2020
2001 Clouds 14 1021 67 10000 4.1 300 19:39 02.03.2020
2002 Clouds 14 1021 67 10000 4.1 300 19:20 02.03.2020
2003 Clouds 15 1021 62 10000 3.6 290 18:55 02.03.2020
2004 Clouds 15 1021 58 10000 5.1 290 18:37 02.03.2020
2005 Clouds 15 1021 58 10000 5.1 290 18:18 02.03.2020
2006 Clouds 15 1021 58 10000 5.7 300 17:55 02.03.2020
2007 Clouds 15 1020 62 10000 5.7 300 17:37 02.03.2020
2008 Clouds 15 1020 62 10000 5.7 300 17:19 02.03.2020
2009 Clouds 16 1020 55 10000 6.2 310 16:41 02.03.2020
2010 Clouds 16 1020 55 10000 6.2 310 16:23 02.03.2020
2011 Clouds 16 1020 54 10000 6.2 290 15:54 02.03.2020
2012 Clouds 16 1020 59 10000 5.7 300 15:36 02.03.2020
2013 Clouds 16 1020 59 10000 5.7 300 15:18 02.03.2020
2014 Clouds 15 1021 62 10000 5.7 300 14:37 02.03.2020
2015 Clouds 16 1021 62 10000 5.7 300 14:19 02.03.2020
2016 Clouds 16 1021 62 10000 5.7 300 14:19 02.03.2020
2017 Clouds 16 1020 58 10000 5.7 300 13:44 02.03.2020
2018 Clouds 16 1020 58 10000 6.2 310 13:20 02.03.2020
2019 Clouds 16 1020 58 10000 5.7 290 12:59 02.03.2020
2020 Clouds 15 1020 58 10000 5.7 290 12:41 02.03.2020
2021 Clouds 15 1019 62 10000 5.1 300 12:19 02.03.2020
2022 Clouds 15 1019 58 10000 6.7 310 11:39 02.03.2020
2023 Clouds 15 1019 67 10000 4.6 310 11:19 02.03.2020
2024 Clouds 15 1018 71 10000 5.1 300 10:56 02.03.2020
2025 Clouds 14 1018 71 10000 4.6 300 10:37 02.03.2020
2026 Clouds 14 1018 71 10000 4.6 300 10:18 02.03.2020
2027 Clouds 14 1017 76 10000 4.1 300 09:49 02.03.2020
2028 Clouds 14 1017 76 10000 4.1 300 09:49 02.03.2020
2029 Clouds 14 1016 76 10000 3.6 290 09:30 02.03.2020
2030 Clouds 14 1016 76 10000 3.6 280 08:49 02.03.2020
2031 Clouds 13 1015 82 10000 3.1 0 08:23 02.03.2020
2032 Clouds 14 1015 87 10000 5.1 300 07:52 02.03.2020
2033 Clouds 14 1014 82 10000 5.7 300 07:32 02.03.2020
2034 Clouds 15 1013 93 10000 7.2 280 06:51 02.03.2020
2035 Drizzle 15 1013 93 9000 7.7 270 06:26 02.03.2020
2036 Drizzle 16 1013 87 10000 9.8 270 05:25 02.03.2020
2037 Drizzle 16 1013 93 8000 9.3 250 03:57 02.03.2020
2038 Drizzle 16 1013 87 9000 9.3 250 02:57 02.03.2020
2039 Rain 16 1013 87 10000 8.7 240 02:30 02.03.2020
2040 Clouds 16 1013 87 10000 10.3 230 01:37 02.03.2020
2041 Clouds 16 1013 87 10000 10.3 230 01:19 02.03.2020
2042 Clouds 16 1014 87 10000 10.8 240 00:22 02.03.2020
2043 Clouds 16 1014 87 10000 10.3 230 23:43 01.03.2020
2044 Clouds 16 1014 87 10000 9.3 230 23:24 01.03.2020
2045 Drizzle 16 1014 87 10000 9.3 230 22:55 01.03.2020
2046 Clouds 16 1014 87 10000 8.7 240 22:36 01.03.2020
2047 Clouds 16 1014 87 10000 8.7 240 22:18 01.03.2020
2048 Clouds 16 1015 93 10000 9.3 240 21:41 01.03.2020
2049 Clouds 15 1014 100 9000 9.8 230 21:23 01.03.2020
2050 Clouds 15 1014 100 8000 10.3 230 20:56 01.03.2020
2051 Drizzle 15 1014 100 7000 8.2 230 20:37 01.03.2020
2052 Drizzle 15 1014 100 7000 8.2 230 20:19 01.03.2020
2053 Drizzle 15 1014 100 6000 9.3 230 19:42 01.03.2020
2054 Drizzle 15 1014 100 4500 8.7 230 19:22 01.03.2020
2055 Rain 16 1015 93 9000 8.7 220 18:58 01.03.2020
2056 Rain 16 1015 93 9000 8.7 220 18:39 01.03.2020
2057 Clouds 16 1015 93 10000 7.7 220 18:19 01.03.2020
2058 Rain 16 1015 93 9000 7.7 220 17:55 01.03.2020
2059 Rain 16 1016 93 10000 6.7 220 17:37 01.03.2020
2060 Rain 16 1016 93 10000 6.7 220 17:19 01.03.2020
2061 Clouds 16 1016 93 10000 7.2 220 16:54 01.03.2020
2062 Clouds 16 1016 93 10000 7.7 220 16:36 01.03.2020
2063 Clouds 16 1016 93 10000 7.7 220 16:18 01.03.2020
2064 Rain 16 1016 93 10000 5.7 220 15:55 01.03.2020
2065 Clouds 16 1017 93 10000 6.7 220 15:36 01.03.2020
2066 Drizzle 16 1017 93 9000 7.2 230 15:18 01.03.2020
2067 Drizzle 16 1017 93 9000 7.2 230 14:55 01.03.2020
2068 Clouds 16 1017 87 10000 6.2 220 14:36 01.03.2020
2069 Clouds 16 1017 87 10000 6.2 220 14:36 01.03.2020
2070 Clouds 16 1017 87 10000 6.2 220 14:18 01.03.2020
2071 Rain 16 1018 93 10000 6.2 230 13:43 01.03.2020
2072 Drizzle 16 1018 100 5000 7.7 230 13:21 01.03.2020
2073 Drizzle 15 1018 93 4500 7.2 220 12:59 01.03.2020
2074 Drizzle 15 1018 93 4500 7.2 220 12:40 01.03.2020
2075 Clouds 16 1018 93 10000 5.1 230 12:20 01.03.2020
2076 Clouds 16 1018 93 10000 5.1 230 11:41 01.03.2020
2077 Clouds 16 1018 93 10000 5.1 230 11:22 01.03.2020
2078 Drizzle 15 1018 93 7000 5.7 230 10:57 01.03.2020
2079 Drizzle 15 1018 93 8000 3.6 230 10:38 01.03.2020
2080 Drizzle 15 1018 93 8000 3.6 230 10:19 01.03.2020
2081 Rain 15 1018 93 10000 4.1 230 09:46 01.03.2020
2082 Drizzle 15 1017 93 8000 4.1 220 09:27 01.03.2020
2083 Clouds 15 1017 87 10000 4.6 230 08:57 01.03.2020
2084 Clouds 15 1017 87 10000 4.1 240 08:38 01.03.2020
2085 Clouds 15 1017 93 10000 4.1 230 08:19 01.03.2020
2086 Clouds 15 1017 93 10000 5.1 240 07:42 01.03.2020
2087 Clouds 15 1017 93 10000 5.1 230 07:23 01.03.2020
2088 Clouds 15 1018 93 10000 4.6 230 06:51 01.03.2020
2089 Clouds 15 1017 87 10000 5.1 240 06:29 01.03.2020
2090 Clouds 15 1018 87 10000 5.1 240 04:18 01.03.2020
2091 Clouds 15 1019 87 10000 4.1 240 02:27 01.03.2020
2092 Clouds 14 1019 87 10000 4.1 240 01:52 01.03.2020
2093 Clouds 14 1019 87 10000 3.6 230 01:22 01.03.2020
2094 Clouds 14 1019 93 10000 3.6 240 00:43 01.03.2020
2095 Clouds 14 1019 87 10000 3.6 240 00:21 01.03.2020
2096 Clouds 14 1019 82 10000 3.6 240 23:49 29.02.2020
2097 Clouds 14 1019 87 10000 3.1 230 23:30 29.02.2020
2098 Clouds 14 1019 87 10000 2.6 230 22:44 29.02.2020
2099 Clouds 14 1019 87 10000 3.6 250 22:24 29.02.2020
2100 Clouds 14 1018 87 10000 2.6 240 21:42 29.02.2020
2101 Clouds 14 1018 82 10000 3.1 250 21:24 29.02.2020
2102 Clouds 15 1018 82 10000 4.1 250 20:43 29.02.2020
2103 Clouds 15 1018 82 10000 3.6 260 20:22 29.02.2020
2104 Clouds 15 1018 72 10000 4.1 260 19:57 29.02.2020
2105 Clouds 15 1018 72 10000 4.1 260 19:38 29.02.2020
2106 Clouds 15 1017 72 10000 4.6 260 19:19 29.02.2020
2107 Clouds 15 1017 72 10000 5.1 270 18:43 29.02.2020
2108 Clouds 15 1017 77 10000 4.6 270 18:25 29.02.2020
2109 Clouds 16 1017 72 10000 4.6 270 17:58 29.02.2020
2110 Clouds 16 1017 72 10000 4.6 270 17:40 29.02.2020
2111 Clouds 16 1017 77 10000 4.1 280 17:21 29.02.2020
2112 Clouds 16 1017 72 10000 5.1 260 16:54 29.02.2020
2113 Clouds 16 1017 72 10000 4.1 280 16:36 29.02.2020
2114 Clouds 16 1017 72 10000 4.1 280 16:18 29.02.2020
2115 Clouds 16 1017 67 10000 4.6 270 15:41 29.02.2020
2116 -273 0 0 0 0 0 15:23 29.02.2020
2117 Clouds 16 1017 67 10000 6.2 270 14:42 29.02.2020
2118 Clouds 17 1017 63 10000 5.1 270 14:24 29.02.2020
2119 Clouds 17 1017 63 10000 5.1 270 14:24 29.02.2020
2120 Clouds 17 1018 67 10000 4.1 290 13:58 29.02.2020
2121 Clouds 17 1018 63 10000 4.6 280 13:38 29.02.2020
2122 Clouds 17 1018 63 10000 4.6 280 13:20 29.02.2020
2123 Clouds 17 1018 67 10000 5.1 290 12:43 29.02.2020
2124 Clouds 17 1018 77 10000 4.6 280 12:22 29.02.2020
2125 Clouds 16 1018 77 10000 3.6 290 11:57 29.02.2020
2126 Clouds 16 1018 77 10000 3.6 290 11:39 29.02.2020
2127 Clouds 16 1017 93 10000 3.6 280 11:21 29.02.2020
2128 Drizzle 15 1017 100 10000 4.6 240 10:46 29.02.2020
2129 Drizzle 15 1017 93 4000 5.7 240 10:28 29.02.2020
2130 Drizzle 15 1016 93 4500 4.1 260 09:50 29.02.2020
2131 Drizzle 15 1016 100 3500 6.2 240 09:27 29.02.2020
2132 Drizzle 14 1016 100 3000 6.7 220 08:43 29.02.2020
2133 Drizzle 15 1016 100 5000 7.2 220 08:24 29.02.2020
2134 Drizzle 15 1016 93 8000 7.2 220 07:59 29.02.2020
2135 Drizzle 15 1016 93 8000 7.2 220 07:41 29.02.2020
2136 Clouds 15 1016 93 10000 7.2 230 07:18 29.02.2020
2137 Clouds 15 1016 93 10000 6.7 220 06:45 29.02.2020
2138 Clouds 15 1016 93 10000 6.7 220 06:25 29.02.2020
2139 Drizzle 14 1016 93 10000 6.2 230 05:47 29.02.2020
2140 Clouds 14 1016 87 10000 6.7 220 04:46 29.02.2020
2141 Clouds 14 1017 82 10000 6.7 230 03:40 29.02.2020
2142 Clouds 14 1017 82 10000 5.1 230 03:22 29.02.2020
2143 Clouds 14 1018 82 10000 5.1 230 02:38 29.02.2020
2144 Clouds 13 1018 93 10000 3.6 230 01:23 29.02.2020
2145 Clouds 13 1018 87 10000 3.1 240 00:37 29.02.2020
2146 Clouds 13 1018 87 10000 3.1 230 23:56 28.02.2020
2147 Clouds 13 1018 87 10000 3.1 240 23:36 28.02.2020
2148 Clouds 13 1018 87 10000 3.1 240 23:18 28.02.2020
2149 Clouds 13 1018 87 10000 3.1 240 22:41 28.02.2020
2150 Clouds 13 1018 87 10000 3.6 260 22:19 28.02.2020
2151 Clouds 13 1018 82 10000 4.1 260 21:41 28.02.2020
2152 Clouds 13 1018 82 10000 5.1 260 21:21 28.02.2020
2153 Clouds 13 1018 82 10000 5.1 260 21:21 28.02.2020
2154 Clouds 14 1018 82 10000 4.6 260 20:54 28.02.2020
2155 Clouds 14 1018 87 10000 4.1 270 20:36 28.02.2020
2156 Clouds 14 1018 87 10000 4.1 270 20:18 28.02.2020
2157 Clouds 14 1017 82 10000 4.1 270 19:55 28.02.2020
2158 Clouds 14 1017 77 10000 3.1 240 19:37 28.02.2020
2159 Clouds 15 1017 77 10000 3.1 240 19:18 28.02.2020
2160 Clouds 15 1017 63 10000 5.1 230 18:43 28.02.2020
2161 Clouds 15 1017 63 10000 5.1 230 18:22 28.02.2020
2162 Clouds 17 1017 55 10000 4.6 220 17:41 28.02.2020
2163 Clouds 17 1017 48 10000 4.6 230 17:23 28.02.2020
2164 Clouds 18 1017 48 10000 5.7 220 16:55 28.02.2020
2165 Clouds 18 1018 45 10000 5.1 240 16:36 28.02.2020
2166 Clouds 18 1018 45 10000 5.1 240 16:18 28.02.2020
2167 Clouds 18 1018 48 10000 3.1 120 15:42 28.02.2020
2168 Clouds 19 1018 48 10000 3.1 120 15:20 28.02.2020
2169 Clouds 18 1019 52 10000 2.1 110 14:59 28.02.2020
2170 Clouds 18 1019 52 10000 2.1 110 14:41 28.02.2020
2171 Clouds 18 1019 52 10000 1.5 0 14:19 28.02.2020
2172 Clouds 17 1020 63 10000 1 0 13:57 28.02.2020
2173 Clouds 17 1020 63 10000 1 0 13:39 28.02.2020
2174 Clouds 16 1020 67 10000 1.5 0 13:19 28.02.2020
2175 Clouds 15 1021 76 10000 3.1 0 12:43 28.02.2020
2176 Clouds 15 1021 76 10000 3.1 50 12:24 28.02.2020
2177 Clouds 13 1022 87 10000 2.6 70 11:43 28.02.2020
2178 Clouds 12 1022 81 10000 2.1 60 11:24 28.02.2020
2179 Clouds 12 1022 87 10000 1 0 10:59 28.02.2020
2180 Clouds 12 1022 87 10000 1 0 10:41 28.02.2020
2181 Clouds 11 1022 87 10000 1 0 10:22 28.02.2020
2182 Fog 10 1022 93 10000 1 0 09:47 28.02.2020
2183 Clouds 9 1022 87 10000 1.92 38 09:21 28.02.2020
2184 Clouds 9 1022 93 10000 1.92 38 08:57 28.02.2020
2185 Clouds 10 1022 93 10000 1.92 38 08:39 28.02.2020
2186 Clouds 9 1022 100 10000 1.5 350 08:19 28.02.2020
2187 Clouds 9 1022 100 10000 2.1 340 07:41 28.02.2020
2188 Clouds 10 1022 100 10000 2.1 30 07:22 28.02.2020
2189 Clouds 10 1022 100 10000 2.1 20 06:45 28.02.2020
2190 Clouds 10 1022 100 10000 1 0 06:24 28.02.2020
2191 Clouds 9 1023 100 10000 1 0 04:45 28.02.2020
2192 Clouds 10 1023 100 10000 2.1 40 04:18 28.02.2020
2193 Clear 10 1024 87 10000 0.5 0 02:46 28.02.2020
2194 Clear 11 1024 81 10000 0.5 0 02:27 28.02.2020
2195 Clear 11 1025 81 10000 1.5 350 01:23 28.02.2020
2196 Clear 12 1025 81 10000 3.1 310 00:28 28.02.2020
2197 Clear 12 1025 81 10000 3.6 310 23:42 27.02.2020
2198 Clear 12 1025 81 10000 3.6 310 23:21 27.02.2020
2199 Clear 12 1025 87 10000 4.1 320 22:46 27.02.2020
2200 Clear 13 1025 87 10000 3.6 310 22:26 27.02.2020
2201 Clear 13 1025 82 10000 3.1 310 21:59 27.02.2020
2202 Clear 13 1025 82 10000 3.1 310 21:41 27.02.2020
2203 Clear 13 1025 82 10000 4.6 320 21:19 27.02.2020
2204 Clear 13 1025 82 10000 4.6 320 20:57 27.02.2020
2205 Clear 13 1025 82 10000 4.6 320 20:39 27.02.2020
2206 Clear 14 1025 76 10000 4.1 330 20:20 27.02.2020
2207 Clear 14 1025 72 10000 5.1 320 19:56 27.02.2020
2208 Clear 15 1025 72 10000 4.6 340 19:37 27.02.2020
2209 Clear 14 1025 72 10000 4.6 340 19:37 27.02.2020
2210 Clear 15 1025 72 10000 4.6 340 19:18 27.02.2020
2211 Clear 16 1025 67 10000 5.1 340 18:42 27.02.2020
2212 Clear 16 1025 63 10000 5.7 330 18:24 27.02.2020
2213 Clouds 17 1026 63 10000 5.1 340 17:58 27.02.2020
2214 Clouds 17 1026 59 10000 5.1 340 17:40 27.02.2020
2215 Clouds 17 1026 59 10000 5.1 340 17:19 27.02.2020
2216 Clouds 18 1026 59 10000 4.6 330 16:57 27.02.2020
2217 Clouds 18 1026 59 10000 4.6 330 16:38 27.02.2020
2218 Clouds 18 1026 59 10000 4.6 330 16:18 27.02.2020
2219 Clouds 18 1026 59 10000 4.6 350 15:56 27.02.2020
2220 Clouds 18 1026 59 10000 4.6 340 15:37 27.02.2020
2221 Clouds 18 1026 59 10000 4.6 340 15:18 27.02.2020
2222 Clouds 18 1026 59 10000 4.6 340 14:55 27.02.2020
2223 Clouds 18 1027 59 10000 5.1 340 14:36 27.02.2020
2224 Clouds 18 1027 59 10000 5.1 340 14:18 27.02.2020
2225 Clouds 17 1027 59 10000 3.6 360 13:41 27.02.2020
2226 Clouds 17 1027 67 10000 3.6 340 13:21 27.02.2020
2227 Clouds 16 1027 72 10000 2.6 330 12:47 27.02.2020
2228 Clouds 16 1027 72 10000 3.6 340 12:25 27.02.2020
2229 Clouds 16 1028 72 10000 3.1 340 11:59 27.02.2020
2230 Clouds 15 1028 82 10000 2.6 330 11:39 27.02.2020
2231 Clouds 15 1028 82 10000 2.6 330 11:21 27.02.2020
2232 Clouds 14 1027 82 10000 2.1 310 10:43 27.02.2020
2233 Clouds 14 1027 82 10000 1.5 280 10:22 27.02.2020
2234 Clouds 13 1027 87 10000 1.5 220 09:48 27.02.2020
2235 Clouds 12 1026 100 10000 1 250 09:29 27.02.2020
2236 Clouds 11 1026 93 10000 0.5 0 08:57 27.02.2020
2237 Clouds 11 1026 93 10000 0.5 0 08:39 27.02.2020
2238 Clouds 11 1026 93 10000 2.94 353 08:19 27.02.2020
2239 Clouds 12 1026 93 10000 0.5 330 07:43 27.02.2020
2240 Clouds 12 1026 87 10000 0.5 290 07:25 27.02.2020
2241 Clouds 12 1026 87 10000 0.5 0 06:45 27.02.2020
2242 Clouds 12 1026 87 10000 1.5 310 05:34 27.02.2020
2243 Clouds 11 1026 87 10000 1.5 310 03:35 27.02.2020
2244 Clouds 11 1026 87 10000 2.6 350 02:20 27.02.2020
2245 Clear 11 1027 87 10000 1.5 340 00:44 27.02.2020
2246 Clouds 11 1027 87 10000 2.1 340 00:25 27.02.2020
2247 Clouds 12 1027 87 10000 3.6 330 23:39 26.02.2020
2248 Clouds 12 1027 87 10000 3.6 330 23:19 26.02.2020
2249 Clouds 12 1027 81 10000 3.6 330 22:57 26.02.2020
2250 Clouds 12 1027 81 10000 3.6 330 22:38 26.02.2020
2251 Clouds 12 1027 71 10000 2.1 350 22:19 26.02.2020
2252 Clouds 12 1027 76 10000 3.6 330 21:55 26.02.2020
2253 Clouds 12 1027 76 10000 3.1 330 21:36 26.02.2020
2254 Clouds 12 1027 76 10000 3.1 330 21:18 26.02.2020
2255 Clouds 12 1026 76 10000 3.1 340 20:54 26.02.2020
2256 Clouds 13 1026 71 10000 3.1 330 20:36 26.02.2020
2257 Clouds 13 1026 71 10000 3.1 330 20:18 26.02.2020
2258 Clouds 13 1026 66 10000 3.1 310 19:44 26.02.2020
2259 Clouds 13 1026 66 10000 4.1 340 19:20 26.02.2020
2260 Clouds 13 1026 66 10000 7.2 350 18:57 26.02.2020
2261 Clouds 14 1026 66 10000 7.2 350 18:39 26.02.2020
2262 Clouds 14 1026 62 10000 6.2 330 18:20 26.02.2020
2263 Clouds 15 1026 58 10000 6.2 330 17:42 26.02.2020
2264 Clouds 15 1026 58 10000 6.7 330 17:23 26.02.2020
2265 Clouds 15 1026 58 10000 7.7 340 16:57 26.02.2020
2266 Clouds 15 1026 58 10000 7.7 340 16:39 26.02.2020
2267 Clouds 15 1026 58 10000 7.7 340 16:39 26.02.2020
2268 Clouds 15 1026 62 10000 7.2 350 16:21 26.02.2020
2269 Clouds 15 1026 62 10000 6.2 340 15:46 26.02.2020
2270 Clouds 15 1026 62 10000 7.7 330 15:28 26.02.2020
2271 Clouds 15 1026 62 10000 6.7 330 14:59 26.02.2020
2272 Clouds 15 1026 62 10000 6.7 330 14:40 26.02.2020
2273 Clouds 15 1026 62 10000 7.2 350 14:21 26.02.2020
2274 Clouds 15 1027 58 10000 6.2 340 13:43 26.02.2020
2275 Clouds 15 1027 62 10000 7.2 350 13:21 26.02.2020
2276 Clouds 14 1027 67 10000 7.2 340 12:40 26.02.2020
2277 Clouds 14 1027 71 10000 6.7 340 12:22 26.02.2020
2278 Clouds 14 1027 66 10000 7.2 340 11:58 26.02.2020
2279 Clouds 14 1027 66 10000 7.2 340 11:40 26.02.2020
2280 Clouds 13 1027 66 10000 7.2 330 11:21 26.02.2020
2281 Clouds 13 1027 71 10000 7.2 340 10:43 26.02.2020
2282 Clouds 13 1027 76 10000 5.1 340 10:43 26.02.2020
2283 Clouds 13 1027 76 10000 5.1 340 10:24 26.02.2020
2284 Clouds 13 1026 71 10000 3.6 330 09:57 26.02.2020
2285 Clouds 13 1026 71 10000 3.6 330 09:39 26.02.2020
2286 Clouds 12 1026 76 10000 4.1 330 09:21 26.02.2020
2287 Clouds 12 1026 76 10000 3.6 330 08:39 26.02.2020
2288 Clouds 12 1026 76 10000 3.6 330 08:20 26.02.2020
2289 Clouds 11 1026 76 10000 3.1 320 07:51 26.02.2020
2290 Clouds 11 1026 81 10000 3.1 330 07:30 26.02.2020
2291 Clouds 11 1026 81 10000 1 0 06:59 26.02.2020
2292 Clouds 11 1026 76 10000 1.5 280 06:40 26.02.2020
2293 Clouds 11 1026 76 10000 1.5 280 06:21 26.02.2020
2294 Clouds 11 1026 87 10000 1.5 300 05:48 26.02.2020
2295 Clouds 11 1026 76 10000 1.5 280 04:58 26.02.2020
2296 Clouds 11 1027 87 10000 1 300 03:20 26.02.2020
2297 Clouds 11 1027 81 10000 3.6 350 01:57 26.02.2020
2298 Clouds 11 1027 81 10000 3.1 340 01:24 26.02.2020
2299 Clouds 11 1027 81 10000 3.1 340 00:40 26.02.2020
2300 Clouds 12 1027 81 10000 3.6 350 00:20 26.02.2020
2301 Clouds 12 1027 81 10000 6.2 340 23:42 25.02.2020
2302 Clouds 13 1027 81 10000 6.2 340 23:22 25.02.2020
2303 Clouds 13 1027 87 10000 5.1 340 22:56 25.02.2020
2304 Clouds 13 1026 93 10000 5.1 340 22:37 25.02.2020
2305 Clouds 13 1026 93 10000 5.1 340 22:18 25.02.2020
2306 Clouds 13 1026 93 10000 4.1 340 21:38 25.02.2020
2307 Clouds 14 1026 93 10000 4.1 340 21:20 25.02.2020
2308 Clouds 14 1026 87 10000 4.1 320 20:57 25.02.2020
2309 Clouds 14 1026 87 10000 4.1 320 20:38 25.02.2020
2310 Clouds 14 1025 87 10000 4.6 330 20:19 25.02.2020
2311 Clouds 14 1025 93 10000 4.1 320 19:56 25.02.2020
2312 Clouds 14 1025 93 9000 3.1 310 19:37 25.02.2020
2313 Clouds 15 1025 93 9000 3.1 310 19:18 25.02.2020
2314 Drizzle 15 1025 93 6000 3.1 290 18:40 25.02.2020
2315 Clouds 15 1025 93 10000 3.1 280 18:21 25.02.2020
2316 Rain 15 1025 93 7000 3.1 280 17:56 25.02.2020
2317 Clouds 15 1025 87 10000 4.1 270 17:37 25.02.2020
2318 Clouds 15 1025 87 10000 4.1 270 17:19 25.02.2020
2319 Rain 15 1025 87 10000 3.1 290 16:56 25.02.2020
2320 Rain 15 1025 87 10000 4.1 280 16:38 25.02.2020
2321 Rain 15 1025 87 10000 4.1 280 16:20 25.02.2020
2322 Clouds 15 1025 77 10000 3.6 290 15:55 25.02.2020
2323 Clouds 15 1026 77 10000 3.6 290 15:36 25.02.2020
2324 Clouds 16 1026 77 10000 3.6 290 15:18 25.02.2020
2325 Clouds 16 1026 77 10000 3.6 290 15:18 25.02.2020
2326 Clouds 16 1026 72 10000 4.6 280 14:40 25.02.2020
2327 Clouds 16 1026 72 10000 3.6 0 14:19 25.02.2020
2328 Clouds 16 1026 72 10000 3.6 0 14:19 25.02.2020
2329 Clouds 16 1026 72 10000 3.6 0 14:19 25.02.2020
2330 Clouds 16 1027 67 10000 4.1 290 13:59 25.02.2020
2331 Clouds 16 1027 67 10000 4.1 290 13:41 25.02.2020
2332 Clouds 16 1027 63 10000 3.6 290 13:21 25.02.2020
2333 Clouds 16 1027 67 10000 3.1 290 12:59 25.02.2020
2334 Clouds 16 1027 67 10000 4.6 330 12:39 25.02.2020
2335 Clouds 15 1027 67 10000 4.6 330 12:20 25.02.2020
2336 Clouds 15 1027 71 10000 3.6 310 11:56 25.02.2020
2337 Clouds 15 1027 71 10000 4.1 320 11:38 25.02.2020
2338 Clouds 14 1027 71 10000 4.1 320 11:18 25.02.2020
2339 Clouds 14 1027 71 10000 4.1 320 11:18 25.02.2020
2340 Clouds 14 1027 71 10000 3.1 320 10:42 25.02.2020
2341 Clouds 14 1027 71 10000 3.1 330 10:23 25.02.2020
2342 Clouds 13 1027 76 10000 2.6 300 09:57 25.02.2020
2343 Clouds 13 1026 76 10000 3.6 320 09:39 25.02.2020
2344 Clouds 13 1026 76 10000 3.6 320 09:18 25.02.2020
2345 Clouds 12 1026 76 10000 3.1 300 08:42 25.02.2020
2346 Clouds 12 1026 76 10000 3.6 310 08:24 25.02.2020
2347 Clouds 12 1026 76 10000 3.6 310 07:49 25.02.2020
2348 Clouds 12 1026 76 10000 3.1 300 07:25 25.02.2020
2349 Clouds 12 1026 81 10000 4.1 300 06:56 25.02.2020
2350 Clouds 12 1026 81 10000 3.1 310 06:25 25.02.2020
2351 Clouds 12 1026 81 10000 3.1 320 05:22 25.02.2020
2352 Clouds 11 1026 93 10000 1.5 290 02:37 25.02.2020
2353 Clouds 11 1026 93 10000 2.6 360 00:59 25.02.2020
2354 Clouds 11 1027 87 10000 4.6 340 00:33 25.02.2020
2355 Clouds 12 1027 81 10000 5.7 320 23:56 24.02.2020
2356 Clouds 12 1027 87 10000 7.7 310 23:37 24.02.2020
2357 Clouds 12 1027 87 10000 7.7 310 23:37 24.02.2020
2358 Clouds 12 1027 87 10000 7.7 310 23:18 24.02.2020
2359 Clouds 13 1026 87 10000 8.2 300 22:37 24.02.2020
2360 Clouds 13 1026 87 10000 8.2 300 22:18 24.02.2020
2361 Clouds 13 1026 76 10000 6.2 300 21:55 24.02.2020
2362 Clear 14 1026 58 10000 5.7 310 21:37 24.02.2020
2363 Clear 14 1026 58 10000 5.7 310 21:18 24.02.2020
2364 Clear 14 1026 47 10000 6.2 320 20:54 24.02.2020
2365 Clear 15 1026 44 10000 6.2 310 20:36 24.02.2020
2366 Clear 15 1026 44 10000 6.2 310 20:18 24.02.2020
2367 Clear 15 1026 55 10000 4.1 310 19:55 24.02.2020
2368 Clear 16 1025 52 10000 5.1 330 19:36 24.02.2020
2369 Clear 17 1025 52 10000 5.1 330 19:18 24.02.2020
2370 Clear 18 1025 48 10000 4.1 330 18:41 24.02.2020
2371 Clear 19 1025 52 10000 4.6 330 18:22 24.02.2020
2372 Clear 19 1025 56 10000 4.1 320 17:55 24.02.2020
2373 Clear 19 1025 64 10000 4.6 330 17:37 24.02.2020
2374 Clear 19 1025 64 10000 4.6 330 17:18 24.02.2020
2375 Clear 19 1026 56 10000 3.6 310 16:55 24.02.2020
2376 Clear 20 1026 52 10000 3.6 320 16:36 24.02.2020
2377 Clear 20 1026 52 10000 3.6 320 16:18 24.02.2020
2378 Clear 20 1026 49 10000 1.5 80 15:55 24.02.2020
2379 Clear 19 1027 49 10000 2.6 90 15:37 24.02.2020
2380 Clear 20 1027 49 10000 2.6 90 15:19 24.02.2020
2381 Clear 20 1027 49 10000 2.1 0 14:40 24.02.2020
2382 Clear 19 1028 52 10000 2.6 80 14:22 24.02.2020
2383 Clear 19 1028 49 10000 1.5 0 13:58 24.02.2020
2384 Clear 18 1028 49 10000 1 0 13:40 24.02.2020
2385 Clear 18 1028 49 10000 1 0 13:22 24.02.2020
2386 Clear 18 1029 52 10000 1 0 12:58 24.02.2020
2387 Clear 18 1029 52 10000 1 0 12:39 24.02.2020
2388 Clear 17 1029 55 10000 2.1 0 12:21 24.02.2020
2389 Clear 16 1029 67 10000 2.1 30 11:47 24.02.2020
2390 Clear 15 1029 71 10000 2.1 60 11:29 24.02.2020
2391 Clear 14 1029 81 10000 1.5 40 10:51 24.02.2020
2392 Clear 13 1029 87 10000 2.1 90 10:31 24.02.2020
2393 Clear 13 1028 87 10000 1.5 90 09:55 24.02.2020
2394 Clear 11 1028 100 10000 2.09 43 09:37 24.02.2020
2395 Clear 10 1028 100 10000 2.09 43 09:18 24.02.2020
2396 Clear 10 1028 93 10000 2.09 43 08:48 24.02.2020
2397 Clear 10 1028 93 10000 2.09 43 08:28 24.02.2020
2398 Clear 10 1028 93 10000 2.27 31 07:48 24.02.2020
2399 Clear 10 1028 93 10000 1.5 350 07:30 24.02.2020
2400 Clear 10 1028 87 10000 1 360 06:48 24.02.2020
2401 Clear 11 1028 76 10000 1 0 06:22 24.02.2020
2402 Clear 12 1028 66 10000 2.1 360 05:31 24.02.2020
2403 Clear 13 1028 66 10000 2.1 340 04:49 24.02.2020
2404 Clear 14 1028 66 10000 2.1 10 02:57 24.02.2020
2405 Clear 15 1029 55 10000 2.1 340 01:52 24.02.2020
2406 Clear 15 1029 51 10000 2.1 330 01:28 24.02.2020
2407 Clear 15 1029 51 10000 2.6 330 00:37 24.02.2020
2408 Clear 15 1029 51 10000 2.6 330 00:19 24.02.2020
2409 Clear 16 1029 55 10000 2.1 320 23:42 23.02.2020
2410 Clear 16 1029 52 10000 3.6 330 23:22 23.02.2020
2411 Clear 16 1029 59 10000 3.1 320 22:58 23.02.2020
2412 Clear 17 1029 59 10000 3.1 320 22:40 23.02.2020
2413 Clear 17 1029 55 10000 3.1 320 22:20 23.02.2020
2414 Clear 17 1029 55 10000 3.1 320 21:46 23.02.2020
2415 Clear 16 1029 59 10000 3.1 310 21:20 23.02.2020
2416 Clear 17 1029 59 10000 2.6 310 20:57 23.02.2020
2417 Clear 18 1029 59 10000 2.6 310 20:39 23.02.2020
2418 Clear 19 1029 52 10000 2.6 310 20:21 23.02.2020
2419 Clear 19 1028 45 10000 2.1 320 19:58 23.02.2020
2420 Clear 20 1028 40 10000 2.1 350 19:40 23.02.2020
2421 Clear 20 1028 40 10000 2.1 350 19:19 23.02.2020
2422 Clear 21 1029 37 10000 2.6 40 18:58 23.02.2020
2423 Clear 22 1029 35 10000 2.6 70 18:37 23.02.2020
2424 Clear 22 1029 35 10000 2.6 70 18:19 23.02.2020
2425 Clear 22 1029 35 10000 2.1 50 17:57 23.02.2020
2426 Clear 23 1029 33 10000 2.1 60 17:39 23.02.2020
2427 Clear 22 1029 33 10000 2.1 60 17:20 23.02.2020
2428 Clear 23 1029 35 10000 2.1 70 16:46 23.02.2020
2429 Clear 23 1029 30 10000 2.6 70 16:28 23.02.2020
2430 Clear 22 1029 40 10000 2.6 60 15:59 23.02.2020
2431 Clear 22 1029 40 10000 2.6 60 15:39 23.02.2020
2432 Clear 22 1030 46 10000 2.6 0 15:21 23.02.2020
2433 Clear 21 1030 49 10000 2.6 60 14:59 23.02.2020
2434 Clear 21 1030 49 10000 2.6 60 14:40 23.02.2020
2435 Clear 20 1031 52 10000 3.1 70 14:22 23.02.2020
2436 Clear 19 1031 52 10000 2.6 70 13:57 23.02.2020
2437 Clear 19 1031 52 10000 2.6 70 13:39 23.02.2020
2438 Clear 18 1031 55 10000 3.1 60 13:20 23.02.2020
2439 Clear 19 1032 59 10000 3.6 70 12:43 23.02.2020
2440 Clear 19 1032 55 10000 4.1 70 12:23 23.02.2020
2441 Clear 18 1032 54 10000 5.1 60 11:58 23.02.2020
2442 Clear 17 1032 58 10000 4.1 50 11:37 23.02.2020
2443 Clouds 17 1032 58 10000 4.1 50 11:19 23.02.2020
2444 Clouds 16 1032 71 10000 3.6 60 10:55 23.02.2020
2445 Clouds 16 1031 71 10000 2.1 60 10:37 23.02.2020
2446 Clouds 15 1031 71 10000 2.1 60 10:19 23.02.2020
2447 Clouds 14 1031 76 10000 1.5 120 09:40 23.02.2020
2448 Clouds 13 1031 76 10000 1.5 120 09:21 23.02.2020
2449 Clouds 13 1030 71 10000 1 0 08:57 23.02.2020
2450 Clouds 12 1030 66 10000 2.1 50 08:39 23.02.2020
2451 Clouds 13 1030 66 10000 2.1 50 08:19 23.02.2020
2452 Clouds 12 1030 62 10000 3.1 20 07:40 23.02.2020
2453 Clouds 12 1030 62 10000 3.1 20 07:40 23.02.2020
2454 Clouds 13 1030 71 10000 2.1 20 06:54 23.02.2020
2455 Clouds 13 1030 66 10000 2.1 60 05:54 23.02.2020
2456 Clouds 13 1030 66 10000 2.1 30 04:44 23.02.2020
2457 Clouds 14 1030 58 10000 2.6 10 03:25 23.02.2020
2458 Clouds 15 1030 58 10000 2.1 340 02:35 23.02.2020
2459 Clouds 15 1031 58 10000 2.6 330 01:25 23.02.2020
2460 Clouds 15 1031 58 10000 3.1 340 00:49 23.02.2020
2461 Clouds 16 1031 58 10000 3.1 340 00:28 23.02.2020
2462 Clouds 16 1031 58 10000 3.1 340 00:27 23.02.2020
2463 Clouds 16 1031 59 10000 3.6 330 23:59 22.02.2020
2464 Clouds 16 1031 59 10000 3.6 330 23:40 22.02.2020
2465 Clouds 16 1031 62 10000 3.1 330 23:19 22.02.2020
2466 Clouds 17 1030 55 10000 3.6 330 22:41 22.02.2020
2467 Clouds 16 1030 55 10000 3.6 330 22:19 22.02.2020
2468 Clouds 17 1030 55 10000 3.6 330 21:43 22.02.2020
2469 Clouds 17 1030 63 10000 3.1 330 21:24 22.02.2020
2470 Clouds 17 1030 63 10000 3.1 330 21:24 22.02.2020
2471 Clouds 17 1030 63 10000 3.6 330 20:54 22.02.2020
2472 Clouds 17 1030 59 10000 4.1 330 20:36 22.02.2020
2473 Clouds 17 1030 59 10000 4.1 330 20:18 22.02.2020
2474 Clouds 18 1029 59 10000 3.6 350 19:42 22.02.2020
2475 Clouds 19 1029 45 10000 2.1 360 19:22 22.02.2020
2476 Clouds 20 1029 40 10000 4.1 30 18:54 22.02.2020
2477 Clouds 20 1029 40 10000 4.1 30 18:54 22.02.2020
2478 Clouds 21 1029 40 10000 3.1 50 18:36 22.02.2020
2479 Clouds 21 1029 40 10000 3.1 50 18:18 22.02.2020
2480 Clouds 22 1029 37 10000 3.1 60 17:43 22.02.2020
2481 Clouds 22 1029 37 10000 3.1 60 17:43 22.02.2020
2482 Clear 22 1029 33 10000 3.1 70 17:25 22.02.2020
2483 Clear 22 1029 37 10000 3.1 60 16:58 22.02.2020
2484 Clear 22 1029 37 10000 3.1 60 16:40 22.02.2020
2485 Clear 21 1030 35 10000 3.6 60 16:20 22.02.2020
2486 Clear 21 1030 46 10000 3.6 80 15:46 22.02.2020
2487 Clear 21 1030 43 10000 3.6 60 15:27 22.02.2020
2488 Clear 20 1030 55 10000 4.1 70 14:58 22.02.2020
2489 Clear 20 1031 59 10000 3.6 80 14:39 22.02.2020
2490 Clouds 20 1031 59 10000 3.6 80 14:20 22.02.2020
2491 Clouds 19 1031 52 10000 3.1 70 13:42 22.02.2020
2492 Clouds 19 1031 52 10000 4.1 60 13:20 22.02.2020
2493 Clouds 19 1031 52 10000 4.1 70 12:57 22.02.2020
2494 Clouds 19 1031 52 10000 4.1 70 12:38 22.02.2020
2495 Clouds 18 1032 55 10000 3.6 60 12:20 22.02.2020
2496 Clouds 18 1032 59 10000 4.1 60 11:42 22.02.2020
2497 Clouds 16 1032 62 10000 3.1 40 11:23 22.02.2020
2498 Clouds 16 1032 58 10000 2.6 60 10:42 22.02.2020
2499 Clouds 14 1031 67 10000 2.1 30 10:21 22.02.2020
2500 Clouds 14 1031 66 10000 1 0 09:59 22.02.2020
2501 Clouds 14 1031 66 10000 1 0 09:40 22.02.2020
2502 Clouds 13 1030 71 10000 2.1 10 09:22 22.02.2020
2503 Clouds 12 1030 76 10000 3.1 20 08:55 22.02.2020
2504 Clouds 11 1029 76 10000 2.1 60 08:28 22.02.2020
2505 Clear 12 1029 81 10000 3.1 20 07:59 22.02.2020
2506 Clear 11 1029 81 10000 1 10 07:38 22.02.2020
2507 Clear 12 1029 81 10000 3.1 20 07:38 22.02.2020
2508 Clear 11 1029 81 10000 1 10 07:18 22.02.2020
2509 Clear 11 1029 87 10000 2.1 70 06:41 22.02.2020
2510 Clear 13 1028 66 10000 2.1 340 04:45 22.02.2020
2511 Clear 13 1028 81 10000 0.5 0 03:52 22.02.2020
2512 Clear 14 1028 62 10000 2.6 350 02:38 22.02.2020
2513 Clear 15 1029 62 10000 2.1 310 01:48 22.02.2020
2514 Clear 15 1029 62 10000 3.1 310 01:29 22.02.2020
2515 Clear 15 1029 62 10000 2.6 310 00:48 22.02.2020
2516 Clear 15 1029 59 10000 3.1 320 00:29 22.02.2020
2517 Clear 15 1029 59 10000 3.6 320 23:53 21.02.2020
2518 Clear 15 1029 67 10000 4.1 330 23:26 21.02.2020
2519 Clear 16 1028 67 10000 3.6 330 22:59 21.02.2020
2520 Clear 16 1028 67 10000 3.6 330 22:40 21.02.2020
2521 Clear 16 1028 67 10000 3.1 330 22:21 21.02.2020
2522 Clear 16 1028 63 10000 2.6 330 21:43 21.02.2020
2523 Clear 16 1027 59 10000 2.6 330 21:24 21.02.2020
2524 Clear 17 1027 59 10000 2.6 360 20:58 21.02.2020
2525 Clear 17 1027 59 10000 2.6 360 20:38 21.02.2020
2526 Clouds 17 1027 63 10000 2.6 10 20:19 21.02.2020
2527 Clouds 19 1026 49 10000 3.1 30 19:39 21.02.2020
2528 Clouds 20 1026 49 10000 3.1 30 19:19 21.02.2020
2529 Clouds 20 1026 52 10000 3.6 40 18:43 21.02.2020
2530 Clouds 21 1026 49 10000 3.1 30 18:23 21.02.2020
2531 Clouds 21 1026 49 10000 3.6 40 17:57 21.02.2020
2532 Clouds 21 1026 49 10000 3.6 40 17:37 21.02.2020
2533 Clouds 21 1026 49 10000 3.6 40 17:19 21.02.2020
2534 Clouds 21 1026 49 10000 3.1 50 16:44 21.02.2020
2535 Clouds 21 1026 52 10000 3.6 50 16:22 21.02.2020
2536 Clouds 20 1026 56 10000 3.6 50 15:59 21.02.2020
2537 Clouds 20 1026 55 10000 4.1 50 15:38 21.02.2020
2538 Clouds 20 1026 55 10000 4.1 50 15:19 21.02.2020
2539 Clouds 19 1026 55 10000 3.6 60 14:42 21.02.2020
2540 Clear 19 1027 59 10000 4.1 40 14:22 21.02.2020
2541 Clear 18 1027 63 10000 5.1 60 13:59 21.02.2020
2542 Clear 18 1027 63 10000 5.1 60 13:39 21.02.2020
2543 Clear 17 1027 67 10000 5.1 50 13:20 21.02.2020
2544 Clear 17 1028 63 10000 5.1 50 12:45 21.02.2020
2545 Clear 17 1027 59 10000 4.6 50 12:27 21.02.2020
2546 Clear 16 1027 67 10000 4.1 50 11:56 21.02.2020
2547 Clear 16 1027 76 10000 4.1 60 11:38 21.02.2020
2548 Clear 15 1027 76 10000 4.1 60 11:19 21.02.2020
2549 Clear 13 1027 81 10000 3.6 50 10:42 21.02.2020
2550 Clear 13 1027 81 10000 3.6 50 10:42 21.02.2020
2551 Clear 13 1027 81 10000 3.6 50 10:42 21.02.2020
2552 Clear 13 1027 81 10000 2.6 60 10:22 21.02.2020
2553 Clear 13 1026 81 10000 3.1 50 09:58 21.02.2020
2554 Clear 12 1026 87 10000 2.6 60 09:39 21.02.2020
2555 Clear 12 1026 87 10000 2.6 60 09:20 21.02.2020
2556 Clear 11 1026 87 10000 3.1 60 08:55 21.02.2020
2557 Clear 11 1026 87 10000 2.6 60 08:36 21.02.2020
2558 Clear 11 1026 87 10000 2.6 60 08:18 21.02.2020
2559 Clear 11 1025 76 10000 2.1 30 07:41 21.02.2020
2560 Clear 11 1025 87 10000 2.1 360 07:21 21.02.2020
2561 Clear 11 1025 87 10000 1.5 20 06:56 21.02.2020
2562 Clear 11 1025 81 10000 2.1 360 06:32 21.02.2020
2563 Clear 11 1025 81 10000 2.6 360 05:56 21.02.2020
2564 Clear 12 1025 76 10000 2.1 360 05:30 21.02.2020
2565 Clear 12 1025 87 10000 5.1 30 04:26 21.02.2020
2566 Clear 12 1025 81 10000 5.7 20 03:47 21.02.2020
2567 Clear 12 1025 81 10000 3.6 340 02:59 21.02.2020
2568 Clear 12 1025 76 10000 4.1 320 01:34 21.02.2020
2569 Clear 13 1025 76 10000 3.1 330 00:54 21.02.2020
2570 Clear 13 1024 71 10000 3.1 330 00:36 21.02.2020
2571 Clear 13 1024 71 10000 3.1 330 00:18 21.02.2020
2572 Clear 13 1024 76 10000 3.1 330 23:41 20.02.2020
2573 Clear 14 1024 71 10000 3.1 340 23:22 20.02.2020
2574 Clear 14 1024 76 10000 3.6 340 22:42 20.02.2020
2575 Clear 14 1023 76 10000 4.1 330 22:23 20.02.2020
2576 Clear 14 1023 76 10000 3.6 330 21:58 20.02.2020
2577 Clear 14 1023 76 10000 3.6 330 21:39 20.02.2020
2578 Clear 14 1023 76 10000 3.6 330 21:39 20.02.2020
2579 Clear 14 1023 76 10000 4.1 330 21:20 20.02.2020
2580 Clear 14 1023 77 10000 4.1 330 20:57 20.02.2020
2581 Clear 15 1023 77 10000 4.1 330 20:39 20.02.2020
2582 Clear 14 1023 77 10000 4.1 330 20:39 20.02.2020
2583 Clear 15 1023 77 10000 4.1 330 20:20 20.02.2020
2584 Clear 15 1023 67 10000 2.6 360 19:59 20.02.2020
2585 Clouds 16 1022 63 10000 3.1 20 19:41 20.02.2020
2586 Clouds 16 1022 63 10000 3.1 20 19:23 20.02.2020
2587 Clouds 18 1022 55 10000 3.6 30 18:55 20.02.2020
2588 Clouds 18 1022 59 10000 4.1 40 18:37 20.02.2020
2589 Clouds 18 1022 59 10000 4.1 40 18:18 20.02.2020
2590 Clouds 19 1022 59 10000 4.6 40 17:39 20.02.2020
2591 Clouds 18 1022 55 10000 5.1 60 17:20 20.02.2020
2592 Clouds 18 1022 55 10000 5.1 60 16:58 20.02.2020
2593 Clouds 18 1022 59 10000 4.1 60 16:39 20.02.2020
2594 Clouds 18 1022 59 10000 4.1 60 16:19 20.02.2020
2595 Clouds 18 1023 67 10000 3.6 60 15:56 20.02.2020
2596 Clear 18 1023 67 10000 3.6 60 15:37 20.02.2020
2597 Clear 17 1023 67 10000 3.6 60 15:19 20.02.2020
2598 Clear 16 1023 72 10000 2.6 70 14:43 20.02.2020
2599 Clear 16 1024 72 10000 2.6 80 14:25 20.02.2020
2600 Clear 15 1024 71 10000 2.6 70 13:58 20.02.2020
2601 Clear 15 1024 81 10000 2.6 60 13:40 20.02.2020
2602 Clear 15 1024 81 10000 2.6 60 13:19 20.02.2020
2603 Clear 14 1024 76 10000 3.6 60 12:43 20.02.2020
2604 Clear 14 1024 81 10000 3.1 0 12:21 20.02.2020
2605 Clear 13 1024 81 10000 2.6 70 11:59 20.02.2020
2606 Clear 13 1024 81 10000 2.1 50 11:41 20.02.2020
2607 Clear 12 1024 81 10000 2.1 50 11:22 20.02.2020
2608 Clear 12 1024 87 10000 1.5 50 10:57 20.02.2020
2609 Clear 11 1024 81 10000 2.1 30 10:38 20.02.2020
2610 Clear 11 1024 81 10000 2.1 30 10:20 20.02.2020
2611 Clear 11 1023 87 10000 2.1 20 09:42 20.02.2020
2612 Clear 10 1023 100 10000 2.1 20 09:23 20.02.2020
2613 Clear 9 1023 100 10000 1.5 40 08:57 20.02.2020
2614 Clear 9 1023 93 10000 2.1 70 08:37 20.02.2020
2615 Clear 9 1023 93 10000 2.1 70 08:19 20.02.2020
2616 Clear 9 1023 93 10000 1.5 30 07:44 20.02.2020
2617 Clear 9 1023 93 10000 1.5 30 07:44 20.02.2020
2618 Clear 9 1023 93 10000 1.5 70 07:20 20.02.2020
2619 Clear 10 1023 87 10000 1.5 50 06:44 20.02.2020
2620 Clear 10 1023 81 10000 1 0 06:20 20.02.2020
2621 Clear 10 1024 76 10000 1.5 330 05:43 20.02.2020
2622 Clear 11 1024 76 10000 2.1 330 04:50 20.02.2020
2623 Clear 11 1025 81 10000 1.5 350 03:57 20.02.2020
2624 Clear 11 1025 76 10000 1.5 360 03:20 20.02.2020
2625 Clouds 12 1025 71 10000 1.5 320 01:52 20.02.2020
2626 Clouds 12 1026 66 10000 1.5 0 00:58 20.02.2020
2627 Clouds 12 1026 71 10000 2.1 310 00:30 20.02.2020
2628 Clouds 13 1026 71 10000 2.6 320 23:49 19.02.2020
2629 Clouds 13 1026 66 10000 3.1 320 23:22 19.02.2020
2630 Clouds 13 1026 66 10000 3.1 340 22:46 19.02.2020
2631 Clouds 13 1026 71 10000 2.6 330 22:28 19.02.2020
2632 Clouds 14 1026 62 10000 2.1 340 21:59 19.02.2020
2633 Clouds 14 1026 62 10000 2.1 340 21:41 19.02.2020
2634 Clouds 14 1026 62 10000 2.1 10 21:19 19.02.2020
2635 Clouds 14 1027 62 10000 1.5 360 20:58 19.02.2020
2636 Clouds 14 1027 62 10000 1.5 360 20:58 19.02.2020
2637 Clouds 15 1027 58 10000 2.1 30 20:39 19.02.2020
2638 Clear 15 1027 58 10000 2.1 30 20:20 19.02.2020
2639 Clear 16 1026 55 10000 2.1 20 19:58 19.02.2020
2640 Clear 16 1026 55 10000 2.1 20 19:39 19.02.2020
2641 Clear 17 1026 55 10000 2.6 30 19:20 19.02.2020
2642 Clear 18 1027 55 10000 3.1 40 18:58 19.02.2020
2643 Clear 19 1027 55 10000 3.1 40 18:40 19.02.2020
2644 Clear 19 1027 48 10000 3.6 50 18:22 19.02.2020
2645 Clear 19 1027 52 10000 4.1 40 17:59 19.02.2020
2646 Clear 19 1027 52 10000 4.6 50 17:41 19.02.2020
2647 Clear 19 1027 52 10000 4.6 50 17:19 19.02.2020
2648 Clear 19 1027 52 10000 4.6 50 16:43 19.02.2020
2649 Clear 19 1027 52 10000 4.6 50 16:19 19.02.2020
2650 Clear 19 1028 55 10000 4.1 60 15:57 19.02.2020
2651 Clear 19 1028 55 10000 4.1 60 15:38 19.02.2020
2652 Clear 18 1028 59 10000 3.6 50 15:19 19.02.2020
2653 Clear 17 1029 63 10000 3.6 50 14:41 19.02.2020
2654 Clear 16 1029 62 10000 3.6 70 14:23 19.02.2020
2655 Clear 16 1030 62 10000 4.1 40 13:55 19.02.2020
2656 Clear 15 1031 62 10000 4.6 70 13:37 19.02.2020
2657 Clear 15 1031 62 10000 4.6 70 13:18 19.02.2020
2658 Clear 15 1031 58 10000 4.1 60 12:39 19.02.2020
2659 Clear 15 1031 54 10000 4.6 60 12:19 19.02.2020
2660 Clear 14 1032 58 10000 4.1 40 11:55 19.02.2020
2661 Clear 14 1032 62 10000 5.1 40 11:37 19.02.2020
2662 Clear 13 1032 62 10000 5.1 40 11:18 19.02.2020
2663 Clear 12 1032 58 10000 4.1 30 10:56 19.02.2020
2664 Clear 11 1031 71 10000 2.6 10 10:36 19.02.2020
2665 Clear 11 1031 71 10000 2.6 10 10:18 19.02.2020
2666 Clear 9 1031 81 10000 3.1 50 09:54 19.02.2020
2667 Clear 9 1031 81 10000 1.5 20 09:36 19.02.2020
2668 Clear 8 1031 81 10000 1.5 20 09:18 19.02.2020
2669 Clear 8 1030 87 10000 2.1 70 08:42 19.02.2020
2670 Clear 8 1030 75 10000 1.5 10 08:23 19.02.2020
2671 Clear 8 1030 75 10000 3.1 340 07:41 19.02.2020
2672 Clear 9 1030 70 10000 3.6 330 07:20 19.02.2020
2673 Clear 9 1030 70 10000 3.6 330 06:47 19.02.2020
2674 Clear 10 1030 76 10000 3.1 330 05:40 19.02.2020
2675 Clear 10 1031 81 10000 4.1 340 03:59 19.02.2020
2676 Clear 10 1031 81 10000 5.1 340 02:51 19.02.2020
2677 Clear 10 1031 81 10000 6.2 340 02:29 19.02.2020
2678 Clear 10 1032 81 10000 6.7 330 01:23 19.02.2020
2679 Clear 10 1032 81 10000 7.2 330 00:45 19.02.2020
2680 Clear 11 1032 81 10000 6.2 330 00:24 19.02.2020
2681 Clear 11 1032 81 10000 6.7 340 23:41 18.02.2020
2682 Clear 11 1032 76 10000 5.7 330 23:20 18.02.2020
2683 Clear 11 1032 76 10000 5.7 330 22:56 18.02.2020
2684 Clear 11 1032 76 10000 6.2 330 22:37 18.02.2020
2685 Clear 11 1032 76 10000 6.2 330 22:19 18.02.2020
2686 Clear 11 1032 76 10000 8.2 340 21:55 18.02.2020
2687 Clear 11 1031 76 10000 8.7 330 21:37 18.02.2020
2688 Clear 11 1031 76 10000 8.7 330 21:37 18.02.2020
2689 Clear 11 1031 76 10000 8.7 330 21:18 18.02.2020
2690 Clouds 11 1031 76 10000 8.7 340 20:56 18.02.2020
2691 Clouds 11 1031 71 10000 8.7 340 20:37 18.02.2020
2692 Clouds 11 1031 71 10000 8.7 340 20:37 18.02.2020
2693 Clouds 11 1031 71 10000 8.7 340 20:18 18.02.2020
2694 Clouds 11 1031 66 10000 9.3 340 19:42 18.02.2020
2695 Clouds 12 1031 62 10000 7.2 340 19:20 18.02.2020
2696 Clouds 13 1031 58 10000 8.2 330 18:58 18.02.2020
2697 Clouds 13 1031 58 10000 8.2 330 18:40 18.02.2020
2698 Clouds 13 1031 54 10000 9.3 340 18:20 18.02.2020
2699 Clouds 14 1030 50 10000 10.3 340 17:43 18.02.2020
2700 Clouds 14 1030 50 10000 8.7 330 17:20 18.02.2020
2701 Clouds 14 1030 47 10000 10.3 340 16:58 18.02.2020
2702 Clouds 14 1031 47 10000 10.8 340 16:38 18.02.2020
2703 Clouds 14 1031 47 10000 10.8 340 16:18 18.02.2020
2704 Clouds 14 1031 50 10000 10.3 340 15:40 18.02.2020
2705 Clouds 14 1031 50 10000 10.3 340 15:19 18.02.2020
2706 Clouds 14 1031 54 10000 9.8 330 14:57 18.02.2020
2707 Clouds 14 1032 50 10000 10.3 330 14:38 18.02.2020
2708 Clouds 14 1032 50 10000 10.3 330 14:20 18.02.2020
2709 Clouds 14 1032 50 10000 7.7 330 13:41 18.02.2020
2710 Clouds 14 1033 50 10000 9.3 340 13:22 18.02.2020
2711 Clear 14 1033 54 10000 7.7 340 12:56 18.02.2020
2712 Clear 14 1033 54 10000 7.7 340 12:38 18.02.2020
2713 Clear 13 1033 58 10000 8.7 340 12:19 18.02.2020
2714 Clouds 13 1033 66 10000 9.3 350 11:44 18.02.2020
2715 Clouds 12 1033 66 10000 7.7 350 11:26 18.02.2020
2716 Clouds 12 1032 71 10000 10.3 340 10:57 18.02.2020
2717 Clouds 11 1032 71 10000 8.7 340 10:39 18.02.2020
2718 Clouds 11 1032 71 10000 8.7 340 10:18 18.02.2020
2719 Clouds 11 1032 76 10000 7.2 340 09:56 18.02.2020
2720 Clouds 10 1032 76 10000 8.2 340 09:37 18.02.2020
2721 Clouds 10 1032 76 10000 8.2 340 09:18 18.02.2020
2722 Clear 10 1031 76 10000 8.2 340 08:43 18.02.2020
2723 Clear 10 1031 81 10000 7.2 340 08:21 18.02.2020
2724 Clear 10 1031 81 10000 6.7 340 07:56 18.02.2020
2725 Clear 10 1031 81 10000 7.2 340 07:34 18.02.2020
2726 Clear 10 1031 81 10000 6.7 340 06:57 18.02.2020
2727 Clear 10 1031 81 10000 6.7 340 06:39 18.02.2020
2728 Clear 10 1031 81 10000 6.2 330 06:20 18.02.2020
2729 Clear 10 1031 81 10000 5.1 320 05:34 18.02.2020
2730 Clear 10 1032 76 10000 6.2 330 04:28 18.02.2020
2731 Clear 10 1032 76 10000 7.2 330 03:31 18.02.2020
2732 Clear 11 1032 76 10000 7.2 340 02:38 18.02.2020
2733 Clouds 11 1032 81 10000 7.7 340 01:19 18.02.2020
2734 Clouds 11 1032 81 10000 7.7 340 00:22 18.02.2020
2735 Clouds 11 1032 81 10000 7.2 340 23:56 17.02.2020
2736 Clouds 11 1032 76 10000 6.2 340 23:37 17.02.2020
2737 Clouds 11 1032 76 10000 6.2 340 23:19 17.02.2020
2738 Clouds 11 1032 76 10000 5.1 330 22:41 17.02.2020
2739 Clouds 11 1032 76 10000 6.2 340 22:21 17.02.2020
2740 Clouds 12 1032 76 10000 6.7 340 21:59 17.02.2020
2741 Clouds 12 1032 76 10000 6.7 340 21:38 17.02.2020
2742 Clouds 12 1032 76 10000 6.2 330 21:18 17.02.2020
2743 Clouds 12 1032 76 10000 6.2 330 21:18 17.02.2020
2744 Clouds 12 1032 76 10000 5.7 330 20:42 17.02.2020
2745 Clouds 12 1031 76 10000 5.7 340 20:21 17.02.2020
2746 Clouds 13 1031 71 10000 6.2 340 19:59 17.02.2020
2747 Clouds 13 1031 71 10000 6.7 340 19:40 17.02.2020
2748 Clouds 13 1031 71 10000 6.7 340 19:40 17.02.2020
2749 Clouds 13 1031 71 10000 6.7 340 19:20 17.02.2020
2750 Clouds 14 1031 62 10000 7.2 350 18:38 17.02.2020
2751 Clouds 14 1031 62 10000 7.2 350 18:38 17.02.2020
2752 Clouds 15 1031 62 10000 7.2 350 18:20 17.02.2020
2753 Clouds 15 1031 62 10000 7.2 350 18:20 17.02.2020
2754 Clouds 15 1030 58 10000 7.2 350 17:58 17.02.2020
2755 Clouds 16 1030 62 10000 6.7 350 17:38 17.02.2020
2756 Clouds 16 1030 62 10000 6.7 350 17:38 17.02.2020
2757 Clouds 16 1030 62 10000 6.7 350 17:19 17.02.2020
2758 Clouds 16 1030 59 10000 5.1 10 16:56 17.02.2020
2759 Clouds 16 1030 59 10000 5.1 10 16:38 17.02.2020
2760 Clouds 16 1030 67 10000 6.2 340 16:20 17.02.2020
2761 Clouds 17 1030 59 10000 5.1 350 15:45 17.02.2020
2762 Clouds 16 1030 67 10000 5.7 340 15:26 17.02.2020
2763 Clouds 17 1030 72 10000 6.7 350 14:56 17.02.2020
2764 Clouds 16 1031 72 10000 5.1 340 14:38 17.02.2020
2765 Clouds 16 1031 72 10000 5.1 340 14:19 17.02.2020
2766 Clouds 16 1031 72 10000 5.7 350 13:41 17.02.2020
2767 Clouds 16 1031 77 10000 6.7 350 13:22 17.02.2020
2768 Clouds 16 1031 82 10000 6.7 340 12:59 17.02.2020
2769 Clouds 16 1031 82 10000 6.7 340 12:41 17.02.2020
2770 Clouds 15 1031 87 10000 6.2 350 12:22 17.02.2020
2771 Clouds 15 1031 93 10000 6.7 350 11:47 17.02.2020
2772 Clouds 15 1031 100 10000 5.7 340 11:27 17.02.2020
2773 Clouds 14 1030 100 10000 4.1 340 10:58 17.02.2020
2774 Clouds 14 1030 100 10000 4.1 330 10:40 17.02.2020
2775 Clouds 14 1030 100 10000 4.1 330 10:21 17.02.2020
2776 Clouds 14 1030 100 10000 4.1 330 10:21 17.02.2020
2777 Clouds 14 1029 93 10000 4.1 330 09:58 17.02.2020
2778 Clouds 14 1029 93 10000 5.1 340 09:40 17.02.2020
2779 Clouds 14 1029 93 10000 5.1 340 09:19 17.02.2020
2780 Drizzle 14 1028 100 5000 2.1 260 08:56 17.02.2020
2781 Drizzle 14 1028 100 7000 2.6 240 08:38 17.02.2020
2782 Drizzle 15 1028 100 7000 2.6 240 08:19 17.02.2020
2783 Drizzle 15 1028 100 7000 2.6 240 07:40 17.02.2020
2784 Drizzle 15 1027 100 4000 3.1 230 07:22 17.02.2020
2785 Drizzle 15 1027 100 5000 3.1 230 06:49 17.02.2020
2786 Clouds 15 1027 100 10000 3.1 220 06:30 17.02.2020
2787 Drizzle 15 1027 100 8000 2.6 230 05:40 17.02.2020
2788 Clouds 15 1028 100 10000 3.6 230 04:40 17.02.2020
2789 Drizzle 15 1028 93 7000 3.1 220 03:20 17.02.2020
2790 Clouds 15 1028 93 10000 3.1 210 01:36 17.02.2020
2791 Clouds 15 1028 87 10000 2.6 230 00:41 17.02.2020
2792 Clouds 15 1028 87 10000 2.6 230 00:19 17.02.2020
2793 Clouds 15 1028 87 10000 2.6 180 23:52 16.02.2020
2794 Clouds 15 1028 87 10000 2.6 180 23:29 16.02.2020
2795 Clouds 15 1028 82 10000 2.1 190 22:57 16.02.2020
2796 Clouds 15 1028 82 10000 2.1 190 22:38 16.02.2020
2797 Clouds 15 1028 82 10000 2.1 190 22:20 16.02.2020
2798 Clouds 15 1028 82 10000 2.1 190 22:20 16.02.2020
2799 Clouds 15 1027 77 10000 2.6 210 21:56 16.02.2020
2800 Clouds 15 1027 77 10000 2.6 210 21:56 16.02.2020
2801 Clouds 15 1027 77 10000 2.6 210 21:38 16.02.2020
2802 Clouds 15 1028 82 10000 2.1 210 21:19 16.02.2020
2803 Clouds 15 1028 87 10000 2.1 260 20:56 16.02.2020
2804 Clouds 15 1028 82 10000 3.1 220 20:38 16.02.2020
2805 Clouds 15 1028 82 10000 3.1 220 20:20 16.02.2020
2806 Clouds 16 1027 87 10000 3.1 220 19:57 16.02.2020
2807 Clouds 16 1027 87 10000 2.6 210 19:37 16.02.2020
2808 Clouds 16 1027 87 10000 2.6 210 19:18 16.02.2020
2809 Clouds 16 1027 82 10000 3.6 210 18:42 16.02.2020
2810 Clouds 16 1027 77 10000 4.1 210 18:23 16.02.2020
2811 Clouds 16 1027 82 10000 3.6 220 17:47 16.02.2020
2812 Clouds 16 1027 82 10000 5.1 220 17:21 16.02.2020
2813 Clouds 16 1027 82 10000 4.6 210 16:59 16.02.2020
2814 Clouds 17 1027 82 10000 4.6 230 16:39 16.02.2020
2815 Clouds 17 1027 82 10000 4.6 230 16:21 16.02.2020
2816 Clouds 17 1027 82 10000 4.6 230 16:21 16.02.2020
2817 Clouds 17 1027 82 10000 4.6 230 16:21 16.02.2020
2818 Clouds 17 1027 82 10000 5.1 220 15:59 16.02.2020
2819 Clouds 17 1027 82 10000 5.1 220 15:40 16.02.2020
2820 Clouds 17 1027 82 10000 4.6 230 15:21 16.02.2020
2821 Clouds 16 1027 87 10000 3.6 230 14:41 16.02.2020
2822 Clouds 16 1028 87 10000 4.1 220 14:23 16.02.2020
2823 Drizzle 16 1028 100 10000 1.5 0 13:54 16.02.2020
2824 Clouds 15 1028 100 10000 2.1 90 13:36 16.02.2020
2825 Clouds 15 1028 100 10000 2.1 90 13:18 16.02.2020
2826 Clouds 15 1028 100 8000 1.5 90 12:39 16.02.2020
2827 Mist 14 1028 100 5000 1.5 60 12:19 16.02.2020
2828 Clouds 15 1028 93 8000 3.6 170 11:40 16.02.2020
2829 Mist 14 1028 100 3000 1 0 11:19 16.02.2020
2830 Mist 14 1028 100 3000 1 0 11:19 16.02.2020
2831 Mist 13 1028 100 1500 1 0 10:58 16.02.2020
2832 Mist 13 1028 100 1500 1 0 10:40 16.02.2020
2833 Fog 13 1027 100 400 2.1 100 10:21 16.02.2020
2834 Fog 14 1027 100 400 2.1 100 10:21 16.02.2020
2835 Fog 13 1027 100 250 1.5 110 09:59 16.02.2020
2836 Fog 13 1027 100 250 1.5 110 09:59 16.02.2020
2837 Fog 13 1027 100 200 0.5 0 09:38 16.02.2020
2838 Fog 12 1027 100 200 0.5 0 09:20 16.02.2020
2839 Fog 12 1027 100 150 1.5 100 08:50 16.02.2020
2840 Fog 12 1027 100 200 1.5 70 08:22 16.02.2020
2841 Fog 12 1026 100 200 1.5 80 07:59 16.02.2020
2842 Fog 12 1026 100 200 1.5 80 07:40 16.02.2020
2843 Fog 12 1026 100 500 1.5 0 06:47 16.02.2020
2844 Mist 12 1026 100 5000 1 10 05:53 16.02.2020
2845 Fog 13 1027 100 9000 1.24 169 04:37 16.02.2020
2846 Clouds 12 1027 100 10000 2.6 220 03:19 16.02.2020
2847 Clouds 12 1027 100 10000 3.1 260 01:58 16.02.2020
2848 Clouds 12 1027 100 10000 3.1 260 01:38 16.02.2020
2849 Clear 12 1027 100 10000 2.6 270 01:19 16.02.2020
2850 Clear 13 1027 100 10000 2.1 240 00:41 16.02.2020
2851 Clear 12 1027 100 10000 2.1 240 00:22 16.02.2020
2852 Clear 13 1027 100 10000 2.6 250 23:43 15.02.2020
2853 Clear 13 1027 100 10000 2.6 240 23:25 15.02.2020
2854 Clear 13 1027 100 10000 2.6 240 23:25 15.02.2020
2855 Clear 13 1027 100 10000 2.6 240 22:57 15.02.2020
2856 Clear 13 1027 93 10000 2.6 230 22:39 15.02.2020
2857 Clear 13 1027 93 10000 2.6 230 22:19 15.02.2020
2858 Clear 13 1027 93 10000 2.6 250 21:55 15.02.2020
2859 Clear 14 1027 87 10000 3.1 270 21:37 15.02.2020
2860 Clear 14 1027 87 10000 3.1 270 21:19 15.02.2020
2861 Clouds 14 1027 82 10000 3.6 260 20:39 15.02.2020
2862 Clouds 14 1027 82 10000 3.6 260 20:20 15.02.2020
2863 Clouds 14 1026 82 10000 3.6 250 19:44 15.02.2020
2864 Clouds 15 1026 67 10000 4.6 250 19:22 15.02.2020
2865 Clouds 16 1026 67 10000 4.1 240 18:43 15.02.2020
2866 Clouds 16 1026 67 10000 4.1 240 18:23 15.02.2020
2867 Clouds 17 1026 63 10000 3.6 220 17:58 15.02.2020
2868 Clouds 17 1026 63 10000 3.6 220 17:38 15.02.2020
2869 Clouds 17 1026 63 10000 3.1 220 17:19 15.02.2020
2870 Clouds 18 1026 63 10000 2.1 240 16:43 15.02.2020
2871 Clouds 18 1026 63 10000 3.6 230 16:24 15.02.2020
2872 Clouds 17 1025 67 10000 2.6 130 15:58 15.02.2020
2873 Clouds 17 1025 67 10000 2.6 130 15:58 15.02.2020
2874 Clouds 17 1025 67 10000 2.6 130 15:40 15.02.2020
2875 Clouds 17 1026 67 10000 2.6 110 15:21 15.02.2020
2876 Clouds 17 1026 67 10000 2.6 100 14:44 15.02.2020
2877 Clouds 17 1026 72 10000 2.1 120 14:19 15.02.2020
2878 Clouds 17 1026 72 10000 2.1 120 14:19 15.02.2020
2879 Clouds 16 1027 72 10000 2.6 110 13:54 15.02.2020
2880 Clouds 16 1027 77 10000 3.1 0 13:36 15.02.2020
2881 Clouds 16 1027 77 10000 3.1 0 13:18 15.02.2020
2882 Clouds 16 1027 77 10000 2.1 0 12:42 15.02.2020
2883 Clouds 16 1027 77 10000 1.5 90 12:22 15.02.2020
2884 Clouds 15 1027 82 10000 2.1 80 11:49 15.02.2020
2885 Clouds 15 1027 82 10000 2.1 80 11:49 15.02.2020
2886 Clouds 15 1027 76 10000 2.1 80 11:30 15.02.2020
2887 Clouds 14 1027 72 10000 1 0 10:56 15.02.2020
2888 Clouds 13 1027 82 10000 1.49 94 10:37 15.02.2020
2889 Clouds 13 1027 82 10000 1.49 94 10:37 15.02.2020
2890 Clouds 13 1027 82 10000 1.49 94 10:18 15.02.2020
2891 Fog 11 1026 100 10000 1 0 09:41 15.02.2020
2892 Fog 10 1026 100 10000 1.49 94 09:23 15.02.2020
2893 Clouds 9 1025 100 10000 1.49 94 08:44 15.02.2020
2894 Clouds 9 1025 100 10000 1.42 39 08:25 15.02.2020
2895 Clouds 10 1025 100 10000 1.42 39 07:56 15.02.2020
2896 Clouds 10 1025 100 10000 1.42 39 07:38 15.02.2020
2897 Clouds 10 1025 93 10000 1.42 39 07:18 15.02.2020
2898 Clouds 11 1024 93 10000 0.5 0 06:37 15.02.2020
2899 Clouds 10 1024 93 10000 1.42 39 05:54 15.02.2020
2900 Clouds 10 1024 93 10000 1 270 04:48 15.02.2020
2901 Clouds 11 1025 93 10000 1.6 36 03:45 15.02.2020
2902 Clouds 11 1025 81 10000 2.1 290 02:58 15.02.2020
2903 Clouds 11 1025 87 10000 0.5 0 02:23 15.02.2020
2904 Clouds 12 1025 81 10000 1.47 13 01:41 15.02.2020
2905 Clouds 12 1025 87 10000 1.46 10 00:56 15.02.2020
2906 Clouds 13 1025 76 10000 1 0 00:26 15.02.2020
2907 Clouds 13 1025 82 10000 0.5 0 23:44 14.02.2020
2908 Clouds 13 1025 76 10000 3.1 310 23:20 14.02.2020
2909 Clouds 13 1025 76 10000 3.1 310 22:54 14.02.2020
2910 Clouds 13 1025 82 10000 3.1 310 22:36 14.02.2020
2911 Clouds 13 1025 82 10000 3.1 310 22:18 14.02.2020
2912 Clouds 14 1025 82 10000 3.1 310 21:40 14.02.2020
2913 Clouds 14 1025 87 10000 3.1 310 21:20 14.02.2020
2914 Clouds 14 1025 87 10000 2.1 310 20:43 14.02.2020
2915 Clouds 14 1025 82 10000 1.5 290 20:19 14.02.2020
2916 Clouds 14 1025 77 10000 2.1 300 19:56 14.02.2020
2917 Clouds 14 1025 77 10000 2.1 300 19:56 14.02.2020
2918 Clouds 14 1025 77 10000 2.1 300 19:38 14.02.2020
2919 Clouds 15 1025 82 10000 2.6 330 19:18 14.02.2020
2920 Clouds 16 1025 67 10000 1.5 40 18:55 14.02.2020
2921 Clouds 16 1025 63 10000 1.5 60 18:37 14.02.2020
2922 Clouds 16 1025 63 10000 1.5 60 18:18 14.02.2020
2923 Clouds 16 1025 67 10000 1.5 70 17:41 14.02.2020
2924 Clouds 17 1025 59 10000 1.5 0 17:19 14.02.2020
2925 Clouds 16 1025 67 10000 2.1 70 16:57 14.02.2020
2926 Clouds 16 1025 67 10000 2.1 70 16:39 14.02.2020
2927 Clouds 16 1025 67 10000 2.6 50 16:20 14.02.2020
2928 Clouds 16 1025 77 10000 2.1 40 15:55 14.02.2020
2929 Clouds 16 1025 82 10000 1.5 0 15:37 14.02.2020
2930 Clouds 16 1025 82 10000 1.5 0 15:19 14.02.2020
2931 Clouds 15 1026 87 10000 1.5 80 14:55 14.02.2020
2932 Fog 15 1026 100 10000 2.1 60 14:37 14.02.2020
2933 Fog 14 1026 100 10000 2.1 60 14:18 14.02.2020
2934 Fog 14 1026 100 10000 2.1 0 13:39 14.02.2020
2935 Fog 14 1027 100 1500 2.1 80 13:20 14.02.2020
2936 Fog 13 1027 100 200 2.6 70 12:58 14.02.2020
2937 Fog 14 1027 100 100 2.6 70 12:39 14.02.2020
2938 Fog 14 1027 100 100 2.6 70 12:20 14.02.2020
2939 Fog 13 1027 100 100 2.6 70 12:20 14.02.2020
2940 Fog 14 1027 100 100 2.6 70 12:20 14.02.2020
2941 Fog 13 1027 100 200 2.1 60 11:58 14.02.2020
2942 Fog 13 1027 100 200 2.1 60 11:40 14.02.2020
2943 Fog 13 1027 93 1100 2.6 0 11:20 14.02.2020
2944 Fog 12 1026 100 10000 2.6 40 10:55 14.02.2020
2945 Fog 11 1026 100 300 1 0 10:36 14.02.2020
2946 Fog 11 1026 100 300 1 0 10:18 14.02.2020
2947 Fog 10 1026 100 10000 1 0 09:39 14.02.2020
2948 Fog 10 1026 100 10000 1 0 09:19 14.02.2020
2949 Fog 10 1026 100 10000 1 40 08:43 14.02.2020
2950 Fog 9 1025 100 10000 2.37 48 08:24 14.02.2020
2951 Fog 10 1025 93 10000 2.1 340 07:51 14.02.2020
2952 Clouds 9 1025 93 10000 1.5 350 07:33 14.02.2020
2953 Clouds 10 1025 93 10000 2.1 360 06:56 14.02.2020
2954 Clouds 10 1025 93 10000 1.5 10 06:23 14.02.2020
2955 Clouds 10 1025 93 10000 0.5 0 05:47 14.02.2020
2956 Clouds 11 1026 93 10000 2.6 310 04:28 14.02.2020
2957 Clouds 11 1026 87 10000 1.5 310 03:28 14.02.2020
2958 Clouds 11 1026 100 10000 1 0 02:29 14.02.2020
2959 Clouds 11 1027 93 10000 3.1 310 01:25 14.02.2020
2960 Clouds 11 1027 93 10000 1 0 00:42 14.02.2020
2961 Clouds 11 1027 100 10000 2.1 310 00:21 14.02.2020
2962 Clouds 12 1027 100 10000 1 0 23:43 13.02.2020
2963 Clouds 12 1027 100 10000 1 0 23:43 13.02.2020
2964 Clouds 13 1026 93 10000 1 0 23:20 13.02.2020
2965 Clouds 13 1026 93 10000 1 0 22:43 13.02.2020
2966 Clouds 13 1026 100 10000 1 0 22:20 13.02.2020
2967 Clouds 13 1026 93 10000 1 0 21:59 13.02.2020
2968 Clouds 14 1026 93 10000 1 0 21:40 13.02.2020
2969 Clouds 14 1026 93 10000 1.5 320 21:22 13.02.2020
2970 Clouds 14 1026 93 10000 2.1 310 20:56 13.02.2020
2971 Clouds 14 1026 100 10000 1.5 310 20:38 13.02.2020
2972 Clouds 14 1026 100 10000 1.5 310 20:19 13.02.2020
2973 Clouds 15 1026 93 10000 1.5 20 19:55 13.02.2020
2974 Clouds 15 1026 93 10000 1 0 19:36 13.02.2020
2975 Clouds 15 1026 93 10000 1 0 19:18 13.02.2020
2976 Clouds 15 1026 93 10000 1 0 19:18 13.02.2020
2977 Clouds 16 1025 87 10000 1.5 200 18:42 13.02.2020
2978 Clouds 16 1025 87 10000 1.5 200 18:23 13.02.2020
2979 Clouds 16 1025 87 10000 1.5 200 18:23 13.02.2020
2980 Clouds 16 1025 87 10000 1.5 250 17:58 13.02.2020
2981 Rain 16 1026 93 10000 2.6 300 17:39 13.02.2020
2982 Rain 16 1026 93 10000 2.6 300 17:20 13.02.2020
2983 Rain 16 1026 93 10000 2.6 300 17:20 13.02.2020
2984 Rain 16 1025 93 10000 3.1 310 16:57 13.02.2020
2985 Rain 16 1025 93 10000 4.6 340 16:36 13.02.2020
2986 Rain 16 1025 93 10000 4.6 340 16:18 13.02.2020
2987 Clouds 16 1025 100 10000 3.6 230 15:56 13.02.2020
2988 Drizzle 16 1026 93 3000 4.1 220 15:37 13.02.2020
2989 Drizzle 15 1026 93 3000 4.1 220 15:18 13.02.2020
2990 Drizzle 15 1026 93 8000 3.6 220 14:55 13.02.2020
2991 Drizzle 15 1026 93 6000 3.6 220 14:37 13.02.2020
2992 Drizzle 15 1026 93 6000 3.6 220 14:37 13.02.2020
2993 Drizzle 15 1026 93 6000 3.6 220 14:19 13.02.2020
2994 Drizzle 15 1026 93 7000 3.6 210 13:42 13.02.2020
2995 Drizzle 15 1026 100 9000 2.6 210 13:18 13.02.2020
2996 Drizzle 15 1026 93 10000 3.1 210 12:54 13.02.2020
2997 Clouds 15 1026 93 10000 2.1 220 12:36 13.02.2020
2998 Clouds 15 1026 93 10000 2.1 220 12:18 13.02.2020
2999 Clouds 15 1026 100 6000 2.1 210 11:43 13.02.2020
3000 Clouds 14 1026 100 6000 2.1 210 11:19 13.02.2020
3001 Mist 14 1026 93 5000 1.5 230 10:46 13.02.2020
3002 Clouds 13 1026 100 6000 1.5 160 10:27 13.02.2020
3003 Mist 13 1026 100 4500 1.39 139 09:51 13.02.2020
3004 Clouds 13 1025 93 10000 1 0 09:26 13.02.2020
3005 Clouds 12 1025 100 10000 1 0 08:54 13.02.2020
3006 Clouds 12 1024 93 10000 1 230 08:36 13.02.2020
3007 Clouds 12 1024 93 10000 1 230 08:18 13.02.2020
3008 Clouds 12 1024 100 10000 2.1 250 07:39 13.02.2020
3009 Clouds 12 1024 100 10000 2.1 250 07:20 13.02.2020
3010 Clouds 12 1024 93 10000 1.5 270 06:44 13.02.2020
3011 Clouds 12 1024 93 10000 1.5 270 06:44 13.02.2020
3012 Clouds 12 1024 93 10000 1.5 270 06:18 13.02.2020
3013 Clouds 12 1023 93 10000 1 0 05:33 13.02.2020
3014 Fog 11 1024 100 7000 0.5 0 04:26 13.02.2020
3015 Clouds 11 1024 93 10000 1 0 03:51 13.02.2020
3016 Clouds 11 1024 93 10000 1 290 03:20 13.02.2020
3017 Clouds 11 1024 100 10000 1 290 02:50 13.02.2020
3018 Clouds 12 1025 93 10000 1 260 02:19 13.02.2020
3019 Clouds 12 1024 93 10000 2.1 240 01:32 13.02.2020
3020 Clouds 12 1024 93 10000 1.5 270 00:39 13.02.2020
3021 Clouds 13 1024 93 10000 1.5 280 00:21 13.02.2020
3022 Clouds 13 1024 87 10000 1.5 280 23:40 12.02.2020
3023 Clouds 13 1024 87 10000 1.5 280 23:21 12.02.2020
3024 Clouds 13 1024 93 10000 2.1 270 22:45 12.02.2020
3025 Clouds 13 1024 87 10000 1 260 22:26 12.02.2020
3026 Clouds 13 1024 93 10000 1.1 255 21:58 12.02.2020
3027 Clouds 13 1024 93 10000 1.1 255 21:40 12.02.2020
3028 Clouds 13 1024 87 10000 1.5 310 21:19 12.02.2020
3029 Clouds 13 1024 93 10000 1 310 20:57 12.02.2020
3030 Clouds 13 1024 93 10000 1 310 20:39 12.02.2020
3031 Clouds 14 1023 82 10000 1 0 20:20 12.02.2020
3032 Clouds 14 1023 82 10000 2.6 330 19:55 12.02.2020
3033 Clouds 14 1023 87 10000 1.5 310 19:36 12.02.2020
3034 Clouds 14 1023 87 10000 1.5 310 19:36 12.02.2020
3035 Clouds 14 1023 87 10000 1.5 310 19:18 12.02.2020
3036 Clouds 15 1023 87 10000 2.1 60 18:45 12.02.2020
3037 Clouds 15 1023 87 10000 2.1 60 18:19 12.02.2020
3038 Clouds 15 1023 87 10000 1.5 0 17:43 12.02.2020
3039 Clouds 15 1023 87 10000 1.5 0 17:22 12.02.2020
3040 Clouds 15 1023 87 9000 2.1 90 16:59 12.02.2020
3041 Clouds 15 1023 87 9000 2.6 60 16:40 12.02.2020
3042 Clouds 15 1023 87 9000 2.6 60 16:20 12.02.2020
3043 Clouds 15 1023 77 10000 2.1 320 15:43 12.02.2020
3044 Clouds 15 1023 82 10000 1.5 60 15:24 12.02.2020
3045 Clouds 15 1024 82 10000 2.1 340 14:59 12.02.2020
3046 Clouds 15 1024 82 10000 2.1 340 14:41 12.02.2020
3047 Clouds 15 1024 77 10000 1 0 14:20 12.02.2020
3048 Clouds 15 1025 87 8000 1.5 230 13:57 12.02.2020
3049 Clouds 15 1025 87 8000 1.5 230 13:39 12.02.2020
3050 Clouds 15 1025 87 8000 1.5 230 13:20 12.02.2020
3051 Clouds 14 1025 82 9000 1 0 12:57 12.02.2020
3052 Clouds 14 1025 82 9000 1 0 12:38 12.02.2020
3053 Clouds 14 1025 93 8000 1.5 0 12:18 12.02.2020
3054 Clouds 14 1025 93 6000 1.5 280 11:57 12.02.2020
3055 Clouds 14 1025 87 7000 1.5 0 11:39 12.02.2020
3056 Clouds 14 1025 87 7000 1.5 0 11:20 12.02.2020
3057 Clouds 13 1025 93 8000 1 0 10:55 12.02.2020
3058 Clouds 13 1024 93 8000 1 0 10:37 12.02.2020
3059 Clouds 13 1024 93 8000 1 0 10:19 12.02.2020
3060 Clouds 13 1024 93 8000 1 0 09:42 12.02.2020
3061 Clouds 13 1024 93 8000 1 0 09:42 12.02.2020
3062 Clouds 13 1024 93 8000 1 0 09:42 12.02.2020
3063 Clouds 13 1024 93 8000 1.5 310 09:23 12.02.2020
3064 Clouds 13 1024 100 9000 1 0 08:58 12.02.2020
3065 Clouds 13 1024 100 9000 1 0 08:58 12.02.2020
3066 Clouds 13 1024 100 9000 1 0 08:58 12.02.2020
3067 Clouds 13 1024 93 10000 1.5 290 08:38 12.02.2020
3068 Clouds 13 1024 93 10000 1.5 290 08:20 12.02.2020
3069 Clouds 13 1024 93 10000 1.5 280 07:44 12.02.2020
3070 Clouds 13 1024 93 10000 1.5 310 07:24 12.02.2020
3071 Clouds 13 1024 93 10000 1.5 330 06:57 12.02.2020
3072 Clouds 13 1024 87 10000 1 0 06:24 12.02.2020
3073 Clouds 12 1024 93 10000 1.5 300 05:44 12.02.2020
3074 Clouds 12 1025 93 10000 2.1 320 04:59 12.02.2020
3075 Clouds 12 1025 93 10000 2.1 320 04:40 12.02.2020
3076 Clouds 12 1025 93 10000 2.1 290 03:42 12.02.2020
3077 Clouds 12 1025 100 10000 2.1 270 03:23 12.02.2020
3078 Clouds 12 1025 93 10000 1.5 300 02:31 12.02.2020
3079 Clouds 13 1026 93 10000 2.6 310 01:59 12.02.2020
3080 Clouds 13 1026 87 10000 1.5 330 00:58 12.02.2020
3081 Clouds 13 1026 87 10000 1.5 330 00:58 12.02.2020
3082 Clouds 13 1026 87 10000 1.5 330 00:39 12.02.2020
3083 Clouds 13 1026 87 10000 2.6 320 00:21 12.02.2020
3084 Clouds 13 1026 87 10000 3.1 330 23:42 11.02.2020
3085 Clouds 13 1026 87 10000 3.6 320 23:24 11.02.2020
3086 Clouds 12 1026 87 10000 3.6 320 22:56 11.02.2020
3087 Clouds 12 1026 87 10000 3.6 320 22:38 11.02.2020
3088 Clouds 13 1026 87 10000 3.6 320 22:19 11.02.2020
3089 Clouds 13 1026 87 10000 3.6 320 21:56 11.02.2020
3090 Clouds 13 1026 87 10000 3.1 310 21:37 11.02.2020
3091 Clouds 13 1026 87 10000 3.1 310 21:18 11.02.2020
3092 Clouds 13 1026 87 10000 3.1 310 21:18 11.02.2020
3093 Clouds 13 1026 82 10000 2.6 310 20:56 11.02.2020
3094 Clouds 13 1026 82 10000 3.1 320 20:38 11.02.2020
3095 Clouds 13 1026 82 10000 3.1 320 20:18 11.02.2020
3096 Clouds 13 1026 82 10000 3.1 320 20:18 11.02.2020
3097 Clouds 13 1026 82 10000 2.1 300 19:54 11.02.2020
3098 Clouds 14 1026 76 10000 2.6 300 19:36 11.02.2020
3099 Clouds 14 1026 76 10000 2.6 300 19:18 11.02.2020
3100 Clouds 14 1026 76 10000 2.1 290 18:42 11.02.2020
3101 Clouds 15 1026 76 10000 3.1 310 18:24 11.02.2020
3102 Clouds 15 1026 77 10000 2.6 300 17:55 11.02.2020
3103 Clouds 15 1026 72 10000 2.6 290 17:37 11.02.2020
3104 Clouds 16 1026 72 10000 2.6 290 17:18 11.02.2020
3105 Clouds 16 1026 72 10000 2.6 290 17:18 11.02.2020
3106 Clouds 16 1026 77 10000 3.6 300 16:57 11.02.2020
3107 Clouds 16 1026 77 10000 3.6 300 16:57 11.02.2020
3108 Clouds 16 1027 72 10000 3.1 300 16:38 11.02.2020
3109 Clouds 16 1027 72 10000 3.1 300 16:20 11.02.2020
3110 Clouds 16 1027 77 10000 2.1 300 15:47 11.02.2020
3111 Clouds 15 1027 77 10000 2.6 260 15:29 11.02.2020
3112 Clouds 15 1028 77 10000 2.6 320 14:58 11.02.2020
3113 Clouds 15 1028 77 10000 2.6 320 14:39 11.02.2020
3114 Clouds 15 1028 77 10000 2.6 320 14:19 11.02.2020
3115 Clouds 15 1029 82 10000 3.6 320 13:42 11.02.2020
3116 Clouds 15 1029 87 10000 3.1 320 13:22 11.02.2020
3117 Clouds 15 1029 82 10000 2.1 310 12:59 11.02.2020
3118 Clouds 15 1029 82 10000 2.1 310 12:41 11.02.2020
3119 Clouds 14 1029 87 10000 1.5 290 12:21 11.02.2020
3120 Clouds 14 1029 87 10000 2.6 340 11:56 11.02.2020
3121 Clouds 14 1029 87 10000 2.6 340 11:38 11.02.2020
3122 Clouds 14 1029 87 10000 2.1 70 11:19 11.02.2020
3123 Clouds 14 1029 93 10000 3.1 340 10:40 11.02.2020
3124 Clouds 13 1029 93 10000 3.1 330 10:21 11.02.2020
3125 Clouds 13 1029 87 10000 2.1 310 09:57 11.02.2020
3126 Clouds 13 1029 87 10000 2.1 310 09:39 11.02.2020
3127 Clouds 13 1029 93 10000 2.6 310 09:21 11.02.2020
3128 Clouds 13 1029 93 10000 3.1 320 08:49 11.02.2020
3129 Clouds 13 1029 93 10000 3.1 320 08:25 11.02.2020
3130 Clouds 13 1029 93 10000 3.1 320 07:51 11.02.2020
3131 Clouds 13 1029 93 10000 2.6 310 07:32 11.02.2020
3132 Clouds 13 1029 93 10000 1.5 310 06:57 11.02.2020
3133 Clouds 13 1029 93 10000 1.5 310 06:38 11.02.2020
3134 Clouds 13 1029 100 10000 1.5 320 06:20 11.02.2020
3135 Clouds 13 1029 100 10000 1.5 320 06:20 11.02.2020
3136 Clouds 12 1029 100 10000 3.6 310 05:39 11.02.2020
3137 Clouds 12 1029 100 10000 3.6 310 05:19 11.02.2020
3138 Clouds 12 1030 93 10000 3.1 320 03:32 11.02.2020
3139 Clouds 12 1030 93 10000 3.1 320 03:32 11.02.2020
3140 Clouds 12 1031 93 10000 2.6 320 02:37 11.02.2020
3141 Clear 13 1031 87 10000 2.6 320 01:52 11.02.2020
3142 Clear 13 1031 93 10000 2.6 330 01:30 11.02.2020
3143 Clear 13 1032 93 10000 2.6 310 00:23 11.02.2020
3144 Clear 13 1032 100 10000 1 350 23:45 10.02.2020
3145 Clouds 13 1032 93 10000 2.1 320 23:26 10.02.2020
3146 Clouds 13 1032 93 10000 2.1 320 22:57 10.02.2020
3147 Clouds 14 1032 93 10000 3.1 330 22:37 10.02.2020
3148 Clouds 14 1032 93 10000 3.1 330 22:19 10.02.2020
3149 Clouds 14 1032 87 10000 3.6 310 21:40 10.02.2020
3150 Clouds 14 1033 87 10000 2.6 320 21:22 10.02.2020
3151 Clouds 14 1033 93 10000 2.6 330 20:56 10.02.2020
3152 Clouds 14 1032 87 10000 3.1 340 20:38 10.02.2020
3153 Clouds 14 1032 87 10000 3.1 340 20:19 10.02.2020
3154 Clouds 15 1032 82 10000 3.6 350 19:57 10.02.2020
3155 Clouds 15 1032 82 10000 3.6 350 19:57 10.02.2020
3156 Clouds 15 1032 82 10000 2.6 340 19:37 10.02.2020
3157 Clouds 15 1032 82 10000 2.6 340 19:18 10.02.2020
3158 Clouds 16 1032 77 10000 2.6 350 18:58 10.02.2020
3159 Clouds 16 1032 82 10000 2.1 310 18:38 10.02.2020
3160 Clouds 16 1032 82 10000 2.1 310 18:20 10.02.2020
3161 Clouds 16 1032 82 10000 1 0 17:55 10.02.2020
3162 Clouds 16 1032 82 10000 1.5 280 17:37 10.02.2020
3163 Clouds 16 1032 82 10000 1.5 280 17:18 10.02.2020
3164 Clouds 16 1032 82 10000 1.5 280 17:18 10.02.2020
3165 Clouds 16 1032 87 10000 2.1 320 16:56 10.02.2020
3166 Clouds 16 1032 82 10000 1 0 16:38 10.02.2020
3167 Clouds 16 1032 82 10000 1 0 16:18 10.02.2020
3168 Clouds 16 1033 87 10000 1.5 40 15:42 10.02.2020
3169 Clouds 16 1033 87 10000 1.5 0 15:22 10.02.2020
3170 Clouds 15 1033 87 10000 2.1 60 14:59 10.02.2020
3171 Clouds 15 1033 87 10000 2.1 60 14:41 10.02.2020
3172 Clouds 15 1034 87 10000 1.5 70 14:19 10.02.2020
3173 Clouds 15 1034 87 10000 1.5 120 13:56 10.02.2020
3174 Clouds 15 1034 87 10000 1.5 120 13:56 10.02.2020
3175 Clouds 15 1035 93 10000 2.1 90 13:38 10.02.2020
3176 Clouds 15 1035 93 10000 2.1 90 13:18 10.02.2020
3177 Clouds 15 1035 93 10000 3.1 90 12:47 10.02.2020
3178 Fog 15 1035 93 10000 2.1 90 12:26 10.02.2020
3179 Fog 14 1035 93 10000 1.5 90 11:55 10.02.2020
3180 Fog 14 1034 93 10000 1.5 100 11:37 10.02.2020
3181 Fog 14 1034 93 10000 1.5 100 11:19 10.02.2020
3182 Fog 13 1034 100 10000 2.1 90 10:46 10.02.2020
3183 Fog 13 1034 100 10000 0.99 82 10:26 10.02.2020
3184 Fog 11 1034 100 10000 1 0 09:45 10.02.2020
3185 Fog 11 1034 100 10000 0.99 82 09:26 10.02.2020
3186 Clouds 11 1033 100 10000 1 0 08:56 10.02.2020
3187 Fog 11 1033 100 10000 0.5 0 08:37 10.02.2020
3188 Fog 11 1033 100 10000 0.5 0 08:18 10.02.2020
3189 Clouds 11 1033 100 10000 1 0 07:47 10.02.2020
3190 Clouds 11 1033 100 10000 1.19 38 07:26 10.02.2020
3191 Clouds 11 1033 100 10000 0.5 0 06:20 10.02.2020
3192 Clear 11 1033 100 10000 1.5 330 04:28 10.02.2020
3193 Clear 11 1033 100 10000 1.5 0 03:34 10.02.2020
3194 Clear 12 1033 93 10000 3.1 310 02:54 10.02.2020
3195 Clouds 12 1033 93 10000 2.1 300 01:55 10.02.2020
3196 Clouds 12 1033 93 10000 1 0 00:49 10.02.2020
3197 Clouds 12 1034 93 10000 2.1 290 00:31 10.02.2020
3198 Clouds 12 1033 93 10000 1 280 23:57 09.02.2020
3199 Clouds 12 1033 93 10000 1 280 23:39 09.02.2020
3200 Clouds 12 1033 93 10000 1.5 280 23:19 09.02.2020
3201 Clouds 13 1033 87 10000 1.5 290 22:40 09.02.2020
3202 Clouds 13 1033 87 10000 1.5 290 22:21 09.02.2020
3203 Clouds 14 1033 87 10000 1 0 21:44 09.02.2020
3204 Clouds 14 1033 82 10000 2.6 320 21:25 09.02.2020
3205 Clouds 14 1033 82 10000 1.5 310 20:58 09.02.2020
3206 Clouds 14 1032 82 10000 1.5 300 20:40 09.02.2020
3207 Clouds 14 1032 82 10000 1.5 300 20:19 09.02.2020
3208 Clouds 15 1032 82 10000 2.6 300 19:40 09.02.2020
3209 Clouds 15 1032 82 10000 2.6 300 19:40 09.02.2020
3210 Clouds 15 1031 82 10000 3.1 250 19:21 09.02.2020
3211 Clouds 15 1031 82 10000 3.1 240 18:59 09.02.2020
3212 Clouds 15 1031 82 10000 3.1 240 18:40 09.02.2020
3213 Clouds 15 1031 82 10000 2.6 240 18:22 09.02.2020
3214 Clouds 16 1031 77 10000 3.1 240 17:43 09.02.2020
3215 Clouds 16 1031 77 10000 3.1 240 17:43 09.02.2020
3216 Clouds 15 1030 82 10000 2.6 250 17:23 09.02.2020
3217 Clouds 16 1030 72 10000 1.5 190 16:57 09.02.2020
3218 Clouds 16 1030 72 10000 1.5 190 16:38 09.02.2020
3219 Clouds 16 1030 72 10000 2.6 0 16:20 09.02.2020
3220 Clouds 16 1030 72 10000 1.5 0 15:56 09.02.2020
3221 Clouds 16 1030 72 10000 1.5 0 15:38 09.02.2020
3222 Clouds 16 1030 72 10000 2.1 0 15:20 09.02.2020
3223 Clouds 16 1031 72 10000 2.6 180 14:42 09.02.2020
3224 Clouds 16 1031 77 10000 2.1 130 14:23 09.02.2020
3225 Clouds 15 1031 77 10000 2.1 110 13:55 09.02.2020
3226 Clouds 15 1031 77 10000 2.6 80 13:36 09.02.2020
3227 Clouds 15 1031 77 10000 2.6 80 13:18 09.02.2020
3228 Clouds 15 1032 77 10000 1.5 90 12:42 09.02.2020
3229 Clouds 15 1031 77 10000 1 0 12:20 09.02.2020
3230 Clouds 15 1031 77 10000 1 0 12:20 09.02.2020
3231 Clouds 15 1031 82 10000 2.1 0 11:57 09.02.2020
3232 Clouds 14 1031 82 10000 2.1 0 11:38 09.02.2020
3233 Clouds 14 1031 76 10000 1.5 0 11:18 09.02.2020
3234 Clouds 14 1031 76 10000 1.5 0 11:18 09.02.2020
3235 Clouds 13 1031 76 10000 0.5 0 10:42 09.02.2020
3236 Clouds 13 1031 76 10000 0.5 0 10:42 09.02.2020
3237 Clouds 12 1030 87 10000 1 0 10:23 09.02.2020
3238 Clouds 11 1030 93 10000 0.5 290 09:57 09.02.2020
3239 Clouds 10 1030 93 10000 1 0 09:38 09.02.2020
3240 Clouds 10 1030 93 10000 1 0 09:19 09.02.2020
3241 Clouds 9 1030 93 10000 1 0 08:39 09.02.2020
3242 Clear 9 1029 100 10000 1 0 08:20 09.02.2020
3243 Clear 9 1029 100 10000 1 260 07:51 09.02.2020
3244 Clear 9 1029 93 10000 0.5 0 07:26 09.02.2020
3245 Clear 10 1028 93 10000 0.5 0 06:37 09.02.2020
3246 Clear 10 1028 87 10000 1 0 05:52 09.02.2020
3247 Clear 11 1028 87 10000 2.1 290 05:32 09.02.2020
3248 Clear 11 1028 87 10000 1.5 280 04:43 09.02.2020
3249 Clear 11 1028 81 10000 2.1 320 02:50 09.02.2020
3250 Clear 11 1028 81 10000 2.1 310 02:32 09.02.2020
3251 Clouds 12 1028 81 10000 2.1 320 01:38 09.02.2020
3252 Clouds 12 1028 87 10000 3.6 330 00:56 09.02.2020
3253 Clouds 12 1028 81 10000 3.1 320 00:30 09.02.2020
3254 Clouds 13 1028 87 10000 3.6 310 23:50 08.02.2020
3255 Clouds 13 1028 87 10000 3.1 310 23:25 08.02.2020
3256 Clouds 13 1028 87 10000 2.6 310 22:58 08.02.2020
3257 Clouds 13 1028 87 10000 3.1 310 22:40 08.02.2020
3258 Clouds 13 1028 87 10000 3.1 310 22:20 08.02.2020
3259 Clouds 13 1027 87 10000 2.6 330 21:46 08.02.2020
3260 Clouds 13 1027 87 10000 3.1 310 21:27 08.02.2020
3261 Clouds 13 1027 93 10000 3.1 320 20:59 08.02.2020
3262 Clouds 13 1027 93 10000 3.1 320 20:40 08.02.2020
3263 Clouds 13 1027 100 10000 3.6 300 20:20 08.02.2020
3264 Clouds 13 1026 93 10000 3.1 290 19:58 08.02.2020
3265 Clouds 13 1026 87 10000 4.1 300 19:38 08.02.2020
3266 Clouds 13 1026 87 10000 4.1 300 19:20 08.02.2020
3267 Drizzle 13 1025 93 10000 3.6 290 18:57 08.02.2020
3268 Drizzle 14 1025 87 10000 4.6 280 18:38 08.02.2020
3269 Drizzle 14 1025 87 10000 4.6 280 18:19 08.02.2020
3270 Clouds 14 1025 87 10000 4.1 280 17:41 08.02.2020
3271 Clouds 15 1025 82 10000 5.1 270 17:19 08.02.2020
3272 Clouds 15 1025 82 10000 5.7 260 16:42 08.02.2020
3273 Clouds 15 1024 82 10000 5.7 240 16:23 08.02.2020
3274 Clouds 15 1024 82 10000 5.7 230 15:59 08.02.2020
3275 Clouds 16 1024 82 10000 5.7 230 15:40 08.02.2020
3276 Clouds 16 1024 82 10000 5.7 210 15:18 08.02.2020
3277 Clouds 16 1024 82 10000 5.1 200 14:45 08.02.2020
3278 Clouds 16 1025 82 10000 5.1 200 14:24 08.02.2020
3279 Clouds 16 1025 87 10000 2.6 160 13:59 08.02.2020
3280 Rain 16 1026 93 10000 2.6 110 13:41 08.02.2020
3281 Rain 16 1026 93 10000 2.6 110 13:23 08.02.2020
3282 Rain 15 1026 93 10000 3.1 110 12:49 08.02.2020
3283 Clouds 15 1026 87 10000 2.6 110 12:23 08.02.2020
3284 Clouds 15 1026 87 10000 2.6 110 12:23 08.02.2020
3285 Clouds 14 1026 93 10000 2.1 100 11:59 08.02.2020
3286 Clouds 14 1026 93 10000 2.1 100 11:40 08.02.2020
3287 Clouds 14 1026 93 10000 2.6 110 11:20 08.02.2020
3288 Rain 13 1025 93 10000 3.1 190 10:43 08.02.2020
3289 Rain 13 1025 93 10000 3.1 190 10:43 08.02.2020
3290 Rain 13 1026 93 8000 2.1 230 10:23 08.02.2020
3291 Rain 13 1025 93 10000 1.5 250 09:53 08.02.2020
3292 Rain 12 1025 93 10000 4.1 240 09:30 08.02.2020
3293 Clouds 12 1024 81 10000 2.1 230 08:59 08.02.2020
3294 Clouds 12 1024 81 10000 2.1 230 08:39 08.02.2020
3295 Clouds 12 1024 81 10000 3.1 260 08:21 08.02.2020
3296 Clouds 13 1024 81 10000 2.6 240 07:50 08.02.2020
3297 Clouds 12 1024 93 10000 1.5 240 07:31 08.02.2020
3298 Clouds 13 1024 93 10000 3.1 240 06:33 08.02.2020
3299 Clouds 13 1024 93 10000 3.1 240 06:33 08.02.2020
3300 Clouds 13 1023 93 10000 1.5 230 05:50 08.02.2020
3301 Clouds 13 1024 87 10000 1 0 05:31 08.02.2020
3302 Rain 13 1025 87 10000 5.1 270 04:51 08.02.2020
3303 Rain 14 1025 100 10000 1.5 250 03:57 08.02.2020
3304 Clouds 14 1024 100 10000 2.6 230 02:58 08.02.2020
3305 Clouds 13 1024 93 10000 2.6 230 02:24 08.02.2020
3306 Clouds 13 1024 93 10000 4.1 260 01:28 08.02.2020
3307 Clouds 13 1024 93 10000 4.1 260 00:46 08.02.2020
3308 Clouds 13 1024 93 10000 3.1 260 00:24 08.02.2020
3309 Clouds 13 1024 93 10000 3.1 250 23:56 07.02.2020
3310 Clouds 13 1024 93 10000 3.6 250 23:37 07.02.2020
3311 Clouds 13 1024 93 10000 3.6 250 23:19 07.02.2020
3312 Clouds 13 1024 93 10000 3.1 270 22:41 07.02.2020
3313 Clouds 14 1024 87 10000 3.1 280 22:19 07.02.2020
3314 Clouds 14 1024 87 10000 3.1 280 21:57 07.02.2020
3315 Clouds 14 1024 87 10000 3.1 280 21:39 07.02.2020
3316 Clouds 14 1024 93 10000 3.6 270 21:19 07.02.2020
3317 Clouds 14 1024 82 10000 2.6 280 20:39 07.02.2020
3318 Clouds 14 1024 82 10000 2.6 280 20:19 07.02.2020
3319 Clouds 15 1023 77 10000 2.6 280 19:54 07.02.2020
3320 Clouds 15 1023 77 10000 2.6 270 19:36 07.02.2020
3321 Clouds 15 1023 77 10000 2.6 270 19:18 07.02.2020
3322 Clouds 15 1023 72 10000 3.6 260 18:43 07.02.2020
3323 Clouds 16 1023 72 10000 3.1 270 18:24 07.02.2020
3324 Clouds 16 1023 72 10000 4.1 280 17:44 07.02.2020
3325 Clouds 16 1023 72 10000 5.1 240 17:22 07.02.2020
3326 Clouds 16 1023 72 10000 5.1 240 17:22 07.02.2020
3327 Clouds 17 1023 77 10000 3.1 240 16:59 07.02.2020
3328 Clouds 17 1023 82 10000 3.6 220 16:41 07.02.2020
3329 Clouds 17 1023 82 10000 3.6 220 16:22 07.02.2020
3330 Clouds 17 1023 77 10000 1.5 0 15:53 07.02.2020
3331 Clouds 16 1023 82 10000 2.1 100 15:28 07.02.2020
3332 Clouds 16 1023 82 9000 2.1 0 14:55 07.02.2020
3333 Clouds 16 1023 77 9000 1.5 0 14:37 07.02.2020
3334 Clouds 16 1023 77 9000 1.5 0 14:19 07.02.2020
3335 Clouds 16 1024 82 9000 2.1 80 13:56 07.02.2020
3336 Clouds 15 1024 82 9000 1.5 50 13:37 07.02.2020
3337 Clouds 15 1024 82 9000 1.5 50 13:18 07.02.2020
3338 Clouds 15 1024 87 9000 1 0 12:41 07.02.2020
3339 Clouds 15 1024 87 9000 2.1 70 12:22 07.02.2020
3340 Clouds 14 1024 87 8000 1.5 40 11:45 07.02.2020
3341 Clouds 13 1024 100 8000 2.6 50 11:22 07.02.2020
3342 Clouds 13 1023 93 8000 2.6 70 10:58 07.02.2020
3343 Clouds 12 1023 93 8000 2.6 70 10:38 07.02.2020
3344 Clouds 12 1023 100 7000 2.6 50 10:19 07.02.2020
3345 Clouds 11 1023 100 7000 2.1 30 09:41 07.02.2020
3346 Clouds 11 1022 100 7000 2.1 40 09:22 07.02.2020
3347 Clouds 11 1022 100 7000 2.1 40 09:22 07.02.2020
3348 Clouds 11 1022 100 7000 2.6 50 08:47 07.02.2020
3349 Clouds 11 1022 100 8000 2.1 50 08:24 07.02.2020
3350 Clouds 11 1021 100 10000 3.1 40 07:55 07.02.2020
3351 Clouds 12 1021 100 10000 2.1 20 07:33 07.02.2020
3352 Clouds 12 1021 100 10000 2.6 60 06:59 07.02.2020
3353 Clouds 12 1021 93 10000 1.5 60 06:40 07.02.2020
3354 Clouds 12 1021 93 10000 1.5 60 06:19 07.02.2020
3355 Clouds 13 1021 100 10000 1 0 05:37 07.02.2020
3356 Clouds 13 1021 100 10000 2.1 50 03:51 07.02.2020
3357 Clouds 13 1021 93 10000 1 10 02:23 07.02.2020
3358 Clouds 14 1021 93 10000 1.5 30 01:21 07.02.2020
3359 Clouds 14 1021 93 10000 2.1 240 00:28 07.02.2020
3360 Clouds 14 1021 87 10000 1 0 23:39 06.02.2020
3361 Clouds 14 1021 87 10000 1 0 23:39 06.02.2020
3362 Clouds 15 1021 82 10000 1 100 23:19 06.02.2020
3363 Clouds 15 1021 87 10000 1.5 90 22:56 06.02.2020
3364 Clouds 15 1020 82 10000 2.1 0 22:38 06.02.2020
3365 Clouds 15 1020 82 10000 2.1 0 22:19 06.02.2020
3366 Clouds 16 1020 77 10000 1.5 60 21:37 06.02.2020
3367 Clouds 16 1020 77 10000 1.5 60 21:19 06.02.2020
3368 Clouds 16 1020 82 10000 2.1 70 20:55 06.02.2020
3369 Clouds 16 1020 82 10000 2.1 50 20:37 06.02.2020
3370 Clouds 16 1020 82 10000 2.1 50 20:18 06.02.2020
3371 Clouds 16 1020 77 10000 2.1 50 19:57 06.02.2020
3372 Clouds 16 1020 72 10000 1.5 50 19:37 06.02.2020
3373 Clouds 16 1020 72 10000 1.5 50 19:19 06.02.2020
3374 Clouds 16 1019 77 10000 2.6 60 18:43 06.02.2020
3375 Clouds 17 1019 72 10000 2.1 50 18:25 06.02.2020
3376 Clouds 17 1019 72 10000 2.1 50 17:59 06.02.2020
3377 Clouds 17 1019 67 10000 2.6 80 17:41 06.02.2020
3378 Clouds 17 1019 67 10000 2.6 80 17:20 06.02.2020
3379 Clouds 17 1019 67 10000 3.1 110 16:43 06.02.2020
3380 Clouds 17 1019 67 10000 3.6 120 16:25 06.02.2020
3381 Clouds 17 1019 72 10000 3.1 110 15:54 06.02.2020
3382 Clouds 17 1019 72 10000 2.6 120 15:36 06.02.2020
3383 Clouds 17 1019 72 10000 2.6 120 15:18 06.02.2020
3384 Clouds 16 1020 77 10000 3.1 90 14:42 06.02.2020
3385 Clouds 16 1020 77 10000 3.1 90 14:24 06.02.2020
3386 Clouds 15 1021 82 10000 2.6 70 13:46 06.02.2020
3387 Clouds 15 1021 82 10000 2.6 70 13:27 06.02.2020
3388 Clouds 14 1021 82 10000 2.6 70 12:56 06.02.2020
3389 Clouds 14 1021 87 10000 3.1 50 12:37 06.02.2020
3390 Clouds 14 1021 87 10000 3.1 50 12:18 06.02.2020
3391 Clouds 13 1021 93 10000 3.1 50 11:55 06.02.2020
3392 Clouds 13 1021 93 10000 3.6 60 11:37 06.02.2020
3393 Clouds 12 1021 93 10000 3.6 60 11:18 06.02.2020
3394 Fog 12 1021 93 10000 3.6 70 10:41 06.02.2020
3395 Fog 11 1021 93 10000 3.6 70 10:22 06.02.2020
3396 Fog 11 1021 100 10000 3.1 70 09:59 06.02.2020
3397 Fog 11 1020 100 10000 2.6 80 09:40 06.02.2020
3398 Fog 10 1020 100 10000 2.6 80 09:20 06.02.2020
3399 Fog 10 1020 100 10000 3.1 70 08:45 06.02.2020
3400 Clouds 10 1020 100 10000 2.6 70 08:24 06.02.2020
3401 Clouds 10 1020 100 10000 3.1 70 07:55 06.02.2020
3402 Clouds 10 1020 100 10000 3.1 70 07:55 06.02.2020
3403 Clouds 10 1019 100 10000 3.1 70 07:29 06.02.2020
3404 Clouds 10 1020 100 10000 3.1 80 06:48 06.02.2020
3405 Clouds 10 1020 100 10000 3.1 80 06:19 06.02.2020
3406 Clouds 11 1020 100 10000 2.1 70 05:33 06.02.2020
3407 Clouds 11 1021 100 10000 2.1 70 03:49 06.02.2020
3408 Clouds 11 1021 100 10000 2.1 50 03:18 06.02.2020
3409 Clouds 12 1021 93 10000 2.1 30 01:56 06.02.2020
3410 Clouds 12 1021 87 10000 2.6 60 01:24 06.02.2020
3411 Clouds 13 1021 82 10000 2.6 250 00:38 06.02.2020
3412 Clouds 13 1021 82 10000 2.6 250 00:19 06.02.2020
3413 Clouds 13 1021 71 10000 1.5 230 23:40 05.02.2020
3414 Clouds 13 1021 71 10000 2.1 260 23:22 05.02.2020
3415 Clouds 14 1021 62 10000 1 0 22:41 05.02.2020
3416 Clouds 14 1021 67 10000 1.5 270 22:23 05.02.2020
3417 Clouds 14 1021 71 10000 1.5 250 21:58 05.02.2020
3418 Clouds 14 1021 71 10000 1.5 250 21:40 05.02.2020
3419 Clouds 14 1021 71 10000 1.5 210 21:22 05.02.2020
3420 Clouds 15 1021 76 10000 3.83 181 20:54 05.02.2020
3421 Clouds 15 1021 67 10000 0.5 0 20:36 05.02.2020
3422 Clouds 16 1021 67 10000 0.5 0 20:18 05.02.2020
3423 Clouds 16 1021 63 10000 1.5 150 19:54 05.02.2020
3424 Clouds 17 1021 59 10000 1.5 150 19:36 05.02.2020
3425 Clouds 18 1021 59 10000 1.5 150 19:18 05.02.2020
3426 Clouds 19 1021 55 10000 2.6 0 18:42 05.02.2020
3427 Clouds 19 1021 55 10000 2.6 150 18:20 05.02.2020
3428 Clouds 20 1021 56 10000 2.1 140 17:55 05.02.2020
3429 Clouds 20 1021 60 10000 1.5 110 17:36 05.02.2020
3430 Clouds 20 1021 60 10000 1.5 110 17:18 05.02.2020
3431 Clouds 20 1021 68 10000 3.1 70 16:42 05.02.2020
3432 Clouds 19 1021 68 10000 3.1 70 16:24 05.02.2020
3433 Clouds 19 1021 72 10000 3.6 60 15:57 05.02.2020
3434 Clouds 19 1022 72 10000 5.1 60 15:38 05.02.2020
3435 Clouds 18 1022 72 10000 5.1 60 15:18 05.02.2020
3436 Clouds 18 1022 72 10000 4.1 70 14:42 05.02.2020
3437 Clouds 17 1023 82 10000 5.1 50 14:23 05.02.2020
3438 Clouds 16 1023 82 10000 5.1 50 13:57 05.02.2020
3439 Clouds 16 1024 82 10000 4.1 20 13:38 05.02.2020
3440 Clouds 15 1024 87 10000 4.6 60 13:19 05.02.2020
3441 Clouds 15 1024 82 10000 5.7 60 12:40 05.02.2020
3442 Clouds 14 1024 82 10000 5.7 60 12:22 05.02.2020
3443 Clouds 14 1024 82 10000 5.7 50 11:42 05.02.2020
3444 Clouds 13 1024 81 10000 5.1 50 11:24 05.02.2020
3445 Clouds 13 1024 87 10000 4.1 60 10:59 05.02.2020
3446 Clouds 13 1024 81 10000 4.1 60 10:39 05.02.2020
3447 Clouds 13 1024 81 10000 4.1 60 10:19 05.02.2020
3448 Clouds 13 1024 81 10000 4.1 60 10:19 05.02.2020
3449 Clouds 12 1024 87 10000 4.6 50 09:44 05.02.2020
3450 Clouds 12 1024 87 10000 4.6 50 09:22 05.02.2020
3451 Clouds 12 1024 87 10000 4.6 40 08:58 05.02.2020
3452 Clouds 11 1024 87 10000 4.6 40 08:39 05.02.2020
3453 Clouds 11 1024 87 10000 4.6 40 08:21 05.02.2020
3454 Clouds 11 1024 87 10000 5.1 40 07:43 05.02.2020
3455 Clouds 11 1024 93 10000 4.6 30 07:20 05.02.2020
3456 Clouds 11 1024 100 10000 3.6 40 06:42 05.02.2020
3457 Clouds 11 1024 93 9000 3.1 50 06:21 05.02.2020
3458 Clouds 11 1024 100 9000 2.6 20 05:48 05.02.2020
3459 Clear 10 1025 93 9000 3.1 20 05:18 05.02.2020
3460 Clear 10 1025 100 9000 2.6 360 04:27 05.02.2020
3461 Fog 10 1026 100 9000 1 10 02:59 05.02.2020
3462 Clouds 10 1026 93 9000 1 360 02:22 05.02.2020
3463 Clear 11 1026 93 10000 0.5 0 01:35 05.02.2020
3464 Clear 12 1027 93 10000 2.6 310 00:25 05.02.2020
3465 Clear 12 1027 93 10000 3.6 320 23:42 04.02.2020
3466 Clear 12 1027 93 10000 3.6 320 23:23 04.02.2020
3467 Clear 12 1027 93 10000 3.6 320 22:58 04.02.2020
3468 Clear 12 1027 93 10000 3.6 310 22:40 04.02.2020
3469 Clear 12 1027 93 10000 3.6 310 22:21 04.02.2020
3470 Clear 12 1027 93 10000 3.6 310 21:57 04.02.2020
3471 Clear 13 1027 87 10000 3.6 320 21:38 04.02.2020
3472 Clear 13 1027 87 10000 3.6 320 21:19 04.02.2020
3473 Clear 13 1027 87 10000 3.1 310 20:55 04.02.2020
3474 Clear 13 1027 87 10000 3.6 330 20:37 04.02.2020
3475 Clear 13 1027 87 10000 3.6 330 20:18 04.02.2020
3476 Clear 14 1027 87 10000 3.6 340 19:43 04.02.2020
3477 Clear 14 1027 82 10000 3.6 350 19:25 04.02.2020
3478 Clear 15 1027 87 10000 2.1 40 18:59 04.02.2020
3479 Clear 15 1027 87 10000 2.1 40 18:40 04.02.2020
3480 Clear 16 1028 82 10000 1.5 80 18:21 04.02.2020
3481 Clear 16 1028 82 10000 0.5 0 17:58 04.02.2020
3482 Clear 17 1028 82 9000 2.1 80 17:40 04.02.2020
3483 Clear 17 1028 82 9000 2.1 80 17:19 04.02.2020
3484 Clear 16 1028 87 7000 2.6 80 16:39 04.02.2020
3485 Clear 16 1028 87 7000 2.6 80 16:20 04.02.2020
3486 Fog 16 1028 93 7000 2.6 0 15:57 04.02.2020
3487 Fog 16 1028 93 7000 2.6 0 15:39 04.02.2020
3488 Fog 16 1029 93 7000 2.6 90 15:20 04.02.2020
3489 Fog 16 1029 87 8000 3.1 80 14:55 04.02.2020
3490 Fog 16 1029 82 10000 2.1 90 14:37 04.02.2020
3491 Fog 16 1029 82 10000 2.1 90 14:18 04.02.2020
3492 Fog 15 1030 87 10000 1.5 0 13:41 04.02.2020
3493 Fog 15 1031 87 10000 2.1 90 13:22 04.02.2020
3494 Fog 14 1031 93 10000 3.1 80 12:57 04.02.2020
3495 Fog 14 1031 93 10000 2.6 60 12:37 04.02.2020
3496 Fog 13 1031 93 10000 2.6 60 12:19 04.02.2020
3497 Fog 13 1031 93 10000 3.1 10 11:55 04.02.2020
3498 Fog 12 1031 93 8000 3.6 360 11:36 04.02.2020
3499 Fog 12 1031 93 8000 3.6 360 11:18 04.02.2020
3500 Fog 11 1031 100 6000 1 0 10:44 04.02.2020
3501 Fog 11 1031 100 100 1.5 80 10:25 04.02.2020
3502 Fog 10 1030 100 8000 1.5 70 09:56 04.02.2020
3503 Fog 10 1030 100 10000 0.5 0 09:37 04.02.2020
3504 Fog 10 1030 100 10000 0.5 0 09:19 04.02.2020
3505 Fog 9 1030 100 9000 1 0 08:44 04.02.2020
3506 Fog 10 1030 100 10000 1 0 08:26 04.02.2020
3507 Fog 10 1030 100 10000 1 0 07:50 04.02.2020
3508 Clear 10 1029 100 10000 0.5 0 07:24 04.02.2020
3509 Clear 11 1029 100 10000 1 0 06:48 04.02.2020
3510 Clear 11 1029 100 10000 1.5 320 06:30 04.02.2020
3511 Clear 12 1029 93 10000 3.6 310 05:33 04.02.2020
3512 Clear 12 1030 93 10000 0.5 0 04:27 04.02.2020
3513 Clear 12 1030 81 10000 1 0 03:43 04.02.2020
3514 Clear 12 1030 81 10000 1.5 360 03:25 04.02.2020
3515 Clear 12 1030 93 10000 0.97 24 02:34 04.02.2020
3516 Clear 12 1030 93 10000 0.5 0 01:57 04.02.2020
3517 Clear 13 1030 82 10000 1 0 01:36 04.02.2020
3518 Clear 14 1030 82 10000 2.1 270 00:52 04.02.2020
3519 Clear 13 1030 77 10000 3.1 270 00:22 04.02.2020
3520 Clear 14 1030 77 10000 2.1 270 23:45 03.02.2020
3521 Clear 14 1030 82 10000 2.1 270 23:26 03.02.2020
3522 Clear 14 1030 82 10000 1.5 270 22:54 03.02.2020
3523 Clear 15 1030 77 10000 2.6 270 22:36 03.02.2020
3524 Clear 15 1030 77 10000 2.6 270 22:18 03.02.2020
3525 Clear 15 1029 77 10000 2.6 250 21:41 03.02.2020
3526 Clear 15 1029 72 10000 2.6 240 21:19 03.02.2020
3527 Clear 15 1029 72 10000 2.6 240 21:19 03.02.2020
3528 Clear 16 1029 72 10000 2.1 270 20:42 03.02.2020
3529 Clear 17 1029 67 10000 2.1 270 20:20 03.02.2020
3530 Clear 17 1028 67 10000 3.6 240 19:59 03.02.2020
3531 Clear 17 1028 67 10000 3.6 240 19:41 03.02.2020
3532 Clear 18 1028 63 10000 2.1 270 19:22 03.02.2020
3533 Clear 19 1028 63 10000 3.1 220 18:57 03.02.2020
3534 Clear 19 1027 60 10000 3.1 200 18:38 03.02.2020
3535 Clear 20 1027 60 10000 3.1 200 18:20 03.02.2020
3536 Clear 20 1027 60 10000 3.1 200 18:20 03.02.2020
3537 Clear 20 1027 60 10000 3.1 210 17:56 03.02.2020
3538 Clear 21 1028 68 10000 1.5 80 17:38 03.02.2020
3539 Clear 21 1028 68 10000 1.5 80 17:19 03.02.2020
3540 Clear 21 1028 64 10000 1.5 0 16:40 03.02.2020
3541 Clear 21 1028 72 10000 2.1 0 16:21 03.02.2020
3542 Clear 20 1027 72 10000 2.1 0 15:56 03.02.2020
3543 Clear 20 1028 68 10000 1 0 15:38 03.02.2020
3544 Clear 19 1028 72 10000 2.1 0 15:19 03.02.2020
3545 Clear 19 1028 72 10000 2.1 0 14:56 03.02.2020
3546 Clear 20 1028 72 10000 2.1 80 14:37 03.02.2020
3547 Clear 19 1028 72 10000 2.1 80 14:19 03.02.2020
3548 Clear 19 1029 77 10000 1.5 60 13:41 03.02.2020
3549 Clear 18 1029 77 10000 2.1 0 13:21 03.02.2020
3550 Clear 17 1029 82 10000 2.6 50 12:57 03.02.2020
3551 Clear 17 1029 82 10000 2.6 70 12:38 03.02.2020
3552 Clear 17 1029 82 10000 2.6 70 12:20 03.02.2020
3553 Clear 17 1029 87 10000 2.6 50 11:55 03.02.2020
3554 Clear 16 1029 93 10000 2.6 70 11:36 03.02.2020
3555 Clear 16 1029 93 10000 2.6 70 11:36 03.02.2020
3556 Clear 16 1029 93 10000 2.6 70 11:18 03.02.2020
3557 Clear 14 1028 100 10000 3.1 60 10:40 03.02.2020
3558 Clear 14 1028 100 10000 3.1 60 10:40 03.02.2020
3559 Clear 14 1028 100 10000 3.1 60 10:21 03.02.2020
3560 Clouds 14 1028 93 10000 2.6 50 09:44 03.02.2020
3561 Clouds 13 1028 100 10000 2.6 50 09:21 03.02.2020
3562 Clouds 13 1027 100 10000 3.6 50 08:42 03.02.2020
3563 Clouds 13 1027 100 10000 4.1 60 08:23 03.02.2020
3564 Clouds 13 1027 93 10000 4.6 60 07:59 03.02.2020
3565 Clouds 13 1027 93 10000 4.6 60 07:40 03.02.2020
3566 Clear 13 1027 100 10000 4.6 60 07:21 03.02.2020
3567 Clear 14 1027 100 10000 4.1 60 06:50 03.02.2020
3568 Clear 14 1027 100 10000 4.1 60 06:28 03.02.2020
3569 Clear 14 1028 93 10000 3.6 60 05:37 03.02.2020
3570 Clear 14 1028 93 10000 3.6 60 05:18 03.02.2020
3571 Clear 14 1028 93 10000 3.1 50 03:42 03.02.2020
3572 Clear 15 1028 93 10000 2.6 50 02:35 03.02.2020
3573 Clear 15 1029 93 10000 2.6 50 01:42 03.02.2020
3574 Clear 16 1028 87 10000 2.6 50 00:47 03.02.2020
3575 Clear 16 1029 93 10000 2.6 40 00:24 03.02.2020
3576 Clear 16 1029 87 10000 2.6 50 23:39 02.02.2020
3577 Clear 16 1029 87 10000 2.6 50 23:21 02.02.2020
3578 Clear 16 1029 88 10000 3.1 50 22:57 02.02.2020
3579 Clear 16 1029 88 10000 3.1 50 22:57 02.02.2020
3580 Clear 16 1029 88 10000 3.1 50 22:57 02.02.2020
3581 Clear 16 1029 93 10000 3.1 50 22:38 02.02.2020
3582 Clear 16 1029 93 10000 3.1 50 22:19 02.02.2020
3583 Clear 16 1028 88 10000 3.1 50 21:55 02.02.2020
3584 Clear 16 1028 88 10000 2.1 30 21:37 02.02.2020
3585 Clear 16 1028 88 10000 2.1 30 21:19 02.02.2020
3586 Clear 16 1028 82 10000 2.1 10 20:55 02.02.2020
3587 Clear 16 1028 87 10000 2.1 350 20:37 02.02.2020
3588 Clouds 16 1028 87 10000 2.1 350 20:19 02.02.2020
3589 Clouds 17 1028 82 10000 1.5 30 19:55 02.02.2020
3590 Clouds 17 1028 72 10000 1 0 19:37 02.02.2020
3591 Clouds 18 1028 72 10000 1 0 19:18 02.02.2020
3592 Clouds 19 1028 68 10000 1.5 70 18:39 02.02.2020
3593 Clouds 19 1028 68 10000 1.5 70 18:21 02.02.2020
3594 Clouds 20 1028 72 10000 1.5 0 17:58 02.02.2020
3595 Clouds 20 1028 68 10000 1 0 17:38 02.02.2020
3596 Clouds 20 1028 68 10000 1 0 17:19 02.02.2020
3597 Clouds 20 1028 72 10000 2.6 90 16:59 02.02.2020
3598 Clouds 20 1028 72 10000 2.6 90 16:39 02.02.2020
3599 Clouds 19 1028 77 10000 2.1 0 16:19 02.02.2020
3600 Clouds 19 1028 77 10000 2.1 80 15:59 02.02.2020
3601 Clouds 19 1028 77 10000 2.1 80 15:40 02.02.2020
3602 Clouds 19 1028 82 10000 2.1 0 15:20 02.02.2020
3603 Clouds 19 1028 82 10000 2.1 0 14:58 02.02.2020
3604 Clouds 18 1028 82 10000 2.1 0 14:40 02.02.2020
3605 Clouds 18 1029 82 10000 2.6 80 14:18 02.02.2020
3606 Clouds 17 1029 87 10000 3.1 100 13:55 02.02.2020
3607 Clouds 17 1029 87 10000 2.6 0 13:37 02.02.2020
3608 Clouds 17 1029 87 10000 2.6 0 13:18 02.02.2020
3609 Clouds 16 1029 87 10000 2.6 0 12:44 02.02.2020
3610 Clouds 16 1029 100 10000 2.6 90 12:22 02.02.2020
3611 Clouds 15 1029 100 10000 2.6 50 11:58 02.02.2020
3612 Fog 15 1029 100 6000 2.6 50 11:39 02.02.2020
3613 Fog 14 1029 100 6000 2.6 50 11:19 02.02.2020
3614 Fog 13 1029 100 350 2.6 60 10:56 02.02.2020
3615 Fog 13 1029 100 200 2.6 20 10:36 02.02.2020
3616 Fog 13 1029 100 200 2.6 20 10:18 02.02.2020
3617 Fog 12 1028 100 150 2.1 50 09:55 02.02.2020
3618 Fog 12 1028 100 200 2.1 20 09:36 02.02.2020
3619 Fog 12 1028 100 200 2.1 20 09:18 02.02.2020
3620 Fog 12 1028 100 250 1.5 90 08:41 02.02.2020
3621 Fog 12 1028 100 400 2.1 0 08:22 02.02.2020
3622 Fog 12 1028 100 700 2.1 60 07:46 02.02.2020
3623 Fog 12 1028 100 700 2.1 60 07:46 02.02.2020
3624 Fog 12 1028 100 900 1 0 07:28 02.02.2020
3625 Fog 12 1028 100 600 1 0 06:43 02.02.2020
3626 Fog 12 1027 100 2000 1 50 06:25 02.02.2020
3627 Fog 12 1027 100 800 1.5 50 05:47 02.02.2020
3628 Fog 12 1027 100 800 1.5 50 05:47 02.02.2020
3629 Mist 13 1028 100 2000 1 0 04:42 02.02.2020
3630 Fog 13 1028 100 10000 1.63 119 03:26 02.02.2020
3631 Fog 13 1028 100 7000 0.5 40 02:31 02.02.2020
3632 Fog 14 1028 100 10000 0.5 0 01:54 02.02.2020
3633 Clouds 14 1028 100 10000 1 210 01:23 02.02.2020
3634 Clouds 14 1028 100 10000 0.5 0 00:44 02.02.2020
3635 Clouds 14 1028 100 10000 0.5 0 00:22 02.02.2020
3636 Clouds 15 1028 93 10000 1 0 23:47 01.02.2020
3637 Clouds 15 1028 100 10000 1.5 130 23:22 01.02.2020
3638 Clouds 15 1028 93 10000 1.5 110 22:54 01.02.2020
3639 Clouds 15 1028 100 10000 1 0 22:36 01.02.2020
3640 Clouds 15 1028 100 10000 1 0 22:18 01.02.2020
3641 Clouds 16 1028 100 10000 0.5 193 21:39 01.02.2020
3642 Clouds 15 1028 100 10000 0.5 193 21:18 01.02.2020
3643 Clouds 15 1028 100 10000 2.1 230 20:41 01.02.2020
3644 Clouds 15 1027 100 10000 2.6 210 20:20 01.02.2020
3645 Clouds 15 1027 100 10000 3.1 230 19:57 01.02.2020
3646 Clouds 16 1027 100 9000 3.6 220 19:39 01.02.2020
3647 Clouds 15 1027 100 9000 3.6 220 19:20 01.02.2020
3648 Clouds 15 1027 100 9000 4.6 230 18:58 01.02.2020
3649 Clouds 16 1027 100 9000 4.6 230 18:40 01.02.2020
3650 Clouds 16 1027 93 9000 4.1 220 18:22 01.02.2020
3651 Clouds 16 1027 100 9000 4.6 210 17:58 01.02.2020
3652 Clouds 16 1027 100 9000 4.6 210 17:39 01.02.2020
3653 Clouds 16 1026 93 10000 4.6 210 17:20 01.02.2020
3654 Clouds 16 1026 100 10000 4.1 230 16:44 01.02.2020
3655 Clouds 16 1026 93 10000 4.1 220 16:25 01.02.2020
3656 Drizzle 16 1026 100 7000 3.6 220 15:59 01.02.2020
3657 Drizzle 16 1026 100 7000 3.6 220 15:40 01.02.2020
3658 Clouds 16 1027 93 10000 3.1 220 15:22 01.02.2020
3659 Clouds 16 1027 100 10000 3.1 220 14:54 01.02.2020
3660 Drizzle 16 1027 100 6000 3.1 210 14:36 01.02.2020
3661 Drizzle 16 1027 100 6000 3.1 210 14:18 01.02.2020
3662 Clouds 16 1027 93 10000 3.6 220 13:42 01.02.2020
3663 Clouds 16 1028 93 10000 4.1 210 13:18 01.02.2020
3664 Clouds 16 1028 93 10000 4.1 210 13:18 01.02.2020
3665 Clouds 16 1028 100 10000 3.6 210 12:43 01.02.2020
3666 Clouds 16 1028 100 10000 2.6 220 12:24 01.02.2020
3667 Drizzle 16 1028 100 4000 3.1 220 11:56 01.02.2020
3668 Mist 16 1028 100 4500 3.1 240 11:37 01.02.2020
3669 Mist 16 1028 100 4500 3.1 240 11:18 01.02.2020
3670 Clouds 15 1027 100 6000 2.6 230 10:54 01.02.2020
3671 Drizzle 15 1026 100 6000 3.1 220 10:36 01.02.2020
3672 Drizzle 15 1026 100 6000 3.1 220 10:18 01.02.2020
3673 Drizzle 15 1026 100 4000 3.1 210 09:41 01.02.2020
3674 Drizzle 15 1025 100 6000 3.1 220 09:22 01.02.2020
3675 Clouds 15 1025 100 6000 3.6 230 08:58 01.02.2020
3676 Drizzle 15 1024 100 4000 3.1 210 08:27 01.02.2020
3677 Clouds 15 1024 100 6000 3.1 200 07:46 01.02.2020
3678 Clouds 15 1024 100 10000 2.6 210 07:24 01.02.2020
3679 Drizzle 15 1024 100 7000 2.1 200 06:49 01.02.2020
3680 Clouds 15 1025 100 10000 3.1 250 05:54 01.02.2020
3681 Drizzle 15 1024 100 4500 4.6 220 04:58 01.02.2020
3682 Drizzle 15 1025 100 4000 4.1 220 03:39 01.02.2020
3683 Drizzle 15 1025 100 4000 4.1 220 03:18 01.02.2020
3684 Drizzle 15 1024 100 5000 5.1 230 02:41 01.02.2020
3685 Clouds 15 1025 100 10000 5.1 230 02:21 01.02.2020
3686 Clouds 15 1025 100 10000 5.1 220 01:47 01.02.2020
3687 Clouds 15 1025 87 10000 4.1 230 01:28 01.02.2020
3688 Clouds 15 1025 87 10000 3.1 210 00:24 01.02.2020
3689 Drizzle 15 1025 93 10000 3.6 220 23:42 31.01.2020
3690 Drizzle 15 1025 93 10000 3.6 220 23:19 31.01.2020
3691 Drizzle 15 1025 93 10000 3.6 220 23:19 31.01.2020
3692 Clouds 15 1024 93 10000 4.6 220 22:58 31.01.2020
3693 Clouds 15 1024 93 10000 4.6 220 22:40 31.01.2020
3694 Clouds 15 1024 93 10000 4.6 220 22:21 31.01.2020
3695 Clouds 15 1024 93 10000 4.1 230 21:55 31.01.2020
3696 Clouds 15 1024 93 10000 4.1 230 21:37 31.01.2020
3697 Clouds 15 1024 93 10000 4.1 230 21:19 31.01.2020
3698 Clouds 15 1024 93 10000 3.6 230 20:55 31.01.2020
3699 Clouds 15 1024 93 10000 3.6 230 20:37 31.01.2020
3700 Clouds 15 1024 93 10000 3.6 230 20:18 31.01.2020
3701 Clouds 15 1024 97 0 4.92 233 19:55 31.01.2020
3702 Clouds 15 1024 97 0 5.36 259 19:36 31.01.2020
3703 Clouds 16 1024 97 0 4.92 239 19:18 31.01.2020
3704 Clouds 16 1023 97 0 4.02 259 18:39 31.01.2020
3705 Clouds 16 1023 97 0 3.58 95 18:21 31.01.2020
3706 Clouds 16 1023 97 0 2.24 195 17:46 31.01.2020
3707 Clouds 16 1023 97 0 2.24 195 17:46 31.01.2020
3708 Drizzle 16 1023 93 3000 5.1 220 17:28 31.01.2020
3709 Drizzle 16 1023 93 3000 5.1 220 16:58 31.01.2020
3710 Drizzle 16 1023 93 3000 5.1 220 16:39 31.01.2020
3711 Drizzle 16 1023 93 3000 5.1 220 16:19 31.01.2020
3712 Drizzle 16 1024 93 200 4.6 200 15:58 31.01.2020
3713 Drizzle 16 1024 93 200 4.6 200 15:58 31.01.2020
3714 Drizzle 16 1024 93 200 4.6 200 15:40 31.01.2020
3715 Drizzle 16 1024 93 200 4.6 200 15:20 31.01.2020
3716 Drizzle 16 1024 93 200 4.6 200 14:45 31.01.2020
3717 Drizzle 16 1024 93 6000 3.6 230 14:25 31.01.2020
3718 Drizzle 16 1025 100 300 5.1 200 13:59 31.01.2020
3719 Drizzle 16 1025 100 300 5.1 200 13:38 31.01.2020
3720 Clouds 16 1025 93 10000 3.1 210 13:20 31.01.2020
3721 Drizzle 16 1025 100 300 4.6 200 12:45 31.01.2020
3722 Clouds 16 1025 93 10000 3.1 210 12:24 31.01.2020
3723 Drizzle 16 1025 93 400 3.6 200 11:56 31.01.2020
3724 Drizzle 16 1025 100 7000 3.1 220 11:37 31.01.2020
3725 Drizzle 16 1025 100 7000 3.1 220 11:19 31.01.2020
3726 Drizzle 16 1025 93 200 2.6 220 10:55 31.01.2020
3727 Clouds 15 1025 93 7000 3.1 220 10:36 31.01.2020
3728 Clouds 15 1025 93 7000 3.1 220 10:18 31.01.2020
3729 Drizzle 15 1024 100 9000 3.6 230 09:42 31.01.2020
3730 Drizzle 15 1024 100 9000 3.6 230 09:21 31.01.2020
3731 Drizzle 15 1024 100 200 3.1 220 08:56 31.01.2020
3732 Drizzle 15 1024 100 6000 3.1 180 08:38 31.01.2020
3733 Drizzle 15 1024 100 6000 3.1 180 08:19 31.01.2020
3734 Drizzle 15 1024 100 4000 2.1 190 07:46 31.01.2020
3735 Clouds 15 1023 100 8000 2.6 210 07:19 31.01.2020
3736 Rain 15 1023 97 0 0.45 176 06:34 31.01.2020
3737 Drizzle 15 1024 100 4000 2.1 230 05:54 31.01.2020
3738 Drizzle 15 1024 100 4000 2.1 230 05:54 31.01.2020
3739 Drizzle 15 1024 100 4000 2.1 230 05:20 31.01.2020
3740 Drizzle 15 1024 100 4000 2.6 210 03:52 31.01.2020
3741 Drizzle 15 1025 100 4000 3.1 220 02:49 31.01.2020
3742 Drizzle 15 1025 100 3000 4.6 210 01:30 31.01.2020
3743 Drizzle 15 1025 100 3000 2.6 230 00:39 31.01.2020
3744 Drizzle 15 1025 100 3000 2.6 230 00:20 31.01.2020
3745 Drizzle 15 1025 100 4500 4.1 210 23:40 30.01.2020
3746 Drizzle 15 1025 100 4500 4.1 210 23:40 30.01.2020
3747 Drizzle 15 1025 100 4500 4.1 210 23:21 30.01.2020
3748 Drizzle 15 1025 100 5000 4.6 200 22:39 30.01.2020
3749 Drizzle 14 1025 100 5000 4.6 200 22:21 30.01.2020
3750 Drizzle 14 1025 100 5000 4.1 200 21:58 30.01.2020
3751 Drizzle 14 1025 100 5000 4.6 200 21:40 30.01.2020
3752 Drizzle 14 1025 100 5000 4.6 200 21:18 30.01.2020
3753 Drizzle 14 1024 100 4500 5.7 210 20:56 30.01.2020
3754 Drizzle 14 1024 100 6000 5.7 210 20:38 30.01.2020
3755 Drizzle 14 1024 100 6000 5.7 210 20:19 30.01.2020
3756 Drizzle 14 1024 100 5000 5.1 210 19:44 30.01.2020
3757 Drizzle 14 1024 100 5000 5.1 210 19:44 30.01.2020
3758 Drizzle 14 1024 100 5000 5.1 210 19:19 30.01.2020
3759 Drizzle 14 1024 100 5000 5.1 210 19:19 30.01.2020
3760 Drizzle 14 1024 100 4000 4.1 210 18:59 30.01.2020
3761 Drizzle 14 1024 100 3500 5.7 220 18:37 30.01.2020
3762 Drizzle 14 1024 100 3500 5.7 220 18:18 30.01.2020
3763 Drizzle 14 1024 100 4500 6.7 210 17:42 30.01.2020
3764 Drizzle 14 1023 100 4500 6.2 210 17:20 30.01.2020
3765 Drizzle 15 1023 100 6000 6.2 200 16:59 30.01.2020
3766 Drizzle 15 1023 100 6000 6.2 200 16:40 30.01.2020
3767 Drizzle 15 1023 93 7000 7.2 210 16:21 30.01.2020
3768 Drizzle 15 1024 93 4000 7.2 210 15:45 30.01.2020
3769 Rain 15 1024 87 10000 7.7 210 15:21 30.01.2020
3770 Clouds 15 1024 87 10000 7.2 200 14:58 30.01.2020
3771 Clouds 16 1024 87 10000 7.7 200 14:40 30.01.2020
3772 Clouds 16 1024 87 10000 7.7 200 14:21 30.01.2020
3773 Clouds 16 1025 87 10000 7.2 200 13:42 30.01.2020
3774 Clouds 16 1025 87 10000 7.7 200 13:24 30.01.2020
3775 Clouds 15 1025 87 10000 7.2 200 12:57 30.01.2020
3776 Clouds 15 1025 93 10000 6.2 200 12:38 30.01.2020
3777 Clouds 15 1025 93 10000 6.2 200 12:19 30.01.2020
3778 Clouds 15 1025 93 10000 6.2 200 11:41 30.01.2020
3779 Clouds 15 1025 93 10000 6.2 200 11:41 30.01.2020
3780 Clouds 15 1025 93 10000 6.2 200 11:22 30.01.2020
3781 Clouds 15 1025 93 10000 4.6 200 10:59 30.01.2020
3782 Clouds 15 1025 93 10000 4.6 200 10:40 30.01.2020
3783 Clouds 15 1025 93 10000 4.1 210 10:20 30.01.2020
3784 Clouds 14 1024 100 10000 4.6 210 09:45 30.01.2020
3785 Clouds 14 1024 93 10000 5.1 200 09:26 30.01.2020
3786 Clouds 14 1024 93 10000 3.6 220 08:55 30.01.2020
3787 Clouds 14 1024 93 10000 4.6 200 08:36 30.01.2020
3788 Clouds 14 1024 93 10000 4.6 200 08:18 30.01.2020
3789 Clouds 14 1023 93 10000 4.1 200 07:44 30.01.2020
3790 Clouds 14 1023 100 10000 5.1 200 07:20 30.01.2020
3791 Clouds 14 1023 93 10000 2.6 210 06:46 30.01.2020
3792 Clouds 14 1023 93 10000 3.1 180 06:26 30.01.2020
3793 Clouds 14 1023 93 10000 3.1 180 06:26 30.01.2020
3794 Clouds 14 1023 100 10000 4.1 180 05:43 30.01.2020
3795 Clouds 14 1023 100 10000 3.6 190 05:19 30.01.2020
3796 Clouds 14 1023 93 10000 4.1 180 03:48 30.01.2020
3797 Clouds 14 1024 93 10000 4.6 180 03:26 30.01.2020
3798 Clouds 14 1024 100 10000 3.1 170 01:57 30.01.2020
3799 Clouds 14 1025 93 10000 4.1 170 00:38 30.01.2020
3800 Clouds 14 1025 93 10000 4.1 170 00:19 30.01.2020
3801 Clouds 14 1025 93 10000 4.1 170 23:45 29.01.2020
3802 Clouds 14 1025 93 10000 4.1 180 23:21 29.01.2020
3803 Clouds 14 1025 93 10000 4.1 200 22:56 29.01.2020
3804 Clouds 14 1025 93 10000 3.6 190 22:38 29.01.2020
3805 Clouds 14 1025 93 10000 3.6 190 22:19 29.01.2020
3806 Clouds 14 1025 93 10000 4.6 190 21:57 29.01.2020
3807 Clouds 14 1025 93 10000 4.6 190 21:38 29.01.2020
3808 Clouds 14 1024 93 10000 5.1 200 21:18 29.01.2020
3809 Clouds 14 1024 93 10000 4.1 200 20:57 29.01.2020
3810 Clouds 14 1024 93 10000 3.6 210 20:37 29.01.2020
3811 Clouds 14 1024 93 10000 3.6 210 20:19 29.01.2020
3812 Clouds 14 1024 87 10000 4.6 200 19:55 29.01.2020
3813 Clouds 14 1024 87 10000 5.1 210 19:36 29.01.2020
3814 Clouds 15 1024 87 10000 5.1 210 19:18 29.01.2020
3815 Clouds 15 1024 87 10000 5.7 210 18:42 29.01.2020
3816 Clouds 15 1024 82 10000 5.1 210 18:19 29.01.2020
3817 Clouds 15 1024 82 10000 6.2 200 17:55 29.01.2020
3818 Clouds 15 1024 82 10000 5.7 210 17:37 29.01.2020
3819 Clouds 15 1024 82 10000 5.7 210 17:19 29.01.2020
3820 Clouds 16 1024 82 10000 5.7 210 16:41 29.01.2020
3821 Clouds 16 1024 82 10000 5.7 210 16:22 29.01.2020
3822 Clouds 15 1024 82 10000 5.7 210 15:41 29.01.2020
3823 Clouds 16 1024 82 10000 6.2 200 15:23 29.01.2020
3824 Clouds 16 1024 82 10000 6.7 200 14:59 29.01.2020
3825 Clouds 16 1024 82 10000 6.7 200 14:41 29.01.2020
3826 Clouds 16 1025 87 10000 6.2 200 14:20 29.01.2020
3827 Clouds 15 1025 87 10000 5.7 200 13:41 29.01.2020
3828 Clouds 15 1025 87 10000 6.7 200 13:23 29.01.2020
3829 Clouds 15 1025 87 10000 6.7 200 13:23 29.01.2020
3830 Clouds 15 1025 87 10000 6.2 200 12:59 29.01.2020
3831 Clouds 15 1025 93 10000 6.2 200 12:39 29.01.2020
3832 Clouds 15 1025 93 10000 6.2 200 12:21 29.01.2020
3833 Clouds 15 1025 93 10000 4.6 200 11:58 29.01.2020
3834 Clouds 15 1025 93 10000 4.6 200 11:40 29.01.2020
3835 Clouds 15 1025 93 10000 4.6 200 11:20 29.01.2020
3836 Clouds 14 1025 93 10000 4.6 210 10:46 29.01.2020
3837 Clouds 14 1025 93 10000 3.1 190 10:22 29.01.2020
3838 Clouds 14 1024 100 10000 4.6 200 09:57 29.01.2020
3839 Clouds 14 1024 100 10000 4.6 200 09:39 29.01.2020
3840 Clouds 14 1024 100 10000 4.6 200 09:18 29.01.2020
3841 Clouds 14 1024 93 10000 4.1 200 08:42 29.01.2020
3842 Clouds 14 1024 93 10000 4.1 200 08:42 29.01.2020
3843 Clouds 14 1024 93 10000 4.1 210 08:22 29.01.2020
3844 Clouds 14 1024 93 10000 4.6 210 07:45 29.01.2020
3845 Clouds 14 1024 100 10000 5.1 210 07:26 29.01.2020
3846 Clouds 14 1024 100 10000 4.6 210 06:56 29.01.2020
3847 Clouds 14 1024 100 10000 4.6 210 06:56 29.01.2020
3848 Clouds 14 1024 100 10000 4.1 210 06:37 29.01.2020
3849 Clouds 14 1024 100 10000 4.1 210 06:19 29.01.2020
3850 Clouds 14 1024 100 10000 4.6 210 05:50 29.01.2020
3851 Clouds 14 1024 100 10000 4.1 210 05:31 29.01.2020
3852 Clouds 14 1024 100 10000 4.6 210 04:38 29.01.2020
3853 Clouds 14 1024 100 10000 4.6 210 03:59 29.01.2020
3854 Clouds 14 1025 100 10000 4.6 200 02:34 29.01.2020
3855 Clouds 15 1025 100 10000 4.1 210 01:18 29.01.2020
3856 Clouds 14 1025 100 10000 3.1 220 00:38 29.01.2020
3857 Clouds 14 1025 100 10000 3.1 220 00:20 29.01.2020
3858 Clouds 15 1025 100 10000 3.6 230 23:39 28.01.2020
3859 Clouds 15 1025 100 10000 3.6 230 23:19 28.01.2020
3860 Clouds 15 1025 100 10000 3.6 220 22:49 28.01.2020
3861 Clouds 15 1025 100 10000 4.1 230 22:27 28.01.2020
3862 Rain 15 1025 93 10000 4.1 220 21:57 28.01.2020
3863 Rain 15 1025 93 10000 4.1 220 21:38 28.01.2020
3864 Clouds 15 1025 93 10000 4.1 220 21:19 28.01.2020
3865 Clouds 15 1025 93 10000 3.6 220 20:46 28.01.2020
3866 Clouds 15 1025 93 10000 4.6 220 20:26 28.01.2020
3867 Clouds 15 1025 93 10000 4.1 230 19:56 28.01.2020
3868 Clouds 15 1024 93 10000 4.6 230 19:37 28.01.2020
3869 Clouds 15 1024 93 10000 4.6 230 19:19 28.01.2020
3870 Clouds 15 1024 93 10000 4.6 220 18:42 28.01.2020
3871 Clouds 16 1024 87 10000 5.1 210 18:23 28.01.2020
3872 Clouds 16 1024 87 10000 5.1 220 17:59 28.01.2020
3873 Clouds 16 1024 88 10000 4.1 220 17:40 28.01.2020
3874 Clouds 16 1024 88 10000 4.1 220 17:22 28.01.2020
3875 Clouds 17 1024 82 10000 4.1 230 16:59 28.01.2020
3876 Clouds 17 1024 82 10000 4.6 230 16:41 28.01.2020
3877 Clouds 17 1024 82 10000 4.6 230 16:22 28.01.2020
3878 Clouds 16 1024 87 10000 4.6 230 15:57 28.01.2020
3879 Rain 16 1025 87 10000 4.6 230 15:38 28.01.2020
3880 Rain 16 1025 87 10000 4.6 230 15:18 28.01.2020
3881 Clouds 16 1025 87 10000 6.2 230 14:44 28.01.2020
3882 Clouds 16 1025 87 10000 6.2 240 14:20 28.01.2020
3883 Clouds 16 1025 87 10000 5.7 230 13:43 28.01.2020
3884 Clouds 16 1026 87 10000 5.7 230 13:24 28.01.2020
3885 Clouds 16 1026 87 10000 6.2 240 12:45 28.01.2020
3886 Clouds 16 1026 87 10000 5.1 230 12:25 28.01.2020
3887 Clouds 15 1025 93 10000 5.7 230 11:59 28.01.2020
3888 Clouds 15 1025 93 10000 5.7 230 11:41 28.01.2020
3889 Clouds 15 1025 93 10000 4.6 230 11:22 28.01.2020
3890 Clouds 15 1025 93 10000 3.6 230 10:55 28.01.2020
3891 Clouds 15 1024 93 10000 4.1 230 10:36 28.01.2020
3892 Clouds 15 1024 93 10000 4.1 230 10:18 28.01.2020
3893 Clouds 14 1024 100 10000 4.1 240 09:41 28.01.2020
3894 Clouds 14 1024 100 10000 4.1 240 09:20 28.01.2020
3895 Clouds 14 1024 100 10000 3.6 240 08:46 28.01.2020
3896 Clouds 14 1023 100 10000 4.1 230 08:26 28.01.2020
3897 Clouds 14 1023 100 10000 4.1 230 07:56 28.01.2020
3898 Clouds 14 1023 100 10000 4.1 230 07:34 28.01.2020
3899 Clouds 14 1023 100 10000 4.6 240 06:48 28.01.2020
3900 Drizzle 14 1023 100 8000 3.1 240 06:25 28.01.2020
3901 Drizzle 14 1023 100 5000 3.6 230 05:40 28.01.2020
3902 Clouds 14 1023 100 10000 4.1 230 05:21 28.01.2020
3903 Clouds 14 1024 100 8000 3.1 230 03:50 28.01.2020
3904 Drizzle 14 1024 100 6000 4.6 240 02:49 28.01.2020
3905 Clouds 14 1024 100 10000 5.1 250 02:25 28.01.2020
3906 Clouds 14 1024 100 10000 5.1 230 01:56 28.01.2020
3907 Clouds 14 1024 93 10000 5.1 250 01:22 28.01.2020
3908 Drizzle 15 1024 100 4500 5.7 220 00:45 28.01.2020
3909 Drizzle 15 1024 100 4500 6.2 220 00:23 28.01.2020
3910 Drizzle 15 1024 93 8000 6.2 230 23:44 27.01.2020
3911 Clouds 15 1024 93 10000 5.7 230 23:20 27.01.2020
3912 Clouds 15 1024 93 10000 5.7 230 22:45 27.01.2020
3913 Clouds 15 1024 93 5000 6.2 230 22:20 27.01.2020
3914 Clouds 15 1024 93 5000 6.2 230 22:20 27.01.2020
3915 Drizzle 15 1024 100 2000 5.7 220 21:58 27.01.2020
3916 Drizzle 15 1024 100 2000 5.7 220 21:39 27.01.2020
3917 Drizzle 15 1024 100 10000 6.7 230 21:19 27.01.2020
3918 Drizzle 15 1024 93 10000 5.1 220 21:19 27.01.2020
3919 Drizzle 15 1023 100 3000 6.2 220 20:57 27.01.2020
3920 Drizzle 15 1023 93 10000 5.1 240 20:38 27.01.2020
3921 Drizzle 15 1023 93 10000 5.1 240 20:20 27.01.2020
3922 Drizzle 15 1023 100 5000 6.7 210 19:57 27.01.2020
3923 Drizzle 15 1023 100 5000 6.7 210 19:38 27.01.2020
3924 Drizzle 15 1023 100 3000 7.2 210 19:20 27.01.2020
3925 Drizzle 15 1023 93 3000 5.7 220 18:40 27.01.2020
3926 Drizzle 15 1023 93 3000 5.7 220 18:40 27.01.2020
3927 Drizzle 15 1023 93 3000 5.7 220 18:21 27.01.2020
3928 Clouds 15 1023 93 10000 7.2 220 17:58 27.01.2020
3929 Clouds 15 1022 93 10000 8.2 210 17:39 27.01.2020
3930 Clouds 15 1022 93 10000 8.2 210 17:39 27.01.2020
3931 Clouds 15 1022 93 10000 8.2 210 17:19 27.01.2020
3932 Clouds 15 1022 93 10000 8.2 210 16:56 27.01.2020
3933 Rain 15 1023 93 10000 6.7 220 16:37 27.01.2020
3934 Rain 15 1023 93 10000 6.7 220 16:19 27.01.2020
3935 Clouds 15 1023 93 10000 8.7 210 15:42 27.01.2020
3936 Clouds 15 1023 93 10000 8.7 210 15:20 27.01.2020
3937 Clouds 15 1023 93 10000 6.7 220 14:59 27.01.2020
3938 Clouds 15 1023 93 10000 6.7 220 14:40 27.01.2020
3939 Drizzle 15 1023 100 10000 8.2 210 14:21 27.01.2020
3940 Drizzle 15 1024 100 6000 8.2 220 13:46 27.01.2020
3941 Drizzle 15 1024 87 7000 8.7 210 13:24 27.01.2020
3942 Drizzle 15 1024 87 10000 8.7 210 12:58 27.01.2020
3943 Clouds 15 1024 82 10000 8.7 210 12:39 27.01.2020
3944 Clouds 15 1024 82 10000 8.7 210 12:21 27.01.2020
3945 Clouds 15 1024 82 10000 8.2 200 11:43 27.01.2020
3946 Clouds 15 1024 82 10000 6.7 210 11:43 27.01.2020
3947 Clouds 15 1024 82 10000 6.7 210 11:22 27.01.2020
3948 Clouds 14 1024 87 10000 7.2 210 10:57 27.01.2020
3949 Clouds 14 1024 87 10000 6.7 210 10:39 27.01.2020
3950 Clouds 14 1024 87 10000 6.7 210 10:20 27.01.2020
3951 Clouds 14 1024 87 10000 6.2 200 09:39 27.01.2020
3952 Clouds 14 1024 87 10000 6.2 210 09:19 27.01.2020
3953 Clouds 14 1023 87 10000 6.2 210 08:56 27.01.2020
3954 Clouds 14 1023 87 10000 6.2 210 08:38 27.01.2020
3955 Clouds 14 1023 93 10000 5.1 210 08:18 27.01.2020
3956 Clouds 14 1023 93 10000 4.6 200 07:46 27.01.2020
3957 Clouds 14 1023 93 10000 5.1 210 07:26 27.01.2020
3958 Clouds 14 1023 93 10000 4.1 200 06:38 27.01.2020
3959 Clouds 13 1024 93 10000 4.1 200 05:45 27.01.2020
3960 Clouds 14 1024 93 10000 2.6 170 04:37 27.01.2020
3961 Clouds 13 1024 93 10000 2.6 170 03:35 27.01.2020
3962 Clouds 13 1025 93 10000 3.6 170 01:55 27.01.2020
3963 Clouds 13 1025 93 10000 3.6 170 01:27 27.01.2020
3964 Clouds 13 1025 93 10000 2.6 200 00:41 27.01.2020
3965 Clouds 13 1025 93 10000 2.6 200 00:21 27.01.2020
3966 Clouds 13 1025 87 10000 3.1 200 23:44 26.01.2020
3967 Clouds 13 1025 87 10000 3.1 200 23:26 26.01.2020
3968 Clouds 12 1025 93 10000 2.1 210 22:59 26.01.2020
3969 Clouds 12 1025 93 10000 2.1 210 22:39 26.01.2020
3970 Clouds 13 1025 93 10000 2.1 200 22:20 26.01.2020
3971 Clouds 13 1025 93 10000 2.1 220 21:58 26.01.2020
3972 Clouds 13 1025 93 10000 2.1 220 21:39 26.01.2020
3973 Clouds 13 1025 93 10000 2.6 210 21:21 26.01.2020
3974 Clouds 13 1025 93 10000 2.6 210 21:21 26.01.2020
3975 Clouds 13 1025 93 10000 2.6 210 20:58 26.01.2020
3976 Clouds 13 1025 87 10000 3.1 210 20:38 26.01.2020
3977 Clouds 13 1025 87 10000 3.1 210 20:19 26.01.2020
3978 Clouds 13 1025 87 10000 3.1 220 19:58 26.01.2020
3979 Clouds 13 1025 87 10000 3.1 220 19:38 26.01.2020
3980 Clouds 14 1025 82 10000 2.6 220 19:20 26.01.2020
3981 Clouds 14 1024 82 10000 3.6 220 18:56 26.01.2020
3982 Clouds 14 1024 76 10000 5.1 210 18:38 26.01.2020
3983 Clouds 15 1024 76 10000 5.1 210 18:20 26.01.2020
3984 Clouds 15 1024 76 10000 6.2 210 17:55 26.01.2020
3985 Clouds 15 1024 72 10000 5.1 230 17:37 26.01.2020
3986 Clouds 15 1024 72 10000 5.1 230 17:18 26.01.2020
3987 Clouds 15 1024 72 10000 4.6 210 16:56 26.01.2020
3988 Fog 16 1024 77 10000 5.1 210 16:38 26.01.2020
3989 Fog 16 1024 77 10000 5.1 210 16:18 26.01.2020
3990 Rain 15 1024 77 0 3.58 218 15:43 26.01.2020
3991 Rain 15 1024 81 0 3.58 253 15:21 26.01.2020
3992 Rain 16 1014 69 0 4.52 241 14:58 26.01.2020
3993 Rain 16 1024 64 0 4.52 241 14:38 26.01.2020
3994 Rain 16 1025 65 0 2.46 200 14:19 26.01.2020
3995 Rain 16 1025 64 0 2.46 200 14:19 26.01.2020
3996 Rain 15 1025 69 0 2.46 200 13:40 26.01.2020
3997 Rain 15 1015 74 0 3.49 195 13:19 26.01.2020
3998 Rain 16 1026 73 0 3.49 195 12:56 26.01.2020
3999 Rain 15 1026 75 0 3.49 195 12:37 26.01.2020
4000 Rain 15 1015 74 0 3.49 195 12:19 26.01.2020
4001 Rain 14 1025 80 0 3.49 195 11:57 26.01.2020
4002 Fog 12 1025 100 150 1.5 60 11:36 26.01.2020
4003 Fog 11 1025 100 150 1.5 60 11:18 26.01.2020
4004 Fog 10 1025 100 150 1.5 60 10:55 26.01.2020
4005 Fog 10 1025 100 150 1.5 60 10:37 26.01.2020
4006 Fog 9 1025 100 150 1.5 60 10:18 26.01.2020
4007 Fog 8 1024 89 4000 2.1 100 09:41 26.01.2020
4008 Clouds 8 1024 89 10000 1.59 127 09:23 26.01.2020
4009 Clouds 8 1024 100 9000 1 270 08:57 26.01.2020
4010 Clouds 8 1023 100 9000 1 280 08:39 26.01.2020
4011 Clear 8 1023 100 9000 1 280 08:21 26.01.2020
4012 Clear 8 1023 100 9000 0.5 0 07:50 26.01.2020
4013 Fog 8 1023 100 9000 1 270 07:25 26.01.2020
4014 Clear 9 1022 100 9000 1 0 06:40 26.01.2020
4015 Fog 8 1022 100 10000 1.5 270 06:22 26.01.2020
4016 Clear 9 1022 100 10000 1.5 280 05:27 26.01.2020
4017 Clear 10 1022 100 10000 1.5 280 03:23 26.01.2020
4018 Clouds 11 1022 93 10000 1.5 250 02:38 26.01.2020
4019 Clouds 11 1022 93 10000 1.5 280 01:43 26.01.2020
4020 Clouds 11 1021 93 10000 1.5 260 01:22 26.01.2020
4021 Clear 10 1021 100 10000 1.31 300 00:42 26.01.2020
4022 Clear 11 1021 100 10000 1.5 270 00:23 26.01.2020
4023 Clear 12 1021 88 0 0.89 285 23:39 25.01.2020
4024 Clear 11 1021 88 0 1.79 294 23:20 25.01.2020
4025 Clear 11 1021 87 0 2.42 320 22:56 25.01.2020
4026 Clear 11 1020 87 0 1.79 297 22:36 25.01.2020
4027 Clear 11 1020 87 0 3.58 313 22:18 25.01.2020
4028 Clear 11 1020 87 0 3.58 313 22:18 25.01.2020
4029 Clear 11 1020 86 0 3.58 318 21:41 25.01.2020
4030 Clear 11 1019 86 0 3.58 322 21:23 25.01.2020
4031 Clear 9 1020 87 0 2.42 320 20:56 25.01.2020
4032 Clear 9 1020 87 0 2.42 320 20:38 25.01.2020
4033 Clouds 12 1019 85 0 3.58 317 20:20 25.01.2020
4034 Clouds 11 1018 83 0 2.31 341 19:44 25.01.2020
4035 Clouds 13 1017 76 0 3.13 353 19:20 25.01.2020
4036 Clouds 13 1018 79 0 3.13 290 18:57 25.01.2020
4037 Clouds 13 1017 76 0 3.13 353 18:39 25.01.2020
4038 Clouds 13 1017 76 0 3.13 344 18:20 25.01.2020
4039 Clouds 14 1017 74 0 3.58 311 17:42 25.01.2020
4040 Clouds 14 1017 73 0 2.24 311 17:23 25.01.2020
4041 Clouds 14 1017 72 0 1.34 332 16:58 25.01.2020
4042 Clouds 15 1016 74 0 0.45 23 16:40 25.01.2020
4043 Clouds 14 1016 74 0 0.45 22 16:21 25.01.2020
4044 Clouds 15 1016 75 0 4.42 4 15:55 25.01.2020
4045 Clouds 15 1016 78 0 0.45 40 15:37 25.01.2020
4046 Clouds 14 1016 77 0 0.89 136 15:18 25.01.2020
4047 Clouds 14 1016 80 0 1.79 151 14:41 25.01.2020
4048 Clouds 14 1016 81 0 2.68 103 14:19 25.01.2020
4049 Clouds 13 1016 88 0 1.34 341 13:43 25.01.2020
4050 Clouds 13 1017 91 0 1.34 315 13:24 25.01.2020
4051 Clouds 12 1017 100 10000 3.6 20 12:46 25.01.2020
4052 Clouds 12 1017 100 10000 3.6 20 12:28 25.01.2020
4053 Clouds 11 1017 100 10000 3.6 20 11:54 25.01.2020
4054 Clouds 11 1016 100 10000 3.6 20 11:36 25.01.2020
4055 Clouds 11 1016 100 10000 3.6 20 11:18 25.01.2020
4056 Clouds 11 1016 100 10000 3.1 10 10:41 25.01.2020
4057 Clouds 10 1016 100 10000 3.6 20 10:21 25.01.2020
4058 Clouds 10 1016 93 10000 3.6 20 09:57 25.01.2020
4059 Clouds 10 1015 100 10000 3.6 30 09:37 25.01.2020
4060 Clouds 10 1015 100 10000 3.6 30 09:18 25.01.2020
4061 Clouds 10 1015 100 10000 3.6 30 08:42 25.01.2020
4062 Clouds 10 1015 100 10000 3.6 30 08:42 25.01.2020
4063 Drizzle 10 1014 100 6000 4.1 30 07:53 25.01.2020
4064 Drizzle 10 1014 100 6000 4.1 30 07:53 25.01.2020
4065 Drizzle 10 1014 100 10000 5.1 30 06:58 25.01.2020
4066 Drizzle 10 1014 100 7000 4.6 40 06:31 25.01.2020
4067 Drizzle 10 1014 100 1600 4.1 40 05:51 25.01.2020
4068 Rain 10 1014 100 1700 4.6 30 05:30 25.01.2020
4069 Drizzle 10 1014 100 1700 4.6 40 03:56 25.01.2020
4070 Drizzle 10 1014 100 3500 4.6 30 03:37 25.01.2020
4071 Clouds 10 1014 100 10000 4.1 40 02:35 25.01.2020
4072 Rain 10 1015 100 10000 5.1 30 01:54 25.01.2020
4073 Clouds 11 1015 100 10000 2.6 30 00:59 25.01.2020
4074 Clouds 10 1015 100 10000 2.6 30 00:37 25.01.2020
4075 Clouds 10 1015 100 10000 2.6 30 00:18 25.01.2020
4076 Clouds 10 1015 100 10000 2.6 30 00:18 25.01.2020
4077 Rain 10 1015 100 10000 2.6 30 23:41 24.01.2020
4078 Rain 10 1015 100 10000 2.6 40 23:23 24.01.2020
4079 Rain 10 1015 100 10000 2.1 40 22:46 24.01.2020
4080 Rain 10 1015 100 10000 2.1 40 22:27 24.01.2020
4081 Rain 10 1015 100 10000 1.5 50 21:58 24.01.2020
4082 Rain 10 1015 100 10000 2.1 60 21:40 24.01.2020
4083 Rain 10 1015 100 10000 2.1 60 21:18 24.01.2020
4084 Rain 11 1015 100 10000 1 0 20:43 24.01.2020
4085 Rain 11 1015 100 10000 2.6 130 20:22 24.01.2020
4086 Rain 11 1015 100 10000 4.6 150 19:58 24.01.2020
4087 Rain 12 1014 87 10000 2.1 70 19:40 24.01.2020
4088 Clouds 12 1014 93 10000 2.6 50 19:22 24.01.2020
4089 Clouds 13 1015 87 10000 2.6 30 18:54 24.01.2020
4090 Clouds 13 1015 82 10000 2.1 70 18:36 24.01.2020
4091 Clouds 13 1015 82 10000 2.1 70 18:18 24.01.2020
4092 Clouds 13 1015 82 10000 2.6 80 17:42 24.01.2020
4093 Clouds 13 1015 82 10000 3.1 120 17:21 24.01.2020
4094 Clouds 13 1015 82 10000 2.6 100 16:43 24.01.2020
4095 Clouds 13 1015 87 10000 3.1 100 16:22 24.01.2020
4096 Clouds 13 1015 87 10000 3.1 100 16:22 24.01.2020
4097 Clouds 13 1015 87 10000 3.1 100 15:57 24.01.2020
4098 Clouds 13 1016 87 10000 3.6 0 15:39 24.01.2020
4099 Clouds 13 1016 87 10000 3.6 0 15:20 24.01.2020
4100 Clouds 13 1016 87 10000 3.1 80 14:41 24.01.2020
4101 Clouds 13 1016 87 10000 3.1 80 14:23 24.01.2020
4102 Clouds 12 1017 93 10000 4.1 80 13:57 24.01.2020
4103 Clouds 12 1017 93 10000 4.1 100 13:39 24.01.2020
4104 Clouds 12 1017 93 10000 4.1 100 13:19 24.01.2020
4105 Clouds 11 1017 100 10000 3.1 0 12:41 24.01.2020
4106 Clouds 11 1017 100 10000 3.6 70 12:18 24.01.2020
4107 Clouds 11 1017 100 10000 4.6 50 11:43 24.01.2020
4108 Clouds 10 1017 100 10000 3.1 90 11:19 24.01.2020
4109 Clouds 10 1017 100 10000 3.6 50 10:43 24.01.2020
4110 Clouds 10 1017 100 9000 4.1 60 10:22 24.01.2020
4111 Clouds 10 1017 100 10000 3.1 80 09:57 24.01.2020
4112 Clouds 10 1017 100 10000 3.1 80 09:39 24.01.2020
4113 Clouds 10 1017 100 10000 3.1 80 09:39 24.01.2020
4114 Clouds 9 1017 100 8000 3.1 100 09:21 24.01.2020
4115 Fog 9 1016 100 6000 3.1 110 08:40 24.01.2020
4116 Mist 9 1016 100 2500 3.1 90 08:20 24.01.2020
4117 Mist 9 1016 100 2000 3.1 100 07:51 24.01.2020
4118 Mist 9 1016 100 4000 2.6 80 07:32 24.01.2020
4119 Mist 8 1016 100 5000 3.1 80 06:48 24.01.2020
4120 Clouds 8 1016 100 8000 2.6 60 06:29 24.01.2020
4121 Clouds 8 1016 100 9000 2.6 60 05:58 24.01.2020
4122 Clouds 8 1016 100 9000 2.6 90 04:57 24.01.2020
4123 Clouds 8 1016 100 9000 2.1 340 02:53 24.01.2020
4124 Clouds 8 1016 100 9000 2.1 350 02:25 24.01.2020
4125 Fog 9 1016 100 9000 1 10 01:45 24.01.2020
4126 Fog 9 1016 100 8000 1.5 50 01:26 24.01.2020
4127 Clouds 9 1016 100 10000 1 10 00:23 24.01.2020
4128 Clouds 9 1016 100 10000 1.5 50 23:49 23.01.2020
4129 Clouds 9 1015 100 10000 1.5 70 23:31 23.01.2020
4130 Clouds 10 1015 100 10000 2.1 50 22:59 23.01.2020
4131 Clouds 10 1015 100 10000 2.6 80 22:38 23.01.2020
4132 Clouds 10 1015 100 10000 2.6 80 22:19 23.01.2020
4133 Clouds 10 1015 100 10000 2.6 50 21:57 23.01.2020
4134 Clouds 11 1015 93 10000 2.1 70 21:39 23.01.2020
4135 Clouds 10 1015 93 10000 2.1 70 21:20 23.01.2020
4136 Clouds 11 1014 93 10000 2.6 0 20:58 23.01.2020
4137 Clouds 11 1014 93 10000 2.6 0 20:38 23.01.2020
4138 Clouds 11 1014 93 10000 2.6 0 20:38 23.01.2020
4139 Clouds 11 1014 87 10000 2.1 80 20:19 23.01.2020
4140 Clouds 11 1014 87 10000 2.1 80 20:19 23.01.2020
4141 Clouds 11 1014 81 10000 2.1 60 19:56 23.01.2020
4142 Clouds 11 1013 81 10000 1.5 70 19:38 23.01.2020
4143 Clouds 11 1013 81 10000 1.5 70 19:19 23.01.2020
4144 Clouds 12 1013 81 10000 1.5 90 18:42 23.01.2020
4145 Clouds 12 1013 81 10000 2.1 60 18:21 23.01.2020
4146 Clouds 12 1013 81 10000 2.1 60 18:21 23.01.2020
4147 Clouds 12 1013 76 10000 2.6 110 17:58 23.01.2020
4148 Clouds 12 1013 76 10000 2.1 130 17:40 23.01.2020
4149 Clouds 13 1013 76 10000 2.1 130 17:20 23.01.2020
4150 Clouds 12 1013 76 10000 3.1 120 16:56 23.01.2020
4151 Clouds 12 1013 76 10000 2.6 140 16:37 23.01.2020
4152 Clouds 12 1013 76 10000 2.6 140 16:18 23.01.2020
4153 Clouds 12 1013 81 10000 2.6 120 15:55 23.01.2020
4154 Clouds 12 1013 87 10000 2.1 0 15:37 23.01.2020
4155 Clouds 12 1013 87 10000 2.1 0 15:18 23.01.2020
4156 Clouds 12 1013 93 10000 2.1 70 14:55 23.01.2020
4157 Clouds 11 1013 93 10000 2.1 70 14:37 23.01.2020
4158 Clouds 11 1013 93 10000 2.1 70 14:19 23.01.2020
4159 Clouds 11 1014 93 10000 2.6 70 13:40 23.01.2020
4160 Drizzle 10 1014 100 10000 3.6 70 13:20 23.01.2020
4161 Drizzle 10 1014 100 10000 3.6 70 12:47 23.01.2020
4162 Drizzle 9 1014 100 10000 2.6 0 12:25 23.01.2020
4163 Clouds 9 1014 100 10000 3.1 80 11:59 23.01.2020
4164 Clouds 9 1014 100 10000 3.1 110 11:39 23.01.2020
4165 Clouds 9 1014 100 10000 3.1 110 11:19 23.01.2020
4166 Clouds 8 1014 100 10000 3.6 90 10:45 23.01.2020
4167 Clouds 8 1014 93 10000 3.6 110 10:23 23.01.2020
4168 Drizzle 8 1014 100 10000 3.6 90 09:59 23.01.2020
4169 Clouds 8 1013 100 10000 3.1 0 09:38 23.01.2020
4170 Clouds 8 1013 100 10000 3.1 0 09:20 23.01.2020
4171 Clouds 8 1013 100 10000 3.6 100 08:42 23.01.2020
4172 Clouds 8 1013 100 10000 2.1 80 08:24 23.01.2020
4173 Clouds 8 1013 100 10000 2.1 80 08:24 23.01.2020
4174 Clouds 8 1013 100 10000 2.1 80 07:48 23.01.2020
4175 Clouds 8 1013 100 10000 2.6 80 07:27 23.01.2020
4176 Clouds 8 1013 100 10000 3.1 70 06:54 23.01.2020
4177 Clouds 8 1013 100 10000 2.6 60 06:23 23.01.2020
4178 Clouds 8 1013 100 10000 2.6 50 05:58 23.01.2020
4179 Clouds 8 1013 100 10000 1.5 30 04:24 23.01.2020
4180 Clouds 8 1014 100 10000 2.6 50 02:45 23.01.2020
4181 Clouds 8 1014 93 10000 3.1 60 01:44 23.01.2020
4182 Clouds 9 1014 100 10000 4.6 50 00:28 23.01.2020
4183 Clouds 9 1014 100 10000 4.1 50 23:54 22.01.2020
4184 Clouds 9 1014 93 10000 4.6 50 23:36 22.01.2020
4185 Clouds 9 1014 93 10000 4.6 50 23:18 22.01.2020
4186 Clouds 9 1015 93 10000 5.1 40 22:41 22.01.2020
4187 Clouds 9 1014 93 10000 4.6 40 22:23 22.01.2020
4188 Clouds 9 1014 93 10000 4.6 50 21:56 22.01.2020
4189 Clouds 9 1014 93 10000 5.7 40 21:36 22.01.2020
4190 Clouds 9 1014 93 10000 5.7 40 21:18 22.01.2020
4191 Clouds 9 1014 93 10000 5.1 40 20:41 22.01.2020
4192 Clouds 9 1014 93 10000 5.1 40 20:23 22.01.2020
4193 Clouds 9 1014 93 10000 4.6 40 19:58 22.01.2020
4194 Clouds 9 1014 93 10000 4.6 40 19:39 22.01.2020
4195 Clouds 9 1014 93 10000 5.1 40 19:19 22.01.2020
4196 Rain 9 1014 93 10000 4.6 40 18:57 22.01.2020
4197 Rain 10 1014 93 10000 4.6 30 18:38 22.01.2020
4198 Rain 10 1014 93 10000 4.6 30 18:20 22.01.2020
4199 Rain 10 1014 93 10000 4.6 40 17:55 22.01.2020
4200 Rain 10 1014 93 10000 4.1 30 17:37 22.01.2020
4201 Rain 10 1014 93 10000 4.1 30 17:19 22.01.2020
4202 Rain 10 1014 87 10000 4.1 40 16:43 22.01.2020
4203 Rain 10 1014 93 10000 5.1 40 16:23 22.01.2020
4204 Rain 10 1014 87 10000 5.7 50 15:59 22.01.2020
4205 Rain 10 1014 87 10000 5.7 50 15:40 22.01.2020
4206 Rain 11 1014 81 10000 6.7 70 15:22 22.01.2020
4207 Rain 12 1015 71 10000 6.2 60 14:57 22.01.2020
4208 Clouds 12 1015 71 10000 6.7 60 14:37 22.01.2020
4209 Clouds 12 1015 71 10000 6.7 60 14:18 22.01.2020
4210 Clouds 12 1015 66 10000 6.7 60 13:54 22.01.2020
4211 Clouds 12 1016 71 10000 5.7 60 13:36 22.01.2020
4212 Clouds 12 1016 71 10000 5.7 60 13:18 22.01.2020
4213 Clouds 11 1016 76 10000 5.7 50 12:55 22.01.2020
4214 Clouds 11 1016 71 10000 5.7 40 12:37 22.01.2020
4215 Clouds 11 1016 71 10000 5.7 40 12:18 22.01.2020
4216 Clouds 11 1016 76 10000 5.7 40 11:56 22.01.2020
4217 Clouds 10 1016 70 10000 6.2 50 11:37 22.01.2020
4218 Clouds 10 1016 70 10000 6.2 50 11:18 22.01.2020
4219 Clouds 10 1016 66 10000 3.6 40 10:43 22.01.2020
4220 Clouds 9 1016 70 10000 4.6 40 10:20 22.01.2020
4221 Clouds 8 1015 75 10000 5.7 40 09:43 22.01.2020
4222 Clouds 8 1015 75 10000 5.7 40 09:25 22.01.2020
4223 Clouds 9 1015 75 10000 6.2 50 08:57 22.01.2020
4224 Clouds 8 1015 75 10000 6.2 50 08:39 22.01.2020
4225 Clouds 8 1015 75 10000 6.2 40 08:21 22.01.2020
4226 Clouds 9 1015 70 10000 5.7 40 07:54 22.01.2020
4227 Clouds 9 1015 70 10000 6.7 40 07:36 22.01.2020
4228 Clouds 9 1015 70 10000 6.7 40 07:18 22.01.2020
4229 Clouds 9 1015 70 10000 5.1 30 06:30 22.01.2020
4230 Clouds 9 1015 70 10000 6.2 30 05:41 22.01.2020
4231 Clouds 9 1015 70 10000 6.2 30 05:41 22.01.2020
4232 Clouds 10 1015 66 10000 7.2 40 04:20 22.01.2020
4233 Clouds 10 1015 66 10000 6.7 30 03:23 22.01.2020
4234 Clouds 10 1015 66 10000 6.7 30 03:23 22.01.2020
4235 Clouds 10 1016 61 10000 6.7 30 02:27 22.01.2020
4236 Clouds 10 1016 61 10000 5.1 20 00:45 22.01.2020
4237 Clouds 10 1015 61 10000 5.1 30 00:26 22.01.2020
4238 Clouds 10 1015 61 10000 5.7 40 23:39 21.01.2020
4239 Clouds 10 1015 61 10000 5.7 40 23:39 21.01.2020
4240 Clear 10 1015 61 10000 5.7 40 23:21 21.01.2020
4241 Clear 10 1015 61 10000 5.1 40 22:59 21.01.2020
4242 Clear 10 1015 61 10000 3.6 40 22:39 21.01.2020
4243 Clear 10 1015 61 10000 3.6 40 22:20 21.01.2020
4244 Clear 10 1015 66 10000 3.1 20 21:56 21.01.2020
4245 Clear 10 1015 61 10000 4.6 30 21:37 21.01.2020
4246 Clear 10 1015 61 10000 4.6 30 21:19 21.01.2020
4247 Clear 10 1015 61 10000 4.6 50 20:55 21.01.2020
4248 Clear 10 1015 61 10000 4.6 40 20:37 21.01.2020
4249 Clear 10 1015 61 10000 4.6 40 20:18 21.01.2020
4250 Clear 10 1015 61 10000 4.6 40 20:18 21.01.2020
4251 Clear 11 1015 61 10000 5.1 40 19:55 21.01.2020
4252 Clear 11 1015 57 10000 6.2 30 19:37 21.01.2020
4253 Clear 11 1015 57 10000 6.2 30 19:37 21.01.2020
4254 Clear 11 1015 57 10000 6.2 30 19:18 21.01.2020
4255 Clear 12 1015 62 10000 5.1 30 18:55 21.01.2020
4256 Clouds 12 1015 54 10000 6.7 30 18:36 21.01.2020
4257 Clouds 12 1015 54 10000 6.7 30 18:18 21.01.2020
4258 Clouds 13 1015 50 10000 7.7 50 17:42 21.01.2020
4259 Clouds 13 1015 50 10000 7.7 50 17:20 21.01.2020
4260 Clouds 13 1015 54 10000 6.7 40 16:58 21.01.2020
4261 Clear 13 1015 54 10000 5.7 40 16:37 21.01.2020
4262 Clear 13 1015 54 10000 5.7 40 16:18 21.01.2020
4263 Clear 13 1015 50 10000 5.7 30 15:41 21.01.2020
4264 Clear 13 1015 54 10000 6.2 40 15:20 21.01.2020
4265 Clear 12 1016 54 10000 6.2 50 14:58 21.01.2020
4266 Clear 12 1016 50 10000 5.7 40 14:37 21.01.2020
4267 Clear 12 1016 50 10000 5.7 40 14:19 21.01.2020
4268 Clear 12 1017 54 10000 6.7 30 13:39 21.01.2020
4269 Clear 11 1018 53 10000 4.6 30 13:19 21.01.2020
4270 Clear 10 1019 57 10000 7.2 30 12:43 21.01.2020
4271 Clear 10 1018 57 10000 8.2 40 12:25 21.01.2020
4272 Clear 10 1018 57 10000 7.2 40 11:57 21.01.2020
4273 Clear 9 1018 61 10000 7.7 40 11:38 21.01.2020
4274 Clear 9 1018 61 10000 7.7 40 11:20 21.01.2020
4275 Clear 8 1018 65 10000 6.7 40 10:44 21.01.2020
4276 Clear 8 1019 65 10000 7.2 40 10:23 21.01.2020
4277 Clear 8 1019 65 10000 7.2 40 10:23 21.01.2020
4278 Clear 7 1019 65 10000 6.2 40 09:59 21.01.2020
4279 Clear 7 1019 65 10000 6.2 40 09:40 21.01.2020
4280 Clear 7 1019 65 10000 5.7 40 09:22 21.01.2020
4281 Clear 7 1019 65 10000 6.2 40 08:48 21.01.2020
4282 Clear 7 1019 70 10000 5.7 30 08:27 21.01.2020
4283 Clear 7 1019 65 10000 6.2 30 07:57 21.01.2020
4284 Clear 7 1019 65 10000 6.2 30 07:38 21.01.2020
4285 Clear 7 1019 65 10000 6.2 30 07:19 21.01.2020
4286 Clear 7 1018 65 10000 6.2 30 06:45 21.01.2020
4287 Clear 7 1018 65 10000 6.7 30 06:23 21.01.2020
4288 Clear 7 1019 65 10000 6.2 40 05:41 21.01.2020
4289 Clear 7 1019 64 10000 6.2 50 04:39 21.01.2020
4290 Clear 8 1020 56 10000 6.2 40 02:54 21.01.2020
4291 Clear 8 1020 52 10000 6.2 30 01:47 21.01.2020
4292 Clear 8 1020 49 10000 6.7 30 00:54 21.01.2020
4293 Clear 8 1020 49 10000 6.7 40 00:32 21.01.2020
4294 Clear 8 1020 49 10000 7.2 40 23:57 20.01.2020
4295 Clear 8 1020 49 10000 7.7 40 23:37 20.01.2020
4296 Clear 8 1020 49 10000 7.7 40 23:18 20.01.2020
4297 Clear 8 1020 49 10000 7.7 30 22:56 20.01.2020
4298 Clear 8 1020 49 10000 8.2 40 22:36 20.01.2020
4299 Clear 8 1020 49 10000 8.2 40 22:18 20.01.2020
4300 Clear 9 1020 45 10000 8.2 30 21:55 20.01.2020
4301 Clear 9 1020 52 10000 7.7 30 21:36 20.01.2020
4302 Clear 9 1020 52 10000 7.7 30 21:18 20.01.2020
4303 Clear 9 1019 45 10000 9.3 40 20:54 20.01.2020
4304 Clear 9 1019 45 10000 7.2 40 20:36 20.01.2020
4305 Clouds 9 1019 45 10000 7.2 40 20:18 20.01.2020
4306 Clouds 9 1019 45 10000 7.2 40 20:18 20.01.2020
4307 Clouds 9 1019 49 10000 7.2 40 19:54 20.01.2020
4308 Clouds 9 1019 49 10000 7.2 40 19:54 20.01.2020
4309 Clouds 10 1019 49 10000 8.2 40 19:36 20.01.2020
4310 Clouds 10 1019 49 10000 8.2 40 19:18 20.01.2020
4311 Clouds 11 1018 46 10000 9.3 30 18:42 20.01.2020
4312 Clouds 11 1018 46 10000 9.8 30 18:21 20.01.2020
4313 Clouds 12 1018 40 10000 10.8 40 17:39 20.01.2020
4314 Clouds 12 1018 37 10000 11.3 40 17:19 20.01.2020
4315 Clouds 12 1018 37 10000 12.3 40 16:55 20.01.2020
4316 Clouds 12 1018 40 10000 10.3 30 16:36 20.01.2020
4317 Clouds 12 1018 40 10000 10.3 30 16:18 20.01.2020
4318 Clouds 12 1019 40 10000 9.8 40 15:41 20.01.2020
4319 Clouds 12 1019 43 10000 8.7 30 15:22 20.01.2020
4320 Clouds 11 1020 37 10000 9.3 20 14:59 20.01.2020
4321 Clouds 11 1020 39 10000 9.8 40 14:40 20.01.2020
4322 Clouds 11 1020 39 10000 9.8 40 14:21 20.01.2020
4323 Clouds 10 1021 42 10000 9.3 40 13:57 20.01.2020
4324 Clouds 10 1022 42 10000 9.3 30 13:38 20.01.2020
4325 Clouds 10 1022 42 10000 9.3 30 13:20 20.01.2020
4326 Clouds 9 1022 42 10000 9.3 40 12:42 20.01.2020
4327 Clouds 8 1022 45 10000 9.8 40 12:23 20.01.2020
4328 Clouds 8 1023 45 10000 7.7 40 11:56 20.01.2020
4329 Clouds 8 1023 45 10000 9.3 30 11:37 20.01.2020
4330 Clouds 7 1023 45 10000 9.3 30 11:18 20.01.2020
4331 Clouds 7 1023 48 10000 8.2 30 10:46 20.01.2020
4332 Clouds 7 1023 45 10000 9.3 30 10:21 20.01.2020
4333 Clouds 6 1022 48 10000 8.7 30 09:42 20.01.2020
4334 Clouds 7 1023 45 10000 7.2 30 09:24 20.01.2020
4335 Clouds 7 1023 45 10000 8.2 20 08:56 20.01.2020
4336 Clouds 7 1023 48 10000 8.7 20 08:35 20.01.2020
4337 Clear 6 1023 48 10000 8.2 20 07:59 20.01.2020
4338 Clear 6 1023 48 10000 8.2 20 07:41 20.01.2020
4339 Clear 6 1023 48 10000 7.2 360 07:21 20.01.2020
4340 Clear 6 1023 48 10000 5.7 10 06:44 20.01.2020
4341 Clear 7 1023 48 10000 6.7 10 06:24 20.01.2020
4342 Clear 6 1024 48 10000 8.2 20 05:41 20.01.2020
4343 Clear 7 1024 42 10000 6.7 20 05:20 20.01.2020
4344 Clear 7 1024 42 10000 8.2 30 04:24 20.01.2020
4345 Clear 9 1025 36 10000 10.8 30 02:33 20.01.2020
4346 Clear 9 1025 29 10000 10.3 30 01:40 20.01.2020
4347 Clear 9 1025 26 10000 10.8 30 01:20 20.01.2020
4348 Clear 10 1025 27 10000 10.8 30 00:43 20.01.2020
4349 Clear 11 1025 21 10000 12.9 20 00:21 20.01.2020
4350 Clear 11 1025 25 10000 11.3 20 23:38 19.01.2020
4351 Clear 11 1025 25 10000 11.3 20 23:19 19.01.2020
4352 Clear 12 1025 30 10000 10.3 10 22:56 19.01.2020
4353 Clear 12 1025 40 10000 9.3 360 22:37 19.01.2020
4354 Clear 12 1025 40 10000 9.3 360 22:19 19.01.2020
4355 Clear 12 1025 33 10000 9.8 10 21:56 19.01.2020
4356 Clear 12 1025 40 10000 9.8 360 21:38 19.01.2020
4357 Clear 12 1025 40 10000 9.8 360 21:19 19.01.2020
4358 Clear 13 1025 35 10000 9.8 360 20:57 19.01.2020
4359 Clear 13 1025 37 10000 8.2 360 20:38 19.01.2020
4360 Clear 13 1025 37 10000 8.2 360 20:20 19.01.2020
4361 Clouds 13 1024 42 10000 8.7 360 19:55 19.01.2020
4362 Clouds 13 1024 47 10000 7.7 360 19:37 19.01.2020
4363 Clouds 14 1024 47 10000 7.7 360 19:37 19.01.2020
4364 Clouds 14 1024 47 10000 7.7 360 19:19 19.01.2020
4365 Clouds 14 1024 47 10000 7.7 360 19:19 19.01.2020
4366 Clouds 14 1024 47 10000 7.7 360 19:19 19.01.2020
4367 Clouds 14 1024 47 10000 7.2 360 18:55 19.01.2020
4368 Clouds 15 1024 44 10000 8.7 10 18:37 19.01.2020
4369 Clouds 15 1024 44 10000 8.7 10 18:19 19.01.2020
4370 Clouds 15 1024 54 10000 7.2 360 17:57 19.01.2020
4371 Clouds 16 1024 54 10000 7.2 10 17:39 19.01.2020
4372 Clouds 16 1024 54 10000 7.2 10 17:20 19.01.2020
4373 Clouds 16 1024 51 10000 7.7 10 16:57 19.01.2020
4374 Clouds 16 1024 54 10000 7.7 20 16:38 19.01.2020
4375 Clouds 16 1024 54 10000 7.7 20 16:19 19.01.2020
4376 Clouds 16 1024 55 10000 6.7 10 15:57 19.01.2020
4377 Clouds 16 1024 59 10000 6.2 360 15:37 19.01.2020
4378 Clouds 16 1024 59 10000 6.2 360 15:19 19.01.2020
4379 Clouds 16 1024 58 10000 7.2 360 14:57 19.01.2020
4380 Clouds 16 1024 58 10000 7.2 360 14:38 19.01.2020
4381 Clouds 15 1025 58 10000 6.7 10 14:18 19.01.2020
4382 Clouds 15 1025 62 10000 7.7 360 13:55 19.01.2020
4383 Clouds 15 1026 67 10000 7.2 10 13:37 19.01.2020
4384 Clouds 15 1026 67 10000 7.2 10 13:18 19.01.2020
4385 Clouds 14 1026 71 10000 8.2 350 12:42 19.01.2020
4386 Clouds 14 1026 71 10000 8.2 350 12:23 19.01.2020
4387 Clouds 14 1026 71 10000 8.2 350 11:58 19.01.2020
4388 Clouds 13 1026 71 10000 8.2 350 11:39 19.01.2020
4389 Clouds 13 1026 76 10000 8.2 350 11:20 19.01.2020
4390 Clouds 13 1026 76 10000 8.2 350 10:55 19.01.2020
4391 Clouds 13 1026 76 10000 7.7 340 10:37 19.01.2020
4392 Clouds 12 1026 76 10000 7.7 340 10:18 19.01.2020
4393 Clouds 12 1026 76 10000 7.7 340 10:18 19.01.2020
4394 Clouds 12 1025 76 10000 6.2 360 09:44 19.01.2020
4395 Clouds 12 1025 76 10000 4.1 320 09:25 19.01.2020
4396 Clouds 12 1025 81 10000 2.6 310 08:58 19.01.2020
4397 Clouds 12 1025 81 10000 3.6 330 08:39 19.01.2020
4398 Clouds 12 1024 76 10000 5.1 350 08:21 19.01.2020
4399 Clouds 12 1025 76 10000 5.1 360 07:42 19.01.2020
4400 Clouds 12 1025 76 10000 3.1 310 07:22 19.01.2020
4401 Clouds 12 1025 76 10000 4.6 320 06:51 19.01.2020
4402 Clouds 12 1025 87 10000 5.7 330 05:41 19.01.2020
4403 Clouds 12 1026 76 10000 2.6 310 02:44 19.01.2020
4404 Clouds 13 1026 76 10000 3.1 320 02:21 19.01.2020
4405 Clouds 13 1027 71 10000 3.6 310 01:25 19.01.2020
4406 Clouds 13 1027 66 10000 3.6 300 00:50 19.01.2020
4407 Clouds 13 1027 82 10000 4.6 330 00:29 19.01.2020
4408 Clouds 13 1027 82 10000 4.6 330 23:58 18.01.2020
4409 Clouds 13 1027 82 10000 5.1 320 23:40 18.01.2020
4410 Clouds 13 1027 82 10000 5.1 320 23:21 18.01.2020
4411 Clouds 14 1027 82 10000 3.1 300 22:55 18.01.2020
4412 Rain 14 1027 82 10000 5.1 300 22:37 18.01.2020
4413 Rain 14 1027 82 10000 5.1 300 22:37 18.01.2020
4414 Rain 14 1027 82 10000 5.1 300 22:19 18.01.2020
4415 Clouds 14 1026 87 10000 4.6 250 21:57 18.01.2020
4416 Clouds 14 1027 87 10000 5.1 260 21:37 18.01.2020
4417 Clouds 14 1027 87 10000 5.1 260 21:37 18.01.2020
4418 Clouds 14 1027 87 10000 5.1 260 21:19 18.01.2020
4419 Clouds 14 1027 87 10000 4.6 290 20:43 18.01.2020
4420 Clouds 14 1027 87 10000 4.6 290 20:21 18.01.2020
4421 Clouds 14 1027 82 10000 4.6 290 19:58 18.01.2020
4422 Clouds 14 1027 82 10000 3.6 290 19:40 18.01.2020
4423 Clouds 14 1027 82 10000 3.6 290 19:22 18.01.2020
4424 Clouds 14 1027 82 10000 3.6 290 18:42 18.01.2020
4425 Clouds 15 1026 77 10000 4.1 280 18:22 18.01.2020
4426 Clouds 15 1026 77 10000 3.6 290 17:55 18.01.2020
4427 Clouds 15 1027 77 10000 5.1 300 17:37 18.01.2020
4428 Clouds 16 1027 77 10000 5.1 300 17:19 18.01.2020
4429 Clouds 16 1027 77 10000 4.1 290 16:55 18.01.2020
4430 Clouds 16 1027 77 10000 5.7 300 16:36 18.01.2020
4431 Clouds 16 1027 77 10000 5.7 300 16:18 18.01.2020
4432 Clouds 16 1027 77 10000 5.1 300 15:41 18.01.2020
4433 Clouds 16 1027 77 10000 7.2 310 15:23 18.01.2020
4434 Clouds 16 1027 82 10000 5.7 280 14:57 18.01.2020
4435 Clouds 16 1027 82 10000 5.7 280 14:38 18.01.2020
4436 Clouds 17 1027 77 10000 4.6 280 14:18 18.01.2020
4437 Clouds 16 1027 82 10000 5.1 280 13:43 18.01.2020
4438 Clouds 16 1028 87 10000 4.1 300 13:24 18.01.2020
4439 Clouds 16 1028 82 10000 5.1 300 12:57 18.01.2020
4440 Clouds 16 1028 82 10000 5.1 300 12:38 18.01.2020
4441 Clouds 16 1028 82 10000 4.6 290 12:20 18.01.2020
4442 Clouds 16 1028 82 10000 4.6 290 11:44 18.01.2020
4443 Clouds 16 1028 88 10000 4.6 280 11:21 18.01.2020
4444 Drizzle 16 1027 100 10000 5.1 270 10:57 18.01.2020
4445 Drizzle 16 1027 100 4000 5.1 250 10:38 18.01.2020
4446 Drizzle 16 1027 100 4000 5.1 250 10:19 18.01.2020
4447 Clouds 16 1027 100 4000 5.7 240 09:43 18.01.2020
4448 Drizzle 16 1026 100 4000 6.7 240 09:24 18.01.2020
4449 Drizzle 16 1026 100 2000 5.7 240 08:55 18.01.2020
4450 Drizzle 16 1026 100 3500 6.7 240 08:37 18.01.2020
4451 Drizzle 16 1026 100 3500 6.7 240 08:19 18.01.2020
4452 Rain 16 1025 100 2500 6.7 240 07:45 18.01.2020
4453 Rain 16 1025 100 3000 8.2 230 07:26 18.01.2020
4454 Rain 16 1025 100 2500 9.3 220 06:47 18.01.2020
4455 Rain 16 1025 100 2500 9.3 220 06:47 18.01.2020
4456 Rain 15 1026 100 4000 9.8 210 05:59 18.01.2020
4457 Rain 15 1026 100 3000 8.2 200 05:19 18.01.2020
4458 Drizzle 14 1028 93 10000 6.2 180 02:53 18.01.2020
4459 Drizzle 14 1028 93 10000 6.2 180 02:53 18.01.2020
4460 Clouds 14 1029 93 10000 3.1 150 01:51 18.01.2020
4461 Clouds 14 1030 100 9000 2.1 140 01:29 18.01.2020
4462 Rain 13 1031 100 9000 1 0 00:36 18.01.2020
4463 Rain 14 1031 100 9000 1 0 00:18 18.01.2020
4464 Clouds 14 1031 100 10000 0.5 0 23:40 17.01.2020
4465 Clouds 14 1031 100 10000 0.5 0 23:19 17.01.2020
4466 Clouds 14 1031 100 10000 1 0 22:44 17.01.2020
4467 Clouds 14 1032 93 10000 1 0 22:21 17.01.2020
4468 Clouds 14 1031 100 10000 1.5 140 21:58 17.01.2020
4469 Clouds 14 1031 100 10000 2.1 110 21:40 17.01.2020
4470 Clouds 13 1031 100 10000 2.1 110 21:22 17.01.2020
4471 Clouds 14 1031 100 10000 2.1 120 20:57 17.01.2020
4472 Clouds 14 1031 100 10000 1.5 130 20:38 17.01.2020
4473 Clouds 14 1031 100 10000 1.5 130 20:20 17.01.2020
4474 Clouds 14 1031 93 10000 2.1 110 19:55 17.01.2020
4475 Clouds 14 1031 93 10000 1.5 130 19:37 17.01.2020
4476 Clouds 14 1031 93 10000 1.5 130 19:18 17.01.2020
4477 Clouds 14 1031 93 10000 2.1 0 18:47 17.01.2020
4478 Clouds 15 1031 93 10000 2.6 0 18:28 17.01.2020
4479 Clouds 15 1031 93 10000 2.6 130 17:58 17.01.2020
4480 Clouds 15 1031 93 10000 2.6 130 17:39 17.01.2020
4481 Clouds 15 1031 87 10000 3.1 100 17:20 17.01.2020
4482 Clouds 15 1031 87 10000 2.6 100 16:43 17.01.2020
4483 Clouds 15 1031 87 10000 3.1 100 16:21 17.01.2020
4484 Clouds 15 1031 82 10000 2.6 70 15:55 17.01.2020
4485 Fog 15 1031 93 10000 3.1 60 15:37 17.01.2020
4486 Fog 15 1031 93 10000 3.1 60 15:19 17.01.2020
4487 Fog 15 1032 100 9000 1.5 90 14:43 17.01.2020
4488 Fog 15 1032 100 10000 2.6 60 14:23 17.01.2020
4489 Fog 15 1032 100 10000 2.1 90 13:42 17.01.2020
4490 Fog 15 1032 100 10000 1.5 0 13:23 17.01.2020
4491 Fog 14 1032 100 9000 2.1 80 12:47 17.01.2020
4492 Mist 14 1033 100 1200 1 0 12:23 17.01.2020
4493 Fog 13 1033 100 300 1.5 100 11:43 17.01.2020
4494 Fog 13 1032 100 7000 2.1 100 11:20 17.01.2020
4495 Fog 12 1032 100 10000 1.5 60 10:57 17.01.2020
4496 Fog 12 1032 100 10000 1.5 360 10:39 17.01.2020
4497 Fog 12 1032 100 10000 1.5 360 10:20 17.01.2020
4498 Fog 11 1031 100 10000 1.5 220 09:44 17.01.2020
4499 Fog 11 1031 100 10000 1.5 300 09:21 17.01.2020
4500 Fog 12 1031 100 10000 2.1 280 08:58 17.01.2020
4501 Fog 12 1031 100 10000 1.5 270 08:40 17.01.2020
4502 Fog 12 1031 100 10000 1.5 270 08:21 17.01.2020
4503 Clouds 12 1030 100 10000 2.1 270 07:48 17.01.2020
4504 Clouds 12 1030 100 10000 2.6 260 07:29 17.01.2020
4505 Clouds 12 1029 100 10000 2.6 260 06:56 17.01.2020
4506 Fog 12 1029 100 7000 2.6 240 06:36 17.01.2020
4507 Fog 12 1029 100 500 2.6 270 05:19 17.01.2020
4508 Clouds 13 1028 94 0 1.57 276 03:38 17.01.2020
4509 Clouds 12 1028 95 0 1.79 230 02:42 17.01.2020
4510 Clouds 13 1028 94 0 2.68 276 01:45 17.01.2020
4511 Clouds 13 1028 94 0 1.34 244 01:27 17.01.2020
4512 Clouds 13 1027 94 0 1.68 260 00:40 17.01.2020
4513 Clouds 13 1027 100 10000 1.5 240 00:19 17.01.2020
4514 Clouds 13 1027 100 10000 1.5 240 23:41 16.01.2020
4515 Clouds 13 1027 100 10000 1.5 240 23:22 16.01.2020
4516 Clouds 13 1026 100 10000 1.5 260 22:42 16.01.2020
4517 Clouds 13 1026 100 10000 2.1 240 22:22 16.01.2020
4518 Clouds 13 1026 100 10000 2.1 240 22:22 16.01.2020
4519 Clouds 14 1025 93 10000 1.5 270 21:57 16.01.2020
4520 Clouds 14 1025 93 10000 1.5 270 21:38 16.01.2020
4521 Clouds 13 1025 100 10000 2.1 250 21:19 16.01.2020
4522 Clouds 13 1025 100 10000 2.1 250 20:58 16.01.2020
4523 Clouds 13 1025 93 10000 3.1 220 20:39 16.01.2020
4524 Clouds 13 1025 93 10000 3.1 220 20:19 16.01.2020
4525 Clouds 14 1024 93 10000 4.6 230 19:56 16.01.2020
4526 Clouds 13 1024 93 10000 4.1 240 19:38 16.01.2020
4527 Clouds 14 1024 93 10000 4.1 240 19:19 16.01.2020
4528 Rain 14 1023 100 10000 8.2 240 18:55 16.01.2020
4529 Rain 14 1022 93 8000 10.3 200 18:37 16.01.2020
4530 Rain 14 1022 93 8000 10.3 200 18:18 16.01.2020
4531 Drizzle 15 1022 93 4000 10.3 200 17:42 16.01.2020
4532 Rain 15 1022 93 10000 9.8 200 17:23 16.01.2020
4533 Clouds 16 1022 82 10000 12.3 190 16:57 16.01.2020
4534 Clouds 16 1022 82 10000 12.3 190 16:39 16.01.2020
4535 Clouds 16 1022 82 10000 12.3 190 16:19 16.01.2020
4536 Clouds 16 1022 77 10000 12.3 190 15:44 16.01.2020
4537 Clouds 16 1022 77 10000 11.3 190 15:23 16.01.2020
4538 Clouds 17 1023 77 10000 12.9 190 14:57 16.01.2020
4539 Clouds 17 1023 77 10000 12.9 190 14:57 16.01.2020
4540 Clouds 16 1023 82 10000 11.3 190 14:39 16.01.2020
4541 Clouds 16 1023 82 10000 11.3 190 14:20 16.01.2020
4542 Clouds 16 1024 82 10000 10.8 190 13:45 16.01.2020
4543 Clouds 16 1024 82 10000 9.3 190 13:26 16.01.2020
4544 Clouds 16 1024 82 10000 10.3 180 12:47 16.01.2020
4545 Clouds 16 1024 82 10000 9.3 190 12:29 16.01.2020
4546 Clouds 16 1025 82 10000 7.7 180 11:59 16.01.2020
4547 Clouds 16 1025 82 10000 7.7 180 11:41 16.01.2020
4548 Clouds 16 1025 82 10000 7.7 180 11:41 16.01.2020
4549 Clouds 15 1025 87 10000 7.7 180 11:23 16.01.2020
4550 Clouds 15 1024 87 10000 7.2 170 10:55 16.01.2020
4551 Clouds 15 1024 87 10000 6.7 170 10:37 16.01.2020
4552 Clouds 15 1024 87 10000 6.7 170 10:18 16.01.2020
4553 Clouds 15 1024 87 10000 6.7 170 09:42 16.01.2020
4554 Clouds 15 1024 93 10000 6.2 170 09:24 16.01.2020
4555 Clouds 15 1023 87 10000 6.7 170 08:58 16.01.2020
4556 Clouds 15 1023 87 10000 6.7 170 08:39 16.01.2020
4557 Clouds 15 1023 93 10000 7.7 180 08:18 16.01.2020
4558 Clouds 15 1023 93 10000 7.7 170 07:42 16.01.2020
4559 Clouds 15 1023 93 10000 6.7 170 07:23 16.01.2020
4560 Clouds 15 1023 93 10000 6.7 170 07:23 16.01.2020
4561 Clouds 15 1023 93 10000 6.7 180 06:52 16.01.2020
4562 Clouds 15 1023 93 10000 6.7 180 06:34 16.01.2020
4563 Clouds 15 1023 93 10000 6.7 190 05:49 16.01.2020
4564 Clouds 15 1024 93 10000 7.7 190 04:50 16.01.2020
4565 Clouds 15 1024 93 10000 8.7 190 03:57 16.01.2020
4566 Clouds 15 1023 87 10000 7.7 190 02:47 16.01.2020
4567 Clouds 15 1023 93 0 8.2 190 01:34 16.01.2020
4568 Clouds 15 1024 93 10000 8.2 190 00:43 16.01.2020
4569 Clouds 15 1024 93 10000 7.2 190 00:23 16.01.2020
4570 Clouds 15 1024 93 10000 7.2 190 23:44 15.01.2020
4571 Clouds 15 1023 93 10000 5.7 180 23:22 15.01.2020
4572 Clouds 15 1023 93 10000 5.7 170 22:56 15.01.2020
4573 Clouds 15 1023 93 10000 6.7 190 22:38 15.01.2020
4574 Clouds 16 1023 93 10000 6.7 190 22:18 15.01.2020
4575 Clouds 16 1023 93 10000 7.2 200 21:56 15.01.2020
4576 Clouds 16 1023 93 10000 6.7 190 21:37 15.01.2020
4577 Clouds 16 1023 93 10000 6.7 190 21:37 15.01.2020
4578 Clouds 16 1023 93 10000 6.7 190 21:18 15.01.2020
4579 Clouds 16 1023 93 10000 7.7 190 20:55 15.01.2020
4580 Clouds 16 1023 93 10000 6.7 190 20:37 15.01.2020
4581 Clouds 16 1023 93 10000 6.7 190 20:18 15.01.2020
4582 Clouds 16 1022 93 10000 8.2 190 19:54 15.01.2020
4583 Clouds 16 1022 93 10000 8.2 200 19:36 15.01.2020
4584 Clouds 16 1022 93 10000 8.2 200 19:18 15.01.2020
4585 Clouds 16 1022 93 10000 8.7 190 18:55 15.01.2020
4586 Clouds 16 1022 93 10000 6.7 200 18:37 15.01.2020
4587 Clouds 16 1022 93 10000 6.7 200 18:19 15.01.2020
4588 Clouds 16 1022 93 10000 7.7 200 17:42 15.01.2020
4589 Clouds 17 1021 88 10000 9.3 200 17:23 15.01.2020
4590 Clouds 17 1021 88 10000 8.7 200 16:59 15.01.2020
4591 Clouds 17 1021 88 10000 8.7 200 16:39 15.01.2020
4592 Clouds 17 1021 88 10000 9.3 200 16:21 15.01.2020
4593 Clouds 17 1021 88 10000 9.3 200 16:21 15.01.2020
4594 Clouds 17 1021 88 10000 9.3 200 15:56 15.01.2020
4595 Rain 17 1021 88 10000 9.3 200 15:38 15.01.2020
4596 Rain 17 1021 88 10000 9.3 200 15:18 15.01.2020
4597 Clouds 17 1021 88 10000 7.7 210 14:42 15.01.2020
4598 Clouds 17 1021 88 10000 8.7 210 14:19 15.01.2020
4599 Clouds 16 1021 93 10000 9.3 200 13:46 15.01.2020
4600 Clouds 16 1022 93 10000 7.7 200 13:26 15.01.2020
4601 Rain 16 1022 93 10000 8.2 200 12:59 15.01.2020
4602 Rain 16 1022 93 10000 8.2 200 12:39 15.01.2020
4603 Rain 16 1022 93 10000 8.2 210 12:19 15.01.2020
4604 Rain 16 1022 93 10000 8.2 210 12:19 15.01.2020
4605 Clouds 16 1021 93 10000 8.7 210 11:56 15.01.2020
4606 Clouds 16 1021 93 10000 8.2 210 11:37 15.01.2020
4607 Clouds 15 1021 93 10000 8.2 210 11:19 15.01.2020
4608 Clouds 15 1020 93 10000 8.2 200 10:43 15.01.2020
4609 Rain 15 1020 93 7000 8.2 200 10:25 15.01.2020
4610 Clouds 15 1020 93 7000 9.3 200 09:45 15.01.2020
4611 Clouds 15 1019 93 8000 9.3 200 09:26 15.01.2020
4612 Clouds 15 1019 93 10000 8.7 200 08:59 15.01.2020
4613 Clouds 15 1019 93 10000 8.7 200 08:41 15.01.2020
4614 Clouds 15 1019 87 10000 8.7 200 08:22 15.01.2020
4615 Clouds 15 1019 87 10000 8.7 200 07:52 15.01.2020
4616 Clouds 15 1018 93 10000 7.2 200 07:32 15.01.2020
4617 Clouds 15 1018 93 10000 8.2 200 06:46 15.01.2020
4618 Clouds 15 1018 93 10000 8.2 200 06:20 15.01.2020
4619 Clouds 15 1018 93 10000 7.7 190 04:44 15.01.2020
4620 Clouds 15 1018 87 10000 9.3 190 02:39 15.01.2020
4621 Clouds 15 1018 87 10000 9.3 180 01:28 15.01.2020
4622 Clouds 15 1019 87 10000 8.2 180 00:59 15.01.2020
4623 Clouds 15 1019 87 10000 8.2 180 00:36 15.01.2020
4624 Clouds 15 1019 87 10000 8.2 180 00:18 15.01.2020
4625 Clouds 15 1019 87 10000 8.7 180 23:45 14.01.2020
4626 Clouds 15 1019 82 10000 9.8 180 23:24 14.01.2020
4627 Clouds 15 1019 87 10000 10.3 180 22:41 14.01.2020
4628 Clouds 15 1019 87 10000 9.8 180 22:20 14.01.2020
4629 Clouds 15 1019 82 10000 10.3 190 21:59 14.01.2020
4630 Clouds 15 1019 82 10000 9.8 190 21:41 14.01.2020
4631 Clouds 15 1019 82 10000 9.8 190 21:23 14.01.2020
4632 Clouds 15 1019 82 10000 8.7 190 20:59 14.01.2020
4633 Clouds 15 1019 82 10000 10.8 190 20:41 14.01.2020
4634 Clouds 15 1019 82 10000 10.8 190 20:21 14.01.2020
4635 Clouds 15 1019 82 10000 10.8 190 19:56 14.01.2020
4636 Rain 15 1019 87 10000 10.3 200 19:38 14.01.2020
4637 Rain 15 1019 87 10000 10.3 200 19:19 14.01.2020
4638 Rain 15 1019 87 10000 9.3 200 18:56 14.01.2020
4639 Clouds 15 1018 87 10000 10.3 190 18:38 14.01.2020
4640 Clouds 15 1018 87 10000 10.3 190 18:38 14.01.2020
4641 Clouds 15 1018 87 10000 10.3 190 18:19 14.01.2020
4642 Rain 15 1019 87 10000 9.3 200 17:39 14.01.2020
4643 Rain 15 1019 87 10000 9.3 200 17:19 14.01.2020
4644 Rain 15 1019 87 10000 9.3 190 16:57 14.01.2020
4645 Rain 15 1018 87 10000 8.7 190 16:38 14.01.2020
4646 Rain 15 1018 87 10000 8.7 190 16:20 14.01.2020
4647 Clouds 15 1018 100 10000 7.7 190 15:55 14.01.2020
4648 Rain 14 1019 100 10000 3.6 110 15:37 14.01.2020
4649 Rain 14 1019 100 10000 3.6 110 15:18 14.01.2020
4650 Clouds 14 1020 100 10000 4.6 190 14:43 14.01.2020
4651 Clouds 14 1020 100 10000 4.6 190 14:20 14.01.2020
4652 Drizzle 14 1020 93 2200 5.1 180 13:43 14.01.2020
4653 Clouds 14 1021 87 10000 2.1 80 13:20 14.01.2020
4654 Clouds 14 1021 93 10000 1 0 12:59 14.01.2020
4655 Drizzle 14 1021 93 8000 2.1 50 12:40 14.01.2020
4656 Drizzle 14 1021 93 8000 2.1 50 12:20 14.01.2020
4657 Clouds 13 1022 100 9000 1.5 0 11:42 14.01.2020
4658 Clouds 13 1022 93 9000 1.5 40 11:23 14.01.2020
4659 Clouds 13 1022 93 9000 1.5 40 11:23 14.01.2020
4660 Clouds 12 1022 93 10000 1.5 40 10:58 14.01.2020
4661 Clouds 12 1022 93 10000 1.5 40 10:39 14.01.2020
4662 Clouds 11 1021 73 10000 2.1 40 10:19 14.01.2020
4663 Clouds 12 1021 73 10000 1.5 10 09:57 14.01.2020
4664 Clouds 11 1021 73 10000 1.5 10 09:39 14.01.2020
4665 Clouds 11 1021 100 10000 1.5 350 09:20 14.01.2020
4666 Clouds 11 1021 100 10000 1.5 50 08:44 14.01.2020
4667 Clouds 11 1021 100 10000 1.5 30 08:23 14.01.2020
4668 Clouds 11 1021 100 10000 1 360 07:53 14.01.2020
4669 Clouds 11 1021 100 10000 1.5 340 07:31 14.01.2020
4670 Clouds 11 1021 100 10000 1.5 30 06:51 14.01.2020
4671 Clouds 11 1021 100 10000 2.1 20 06:23 14.01.2020
4672 Clouds 12 1021 93 10000 1.5 30 05:21 14.01.2020
4673 Clouds 12 1022 93 10000 1 0 03:51 14.01.2020
4674 Clouds 12 1022 93 10000 1 0 03:51 14.01.2020
4675 Clouds 12 1022 93 10000 1 20 02:42 14.01.2020
4676 Clouds 12 1023 93 10000 1 360 01:53 14.01.2020
4677 Clouds 13 1023 87 10000 1.5 0 00:51 14.01.2020
4678 Clouds 12 1023 93 10000 2.6 90 00:32 14.01.2020
4679 Clouds 13 1023 87 10000 2.1 50 23:54 13.01.2020
4680 Clouds 13 1023 87 10000 2.1 50 23:54 13.01.2020
4681 Clouds 12 1024 87 10000 2.1 110 23:36 13.01.2020
4682 Clouds 12 1024 87 10000 2.1 110 23:18 13.01.2020
4683 Clouds 12 1024 81 10000 1 0 22:41 13.01.2020
4684 Clouds 12 1024 81 10000 1.5 120 22:21 13.01.2020
4685 Clouds 12 1024 81 10000 1.5 200 21:56 13.01.2020
4686 Clouds 12 1024 76 10000 2.1 150 21:38 13.01.2020
4687 Clouds 12 1024 76 10000 2.1 150 21:19 13.01.2020
4688 Clouds 12 1024 76 10000 2.1 140 20:58 13.01.2020
4689 Clouds 12 1024 76 10000 2.1 140 20:40 13.01.2020
4690 Clouds 12 1024 76 10000 2.6 160 20:22 13.01.2020
4691 Clouds 12 1024 76 10000 2.6 150 19:58 13.01.2020
4692 Clouds 12 1024 76 10000 2.6 150 19:58 13.01.2020
4693 Clouds 12 1024 76 10000 2.6 150 19:39 13.01.2020
4694 Clouds 12 1024 76 10000 2.1 140 19:19 13.01.2020
4695 Clouds 12 1024 76 10000 2.1 130 18:56 13.01.2020
4696 Clouds 13 1024 71 10000 2.6 140 18:37 13.01.2020
4697 Clouds 13 1024 71 10000 2.6 140 18:18 13.01.2020
4698 Clouds 13 1024 71 10000 1.5 160 17:42 13.01.2020
4699 Clouds 13 1024 76 10000 3.1 160 17:24 13.01.2020
4700 Clouds 13 1024 76 10000 3.1 160 17:24 13.01.2020
4701 Clouds 13 1024 76 10000 2.1 130 16:57 13.01.2020
4702 Clouds 14 1024 78 0 1.34 190 16:38 13.01.2020
4703 Clouds 13 1024 80 0 0.45 155 16:20 13.01.2020
4704 Clouds 13 1024 87 0 0.89 159 15:44 13.01.2020
4705 Clouds 14 1025 69 0 3.61 174 15:24 13.01.2020
4706 Clouds 13 1025 69 0 3.61 174 14:59 13.01.2020
4707 Clouds 13 1025 68 0 3.61 174 14:38 13.01.2020
4708 Clouds 12 1025 97 0 0.89 101 14:20 13.01.2020
4709 Clouds 11 1026 69 0 1.59 105 13:55 13.01.2020
4710 Clouds 11 1027 78 0 0.89 89 13:37 13.01.2020
4711 Clouds 11 1026 97 0 0.89 92 13:19 13.01.2020
4712 Clouds 12 1027 93 10000 1.5 70 12:43 13.01.2020
4713 Fog 8 1028 100 400 0.5 0 12:23 13.01.2020
4714 Fog 8 1028 100 400 0.5 0 11:57 13.01.2020
4715 -273 0 0 0 0 0 11:37 13.01.2020
4716 Fog 8 1028 100 200 1.5 50 11:37 13.01.2020
4717 Fog 8 1028 100 200 1.5 50 11:19 13.01.2020
4718 Fog 6 1027 100 150 1.5 60 10:56 13.01.2020
4719 Fog 6 1027 100 150 1.5 0 10:37 13.01.2020
4720 Fog 6 1027 100 150 1.5 0 10:19 13.01.2020
4721 Fog 5 1027 100 150 1.5 80 09:44 13.01.2020
4722 Fog 6 1027 100 400 1.5 10 09:24 13.01.2020
4723 Fog 5 1026 100 400 0.5 0 08:57 13.01.2020
4724 Fog 5 1026 100 400 0.5 0 08:57 13.01.2020
4725 Fog 5 1026 100 800 0.81 115 08:37 13.01.2020
4726 Fog 4 1026 100 800 1.34 109 08:18 13.01.2020
4727 Fog 5 1026 100 150 1.34 109 07:43 13.01.2020
4728 Fog 5 1026 100 150 1.34 109 07:24 13.01.2020
4729 Fog 4 1026 100 150 1.34 109 06:37 13.01.2020
4730 Fog 5 1027 100 150 1.34 109 05:42 13.01.2020
4731 Fog 6 1027 100 150 1.23 67 05:19 13.01.2020
4732 Clouds 8 1027 93 10000 1.23 67 03:44 13.01.2020
4733 Clouds 7 1028 87 10000 1 0 02:51 13.01.2020
4734 Clouds 8 1028 81 10000 3.1 310 02:30 13.01.2020
4735 Clouds 8 1029 81 10000 3.1 310 01:33 13.01.2020
4736 Clouds 8 1029 81 10000 3.1 310 00:48 13.01.2020
4737 Clouds 9 1029 81 10000 2.6 310 00:26 13.01.2020
4738 Clouds 9 1029 81 10000 2.6 300 23:59 12.01.2020
4739 Clouds 9 1029 81 10000 2.6 300 23:40 12.01.2020
4740 Clouds 9 1029 81 10000 3.1 310 23:22 12.01.2020
4741 Clouds 9 1029 81 10000 3.1 320 22:56 12.01.2020
4742 Clouds 9 1030 81 10000 2.6 310 22:37 12.01.2020
4743 Clouds 9 1030 81 10000 2.6 310 22:19 12.01.2020
4744 Clouds 9 1030 76 10000 1 0 21:54 12.01.2020
4745 Clouds 10 1030 76 10000 3.1 320 21:36 12.01.2020
4746 Clouds 10 1030 76 10000 3.1 320 21:18 12.01.2020
4747 Clouds 10 1030 75 10000 1.5 280 20:54 12.01.2020
4748 Clouds 10 1030 75 10000 1 280 20:36 12.01.2020
4749 Clear 10 1030 75 10000 1 280 20:18 12.01.2020
4750 Clouds 10 1030 75 10000 1 210 19:54 12.01.2020
4751 Clouds 11 1030 71 10000 1 0 19:36 12.01.2020
4752 Clouds 11 1030 71 10000 1 0 19:18 12.01.2020
4753 Clouds 11 1030 71 10000 1 0 19:18 12.01.2020
4754 Clouds 12 1029 62 10000 1.5 0 18:54 12.01.2020
4755 Clouds 13 1029 54 10000 1.5 80 18:36 12.01.2020
4756 Clouds 13 1029 54 10000 1.5 80 18:18 12.01.2020
4757 Clouds 13 1029 54 10000 1 0 17:42 12.01.2020
4758 Clear 14 1029 58 10000 2.6 70 17:20 12.01.2020
4759 Clear 14 1029 54 10000 3.1 70 16:57 12.01.2020
4760 Clear 14 1029 54 10000 2.6 0 16:38 12.01.2020
4761 Clear 14 1029 54 10000 2.6 0 16:19 12.01.2020
4762 Clear 14 1030 58 10000 2.6 60 15:43 12.01.2020
4763 Clear 14 1030 66 10000 2.1 100 15:25 12.01.2020
4764 Clear 14 1031 71 10000 2.1 70 14:59 12.01.2020
4765 Clear 14 1031 71 10000 2.1 70 14:41 12.01.2020
4766 Clear 13 1031 71 10000 2.1 0 14:21 12.01.2020
4767 Clear 13 1032 71 10000 2.6 80 13:56 12.01.2020
4768 Clear 13 1032 71 10000 2.6 60 13:38 12.01.2020
4769 Clear 13 1032 71 10000 2.6 60 13:20 12.01.2020
4770 Clear 12 1033 76 10000 2.6 60 12:43 12.01.2020
4771 Clear 11 1033 81 10000 2.1 70 12:21 12.01.2020
4772 Clear 11 1033 81 10000 2.6 60 11:59 12.01.2020
4773 Clouds 10 1032 87 10000 2.1 50 11:40 12.01.2020
4774 Clouds 9 1032 87 10000 2.1 50 11:21 12.01.2020
4775 Clouds 8 1032 93 10000 1.5 70 10:56 12.01.2020
4776 Clouds 8 1032 100 10000 1 80 10:37 12.01.2020
4777 Clouds 7 1032 100 10000 1 80 10:18 12.01.2020
4778 Clouds 6 1032 100 10000 1 0 09:41 12.01.2020
4779 Clouds 5 1032 100 10000 1.5 10 09:21 12.01.2020
4780 Fog 5 1031 100 6000 1.5 10 08:47 12.01.2020
4781 Clear 5 1031 93 10000 1 0 08:21 12.01.2020
4782 Clear 5 1031 86 10000 1.5 50 07:46 12.01.2020
4783 Clear 5 1031 93 10000 1 70 07:25 12.01.2020
4784 Clear 5 1031 86 10000 1.5 340 06:50 12.01.2020
4785 Clear 5 1031 86 10000 1 320 06:32 12.01.2020
4786 Clear 6 1031 86 10000 1 50 05:50 12.01.2020
4787 Clear 7 1031 86 10000 1 0 04:54 12.01.2020
4788 Clear 7 1031 80 10000 1 340 03:35 12.01.2020
4789 Clear 8 1031 75 10000 1 10 02:43 12.01.2020
4790 Clear 8 1031 65 10000 1.5 330 02:24 12.01.2020
4791 Clear 9 1032 66 10000 2.1 330 01:31 12.01.2020
4792 Clear 9 1032 66 10000 2.1 330 00:46 12.01.2020
4793 Clear 9 1032 66 10000 2.6 350 00:22 12.01.2020
4794 Clear 9 1031 66 10000 3.1 340 23:56 11.01.2020
4795 Clear 9 1031 66 10000 2.6 340 23:38 11.01.2020
4796 Clear 9 1031 66 10000 2.6 340 23:18 11.01.2020
4797 Clear 9 1031 70 10000 2.1 320 22:56 11.01.2020
4798 Clear 9 1031 70 10000 1.5 310 22:37 11.01.2020
4799 Clear 9 1031 70 10000 1.5 310 22:19 11.01.2020
4800 Clear 10 1031 66 10000 1 0 21:44 11.01.2020
4801 Clear 10 1031 66 10000 2.6 320 21:19 11.01.2020
4802 Clear 10 1031 66 10000 2.6 320 21:19 11.01.2020
4803 Clear 11 1031 62 10000 2.6 320 20:56 11.01.2020
4804 Clear 11 1031 58 10000 2.6 310 20:38 11.01.2020
4805 Clear 11 1031 58 10000 2.6 310 20:19 11.01.2020
4806 Clear 11 1031 66 10000 1.5 330 19:56 11.01.2020
4807 Clear 12 1031 62 10000 2.1 350 19:38 11.01.2020
4808 Clear 12 1031 62 10000 2.1 350 19:20 11.01.2020
4809 Clear 13 1030 58 10000 2.6 20 18:55 11.01.2020
4810 Clear 13 1030 58 10000 3.1 20 18:36 11.01.2020
4811 Clear 14 1030 58 10000 3.1 20 18:18 11.01.2020
4812 Clear 14 1030 58 10000 3.1 20 18:18 11.01.2020
4813 Clear 14 1030 58 10000 3.1 20 18:18 11.01.2020
4814 Clear 14 1030 54 10000 3.6 30 17:56 11.01.2020
4815 Clear 14 1030 54 10000 3.6 30 17:56 11.01.2020
4816 Clear 14 1030 54 10000 3.6 40 17:37 11.01.2020
4817 Clear 14 1030 54 10000 3.6 40 17:18 11.01.2020
4818 Clear 15 1030 54 10000 3.1 40 16:43 11.01.2020
4819 Clear 15 1030 54 10000 3.1 60 16:24 11.01.2020
4820 Clear 15 1030 50 10000 3.1 60 15:56 11.01.2020
4821 Clear 15 1030 54 10000 2.6 60 15:37 11.01.2020
4822 Clear 14 1030 54 10000 2.6 60 15:19 11.01.2020
4823 Clear 14 1030 54 10000 2.6 40 14:44 11.01.2020
4824 Clear 13 1031 58 10000 2.1 30 14:24 11.01.2020
4825 Clear 13 1031 62 10000 3.1 40 13:57 11.01.2020
4826 Clear 13 1032 62 10000 3.1 60 13:37 11.01.2020
4827 Clear 12 1032 62 10000 3.1 60 13:19 11.01.2020
4828 Clear 12 1032 61 10000 3.6 50 12:44 11.01.2020
4829 Clear 11 1032 61 10000 3.1 40 12:26 11.01.2020
4830 Clear 10 1032 70 10000 4.1 60 11:56 11.01.2020
4831 Clear 10 1032 70 10000 3.6 70 11:38 11.01.2020
4832 Clear 10 1032 70 10000 3.6 70 11:18 11.01.2020
4833 Clear 10 1032 66 10000 3.1 60 10:44 11.01.2020
4834 Clear 9 1031 70 10000 2.6 20 10:24 11.01.2020
4835 Clear 9 1031 70 10000 2.6 20 10:24 11.01.2020
4836 Clear 8 1031 75 10000 2.1 10 09:43 11.01.2020
4837 Clear 7 1031 80 10000 2.6 20 09:21 11.01.2020
4838 Clear 7 1031 75 10000 2.6 30 08:43 11.01.2020
4839 Clear 8 1031 70 10000 2.6 40 08:24 11.01.2020
4840 Clear 8 1031 75 10000 3.1 30 07:59 11.01.2020
4841 Clear 7 1031 75 10000 3.1 30 07:41 11.01.2020
4842 Clear 7 1031 75 10000 2.1 10 07:22 11.01.2020
4843 Clear 7 1030 75 10000 3.6 40 06:42 11.01.2020
4844 Clear 8 1031 70 10000 3.6 40 05:22 11.01.2020
4845 Clear 9 1031 65 10000 2.6 360 04:38 11.01.2020
4846 Clear 9 1031 65 10000 2.6 360 04:20 11.01.2020
4847 Clear 8 1031 70 10000 2.6 10 02:46 11.01.2020
4848 Clouds 10 1031 70 10000 3.6 350 01:45 11.01.2020
4849 Clouds 9 1031 70 10000 3.1 350 01:25 11.01.2020
4850 Clouds 9 1031 81 10000 2.6 330 00:52 11.01.2020
4851 Clouds 9 1031 81 10000 3.1 340 00:24 11.01.2020
4852 Clouds 9 1031 76 10000 3.1 330 23:58 10.01.2020
4853 Clouds 9 1031 76 10000 3.1 330 23:38 10.01.2020
4854 Clouds 9 1031 76 10000 3.1 330 23:38 10.01.2020
4855 Clouds 9 1031 76 10000 3.1 330 23:20 10.01.2020
4856 Clouds 10 1031 71 10000 4.1 330 22:41 10.01.2020
4857 Clouds 10 1031 71 10000 4.1 330 22:22 10.01.2020
4858 Clouds 10 1030 71 10000 4.6 330 21:59 10.01.2020
4859 Clouds 10 1030 71 10000 4.1 320 21:41 10.01.2020
4860 Clouds 10 1030 71 10000 4.1 320 21:20 10.01.2020
4861 Clouds 10 1030 76 10000 5.1 330 20:57 10.01.2020
4862 Clouds 11 1030 76 10000 4.6 340 20:38 10.01.2020
4863 Clear 11 1030 76 10000 4.6 340 20:20 10.01.2020
4864 Clear 11 1029 71 10000 4.1 340 19:40 10.01.2020
4865 Clear 11 1029 71 10000 4.1 340 19:21 10.01.2020
4866 Clear 12 1029 76 10000 4.6 340 18:56 10.01.2020
4867 Clear 12 1029 66 10000 5.1 340 18:37 10.01.2020
4868 Clear 12 1029 66 10000 5.1 340 18:18 10.01.2020
4869 Clear 13 1029 62 10000 6.2 340 17:56 10.01.2020
4870 Clear 13 1029 58 10000 6.7 340 17:38 10.01.2020
4871 Clear 13 1029 58 10000 6.7 340 17:19 10.01.2020
4872 Clouds 14 1029 54 10000 5.1 10 16:42 10.01.2020
4873 Clouds 14 1029 54 10000 5.1 10 16:21 10.01.2020
4874 Clouds 14 1029 54 10000 6.2 360 15:58 10.01.2020
4875 Clouds 14 1029 54 10000 7.2 360 15:38 10.01.2020
4876 Clouds 14 1029 54 10000 7.2 360 15:20 10.01.2020
4877 Clear 14 1029 50 10000 7.7 350 14:59 10.01.2020
4878 Clear 14 1029 50 10000 7.7 350 14:40 10.01.2020
4879 Clouds 14 1030 58 10000 8.2 350 14:19 10.01.2020
4880 Clouds 13 1030 58 10000 7.7 350 13:57 10.01.2020
4881 Clouds 13 1031 58 10000 9.3 350 13:38 10.01.2020
4882 Clouds 13 1031 58 10000 9.3 350 13:19 10.01.2020
4883 Clouds 13 1032 58 10000 7.2 360 12:56 10.01.2020
4884 Clouds 13 1031 62 10000 5.7 350 12:38 10.01.2020
4885 Clouds 13 1031 62 10000 5.7 350 12:18 10.01.2020
4886 Clouds 12 1031 71 10000 6.7 350 11:42 10.01.2020
4887 Clouds 12 1031 71 10000 6.7 350 11:42 10.01.2020
4888 Clouds 12 1031 71 10000 4.6 360 11:22 10.01.2020
4889 Clouds 11 1031 76 10000 3.1 10 10:59 10.01.2020
4890 Clouds 11 1031 76 10000 5.1 340 10:39 10.01.2020
4891 Clouds 11 1031 76 10000 5.1 340 10:21 10.01.2020
4892 Clouds 10 1031 87 10000 3.6 350 09:56 10.01.2020
4893 Clouds 10 1031 87 10000 2.1 320 09:37 10.01.2020
4894 Clouds 10 1031 87 10000 2.1 320 09:19 10.01.2020
4895 Clouds 10 1031 87 10000 2.1 320 09:19 10.01.2020
4896 Clouds 10 1031 87 10000 2.1 310 08:40 10.01.2020
4897 Clouds 9 1030 87 10000 3.1 320 08:22 10.01.2020
4898 Clouds 10 1030 87 10000 2.6 330 07:44 10.01.2020
4899 Clouds 10 1030 81 10000 2.1 320 07:23 10.01.2020
4900 Clouds 10 1030 87 10000 2.1 320 06:45 10.01.2020
4901 Clouds 10 1030 81 10000 2.1 320 06:25 10.01.2020
4902 Clouds 10 1030 76 10000 2.1 320 05:46 10.01.2020
4903 Clouds 11 1030 81 10000 2.6 340 03:35 10.01.2020
4904 Clouds 11 1030 81 10000 2.1 340 02:59 10.01.2020
4905 Clouds 12 1030 87 10000 2.6 330 02:38 10.01.2020
4906 Clouds 12 1030 87 10000 2.1 310 01:38 10.01.2020
4907 Clouds 12 1030 87 10000 2.1 310 01:19 10.01.2020
4908 Clouds 12 1031 93 10000 1.5 300 00:39 10.01.2020
4909 Clouds 12 1031 87 10000 2.6 320 23:58 09.01.2020
4910 Clouds 12 1030 87 10000 2.6 330 23:38 09.01.2020
4911 Clouds 12 1030 87 10000 2.6 330 23:20 09.01.2020
4912 Clouds 12 1030 87 10000 3.6 350 22:57 09.01.2020
4913 Clouds 12 1030 81 10000 5.7 350 22:38 09.01.2020
4914 Clouds 12 1030 81 10000 5.7 350 22:19 09.01.2020
4915 Clouds 13 1030 87 10000 4.1 350 21:57 09.01.2020
4916 Clouds 13 1029 93 10000 3.1 350 21:37 09.01.2020
4917 Clouds 13 1029 93 10000 3.1 350 21:37 09.01.2020
4918 Clouds 13 1029 93 10000 3.1 350 21:37 09.01.2020
4919 Clouds 13 1029 93 10000 3.1 350 21:37 09.01.2020
4920 Clouds 13 1029 93 10000 3.1 350 21:19 09.01.2020
4921 Clouds 13 1029 93 10000 4.1 340 20:56 09.01.2020
4922 Clouds 13 1029 87 10000 4.1 340 20:38 09.01.2020
4923 Clouds 13 1029 87 10000 4.6 340 20:19 09.01.2020
4924 Clouds 13 1029 87 10000 4.6 340 20:19 09.01.2020
4925 Clouds 13 1029 87 10000 4.6 340 19:56 09.01.2020
4926 Clouds 13 1028 93 10000 5.1 340 19:37 09.01.2020
4927 Clouds 14 1028 87 10000 6.2 330 19:19 09.01.2020
4928 Drizzle 14 1028 100 9000 3.6 300 18:55 09.01.2020
4929 Drizzle 14 1028 100 9000 3.6 300 18:36 09.01.2020
4930 Rain 15 1028 87 10000 3.1 300 18:18 09.01.2020
4931 Rain 15 1028 87 10000 3.1 290 17:41 09.01.2020
4932 Clouds 16 1028 82 10000 3.1 300 17:18 09.01.2020
4933 Clouds 16 1027 77 10000 1.5 280 16:48 09.01.2020
4934 Clouds 16 1028 82 10000 3.1 300 16:23 09.01.2020
4935 Clouds 16 1028 82 10000 3.6 290 15:57 09.01.2020
4936 Clouds 16 1028 82 10000 3.6 290 15:57 09.01.2020
4937 Clouds 16 1028 82 10000 3.6 290 15:39 09.01.2020
4938 Clouds 16 1028 82 10000 3.1 340 15:18 09.01.2020
4939 Clouds 16 1028 82 10000 3.1 320 14:42 09.01.2020
4940 Clouds 15 1029 87 10000 3.1 310 14:22 09.01.2020
4941 Clouds 15 1029 87 10000 3.1 310 13:57 09.01.2020
4942 Clouds 15 1029 87 10000 2.6 300 13:39 09.01.2020
4943 Clouds 15 1029 87 10000 3.1 330 13:20 09.01.2020
4944 Clouds 15 1029 87 10000 3.1 330 12:59 09.01.2020
4945 Clouds 15 1030 93 10000 5.1 340 12:39 09.01.2020
4946 Clouds 15 1030 93 10000 4.6 330 12:19 09.01.2020
4947 Clouds 14 1029 93 10000 1 0 11:56 09.01.2020
4948 Clouds 14 1029 93 10000 1 0 11:37 09.01.2020
4949 Clouds 14 1029 93 10000 1 0 11:19 09.01.2020
4950 Clouds 14 1029 100 10000 1 0 10:43 09.01.2020
4951 Clouds 14 1028 100 10000 1 0 10:22 09.01.2020
4952 Clouds 13 1028 93 10000 2.6 320 09:56 09.01.2020
4953 Clouds 13 1028 93 10000 2.6 320 09:38 09.01.2020
4954 Clouds 13 1028 100 10000 2.1 340 09:18 09.01.2020
4955 Clouds 13 1028 100 10000 2.1 340 08:55 09.01.2020
4956 Clouds 13 1028 100 10000 2.6 300 08:37 09.01.2020
4957 Clouds 13 1028 100 10000 2.6 320 08:19 09.01.2020
4958 Clouds 13 1028 100 10000 2.6 310 07:42 09.01.2020
4959 Clouds 13 1028 87 10000 1 320 07:23 09.01.2020
4960 Clouds 13 1028 93 10000 3.6 330 06:38 09.01.2020
4961 Clouds 13 1028 100 10000 4.6 320 06:19 09.01.2020
4962 Clouds 13 1028 100 10000 5.1 310 05:44 09.01.2020
4963 Clouds 14 1028 100 10000 4.1 310 04:43 09.01.2020
4964 Clouds 13 1028 100 10000 4.1 300 03:31 09.01.2020
4965 Clouds 13 1029 100 10000 3.1 320 02:52 09.01.2020
4966 Clouds 13 1029 100 10000 3.1 340 02:24 09.01.2020
4967 Clouds 13 1029 100 10000 3.6 320 01:38 09.01.2020
4968 Clouds 13 1029 100 10000 2.1 330 00:43 09.01.2020
4969 Clouds 14 1029 100 10000 2.6 350 00:21 09.01.2020
4970 Clouds 14 1029 100 10000 2.6 350 00:21 09.01.2020
4971 Clouds 13 1029 100 10000 3.6 340 23:42 08.01.2020
4972 Clouds 13 1029 93 10000 3.1 330 23:24 08.01.2020
4973 Clouds 14 1029 100 10000 5.1 340 22:59 08.01.2020
4974 Clouds 13 1029 100 10000 5.1 340 22:39 08.01.2020
4975 Clouds 13 1029 100 10000 5.1 330 22:20 08.01.2020
4976 Clouds 13 1029 100 10000 4.1 320 21:57 08.01.2020
4977 Clouds 13 1029 100 10000 4.1 320 21:38 08.01.2020
4978 Clouds 13 1029 100 10000 4.6 320 21:20 08.01.2020
4979 Clouds 13 1029 100 10000 4.6 320 20:58 08.01.2020
4980 Clouds 13 1029 100 10000 4.1 330 20:38 08.01.2020
4981 Clouds 13 1029 100 10000 3.6 330 20:20 08.01.2020
4982 Clouds 13 1029 100 10000 3.6 330 19:56 08.01.2020
4983 Clouds 13 1029 93 10000 3.6 330 19:37 08.01.2020
4984 Clouds 13 1029 93 10000 4.6 340 19:19 08.01.2020
4985 Clouds 13 1029 93 10000 7.2 330 18:55 08.01.2020
4986 Clouds 13 1029 93 10000 7.2 330 18:37 08.01.2020
4987 Clouds 13 1028 87 10000 5.1 330 18:18 08.01.2020
4988 Clouds 14 1028 82 10000 4.6 320 17:48 08.01.2020
4989 Clouds 14 1029 93 10000 7.2 350 17:24 08.01.2020
4990 Clouds 14 1029 93 10000 7.2 350 16:58 08.01.2020
4991 Clouds 14 1028 76 10000 2.1 60 16:39 08.01.2020
4992 Clouds 14 1028 72 10000 4.1 30 16:19 08.01.2020
4993 Clouds 14 1028 72 10000 4.1 30 15:59 08.01.2020
4994 Clouds 14 1029 72 10000 3.1 310 15:40 08.01.2020
4995 Clouds 13 1029 76 10000 4.1 320 15:20 08.01.2020
4996 Clouds 13 1029 76 10000 2.1 50 14:56 08.01.2020
4997 Clouds 14 1029 76 10000 2.1 50 14:38 08.01.2020
4998 Clouds 13 1030 87 10000 2.1 90 14:19 08.01.2020
4999 Clouds 12 1030 87 10000 2.6 40 13:39 08.01.2020
5000 Clouds 12 1031 87 10000 4.1 330 13:19 08.01.2020
5001 Clouds 12 1031 87 10000 3.6 330 12:42 08.01.2020
5002 Clouds 12 1031 87 10000 3.6 340 12:19 08.01.2020
5003 Clouds 11 1031 87 10000 3.1 330 11:55 08.01.2020
5004 Clouds 11 1031 87 10000 3.1 330 11:55 08.01.2020
5005 Clouds 11 1031 87 10000 3.1 330 11:37 08.01.2020
5006 Clouds 10 1031 87 10000 3.1 330 11:18 08.01.2020
5007 Clouds 9 1030 93 10000 3.1 330 10:54 08.01.2020
5008 Clouds 9 1030 93 10000 3.1 330 10:36 08.01.2020
5009 Clouds 9 1030 93 10000 2.1 330 10:18 08.01.2020
5010 Clouds 8 1030 93 9000 2.6 350 09:41 08.01.2020
5011 Clear 8 1030 100 10000 3.1 340 09:19 08.01.2020
5012 Clouds 8 1030 100 10000 2.6 350 08:56 08.01.2020
5013 Clouds 8 1030 100 10000 2.6 350 08:37 08.01.2020
5014 Clouds 7 1030 93 10000 2.6 350 08:18 08.01.2020
5015 Clouds 7 1030 93 10000 4.1 340 07:48 08.01.2020
5016 Clouds 7 1030 93 10000 4.1 340 07:29 08.01.2020
5017 Clear 7 1030 93 10000 5.7 330 06:44 08.01.2020
5018 Clear 7 1030 93 10000 4.1 310 06:19 08.01.2020
5019 Clear 7 1030 87 10000 4.6 310 05:38 08.01.2020
5020 Clear 7 1030 81 10000 3.6 320 04:56 08.01.2020
5021 Clear 7 1030 76 10000 3.1 310 04:24 08.01.2020
5022 Clear 7 1030 81 10000 3.6 320 02:45 08.01.2020
5023 Clear 8 1031 81 10000 3.6 320 02:21 08.01.2020
5024 Clear 8 1031 87 10000 4.6 320 01:42 08.01.2020
5025 Clear 8 1031 87 10000 4.1 310 01:19 08.01.2020
5026 Clear 9 1031 81 10000 4.6 320 00:27 08.01.2020
5027 Clear 8 1031 81 10000 4.6 320 23:55 07.01.2020
5028 Clear 9 1031 76 10000 4.6 320 23:37 07.01.2020
5029 Clear 9 1031 81 10000 4.1 320 23:19 07.01.2020
5030 Clear 9 1031 76 10000 4.1 320 22:40 07.01.2020
5031 Clear 10 1031 76 10000 3.6 320 22:20 07.01.2020
5032 Clear 10 1031 81 10000 4.1 320 21:56 07.01.2020
5033 Clear 10 1031 81 10000 4.1 320 21:38 07.01.2020
5034 Clear 10 1031 81 10000 4.1 320 21:20 07.01.2020
5035 Clear 11 1031 76 10000 4.1 320 20:55 07.01.2020
5036 Clear 11 1031 76 10000 4.1 320 20:36 07.01.2020
5037 Clouds 11 1031 76 10000 2.6 320 20:18 07.01.2020
5038 Clear 11 1031 76 10000 2.6 320 19:38 07.01.2020
5039 Clear 12 1031 76 10000 1.5 10 19:20 07.01.2020
5040 Clear 12 1031 76 10000 1.5 10 18:58 07.01.2020
5041 Clear 13 1031 76 10000 2.1 50 18:40 07.01.2020
5042 Clear 14 1031 71 10000 2.1 70 18:19 07.01.2020
5043 Clear 14 1031 71 10000 2.1 70 17:59 07.01.2020
5044 Clear 14 1031 67 10000 2.1 70 17:39 07.01.2020
5045 Clear 14 1031 62 10000 3.1 90 17:21 07.01.2020
5046 Clear 15 1031 62 10000 3.1 90 16:57 07.01.2020
5047 Clear 15 1031 67 10000 2.6 80 16:38 07.01.2020
5048 Clear 14 1031 62 10000 2.6 50 16:19 07.01.2020
5049 Clear 14 1031 66 10000 2.6 60 15:58 07.01.2020
5050 Clear 14 1031 66 10000 2.6 60 15:39 07.01.2020
5051 Clear 13 1031 66 10000 3.6 60 15:21 07.01.2020
5052 Clear 13 1031 76 10000 3.1 60 14:54 07.01.2020
5053 Clear 13 1031 76 10000 3.1 60 14:36 07.01.2020
5054 Clouds 12 1032 76 10000 3.1 60 14:18 07.01.2020
5055 Clouds 12 1032 81 10000 2.6 60 13:39 07.01.2020
5056 Clouds 11 1033 87 10000 2.6 70 13:19 07.01.2020
5057 Clouds 10 1033 93 10000 2.1 90 12:41 07.01.2020
5058 Clouds 9 1033 87 10000 2.1 80 12:20 07.01.2020
5059 Clouds 9 1033 87 10000 1.5 80 11:55 07.01.2020
5060 Clouds 8 1033 87 10000 1.5 80 11:36 07.01.2020
5061 Clouds 7 1032 93 10000 1 0 11:18 07.01.2020
5062 Clouds 6 1032 93 10000 1.5 80 10:41 07.01.2020
5063 Clouds 6 1032 93 10000 1.5 80 10:41 07.01.2020
5064 Clouds 5 1032 93 10000 1 0 10:23 07.01.2020
5065 Clouds 6 1032 93 10000 1 0 09:58 07.01.2020
5066 Clouds 5 1032 100 10000 1 0 09:38 07.01.2020
5067 Clouds 3 1031 100 10000 2.77 33 09:20 07.01.2020
5068 Clouds 4 1031 100 10000 2.77 33 08:43 07.01.2020
5069 Clear 5 1031 93 10000 0.5 330 08:25 07.01.2020
5070 Clear 5 1031 100 10000 1 340 07:54 07.01.2020
5071 Clouds 5 1031 100 10000 0.5 80 07:28 07.01.2020
5072 Clear 5 1031 100 10000 1 340 07:28 07.01.2020
5073 Clear 5 1031 100 10000 1 340 07:28 07.01.2020
5074 Clear 5 1031 100 10000 1 340 07:28 07.01.2020
5075 Fog 6 1031 100 10000 1 350 06:53 07.01.2020
5076 Fog 6 1031 100 10000 1 350 06:34 07.01.2020
5077 Clear 5 1031 100 10000 1 340 05:55 07.01.2020
5078 Clouds 6 1031 93 10000 2.76 30 04:41 07.01.2020
5079 Clouds 7 1031 87 10000 1.5 0 03:27 07.01.2020
5080 Clear 8 1031 81 10000 1.5 320 02:22 07.01.2020
5081 Clear 8 1031 81 10000 1.5 320 01:54 07.01.2020
5082 Clear 8 1031 81 10000 1.5 320 01:30 07.01.2020
5083 Clear 8 1031 81 10000 3.1 310 00:37 07.01.2020
5084 Clear 8 1031 81 10000 3.1 310 00:19 07.01.2020
5085 Clear 9 1031 76 10000 3.1 310 23:55 06.01.2020
5086 Clear 9 1031 76 10000 3.1 310 23:36 06.01.2020
5087 Clear 9 1031 87 10000 3.1 310 23:18 06.01.2020
5088 Clear 9 1031 81 10000 3.1 310 22:42 06.01.2020
5089 Clear 10 1031 81 10000 3.1 320 22:22 06.01.2020
5090 Clear 10 1030 87 10000 3.1 310 21:56 06.01.2020
5091 Clear 10 1030 87 10000 3.1 310 21:38 06.01.2020
5092 Clear 10 1030 87 10000 2.6 320 21:20 06.01.2020
5093 Clear 10 1030 87 10000 2.6 320 21:20 06.01.2020
5094 Clear 10 1030 81 10000 3.1 320 20:56 06.01.2020
5095 Clear 10 1030 81 10000 3.1 320 20:37 06.01.2020
5096 Clouds 10 1030 87 10000 2.1 320 20:19 06.01.2020
5097 Clouds 11 1030 93 10000 3.1 10 19:56 06.01.2020
5098 Clouds 11 1030 93 10000 3.1 10 19:56 06.01.2020
5099 Clouds 11 1030 87 10000 1.5 350 19:37 06.01.2020
5100 Clouds 12 1029 81 10000 2.1 40 19:19 06.01.2020
5101 Clouds 12 1029 81 10000 2.1 40 19:19 06.01.2020
5102 Clouds 12 1029 76 10000 2.1 50 18:46 06.01.2020
5103 Clouds 13 1029 71 10000 2.1 70 18:21 06.01.2020
5104 Clouds 13 1029 71 10000 2.6 0 17:57 06.01.2020
5105 Clouds 14 1029 67 10000 1.5 10 17:37 06.01.2020
5106 Clouds 14 1029 67 10000 1.5 10 17:18 06.01.2020
5107 Clouds 14 1028 71 10000 2.1 70 16:44 06.01.2020
5108 Clouds 14 1028 71 10000 2.1 70 16:24 06.01.2020
5109 Clouds 14 1028 71 10000 2.1 70 15:59 06.01.2020
5110 Clouds 14 1029 76 10000 2.6 60 15:38 06.01.2020
5111 Clouds 13 1029 71 10000 2.6 70 15:18 06.01.2020
5112 Clouds 13 1029 71 10000 2.6 70 14:56 06.01.2020
5113 Clouds 13 1029 71 10000 2.6 70 14:37 06.01.2020
5114 Clear 13 1030 71 10000 2.1 60 14:18 06.01.2020
5115 Clear 13 1030 71 10000 2.1 60 14:18 06.01.2020
5116 Clear 13 1030 71 10000 2.1 60 14:18 06.01.2020
5117 Clear 12 1030 76 10000 2.1 50 13:41 06.01.2020
5118 Clouds 11 1030 87 10000 2.1 50 13:22 06.01.2020
5119 Clouds 11 1030 93 10000 2.1 70 12:59 06.01.2020
5120 Clouds 11 1030 93 10000 2.1 70 12:41 06.01.2020
5121 Clouds 10 1030 93 10000 1.5 50 12:20 06.01.2020
5122 Clouds 10 1030 93 10000 1.5 50 12:20 06.01.2020
5123 Clouds 10 1030 76 10000 2.1 80 11:55 06.01.2020
5124 Fog 9 1030 87 10000 2.1 90 11:37 06.01.2020
5125 Fog 8 1030 100 10000 1 0 11:19 06.01.2020
5126 Clouds 7 1030 100 10000 0.5 0 10:42 06.01.2020
5127 Clouds 7 1030 100 10000 0.5 0 10:42 06.01.2020
5128 Fog 7 1030 100 10000 1 0 10:21 06.01.2020
5129 Fog 4 1029 100 400 2.67 37 09:42 06.01.2020
5130 Fog 6 1029 100 300 2.67 37 09:24 06.01.2020
5131 Fog 6 1029 100 300 2.67 37 09:24 06.01.2020
5132 Mist 6 1029 100 5000 1 0 08:58 06.01.2020
5133 Fog 5 1029 100 300 2.67 37 08:58 06.01.2020
5134 Mist 6 1029 100 5000 1 0 08:58 06.01.2020
5135 Mist 6 1029 100 5000 1 0 08:39 06.01.2020
5136 Mist 5 1029 100 5000 0.5 0 08:21 06.01.2020
5137 Mist 5 1029 100 5000 0.5 0 08:21 06.01.2020
5138 Mist 5 1029 100 5000 0.5 0 07:46 06.01.2020
5139 Clear 5 1028 100 10000 2.2 21 07:21 06.01.2020
5140 Clear 6 1028 100 10000 2.2 21 06:41 06.01.2020
5141 Clear 6 1028 100 10000 0.5 0 05:51 06.01.2020
5142 Clear 6 1028 100 10000 0.5 0 05:29 06.01.2020
5143 Clear 7 1028 93 10000 1 0 04:25 06.01.2020
5144 Clear 7 1028 93 10000 1 0 03:53 06.01.2020
5145 Clear 8 1028 87 10000 0.5 0 02:32 06.01.2020
5146 Clear 8 1028 93 10000 1 300 01:56 06.01.2020
5147 Clear 7 1028 93 10000 1 300 01:32 06.01.2020
5148 Clear 9 1028 87 10000 0.5 0 00:57 06.01.2020
5149 Clear 9 1028 87 10000 0.5 0 00:39 06.01.2020
5150 Clear 9 1028 87 10000 0.5 290 00:18 06.01.2020
5151 Clear 9 1028 87 10000 0.5 0 23:40 05.01.2020
5152 Clear 9 1028 81 10000 1 0 23:21 05.01.2020
5153 Clear 9 1028 81 10000 1 0 22:54 05.01.2020
5154 Clear 10 1028 81 10000 1 0 22:36 05.01.2020
5155 Clear 10 1028 87 10000 1 0 22:18 05.01.2020
5156 Clear 10 1028 81 10000 1 0 21:41 05.01.2020
5157 Clear 10 1028 81 10000 1 0 21:21 05.01.2020
5158 Clear 10 1028 81 10000 1.5 340 20:58 05.01.2020
5159 Clear 11 1028 81 10000 1.5 340 20:39 05.01.2020
5160 Clear 11 1028 81 10000 1.5 350 20:20 05.01.2020
5161 Clear 11 1028 81 10000 1.5 350 19:59 05.01.2020
5162 Clear 11 1028 81 10000 1.5 350 19:40 05.01.2020
5163 Clear 12 1028 76 10000 1.5 0 19:21 05.01.2020
5164 Clear 12 1028 76 10000 2.1 50 18:56 05.01.2020
5165 Clear 13 1028 76 10000 2.1 50 18:38 05.01.2020
5166 Clear 13 1027 82 10000 2.1 350 18:19 05.01.2020
5167 Clear 13 1027 82 10000 2.1 350 17:59 05.01.2020
5168 Clear 13 1027 71 10000 2.6 50 17:39 05.01.2020
5169 Clear 13 1027 76 10000 2.6 60 17:20 05.01.2020
5170 Clear 13 1027 76 10000 2.6 60 16:57 05.01.2020
5171 Clear 13 1027 71 10000 3.1 60 16:39 05.01.2020
5172 Clear 13 1027 71 10000 3.1 60 16:39 05.01.2020
5173 Clear 13 1027 71 10000 3.1 50 16:20 05.01.2020
5174 Clear 13 1028 76 10000 3.1 40 15:40 05.01.2020
5175 Clear 13 1028 76 10000 3.6 50 15:22 05.01.2020
5176 Clear 13 1028 76 10000 3.6 50 14:57 05.01.2020
5177 Clear 12 1029 71 10000 3.6 40 14:39 05.01.2020
5178 Clear 12 1029 76 10000 3.6 70 14:21 05.01.2020
5179 Clear 12 1029 76 10000 3.6 70 13:58 05.01.2020
5180 Clear 12 1029 76 10000 4.1 70 13:38 05.01.2020
5181 Clear 11 1030 76 10000 4.6 60 13:20 05.01.2020
5182 Clear 11 1030 76 10000 4.6 60 12:57 05.01.2020
5183 Clear 11 1031 76 10000 4.1 60 12:38 05.01.2020
5184 Clear 11 1031 76 10000 4.1 50 12:19 05.01.2020
5185 Clear 10 1031 81 10000 4.1 60 11:54 05.01.2020
5186 Clear 10 1031 81 10000 4.1 60 11:36 05.01.2020
5187 Clear 10 1031 81 10000 3.6 50 11:18 05.01.2020
5188 Clear 9 1030 75 10000 2.6 40 10:41 05.01.2020
5189 Clear 9 1030 87 10000 2.6 30 10:20 05.01.2020
5190 Clear 8 1030 86 10000 2.1 50 09:55 05.01.2020
5191 Clear 7 1030 86 10000 2.1 50 09:36 05.01.2020
5192 Clear 7 1030 86 10000 2.1 50 09:18 05.01.2020
5193 Clear 8 1030 87 10000 2.6 40 08:44 05.01.2020
5194 Clear 8 1030 87 10000 2.6 40 08:21 05.01.2020
5195 Clear 8 1030 81 10000 2.6 30 07:47 05.01.2020
5196 Clear 8 1030 81 10000 2.6 30 07:29 05.01.2020
5197 Clear 7 1030 87 10000 2.6 50 06:55 05.01.2020
5198 Clear 8 1030 81 10000 3.1 30 05:43 05.01.2020
5199 Clear 8 1031 81 10000 3.6 40 04:56 05.01.2020
5200 Clear 8 1031 75 10000 3.6 40 04:19 05.01.2020
5201 Clear 8 1031 81 10000 3.6 30 03:40 05.01.2020
5202 Clear 10 1031 81 10000 3.6 30 02:36 05.01.2020
5203 Clear 10 1031 81 10000 2.6 10 02:18 05.01.2020
5204 Clear 10 1032 81 10000 2.6 20 01:21 05.01.2020
5205 Clear 10 1032 81 10000 2.6 20 00:58 05.01.2020
5206 Clear 10 1032 81 10000 2.1 20 00:39 05.01.2020
5207 Clear 10 1032 81 10000 2.6 360 00:20 05.01.2020
5208 Clear 11 1032 76 10000 2.1 350 23:58 04.01.2020
5209 Clear 11 1032 76 10000 2.1 350 23:38 04.01.2020
5210 Clear 11 1032 76 10000 3.1 20 23:18 04.01.2020
5211 Clouds 11 1032 76 10000 2.6 40 22:39 04.01.2020
5212 Clouds 11 1032 76 10000 3.1 50 22:20 04.01.2020
5213 Clouds 11 1032 76 10000 3.1 50 21:56 04.01.2020
5214 Clouds 11 1032 76 10000 3.1 360 21:37 04.01.2020
5215 Clouds 12 1032 76 10000 2.6 330 21:19 04.01.2020
5216 Clear 12 1031 76 10000 2.6 340 20:56 04.01.2020
5217 Clear 12 1031 76 10000 2.6 340 20:37 04.01.2020
5218 Clear 12 1031 76 10000 2.6 350 20:18 04.01.2020
5219 Clear 13 1031 76 10000 3.1 20 19:41 04.01.2020
5220 Clear 13 1031 76 10000 3.1 20 19:41 04.01.2020
5221 Clear 13 1031 76 10000 3.1 20 19:41 04.01.2020
5222 Clear 13 1031 76 10000 3.6 40 19:23 04.01.2020
5223 Clear 14 1031 71 10000 3.1 50 18:58 04.01.2020
5224 Clear 14 1031 71 10000 3.1 50 18:39 04.01.2020
5225 Clear 15 1031 62 10000 2.6 60 18:20 04.01.2020
5226 Clear 15 1031 62 10000 2.6 60 17:57 04.01.2020
5227 Clear 15 1031 62 10000 2.6 60 17:57 04.01.2020
5228 Clouds 15 1031 62 10000 3.1 60 17:39 04.01.2020
5229 Clouds 15 1031 62 10000 3.1 50 17:21 04.01.2020
5230 Clouds 16 1031 62 10000 2.6 50 16:42 04.01.2020
5231 Clouds 15 1031 62 10000 3.1 40 16:24 04.01.2020
5232 Clouds 15 1031 71 10000 3.6 50 15:57 04.01.2020
5233 Clouds 15 1031 71 10000 3.6 50 15:39 04.01.2020
5234 Clouds 15 1031 71 10000 3.6 50 15:39 04.01.2020
5235 Clouds 15 1032 71 10000 4.1 60 15:19 04.01.2020
5236 Clouds 15 1032 71 10000 4.1 60 14:57 04.01.2020
5237 Clouds 15 1032 76 10000 4.6 60 14:39 04.01.2020
5238 Clouds 14 1033 71 10000 4.1 50 14:19 04.01.2020
5239 Clouds 14 1034 71 10000 5.7 50 13:55 04.01.2020
5240 Clouds 14 1034 71 10000 5.7 50 13:37 04.01.2020
5241 Clouds 14 1034 71 10000 5.7 50 13:37 04.01.2020
5242 Clouds 14 1034 71 10000 5.1 50 13:18 04.01.2020
5243 Clouds 14 1034 76 10000 4.6 40 12:41 04.01.2020
5244 Clouds 13 1034 76 10000 5.1 40 12:20 04.01.2020
5245 Clouds 13 1034 76 10000 5.1 40 11:59 04.01.2020
5246 Clouds 13 1034 87 10000 4.1 20 11:40 04.01.2020
5247 Clouds 12 1034 100 7000 3.6 10 11:19 04.01.2020
5248 Fog 11 1034 100 350 2.6 50 10:55 04.01.2020
5249 Fog 11 1034 100 350 2.6 50 10:37 04.01.2020
5250 Fog 10 1034 100 250 1.5 20 10:19 04.01.2020
5251 Mist 10 1033 100 4500 1.5 50 09:42 04.01.2020
5252 Fog 10 1033 100 10000 3.1 330 09:23 04.01.2020
5253 Clear 10 1033 100 8000 1.5 10 08:42 04.01.2020
5254 Clear 10 1033 100 7000 1.5 330 08:21 04.01.2020
5255 Clear 11 1033 100 8000 1 0 07:44 04.01.2020
5256 Clear 10 1033 100 7000 1 0 07:26 04.01.2020
5257 Clear 11 1033 100 8000 1 340 06:36 04.01.2020
5258 Clear 12 1033 93 10000 3.6 340 05:45 04.01.2020
5259 Clear 11 1033 87 10000 2.6 310 04:44 04.01.2020
5260 Clear 11 1033 81 10000 3.1 310 04:26 04.01.2020
5261 Clouds 11 1033 81 10000 3.1 320 03:19 04.01.2020
5262 Clouds 12 1034 81 10000 2.6 330 02:36 04.01.2020
5263 Clouds 11 1034 81 10000 2.6 330 01:58 04.01.2020
5264 Clear 11 1034 81 10000 2.6 320 01:32 04.01.2020
5265 Clear 12 1034 81 10000 2.6 300 00:56 04.01.2020
5266 Clear 11 1034 81 10000 2.6 300 00:28 04.01.2020
5267 Clear 12 1034 76 10000 2.6 310 23:52 03.01.2020
5268 Clear 12 1034 76 10000 2.6 310 23:27 03.01.2020
5269 Clear 12 1034 76 10000 2.6 300 22:55 03.01.2020
5270 Clear 12 1034 76 10000 2.6 300 22:37 03.01.2020
5271 Clear 13 1034 76 10000 1.5 320 22:18 03.01.2020
5272 Clouds 12 1034 82 10000 1 0 21:56 03.01.2020
5273 Clouds 13 1034 82 10000 1 0 21:37 03.01.2020
5274 Clouds 13 1034 82 10000 1.5 320 21:18 03.01.2020
5275 Clouds 14 1034 76 10000 1.5 310 20:54 03.01.2020
5276 Clouds 14 1034 76 10000 1.5 310 20:36 03.01.2020
5277 Clouds 14 1034 76 10000 2.6 330 20:18 03.01.2020
5278 Clouds 14 1033 76 10000 0.5 0 19:41 03.01.2020
5279 Clouds 14 1033 67 10000 1 0 19:23 03.01.2020
5280 Clouds 14 1033 67 10000 1 0 18:47 03.01.2020
5281 Clouds 14 1033 67 10000 1 0 18:27 03.01.2020
5282 Clouds 15 1033 72 10000 2.1 80 17:58 03.01.2020
5283 Clouds 15 1033 67 10000 1.5 120 17:40 03.01.2020
5284 Clouds 16 1033 72 10000 2.1 90 17:21 03.01.2020
5285 Clouds 16 1033 72 10000 2.1 90 17:21 03.01.2020
5286 Clouds 16 1033 67 10000 2.1 120 16:44 03.01.2020
5287 Clouds 16 1032 67 10000 2.1 110 16:25 03.01.2020
5288 Clouds 16 1032 67 10000 2.1 110 15:59 03.01.2020
5289 Clouds 16 1033 67 10000 1.5 0 15:41 03.01.2020
5290 Clouds 16 1033 67 10000 1.5 0 15:19 03.01.2020
5291 Clouds 16 1033 77 10000 1.5 0 14:40 03.01.2020
5292 Clouds 15 1034 82 10000 1.5 80 14:20 03.01.2020
5293 Clouds 15 1034 82 10000 1.5 80 13:57 03.01.2020
5294 Clouds 15 1034 82 10000 2.1 0 13:39 03.01.2020
5295 Clouds 15 1034 82 10000 2.1 0 13:39 03.01.2020
5296 Clouds 14 1034 82 10000 2.1 0 13:20 03.01.2020
5297 Clouds 14 1034 82 9000 1.5 0 12:41 03.01.2020
5298 Clouds 14 1034 87 10000 1.5 70 12:22 03.01.2020
5299 Clouds 13 1034 87 10000 1.5 80 11:54 03.01.2020
5300 Clouds 13 1034 87 10000 1.5 80 11:35 03.01.2020
5301 Clouds 11 1033 93 10000 1 0 10:58 03.01.2020
5302 Clouds 11 1033 93 10000 1 0 10:39 03.01.2020
5303 Clouds 11 1033 93 10000 0.5 0 10:21 03.01.2020
5304 Clouds 11 1033 100 9000 1.5 330 09:55 03.01.2020
5305 Clouds 11 1033 100 9000 1.5 330 09:37 03.01.2020
5306 Clouds 11 1032 100 10000 1 0 09:19 03.01.2020
5307 Clouds 11 1032 100 8000 1.5 290 08:45 03.01.2020
5308 Clouds 11 1032 100 10000 2.1 60 08:23 03.01.2020
5309 Clouds 11 1032 100 10000 2.1 60 07:57 03.01.2020
5310 Clouds 11 1032 100 10000 0.5 0 07:38 03.01.2020
5311 Clouds 11 1032 100 10000 1 0 07:18 03.01.2020
5312 Clouds 10 1032 100 10000 1 0 06:42 03.01.2020
5313 Clouds 11 1032 100 10000 1 0 06:22 03.01.2020
5314 Clouds 10 1032 100 10000 1 0 05:20 03.01.2020
5315 Clouds 10 1031 100 8000 1.5 20 03:42 03.01.2020
5316 Clouds 11 1032 100 8000 1.5 10 02:54 03.01.2020
5317 Clouds 11 1032 93 10000 1.5 10 01:51 03.01.2020
5318 Clouds 12 1032 93 10000 1.5 10 01:33 03.01.2020
5319 Clouds 11 1032 93 10000 1 0 00:46 03.01.2020
5320 Clouds 11 1032 93 10000 1 0 00:26 03.01.2020
5321 Clouds 12 1032 93 10000 1.5 40 23:54 02.01.2020
5322 Clouds 12 1032 93 10000 1.5 40 23:36 02.01.2020
5323 Clouds 12 1031 93 10000 2.1 60 23:18 02.01.2020
5324 Clouds 12 1031 93 10000 1.5 340 22:42 02.01.2020
5325 Clouds 12 1031 93 10000 1.5 360 22:20 02.01.2020
5326 Clouds 12 1031 93 10000 1.5 360 21:57 02.01.2020
5327 Clouds 12 1031 93 10000 1.5 10 21:38 02.01.2020
5328 Clouds 12 1031 93 10000 1.5 10 21:20 02.01.2020
5329 Clouds 12 1031 93 10000 1.5 10 20:56 02.01.2020
5330 Clouds 12 1031 93 10000 1.5 340 20:38 02.01.2020
5331 Clouds 12 1031 93 10000 1.5 360 20:20 02.01.2020
5332 Clouds 12 1030 93 10000 1.5 70 19:54 02.01.2020
5333 Clouds 12 1030 93 10000 1.5 70 19:36 02.01.2020
5334 Clouds 12 1030 93 10000 1.5 70 19:18 02.01.2020
5335 Clouds 12 1030 93 10000 2.1 80 18:54 02.01.2020
5336 Clouds 12 1030 93 10000 2.1 80 18:36 02.01.2020
5337 Clouds 12 1030 93 10000 2.1 80 18:18 02.01.2020
5338 Clouds 12 1030 93 10000 2.6 0 17:55 02.01.2020
5339 Clouds 12 1030 93 10000 2.6 0 17:36 02.01.2020
5340 Clouds 12 1030 93 9000 2.6 70 17:18 02.01.2020
5341 Clouds 12 1030 93 8000 2.6 50 16:41 02.01.2020
5342 Clouds 12 1030 93 9000 2.1 30 16:20 02.01.2020
5343 Clouds 12 1030 93 9000 2.1 30 15:58 02.01.2020
5344 Clouds 12 1030 93 9000 2.1 30 15:40 02.01.2020
5345 Clouds 12 1030 93 8000 2.1 20 15:22 02.01.2020
5346 Clouds 12 1031 100 8000 2.1 40 14:57 02.01.2020
5347 Clouds 12 1031 100 8000 2.1 40 14:37 02.01.2020
5348 Clouds 11 1031 100 7000 1.5 0 14:18 02.01.2020
5349 Clouds 11 1031 100 6000 2.1 50 13:51 02.01.2020
5350 Clouds 11 1031 100 6000 2.1 50 13:32 02.01.2020
5351 Mist 11 1032 100 5000 2.1 40 12:47 02.01.2020
5352 Mist 10 1032 100 3000 2.6 40 12:28 02.01.2020
5353 Mist 10 1032 100 3000 2.6 40 11:59 02.01.2020
5354 Mist 9 1032 100 3000 2.6 40 11:41 02.01.2020
5355 Mist 9 1031 100 1500 2.6 0 11:20 02.01.2020
5356 Mist 9 1031 100 1000 2.1 50 10:45 02.01.2020
5357 Mist 9 1031 100 1000 2.1 50 10:26 02.01.2020
5358 Mist 9 1030 100 1800 1.5 0 09:55 02.01.2020
5359 Mist 9 1030 100 1800 1.5 0 09:34 02.01.2020
5360 Mist 9 1030 100 3000 1.5 60 08:50 02.01.2020
5361 Mist 8 1030 100 3000 1.5 60 08:28 02.01.2020
5362 Mist 8 1030 100 3000 1.5 50 07:57 02.01.2020
5363 Mist 8 1029 100 3000 1.5 40 07:31 02.01.2020
5364 Mist 8 1029 100 2500 1 0 06:57 02.01.2020
5365 Mist 8 1029 100 2500 1 0 06:57 02.01.2020
5366 Mist 8 1029 100 3000 1 0 06:39 02.01.2020
5367 Fog 8 1029 100 400 0.5 0 05:38 02.01.2020
5368 Mist 7 1029 100 3000 1.5 90 04:34 02.01.2020
5369 Fog 7 1029 100 6000 0.5 300 03:23 02.01.2020
5370 Fog 7 1030 100 8000 0.5 0 02:20 02.01.2020
5371 Clouds 7 1030 100 9000 0.5 0 01:48 02.01.2020
5372 Clouds 7 1031 100 8000 1 300 01:23 02.01.2020
5373 Clouds 7 1031 100 8000 0.65 112 00:38 02.01.2020
5374 Clouds 7 1031 100 8000 0.5 0 00:20 02.01.2020
5375 Clouds 8 1031 100 9000 0.65 112 23:42 01.01.2020
5376 Clouds 8 1031 100 10000 0.5 0 23:21 01.01.2020
5377 Clouds 8 1031 100 10000 0.5 0 23:21 01.01.2020
5378 Clouds 8 1031 100 10000 1 290 22:39 01.01.2020
5379 Clouds 8 1031 100 10000 1 290 22:20 01.01.2020
5380 Clouds 8 1031 100 10000 1 290 21:58 01.01.2020
5381 Clouds 8 1030 100 10000 0.42 80 21:39 01.01.2020
5382 Clouds 8 1031 100 10000 0.5 0 21:20 01.01.2020
5383 Clouds 8 1031 100 10000 0.5 320 20:56 01.01.2020
5384 Clouds 8 1031 100 10000 0.5 320 20:38 01.01.2020
5385 Clouds 10 1030 100 10000 0.5 320 20:20 01.01.2020
5386 Clouds 10 1030 100 10000 0.5 0 19:56 01.01.2020
5387 Clouds 10 1030 100 10000 0.5 0 19:37 01.01.2020
5388 Clouds 11 1030 93 10000 1 0 19:19 01.01.2020
5389 Clouds 11 1030 93 10000 1 0 18:56 01.01.2020
5390 Clouds 11 1030 87 10000 1.5 0 18:37 01.01.2020
5391 Clouds 12 1030 93 8000 0.64 313 18:19 01.01.2020
5392 Clouds 12 1030 93 8000 0.64 313 17:57 01.01.2020
5393 Clouds 13 1030 87 10000 1.5 0 17:39 01.01.2020
5394 Clouds 13 1030 87 10000 1.5 110 17:19 01.01.2020
5395 Clouds 13 1030 87 10000 1.5 80 16:55 01.01.2020
5396 Clouds 13 1030 87 10000 1.5 80 16:36 01.01.2020
5397 Clouds 14 1030 87 10000 1.5 80 16:36 01.01.2020
5398 Clouds 14 1030 87 10000 1.5 60 16:18 01.01.2020
5399 Clouds 14 1031 93 10000 2.1 80 15:54 01.01.2020
5400 Clouds 13 1031 93 10000 2.1 80 15:36 01.01.2020
5401 Fog 14 1031 100 10000 2.1 70 15:18 01.01.2020
5402 Fog 13 1031 100 10000 1.5 50 14:41 01.01.2020
5403 Fog 12 1032 100 8000 1 0 14:22 01.01.2020
5404 Fog 12 1032 100 1500 1.5 60 13:56 01.01.2020
5405 Fog 12 1032 100 1500 1.5 60 13:56 01.01.2020
5406 Fog 12 1032 100 1500 1.5 60 13:37 01.01.2020
5407 Fog 11 1032 100 900 2.6 40 13:19 01.01.2020
5408 Clouds 11 1032 81 10000 2.6 90 12:57 01.01.2020
5409 Fog 10 1033 100 500 2.6 60 12:39 01.01.2020
5410 Fog 10 1033 100 400 2.1 40 12:19 01.01.2020
5411 Fog 10 1033 100 400 2.1 40 12:19 01.01.2020
5412 Fog 9 1032 100 300 2.1 60 11:56 01.01.2020
5413 Fog 8 1032 100 300 2.1 60 11:37 01.01.2020
5414 Fog 7 1032 100 350 1.5 0 11:18 01.01.2020
5415 Fog 7 1032 100 300 1.5 50 10:41 01.01.2020
5416 Fog 6 1031 100 50 1.5 0 10:21 01.01.2020
5417 Fog 6 1031 100 50 1.5 0 09:59 01.01.2020
5418 Fog 6 1031 100 50 1.5 60 09:38 01.01.2020
5419 Fog 6 1031 100 150 1.5 60 09:19 01.01.2020
5420 Fog 6 1031 100 500 2.6 30 08:56 01.01.2020
5421 Fog 6 1031 100 500 2.6 30 08:37 01.01.2020
5422 Fog 6 1031 100 500 2.6 30 08:37 01.01.2020
5423 Fog 5 1031 100 300 1.5 50 08:19 01.01.2020
5424 Fog 6 1030 100 300 2.1 40 07:54 01.01.2020
5425 Fog 6 1030 100 300 2.1 40 07:36 01.01.2020
5426 Fog 6 1030 100 200 2.1 50 06:45 01.01.2020
5427 Fog 6 1030 100 150 1.5 70 06:22 01.01.2020
5428 Mist 7 1030 100 2500 1 60 05:23 01.01.2020
5429 Fog 8 1030 100 8000 2.6 20 03:47 01.01.2020
5430 Fog 8 1031 100 8000 2.1 10 03:23 01.01.2020
5431 Fog 8 1031 100 8000 2.1 10 03:23 01.01.2020
5432 Fog 8 1031 100 8000 2.1 10 02:57 01.01.2020
5433 Fog 9 1031 100 7000 2.6 20 02:37 01.01.2020
5434 Clouds 9 1031 100 7000 1.5 350 01:59 01.01.2020
5435 Clouds 8 1031 100 8000 1 340 01:38 01.01.2020
5436 Fog 9 1031 93 8000 1.5 350 01:20 01.01.2020
5437 Clouds 8 1031 100 8000 1.5 330 00:44 01.01.2020
5438 Clouds 9 1031 100 9000 1.5 340 00:25 01.01.2020
5439 Clouds 10 1031 93 9000 1.5 320 23:41 31.12.2019
5440 Clouds 10 1031 93 10000 1.5 320 23:22 31.12.2019
5441 Clouds 10 1031 93 10000 1 0 22:58 31.12.2019
5442 Clouds 10 1031 93 10000 1 0 22:39 31.12.2019
5443 Clouds 9 1031 93 10000 1.5 320 22:20 31.12.2019
5444 Clouds 9 1031 93 9000 1 0 21:58 31.12.2019
5445 Clouds 9 1031 93 9000 1 0 21:40 31.12.2019
5446 Clouds 10 1031 100 8000 1.5 330 21:21 31.12.2019
5447 Clouds 9 1031 100 8000 2.19 30 20:56 31.12.2019
5448 Clouds 9 1031 100 8000 2.39 29 20:37 31.12.2019
5449 Clouds 10 1031 100 8000 1 350 20:19 31.12.2019
5450 Clouds 11 1031 100 7000 1.88 3 19:54 31.12.2019
5451 Clouds 10 1031 100 7000 1.88 3 19:36 31.12.2019
5452 Clouds 11 1031 93 6000 1.88 3 19:18 31.12.2019
5453 Clouds 11 1031 93 6000 1.88 3 18:54 31.12.2019
5454 Clouds 11 1031 93 6000 1.88 3 18:54 31.12.2019
5455 Clouds 11 1031 93 6000 1.88 3 18:36 31.12.2019
5456 Clouds 12 1030 93 6000 1.5 0 18:18 31.12.2019
5457 Clouds 13 1030 93 6000 2.1 70 17:54 31.12.2019
5458 Clouds 13 1030 93 6000 2.1 70 17:36 31.12.2019
5459 Clear 13 1030 93 6000 2.1 80 17:18 31.12.2019
5460 Clear 13 1030 93 6000 2.1 80 16:54 31.12.2019
5461 Clear 13 1030 93 6000 2.1 80 16:36 31.12.2019
5462 Mist 13 1030 100 5000 2.1 0 16:18 31.12.2019
5463 Mist 13 1030 100 5000 2.1 0 16:18 31.12.2019
5464 Mist 13 1030 100 3500 2.1 50 15:54 31.12.2019
5465 Mist 13 1030 100 3500 2.1 50 15:36 31.12.2019
5466 Mist 13 1031 100 2500 3.1 50 15:18 31.12.2019
5467 Mist 11 1031 100 2200 3.1 70 14:54 31.12.2019
5468 Mist 12 1031 100 2200 3.1 70 14:36 31.12.2019
5469 Mist 10 1031 100 800 3.6 70 14:18 31.12.2019
5470 Mist 11 1032 100 1500 3.1 60 13:54 31.12.2019
5471 Mist 11 1032 100 1500 3.1 60 13:36 31.12.2019
5472 Mist 10 1032 100 1800 3.1 60 13:18 31.12.2019
5473 Fog 11 1033 100 600 3.1 70 12:40 31.12.2019
5474 Fog 11 1033 100 200 2.6 70 12:20 31.12.2019
5475 Fog 11 1033 100 200 2.6 70 11:57 31.12.2019
5476 Fog 10 1032 100 250 2.6 30 11:39 31.12.2019
5477 Fog 9 1032 100 300 2.6 40 11:20 31.12.2019
5478 Fog 9 1032 100 9000 4.6 10 10:58 31.12.2019
5479 Fog 9 1032 100 200 2.6 60 10:38 31.12.2019
5480 Fog 8 1031 100 300 2.1 50 10:20 31.12.2019
5481 Fog 8 1031 100 300 2.1 50 09:59 31.12.2019
5482 Fog 8 1031 100 1500 3.1 50 09:40 31.12.2019
5483 Mist 8 1031 100 3000 2.1 360 09:21 31.12.2019
5484 Fog 8 1031 100 250 2.6 30 08:57 31.12.2019
5485 Fog 8 1031 100 250 2.6 30 08:39 31.12.2019
5486 Fog 8 1031 100 150 2.6 60 08:20 31.12.2019
5487 Fog 8 1031 100 100 2.6 40 07:43 31.12.2019
5488 Fog 8 1030 100 100 1.5 80 07:22 31.12.2019
5489 Fog 8 1030 100 100 2.6 60 06:50 31.12.2019
5490 Mist 7 1030 100 3000 1.5 50 05:58 31.12.2019
5491 Clouds 8 1031 100 8000 1.5 10 04:30 31.12.2019
5492 Clear 9 1031 93 10000 2.1 340 03:59 31.12.2019
5493 Clear 9 1031 93 10000 2.1 340 03:59 31.12.2019
5494 Clear 10 1031 87 10000 3.1 320 02:56 31.12.2019
5495 Clear 10 1031 87 10000 3.1 320 02:19 31.12.2019
5496 Clear 10 1031 81 10000 3.6 310 01:48 31.12.2019
5497 Clear 10 1031 81 10000 3.6 310 01:28 31.12.2019
5498 Clear 11 1031 81 10000 3.1 320 00:47 31.12.2019
5499 Clear 11 1031 87 10000 3.6 310 00:23 31.12.2019
5500 Clear 11 1031 87 10000 3.6 310 23:57 30.12.2019
5501 Clear 10 1031 87 10000 4.1 310 23:38 30.12.2019
5502 Clear 11 1031 87 10000 4.1 310 23:20 30.12.2019
5503 Clear 11 1031 87 10000 4.1 310 22:58 30.12.2019
5504 Clear 11 1031 81 10000 4.1 320 22:40 30.12.2019
5505 Clear 11 1031 81 10000 3.1 310 22:20 30.12.2019
5506 Clear 12 1031 87 10000 3.1 310 21:57 30.12.2019
5507 Clear 12 1031 87 10000 3.1 310 21:39 30.12.2019
5508 Clear 11 1031 87 10000 3.1 310 21:19 30.12.2019
5509 Clear 11 1031 87 10000 3.1 310 20:57 30.12.2019
5510 Clear 11 1031 93 10000 2.1 320 20:39 30.12.2019
5511 Clear 12 1031 81 10000 1.74 354 20:20 30.12.2019
5512 Clear 12 1031 81 10000 1.74 354 19:58 30.12.2019
5513 Clear 12 1030 87 10000 0.5 0 19:38 30.12.2019
5514 Clear 13 1030 82 10000 0.5 0 19:19 30.12.2019
5515 Clear 14 1030 82 10000 0.5 0 18:58 30.12.2019
5516 Clear 14 1030 72 10000 1.5 0 18:40 30.12.2019
5517 Clear 15 1030 76 10000 1.5 30 18:20 30.12.2019
5518 Clear 15 1030 76 10000 2.6 70 17:56 30.12.2019
5519 Clear 15 1029 67 10000 0.5 0 17:38 30.12.2019
5520 Clear 15 1030 76 10000 2.6 80 17:19 30.12.2019
5521 Clear 16 1030 76 10000 2.6 80 16:58 30.12.2019
5522 Clear 16 1030 76 10000 2.6 70 16:37 30.12.2019
5523 Clear 16 1030 76 10000 2.1 70 16:18 30.12.2019
5524 Clear 16 1030 76 10000 2.6 70 15:55 30.12.2019
5525 Clear 16 1030 76 10000 2.6 70 15:37 30.12.2019
5526 Clear 15 1030 71 10000 2.1 70 15:18 30.12.2019
5527 Clear 15 1031 71 10000 1.5 80 14:43 30.12.2019
5528 Clear 15 1031 71 10000 1.5 80 14:43 30.12.2019
5529 Clear 14 1031 76 10000 1.5 60 14:20 30.12.2019
5530 Clear 14 1031 76 10000 1.5 60 13:58 30.12.2019
5531 Clear 14 1031 81 10000 2.1 70 13:40 30.12.2019
5532 Fog 13 1032 81 10000 2.1 70 13:21 30.12.2019
5533 Fog 13 1032 81 10000 3.1 0 12:56 30.12.2019
5534 Fog 12 1032 81 10000 3.1 0 12:37 30.12.2019
5535 Clear 12 1032 87 10000 2.6 60 12:18 30.12.2019
5536 Fog 11 1031 87 10000 2.6 60 11:42 30.12.2019
5537 Fog 9 1031 93 10000 1.5 0 11:20 30.12.2019
5538 Clear 10 1030 100 10000 1.5 60 10:58 30.12.2019
5539 Clear 10 1030 100 10000 1.5 60 10:40 30.12.2019
5540 Clear 8 1030 100 10000 1 80 10:18 30.12.2019
5541 Clear 7 1030 100 10000 0.5 340 09:42 30.12.2019
5542 Clear 6 1030 93 10000 0.5 0 09:20 30.12.2019
5543 Clear 6 1029 93 10000 1.5 60 08:56 30.12.2019
5544 Clear 6 1029 93 10000 1.5 60 08:37 30.12.2019
5545 Clear 7 1029 100 10000 2.1 20 08:18 30.12.2019
5546 Clear 7 1029 100 10000 2.1 20 07:41 30.12.2019
5547 Clear 8 1029 100 10000 1.5 30 06:58 30.12.2019
5548 Clear 8 1029 100 10000 1 0 06:24 30.12.2019
5549 Clear 9 1028 93 10000 1 0 04:23 30.12.2019
5550 Clear 9 1028 81 10000 1 310 03:42 30.12.2019
5551 Clear 10 1028 81 10000 2.1 20 02:41 30.12.2019
5552 Clear 10 1028 87 10000 2.1 10 02:20 30.12.2019
5553 Clear 10 1029 81 10000 1.5 360 01:26 30.12.2019
5554 Clear 10 1029 81 10000 1.5 10 00:47 30.12.2019
5555 Clear 11 1029 76 10000 1.5 10 00:26 30.12.2019
5556 Clear 12 1029 76 10000 1.5 10 23:40 29.12.2019
5557 Clear 12 1028 76 10000 2.6 20 23:22 29.12.2019
5558 Clear 12 1028 76 10000 1 0 22:57 29.12.2019
5559 Clear 12 1028 76 10000 1 0 22:38 29.12.2019
5560 Clear 12 1028 76 10000 1 0 22:20 29.12.2019
5561 Clear 12 1028 71 10000 2.1 340 21:54 29.12.2019
5562 Clear 13 1028 71 10000 2.1 340 21:36 29.12.2019
5563 Clear 13 1028 76 10000 2.6 350 21:18 29.12.2019
5564 Clear 13 1028 71 10000 1 0 20:40 29.12.2019
5565 Clear 14 1028 67 10000 2.6 360 20:22 29.12.2019
5566 Clear 14 1028 67 10000 2.6 360 20:00 29.12.2019
5567 Clear 14 1027 76 10000 3.1 30 19:40 29.12.2019
5568 Clear 15 1027 72 10000 2.6 0 19:22 29.12.2019
5569 Clear 15 1027 72 10000 2.6 0 18:59 29.12.2019
5570 Clear 15 1027 72 10000 2.6 0 18:59 29.12.2019
5571 Clear 16 1027 72 10000 2.1 50 18:40 29.12.2019
5572 Clear 16 1027 72 10000 1.5 70 18:21 29.12.2019
5573 Clear 16 1027 72 10000 1.5 70 17:58 29.12.2019
5574 Clear 16 1027 67 10000 2.6 0 17:39 29.12.2019
5575 Clear 17 1027 63 10000 2.6 60 17:20 29.12.2019
5576 Clear 17 1026 63 10000 1.5 0 16:57 29.12.2019
5577 Clear 17 1026 63 10000 1.5 0 16:39 29.12.2019
5578 Clear 17 1027 67 10000 1 0 16:21 29.12.2019
5579 Clear 17 1027 67 10000 1 0 15:59 29.12.2019
5580 Clear 18 1027 67 10000 2.1 0 15:40 29.12.2019
5581 Clear 17 1027 67 10000 2.6 90 15:20 29.12.2019
5582 Clear 17 1027 67 10000 2.6 90 14:59 29.12.2019
5583 Clear 17 1027 67 10000 2.6 80 14:41 29.12.2019
5584 Clear 16 1027 67 10000 2.1 0 14:19 29.12.2019
5585 Clear 16 1027 67 10000 2.1 0 13:59 29.12.2019
5586 Clear 16 1028 71 10000 2.6 80 13:40 29.12.2019
5587 Clear 15 1028 76 10000 3.1 60 13:22 29.12.2019
5588 Clear 15 1028 71 10000 4.1 60 12:57 29.12.2019
5589 Clear 14 1028 71 10000 4.1 60 12:38 29.12.2019
5590 Clear 14 1029 76 10000 3.6 70 12:20 29.12.2019
5591 Clear 13 1029 76 10000 3.6 60 11:41 29.12.2019
5592 Clear 13 1028 81 10000 2.6 70 11:22 29.12.2019
5593 Clear 12 1028 76 10000 2.6 50 10:57 29.12.2019
5594 Clear 12 1028 76 10000 2.6 50 10:39 29.12.2019
5595 Clear 11 1028 81 10000 2.6 50 10:18 29.12.2019
5596 Clear 10 1028 81 10000 3.6 60 09:46 29.12.2019
5597 Clear 10 1028 81 10000 3.1 60 09:28 29.12.2019
5598 Clear 10 1027 81 10000 3.1 60 08:56 29.12.2019
5599 Clear 10 1027 81 10000 3.1 60 08:38 29.12.2019
5600 Clear 10 1027 81 10000 3.1 50 08:20 29.12.2019
5601 Clear 10 1027 76 10000 3.1 50 07:44 29.12.2019
5602 Clear 10 1027 76 10000 3.6 50 07:25 29.12.2019
5603 Clear 10 1027 76 10000 2.6 50 06:38 29.12.2019
5604 Clear 10 1027 76 10000 3.1 50 06:18 29.12.2019
5605 Clear 11 1027 71 10000 2.6 50 05:44 29.12.2019
5606 Clear 12 1027 81 10000 2.6 50 04:32 29.12.2019
5607 Clear 12 1027 81 10000 2.6 50 03:35 29.12.2019
5608 Clear 12 1027 81 10000 2.1 350 02:27 29.12.2019
5609 Clear 13 1027 81 10000 2.6 30 01:52 29.12.2019
5610 Clear 13 1027 81 10000 2.6 30 01:29 29.12.2019
5611 Clear 13 1027 76 10000 2.6 40 00:45 29.12.2019
5612 Clear 13 1027 76 10000 2.6 40 00:45 29.12.2019
5613 Clear 14 1027 76 10000 3.1 30 00:25 29.12.2019
5614 Clear 14 1027 76 10000 3.1 30 00:25 29.12.2019
5615 Clear 14 1027 76 10000 3.1 30 23:55 28.12.2019
5616 Clear 14 1027 76 10000 3.1 30 23:37 28.12.2019
5617 Clear 14 1027 76 10000 3.1 30 23:18 28.12.2019
5618 Clear 15 1027 76 10000 3.6 30 22:37 28.12.2019
5619 Clear 15 1026 76 10000 3.6 40 22:18 28.12.2019
5620 Clear 15 1026 76 10000 3.1 10 21:56 28.12.2019
5621 Clear 15 1026 76 10000 3.1 10 21:37 28.12.2019
5622 Clear 15 1026 76 10000 3.1 20 21:19 28.12.2019
5623 Clear 15 1026 82 10000 1.5 40 20:54 28.12.2019
5624 Clear 15 1026 82 10000 1.5 40 20:36 28.12.2019
5625 Clear 15 1026 72 10000 1.5 30 20:18 28.12.2019
5626 Clear 15 1026 82 10000 2.1 10 19:41 28.12.2019
5627 Clear 16 1025 87 10000 2.6 30 19:23 28.12.2019
5628 Clear 16 1025 87 10000 2.6 30 18:59 28.12.2019
5629 Clear 17 1025 77 10000 3.1 30 18:41 28.12.2019
5630 Clear 17 1025 72 10000 2.6 40 18:20 28.12.2019
5631 Clear 17 1025 72 10000 2.6 40 17:59 28.12.2019
5632 Clear 17 1025 72 10000 3.1 50 17:39 28.12.2019
5633 Clear 18 1025 67 10000 3.6 50 17:21 28.12.2019
5634 Clear 18 1025 67 10000 3.1 50 16:50 28.12.2019
5635 Clear 17 1025 72 10000 3.1 40 16:27 28.12.2019
5636 Clear 18 1025 72 10000 3.1 40 15:58 28.12.2019
5637 Clear 18 1026 72 10000 3.6 60 15:39 28.12.2019
5638 Clear 18 1026 72 10000 4.1 50 15:21 28.12.2019
5639 Clear 18 1026 72 10000 4.1 50 15:21 28.12.2019
5640 Clear 17 1026 72 10000 4.1 50 14:47 28.12.2019
5641 Clear 17 1026 72 10000 4.1 50 14:25 28.12.2019
5642 Clear 16 1027 71 10000 5.1 50 13:58 28.12.2019
5643 Clear 16 1027 71 10000 5.1 50 13:39 28.12.2019
5644 Clear 16 1027 67 10000 5.1 60 13:20 28.12.2019
5645 Clear 16 1027 67 10000 5.1 60 13:20 28.12.2019
5646 Clear 15 1028 76 10000 5.7 50 12:56 28.12.2019
5647 Clear 15 1028 76 10000 5.7 50 12:37 28.12.2019
5648 Clear 15 1028 71 10000 4.1 60 12:19 28.12.2019
5649 Clear 14 1028 71 10000 4.6 60 11:40 28.12.2019
5650 Clear 14 1027 76 10000 3.6 60 11:21 28.12.2019
5651 Clear 13 1027 76 10000 3.1 50 10:55 28.12.2019
5652 Clear 13 1027 76 10000 3.1 50 10:36 28.12.2019
5653 Clear 12 1027 81 10000 3.1 50 10:18 28.12.2019
5654 Clear 12 1027 81 10000 3.1 50 09:45 28.12.2019
5655 Clear 12 1026 81 10000 3.1 50 09:24 28.12.2019
5656 Clear 11 1026 81 10000 3.6 50 08:58 28.12.2019
5657 Clear 11 1026 81 10000 3.6 50 08:39 28.12.2019
5658 Clear 11 1026 81 10000 3.1 50 08:20 28.12.2019
5659 Clear 12 1026 76 10000 3.1 50 07:43 28.12.2019
5660 Clear 12 1026 81 10000 2.6 50 07:21 28.12.2019
5661 Clear 12 1026 81 10000 3.6 50 05:45 28.12.2019
5662 Clear 13 1026 76 10000 3.6 50 03:48 28.12.2019
5663 Clear 13 1026 76 10000 3.6 50 02:50 28.12.2019
5664 Clear 12 1027 76 10000 3.6 40 02:20 28.12.2019
5665 Clear 12 1027 76 10000 4.1 40 01:55 28.12.2019
5666 Clear 13 1026 87 10000 4.1 30 01:23 28.12.2019
5667 Clear 13 1027 76 10000 3.1 50 00:48 28.12.2019
5668 Clear 13 1027 76 10000 3.1 50 00:30 28.12.2019
5669 Clear 14 1027 76 10000 3.1 30 23:58 27.12.2019
5670 Clear 13 1027 76 10000 4.1 40 23:39 27.12.2019
5671 Clear 14 1027 87 10000 4.1 20 23:19 27.12.2019
5672 Clear 14 1027 76 10000 3.6 20 22:56 27.12.2019
5673 Clear 14 1027 76 10000 3.6 20 22:37 27.12.2019
5674 Clear 14 1027 82 10000 4.1 30 22:19 27.12.2019
5675 Clear 15 1027 82 10000 3.6 20 21:43 27.12.2019
5676 Clear 15 1027 82 10000 2.6 10 21:25 27.12.2019
5677 Clear 15 1027 82 10000 2.6 10 20:57 27.12.2019
5678 Clear 15 1026 76 10000 3.1 10 20:38 27.12.2019
5679 Clear 15 1026 76 10000 2.6 10 20:20 27.12.2019
5680 Clear 15 1026 76 10000 2.6 10 19:41 27.12.2019
5681 Clear 16 1026 72 10000 2.6 30 19:20 27.12.2019
5682 Clear 16 1026 72 10000 2.6 30 19:20 27.12.2019
5683 Clear 16 1026 72 10000 2.6 30 18:57 27.12.2019
5684 Clear 16 1026 77 10000 3.6 30 18:37 27.12.2019
5685 Clear 17 1026 72 10000 4.1 40 18:19 27.12.2019
5686 Clear 17 1025 72 10000 4.1 50 17:55 27.12.2019
5687 Clear 17 1025 72 10000 4.1 50 17:37 27.12.2019
5688 Clear 17 1025 72 10000 4.1 60 17:18 27.12.2019
5689 Clear 17 1025 72 10000 4.6 50 16:44 27.12.2019
5690 Clear 17 1025 72 10000 4.1 60 16:26 27.12.2019
5691 Clear 17 1025 72 10000 4.1 60 15:59 27.12.2019
5692 Clear 17 1025 72 10000 4.1 60 15:40 27.12.2019
5693 Clear 17 1026 72 10000 5.1 60 15:20 27.12.2019
5694 Clear 16 1026 76 10000 5.1 50 14:56 27.12.2019
5695 Clear 16 1026 76 10000 5.1 50 14:38 27.12.2019
5696 Clouds 16 1026 71 10000 4.1 60 14:20 27.12.2019
5697 Clouds 15 1026 76 10000 4.6 40 13:48 27.12.2019
5698 Clouds 14 1027 82 10000 4.6 40 13:25 27.12.2019
5699 Clouds 14 1027 82 10000 4.6 40 13:25 27.12.2019
5700 Clouds 14 1027 82 10000 4.6 40 12:56 27.12.2019
5701 Clouds 14 1027 81 10000 4.1 50 12:38 27.12.2019
5702 Clouds 13 1027 81 10000 4.1 60 12:20 27.12.2019
5703 Clouds 13 1027 87 10000 3.1 40 11:43 27.12.2019
5704 Clouds 12 1027 93 10000 3.6 30 11:22 27.12.2019
5705 Clouds 12 1026 81 10000 4.1 40 10:55 27.12.2019
5706 Clouds 12 1026 81 10000 4.1 40 10:36 27.12.2019
5707 Clouds 12 1026 87 10000 2.6 40 10:18 27.12.2019
5708 Clouds 11 1026 93 10000 2.6 20 09:42 27.12.2019
5709 Clouds 11 1026 87 10000 2.6 20 09:21 27.12.2019
5710 Clouds 11 1026 87 10000 2.6 20 08:55 27.12.2019
5711 Clouds 11 1026 87 10000 2.1 360 08:35 27.12.2019
5712 Clouds 11 1025 93 10000 2.1 10 07:51 27.12.2019
5713 Clouds 11 1025 93 10000 2.1 10 07:31 27.12.2019
5714 Clouds 11 1025 93 10000 3.1 20 06:37 27.12.2019
5715 Clouds 11 1025 93 10000 2.6 10 05:28 27.12.2019
5716 Clouds 11 1026 93 10000 1.5 50 03:40 27.12.2019
5717 Clouds 11 1027 87 10000 2.1 350 02:20 27.12.2019
5718 Clouds 11 1027 87 10000 1.5 360 01:38 27.12.2019
5719 Clouds 12 1027 81 10000 2.1 10 01:19 27.12.2019
5720 Clouds 12 1027 81 10000 2.6 340 00:43 27.12.2019
5721 Clouds 12 1027 81 10000 2.6 360 00:24 27.12.2019
5722 Clouds 12 1027 87 10000 2.1 20 23:42 26.12.2019
5723 Clouds 12 1027 93 10000 2.6 360 23:22 26.12.2019
5724 Clouds 12 1027 81 10000 2.1 20 22:48 26.12.2019
5725 Clouds 12 1027 81 10000 2.6 360 22:23 26.12.2019
5726 Clouds 12 1027 81 10000 2.6 360 21:59 26.12.2019
5727 Clouds 12 1027 81 10000 2.6 350 21:39 26.12.2019
5728 Clouds 12 1027 81 10000 2.6 350 21:20 26.12.2019
5729 Clouds 12 1027 87 10000 1.5 10 20:46 26.12.2019
5730 Clouds 13 1027 87 10000 2.1 360 20:23 26.12.2019
5731 Clouds 12 1027 87 10000 2.1 360 19:59 26.12.2019
5732 Clouds 13 1026 82 10000 3.1 30 19:40 26.12.2019
5733 Clouds 13 1026 87 10000 2.1 50 19:22 26.12.2019
5734 Clouds 13 1026 87 10000 2.1 50 18:58 26.12.2019
5735 Clouds 14 1026 82 10000 2.6 50 18:39 26.12.2019
5736 Clouds 14 1026 82 10000 2.6 50 18:19 26.12.2019
5737 Clouds 15 1026 82 10000 3.6 70 17:57 26.12.2019
5738 Clouds 15 1026 82 10000 3.6 70 17:38 26.12.2019
5739 Clouds 15 1026 82 10000 3.6 70 17:38 26.12.2019
5740 Clouds 15 1026 77 10000 3.1 60 17:18 26.12.2019
5741 Clouds 16 1026 77 10000 3.1 80 16:43 26.12.2019
5742 Clouds 16 1026 87 10000 2.6 0 16:23 26.12.2019
5743 Clouds 16 1027 82 10000 3.1 80 15:56 26.12.2019
5744 Clouds 16 1027 82 10000 3.1 80 15:56 26.12.2019
5745 Clouds 16 1027 82 10000 3.1 80 15:38 26.12.2019
5746 Clouds 15 1027 76 10000 3.1 60 15:18 26.12.2019
5747 Clouds 15 1028 76 10000 3.6 10 14:40 26.12.2019
5748 Clouds 15 1028 76 10000 3.1 360 14:22 26.12.2019
5749 Clouds 14 1028 76 10000 3.6 10 13:44 26.12.2019
5750 Clouds 14 1028 76 10000 3.6 10 13:44 26.12.2019
5751 Clouds 14 1029 82 10000 3.6 10 13:22 26.12.2019
5752 Clouds 14 1029 82 10000 3.6 10 12:58 26.12.2019
5753 Clouds 14 1029 82 10000 3.6 10 12:58 26.12.2019
5754 Clouds 14 1029 87 10000 3.6 10 12:39 26.12.2019
5755 Clouds 14 1029 87 10000 3.1 360 12:21 26.12.2019
5756 Clouds 13 1029 87 10000 5.1 330 11:57 26.12.2019
5757 Clouds 13 1029 87 10000 5.1 330 11:39 26.12.2019
5758 Clouds 13 1028 87 10000 4.6 330 11:20 26.12.2019
5759 Clouds 13 1028 93 10000 4.6 320 10:49 26.12.2019
5760 Clouds 12 1028 100 10000 5.1 10 10:19 26.12.2019
5761 Clouds 12 1027 87 10000 3.6 330 09:53 26.12.2019
5762 Clouds 12 1027 87 10000 3.6 330 09:32 26.12.2019
5763 Clouds 12 1027 87 10000 2.6 320 08:55 26.12.2019
5764 Clouds 12 1027 87 10000 2.6 320 08:37 26.12.2019
5765 Clouds 12 1027 93 10000 3.6 330 08:18 26.12.2019
5766 Clouds 12 1026 93 10000 3.1 330 07:31 26.12.2019
5767 Clouds 12 1026 93 10000 2.6 330 06:56 26.12.2019
5768 Clouds 12 1026 93 10000 2.6 330 06:33 26.12.2019
5769 Clouds 12 1027 93 10000 2.1 360 05:49 26.12.2019
5770 Clouds 12 1026 93 10000 3.1 360 04:59 26.12.2019
5771 Clouds 12 1027 93 10000 2.1 10 04:32 26.12.2019
5772 Clouds 13 1027 87 10000 3.1 360 03:20 26.12.2019
5773 Clouds 14 1027 82 10000 4.6 340 02:40 26.12.2019
5774 Clouds 14 1027 82 10000 4.6 340 02:20 26.12.2019
5775 Clouds 14 1027 82 10000 4.1 320 01:42 26.12.2019
5776 Clouds 14 1027 82 10000 5.7 320 01:24 26.12.2019
5777 Clouds 15 1026 87 10000 4.1 330 00:42 26.12.2019
5778 Clouds 15 1026 93 10000 3.6 330 00:22 26.12.2019
5779 Clouds 15 1026 93 10000 3.6 330 00:22 26.12.2019
5780 Clouds 15 1026 93 10000 2.1 310 23:56 25.12.2019
5781 Clouds 15 1026 93 10000 2.1 310 23:36 25.12.2019
5782 Clouds 16 1026 93 10000 2.1 330 23:18 25.12.2019
5783 Clouds 16 1026 100 10000 1.82 304 22:55 25.12.2019
5784 Clouds 16 1026 100 10000 1.82 304 22:37 25.12.2019
5785 Clouds 16 1025 93 10000 1 0 22:18 25.12.2019
5786 Clouds 16 1025 93 10000 1 0 21:40 25.12.2019
5787 Clouds 16 1025 93 10000 1 0 21:22 25.12.2019
5788 Clouds 16 1025 93 10000 1 0 20:59 25.12.2019
5789 Clouds 16 1025 93 10000 3.1 220 20:40 25.12.2019
5790 Clouds 16 1025 87 10000 3.6 230 20:19 25.12.2019
5791 Clouds 16 1025 87 10000 3.6 230 19:57 25.12.2019
5792 Clouds 16 1024 87 10000 3.6 230 19:39 25.12.2019
5793 Clouds 16 1024 82 10000 2.6 230 19:21 25.12.2019
5794 Clouds 16 1024 82 10000 3.6 220 18:39 25.12.2019
5795 Clouds 16 1023 77 10000 4.6 210 18:20 25.12.2019
5796 Clouds 17 1023 68 10000 4.6 210 17:57 25.12.2019
5797 Clouds 17 1023 68 10000 4.6 210 17:39 25.12.2019
5798 Clouds 17 1023 68 10000 4.1 210 17:18 25.12.2019
5799 Clouds 17 1023 63 10000 4.6 210 16:39 25.12.2019
5800 Clouds 17 1023 68 10000 1 0 16:20 25.12.2019
5801 Clouds 17 1023 68 10000 1 0 15:59 25.12.2019
5802 Clouds 18 1023 68 10000 0.5 0 15:40 25.12.2019
5803 Clouds 18 1023 72 10000 1 0 15:22 25.12.2019
5804 Clouds 17 1023 72 10000 1 0 14:59 25.12.2019
5805 Clouds 17 1023 77 10000 1.5 50 14:41 25.12.2019
5806 Clouds 17 1024 82 10000 1.5 30 14:23 25.12.2019
5807 Clouds 17 1024 82 10000 1.5 30 13:58 25.12.2019
5808 Clouds 17 1024 82 10000 2.6 60 13:39 25.12.2019
5809 Clouds 16 1024 82 10000 2.6 60 13:19 25.12.2019
5810 Clouds 15 1024 82 10000 2.6 80 12:43 25.12.2019
5811 Clouds 15 1024 82 10000 1.5 40 12:21 25.12.2019
5812 Clouds 15 1024 82 10000 1.5 40 12:21 25.12.2019
5813 Clouds 14 1024 82 10000 1.5 40 11:57 25.12.2019
5814 Clouds 14 1024 82 10000 2.6 70 11:39 25.12.2019
5815 Clouds 14 1024 87 10000 2.6 60 11:20 25.12.2019
5816 Clouds 13 1023 93 10000 2.6 50 10:39 25.12.2019
5817 Clouds 12 1023 100 10000 1.5 70 10:21 25.12.2019
5818 Clouds 12 1023 93 10000 1.5 50 09:51 25.12.2019
5819 Clouds 11 1023 93 10000 1.5 50 09:33 25.12.2019
5820 Clouds 11 1022 93 10000 2.1 70 08:56 25.12.2019
5821 Clouds 11 1022 93 10000 2.1 70 08:38 25.12.2019
5822 Clouds 12 1022 93 10000 1.5 70 08:19 25.12.2019
5823 Clouds 12 1022 93 10000 2.1 60 07:40 25.12.2019
5824 Clouds 12 1022 93 10000 2.1 50 07:21 25.12.2019
5825 Clouds 12 1021 93 10000 3.6 40 06:24 25.12.2019
5826 Clouds 12 1022 93 10000 2.1 50 05:44 25.12.2019
5827 Clouds 12 1022 100 10000 3.1 70 04:42 25.12.2019
5828 Clouds 12 1022 100 10000 2.1 60 04:24 25.12.2019
5829 Clouds 12 1023 93 10000 2.1 30 03:43 25.12.2019
5830 Clouds 12 1023 100 10000 2.1 50 02:57 25.12.2019
5831 Clouds 13 1023 93 10000 2.1 50 02:29 25.12.2019
5832 Clouds 13 1023 93 10000 2.6 60 01:42 25.12.2019
5833 Clouds 13 1023 93 10000 2.6 50 01:18 25.12.2019
5834 Clouds 13 1023 93 10000 1.5 40 00:41 25.12.2019
5835 Clouds 13 1023 93 10000 2.1 40 00:23 25.12.2019
5836 Clouds 13 1023 93 10000 2.1 40 00:23 25.12.2019
5837 Clouds 14 1023 87 10000 2.1 60 23:39 24.12.2019
5838 Clouds 14 1023 93 10000 2.6 60 23:20 24.12.2019
5839 Clouds 14 1023 87 10000 3.1 60 22:42 24.12.2019
5840 Clouds 14 1023 87 10000 3.1 60 22:24 24.12.2019
5841 Clouds 15 1023 87 10000 3.1 60 21:59 24.12.2019
5842 Clouds 15 1023 82 10000 3.1 50 21:41 24.12.2019
5843 Clouds 15 1023 82 10000 3.1 50 21:41 24.12.2019
5844 Clouds 15 1023 77 10000 3.1 60 21:20 24.12.2019
5845 Clouds 16 1023 77 10000 3.1 50 20:42 24.12.2019
5846 Clouds 16 1023 77 10000 2.6 40 20:23 24.12.2019
5847 Clouds 16 1023 77 10000 2.6 50 19:56 24.12.2019
5848 Clouds 16 1023 77 10000 2.6 50 19:37 24.12.2019
5849 Clouds 16 1023 77 10000 2.6 50 19:18 24.12.2019
5850 Clouds 16 1023 82 10000 3.1 40 18:42 24.12.2019
5851 Clouds 17 1023 77 10000 3.6 60 18:19 24.12.2019
5852 Clouds 18 1023 77 10000 3.1 60 17:44 24.12.2019
5853 Clouds 18 1023 77 10000 2.6 60 17:23 24.12.2019
5854 Clouds 18 1023 77 10000 2.6 60 16:58 24.12.2019
5855 Clouds 18 1023 77 10000 2.6 60 16:58 24.12.2019
5856 Clouds 18 1023 82 10000 2.6 50 16:40 24.12.2019
5857 Clouds 18 1023 82 10000 2.6 50 16:40 24.12.2019
5858 Clouds 18 1023 63 10000 2.6 80 16:21 24.12.2019
5859 Clouds 18 1024 82 10000 4.1 60 15:58 24.12.2019
5860 Clouds 17 1024 82 10000 4.1 60 15:38 24.12.2019
5861 Clouds 17 1024 77 10000 4.6 70 15:19 24.12.2019
5862 Clouds 17 1024 77 10000 4.6 70 14:58 24.12.2019
5863 Clouds 17 1025 77 10000 4.1 80 14:40 24.12.2019
5864 Clouds 16 1025 82 10000 4.6 60 14:22 24.12.2019
5865 Clouds 16 1025 82 10000 4.6 60 13:56 24.12.2019
5866 Clouds 16 1026 82 10000 4.1 70 13:38 24.12.2019
5867 Clouds 15 1026 82 10000 4.6 60 13:20 24.12.2019
5868 Clouds 15 1026 82 10000 4.6 60 12:57 24.12.2019
5869 Clouds 14 1026 82 10000 4.6 60 12:38 24.12.2019
5870 Clouds 14 1027 81 10000 5.1 50 12:19 24.12.2019
5871 Clouds 14 1027 87 10000 4.6 50 11:57 24.12.2019
5872 Clouds 14 1027 87 10000 4.6 50 11:38 24.12.2019
5873 Clouds 13 1027 87 10000 4.6 50 11:20 24.12.2019
5874 Clouds 12 1027 87 10000 4.6 50 10:57 24.12.2019
5875 Clouds 12 1027 87 10000 4.6 50 10:57 24.12.2019
5876 Clouds 12 1027 87 10000 4.6 50 10:38 24.12.2019
5877 Clouds 11 1027 93 10000 4.1 50 10:20 24.12.2019
5878 Clouds 11 1027 93 10000 4.1 50 09:58 24.12.2019
5879 Clouds 11 1027 93 10000 4.1 50 09:58 24.12.2019
5880 Clouds 11 1026 93 10000 4.1 50 09:39 24.12.2019
5881 Clouds 11 1026 93 10000 4.1 50 09:39 24.12.2019
5882 Clouds 11 1027 100 10000 4.1 40 09:21 24.12.2019
5883 Clouds 11 1026 100 10000 4.1 40 08:47 24.12.2019
5884 Clouds 11 1026 100 10000 4.6 50 08:24 24.12.2019
5885 Clouds 10 1026 100 10000 4.6 50 07:59 24.12.2019
5886 Clouds 10 1026 100 10000 5.1 50 07:39 24.12.2019
5887 Clouds 10 1026 100 10000 6.2 50 07:21 24.12.2019
5888 Mist 10 1026 100 1200 5.7 50 06:40 24.12.2019
5889 Mist 10 1026 100 1500 6.2 50 06:19 24.12.2019
5890 Mist 10 1026 100 3500 6.2 50 05:53 24.12.2019
5891 Fog 11 1026 100 400 5.7 40 05:19 24.12.2019
5892 Fog 11 1026 100 200 5.1 50 04:21 24.12.2019
5893 Fog 11 1026 100 300 4.1 40 03:48 24.12.2019
5894 Fog 11 1027 100 200 4.6 50 02:29 24.12.2019
5895 Fog 12 1027 100 200 3.6 50 01:57 24.12.2019
5896 Fog 12 1027 100 150 4.1 50 01:26 24.12.2019
5897 Fog 12 1027 100 150 4.1 50 00:58 24.12.2019
5898 Fog 12 1027 100 500 3.6 60 00:40 24.12.2019
5899 Clouds 12 1028 100 10000 3.1 60 00:20 24.12.2019
5900 Clouds 12 1028 100 10000 3.1 50 23:43 23.12.2019
5901 Clouds 13 1028 100 9000 2.6 50 23:24 23.12.2019
5902 Clouds 13 1028 100 6000 3.6 50 22:57 23.12.2019
5903 Clouds 13 1028 100 6000 3.6 50 22:38 23.12.2019
5904 Mist 13 1028 100 4000 3.1 40 22:20 23.12.2019
5905 Mist 13 1028 100 4000 3.1 40 21:57 23.12.2019
5906 Mist 13 1028 100 3000 3.6 40 21:37 23.12.2019
5907 Mist 13 1028 100 1200 3.1 40 21:19 23.12.2019
5908 Mist 13 1028 100 1200 3.1 40 20:59 23.12.2019
5909 Fog 13 1028 100 500 3.1 50 20:41 23.12.2019
5910 Mist 13 1028 100 1200 2.6 50 20:19 23.12.2019
5911 Mist 13 1028 100 1200 2.6 50 19:59 23.12.2019
5912 Fog 14 1028 100 150 1.5 50 19:41 23.12.2019
5913 Fog 14 1028 100 100 2.1 60 19:22 23.12.2019
5914 Fog 14 1028 100 100 2.1 60 18:58 23.12.2019
5915 Fog 14 1028 100 100 2.1 60 18:58 23.12.2019
5916 Fog 14 1028 100 100 2.1 60 18:39 23.12.2019
5917 Fog 15 1027 100 500 2.6 60 18:21 23.12.2019
5918 Mist 15 1027 100 2000 2.6 80 17:59 23.12.2019
5919 Mist 15 1027 100 2000 2.6 80 17:41 23.12.2019
5920 Mist 15 1027 100 2500 3.1 90 17:20 23.12.2019
5921 Clouds 15 1027 93 10000 1.5 160 16:59 23.12.2019
5922 Clouds 15 1027 100 6000 2.6 0 16:40 23.12.2019
5923 Clouds 15 1027 100 7000 1.5 310 16:19 23.12.2019
5924 Clouds 15 1027 100 7000 1.5 310 15:58 23.12.2019
5925 Clouds 15 1027 100 7000 2.1 290 15:37 23.12.2019
5926 Clouds 15 1027 100 7000 1 0 15:19 23.12.2019
5927 Fog 15 1028 100 6000 1 0 14:57 23.12.2019
5928 Fog 15 1028 100 6000 1 0 14:39 23.12.2019
5929 Fog 15 1028 100 6000 1 0 14:39 23.12.2019
5930 Fog 14 1028 100 400 1.5 120 14:19 23.12.2019
5931 Fog 14 1028 100 400 1.5 120 14:19 23.12.2019
5932 Fog 14 1028 100 400 1.5 120 13:57 23.12.2019
5933 Fog 14 1029 100 300 1.5 50 13:39 23.12.2019
5934 Fog 14 1029 100 250 2.6 60 13:20 23.12.2019
5935 Fog 14 1029 100 200 3.1 60 12:55 23.12.2019
5936 Fog 14 1029 100 200 3.1 60 12:37 23.12.2019
5937 Fog 14 1029 100 200 3.1 60 12:37 23.12.2019
5938 Fog 14 1029 100 200 3.1 70 12:18 23.12.2019
5939 Fog 13 1029 100 200 2.6 80 11:43 23.12.2019
5940 Fog 13 1029 100 300 2.1 50 11:25 23.12.2019
5941 Fog 13 1028 100 250 1 0 10:56 23.12.2019
5942 Fog 13 1028 100 250 1 0 10:38 23.12.2019
5943 Fog 12 1028 100 250 2.1 0 10:20 23.12.2019
5944 Fog 12 1028 100 250 2.1 0 09:59 23.12.2019
5945 Fog 12 1028 100 300 1.5 70 09:39 23.12.2019
5946 Fog 12 1028 100 350 1 0 09:20 23.12.2019
5947 Fog 12 1028 100 350 1.5 40 08:55 23.12.2019
5948 Fog 12 1028 100 350 1.5 40 08:37 23.12.2019
5949 Drizzle 12 1028 100 300 1.5 50 08:18 23.12.2019
5950 Fog 11 1027 100 300 1 0 07:43 23.12.2019
5951 Clouds 11 1027 100 200 0.5 0 07:20 23.12.2019
5952 Fog 11 1027 100 200 1 0 06:51 23.12.2019
5953 Fog 11 1027 100 200 1.5 230 06:24 23.12.2019
5954 Fog 11 1027 100 200 0.5 0 05:49 23.12.2019
5955 Fog 11 1027 100 900 0.5 0 05:22 23.12.2019
5956 Fog 12 1027 100 200 1 0 04:27 23.12.2019
5957 Fog 12 1027 100 300 1.5 210 02:56 23.12.2019
5958 Mist 12 1027 100 500 1.5 250 02:28 23.12.2019
5959 Fog 12 1027 100 5000 2.1 220 01:56 23.12.2019
5960 Fog 12 1027 100 9000 1.5 240 01:38 23.12.2019
5961 Fog 12 1027 100 10000 1.5 270 01:19 23.12.2019
5962 Fog 12 1027 100 10000 1.5 270 00:41 23.12.2019
5963 Clouds 13 1027 93 10000 2.1 200 00:19 23.12.2019
5964 Clouds 13 1027 93 10000 2.1 260 23:39 22.12.2019
5965 Clouds 13 1026 100 10000 1.5 250 23:20 22.12.2019
5966 Clouds 13 1026 100 10000 1.5 250 22:58 22.12.2019
5967 Clouds 14 1026 93 10000 2.6 280 22:39 22.12.2019
5968 Clouds 14 1026 93 10000 1.5 270 22:19 22.12.2019
5969 Clouds 14 1026 93 10000 1.5 280 21:57 22.12.2019
5970 Clouds 14 1026 93 10000 1.5 280 21:39 22.12.2019
5971 Clouds 15 1026 93 10000 2.1 260 21:20 22.12.2019
5972 Clouds 15 1026 93 10000 2.1 260 20:56 22.12.2019
5973 Clouds 15 1025 87 10000 2.1 260 20:38 22.12.2019
5974 Clouds 15 1025 93 10000 2.1 280 20:18 22.12.2019
5975 Clouds 15 1025 87 10000 2.6 290 19:55 22.12.2019
5976 Clouds 15 1025 87 10000 2.6 290 19:37 22.12.2019
5977 Clouds 15 1025 87 10000 3.1 280 19:18 22.12.2019
5978 Clouds 16 1024 87 10000 3.6 290 18:40 22.12.2019
5979 Clouds 16 1024 82 10000 3.6 300 18:22 22.12.2019
5980 Clouds 16 1024 82 10000 3.6 280 17:55 22.12.2019
5981 Clouds 16 1024 82 10000 3.6 280 17:37 22.12.2019
5982 Clouds 16 1024 82 10000 2.6 280 17:18 22.12.2019
5983 Clouds 17 1024 82 10000 2.6 280 16:56 22.12.2019
5984 Clouds 16 1023 82 10000 4.1 280 16:37 22.12.2019
5985 Clouds 17 1023 82 10000 4.1 270 16:19 22.12.2019
5986 Clouds 17 1023 82 8000 4.6 280 15:56 22.12.2019
5987 Clouds 17 1023 82 8000 4.6 280 15:36 22.12.2019
5988 Clouds 17 1023 82 8000 4.6 280 15:36 22.12.2019
5989 Clouds 17 1023 82 10000 5.1 270 15:18 22.12.2019
5990 Clouds 17 1023 82 10000 3.6 270 14:54 22.12.2019
5991 Clouds 17 1023 82 10000 3.6 270 14:36 22.12.2019
5992 Clouds 17 1023 82 10000 3.6 270 14:36 22.12.2019
5993 Clouds 17 1023 82 10000 5.1 240 14:18 22.12.2019
5994 Clouds 17 1023 82 10000 5.7 240 13:55 22.12.2019
5995 Clouds 17 1023 82 10000 5.7 240 13:36 22.12.2019
5996 Clouds 17 1023 88 10000 5.7 240 13:18 22.12.2019
5997 Clouds 17 1023 88 10000 5.7 240 13:18 22.12.2019
5998 Clouds 17 1023 88 10000 5.7 240 13:18 22.12.2019
5999 Clouds 17 1023 82 10000 6.2 230 12:54 22.12.2019
6000 Clouds 17 1023 82 10000 6.2 230 12:54 22.12.2019
6001 Clouds 17 1023 82 10000 6.2 230 12:54 22.12.2019
6002 Clouds 17 1023 82 10000 6.2 230 12:36 22.12.2019
6003 Clouds 16 1023 87 7000 3.6 220 12:18 22.12.2019
6004 Clouds 16 1022 87 7000 4.1 210 11:39 22.12.2019
6005 Clouds 16 1022 100 6000 4.1 220 11:20 22.12.2019
6006 Clouds 16 1022 100 6000 4.1 220 10:58 22.12.2019
6007 Clouds 15 1022 93 6000 4.1 220 10:40 22.12.2019
6008 Clouds 15 1021 93 8000 4.1 220 10:21 22.12.2019
6009 Clouds 15 1021 93 8000 4.1 220 09:58 22.12.2019
6010 Clouds 15 1021 93 8000 3.6 220 09:40 22.12.2019
6011 Clouds 15 1021 93 8000 4.1 230 09:21 22.12.2019
6012 Clouds 15 1021 93 8000 4.1 230 08:59 22.12.2019
6013 Clouds 15 1021 93 9000 4.1 230 08:37 22.12.2019
6014 Clouds 15 1020 93 9000 4.6 230 08:18 22.12.2019
6015 Clouds 15 1020 93 8000 3.6 230 07:38 22.12.2019
6016 Clouds 15 1020 93 8000 3.6 230 07:19 22.12.2019
6017 Clouds 15 1020 87 9000 4.6 220 06:40 22.12.2019
6018 Clouds 14 1020 93 9000 2.1 210 05:53 22.12.2019
6019 Clouds 15 1020 87 8000 3.6 220 05:21 22.12.2019
6020 Clouds 15 1020 93 8000 4.1 230 04:29 22.12.2019
6021 Clouds 15 1020 87 8000 3.6 230 03:52 22.12.2019
6022 Clouds 15 1019 93 9000 5.1 230 02:38 22.12.2019
6023 Clouds 15 1020 93 9000 6.7 240 01:42 22.12.2019
6024 Clouds 15 1020 87 9000 6.7 240 01:22 22.12.2019
6025 Clouds 15 1019 87 9000 6.7 240 00:45 22.12.2019
6026 Clouds 15 1019 87 9000 6.2 240 00:22 22.12.2019
6027 Clouds 15 1018 87 9000 6.7 240 23:56 21.12.2019
6028 Clouds 15 1018 87 9000 6.7 240 23:38 21.12.2019
6029 Clouds 15 1018 87 10000 7.2 240 23:19 21.12.2019
6030 Clouds 15 1018 87 10000 6.7 240 22:41 21.12.2019
6031 Clouds 15 1017 87 10000 7.2 240 22:19 21.12.2019
6032 Clouds 15 1017 87 10000 7.2 240 21:57 21.12.2019
6033 Clouds 15 1017 82 10000 8.2 240 21:38 21.12.2019
6034 Clouds 15 1017 87 10000 7.7 240 21:19 21.12.2019
6035 Clouds 15 1017 87 10000 7.7 240 20:58 21.12.2019
6036 Clouds 16 1016 87 10000 7.2 230 20:39 21.12.2019
6037 Clouds 16 1016 77 10000 7.2 230 20:21 21.12.2019
6038 Clouds 16 1016 77 10000 7.2 230 19:58 21.12.2019
6039 Clouds 16 1015 82 10000 7.7 230 19:40 21.12.2019
6040 Clouds 16 1015 82 6000 8.2 240 19:19 21.12.2019
6041 Clouds 16 1015 82 7000 7.7 230 18:45 21.12.2019
6042 Clouds 16 1014 77 8000 6.7 240 18:24 21.12.2019
6043 Rain 16 1014 72 10000 6.2 250 17:57 21.12.2019
6044 Rain 16 1014 72 10000 6.2 250 17:57 21.12.2019
6045 Rain 16 1014 72 10000 6.2 250 17:39 21.12.2019
6046 Clouds 16 1013 72 10000 8.7 260 17:21 21.12.2019
6047 Clouds 17 1013 72 10000 8.7 260 16:59 21.12.2019
6048 Clouds 17 1012 82 10000 7.2 250 16:41 21.12.2019
6049 Clouds 17 1012 82 10000 11.3 250 16:19 21.12.2019
6050 Clouds 17 1012 82 10000 11.3 250 15:57 21.12.2019
6051 Rain 17 1011 93 7000 9.8 250 15:38 21.12.2019
6052 Rain 17 1011 82 10000 10.3 250 15:19 21.12.2019
6053 Clouds 17 1011 82 10000 10.8 250 14:57 21.12.2019
6054 Clouds 17 1011 82 10000 10.8 250 14:38 21.12.2019
6055 Clouds 17 1011 88 10000 10.3 240 14:18 21.12.2019
6056 Clouds 17 1011 93 10000 10.8 240 13:55 21.12.2019
6057 Clouds 17 1011 93 10000 10.8 240 13:37 21.12.2019
6058 Clouds 17 1011 93 8000 10.8 240 13:18 21.12.2019
6059 Drizzle 17 1011 93 7000 10.3 230 12:54 21.12.2019
6060 Drizzle 17 1011 93 7000 10.3 230 12:36 21.12.2019
6061 Clouds 17 1010 93 8000 9.8 230 12:18 21.12.2019
6062 Clouds 17 1010 100 10000 8.7 240 11:42 21.12.2019
6063 Drizzle 17 1010 100 3000 8.7 240 11:24 21.12.2019
6064 Clouds 17 1009 100 8000 8.2 240 10:56 21.12.2019
6065 Clouds 17 1009 100 8000 8.2 240 10:37 21.12.2019
6066 Drizzle 17 1009 100 6000 8.2 250 10:19 21.12.2019
6067 Drizzle 17 1009 100 6000 8.2 250 10:19 21.12.2019
6068 Clouds 17 1009 100 9000 9.8 240 09:42 21.12.2019
6069 Drizzle 17 1008 100 2500 9.3 230 09:21 21.12.2019
6070 Drizzle 17 1008 100 2500 9.3 230 08:57 21.12.2019
6071 Drizzle 16 1008 100 3000 8.7 240 08:37 21.12.2019
6072 Drizzle 17 1008 100 2000 9.8 230 08:19 21.12.2019
6073 Drizzle 17 1008 100 2000 9.3 240 07:44 21.12.2019
6074 Drizzle 17 1007 93 2500 8.7 240 07:22 21.12.2019
6075 Drizzle 17 1007 93 2500 8.7 230 06:44 21.12.2019
6076 Drizzle 17 1007 93 2500 9.3 230 06:25 21.12.2019
6077 Drizzle 17 1007 93 3000 9.3 240 05:49 21.12.2019
6078 Drizzle 17 1007 100 2500 9.3 240 04:58 21.12.2019
6079 Drizzle 16 1006 100 2500 8.7 230 03:57 21.12.2019
6080 Drizzle 16 1007 93 2500 9.8 240 02:52 21.12.2019
6081 Drizzle 16 1007 93 4000 10.3 240 01:59 21.12.2019
6082 Drizzle 16 1007 100 2500 7.7 230 01:28 21.12.2019
6083 Drizzle 16 1007 100 3000 5.1 240 00:55 21.12.2019
6084 Drizzle 16 1007 100 3000 4.6 250 00:37 21.12.2019
6085 Drizzle 16 1006 100 3000 4.6 240 00:18 21.12.2019
6086 Drizzle 16 1006 100 3000 6.7 240 23:38 20.12.2019
6087 Clouds 16 1006 93 7000 8.2 240 23:19 20.12.2019
6088 Clouds 16 1006 93 7000 8.2 240 23:19 20.12.2019
6089 Rain 16 1006 93 6000 7.2 240 22:43 20.12.2019
6090 Drizzle 17 1006 93 4000 8.2 240 22:21 20.12.2019
6091 Drizzle 17 1006 93 4000 8.2 240 21:59 20.12.2019
6092 Drizzle 17 1006 93 6000 8.2 240 21:40 20.12.2019
6093 Drizzle 17 1006 93 4200 10.3 240 21:20 20.12.2019
6094 Drizzle 17 1006 93 4200 10.3 240 21:20 20.12.2019
6095 Drizzle 17 1005 93 7000 9.8 250 20:41 20.12.2019
6096 Drizzle 17 1005 93 6000 10.3 250 20:22 20.12.2019
6097 Drizzle 17 1005 93 6000 10.3 250 19:59 20.12.2019
6098 Drizzle 17 1005 93 7000 10.8 250 19:40 20.12.2019
6099 Rain 17 1004 93 7000 12.3 250 19:20 20.12.2019
6100 Rain 17 1004 93 7000 9.8 250 18:56 20.12.2019
6101 Rain 17 1004 93 7000 9.8 250 18:56 20.12.2019
6102 Rain 17 1004 93 7000 9.8 250 18:56 20.12.2019
6103 Rain 17 1004 93 7000 9.8 250 18:38 20.12.2019
6104 Drizzle 17 1003 93 5000 11.8 240 18:20 20.12.2019
6105 Drizzle 17 1003 93 2000 12.9 230 17:54 20.12.2019
6106 Drizzle 17 1003 93 2000 12.9 230 17:36 20.12.2019
6107 Drizzle 17 1003 93 2000 12.9 230 17:18 20.12.2019
6108 Mist 17 1003 93 5000 13.4 230 16:40 20.12.2019
6109 Mist 17 1003 93 5000 13.4 230 16:20 20.12.2019
6110 Clouds 17 1003 93 7000 12.3 230 15:57 20.12.2019
6111 Rain 17 1003 93 7000 13.9 230 15:39 20.12.2019
6112 Rain 17 1003 93 7000 13.9 230 15:20 20.12.2019
6113 Rain 17 1003 93 6000 12.3 220 14:58 20.12.2019
6114 Rain 17 1003 93 6000 12.3 220 14:39 20.12.2019
6115 Rain 17 1003 100 6000 13.4 220 14:21 20.12.2019
6116 Clouds 17 1003 93 6000 12.9 220 13:55 20.12.2019
6117 Clouds 17 1003 93 6000 13.4 220 13:36 20.12.2019
6118 Clouds 17 1003 93 6000 13.4 220 13:18 20.12.2019
6119 Drizzle 16 1004 100 6000 10.3 220 12:41 20.12.2019
6120 Drizzle 16 1005 100 8000 8.2 230 12:19 20.12.2019
6121 Drizzle 16 1006 100 7000 9.3 230 11:59 20.12.2019
6122 Rain 16 1005 100 10000 7.7 230 11:40 20.12.2019
6123 Rain 16 1005 100 10000 7.7 230 11:21 20.12.2019
6124 Drizzle 15 1005 100 6000 5.7 230 10:59 20.12.2019
6125 Drizzle 15 1005 100 2500 4.6 230 10:41 20.12.2019
6126 Drizzle 15 1005 100 2500 4.6 230 10:20 20.12.2019
6127 Drizzle 15 1005 100 3000 5.1 240 09:56 20.12.2019
6128 Drizzle 15 1004 100 2500 4.1 240 09:38 20.12.2019
6129 Drizzle 15 1004 100 2500 4.1 240 09:19 20.12.2019
6130 Drizzle 15 1005 100 10000 5.1 240 08:43 20.12.2019
6131 Drizzle 15 1004 100 8000 5.7 240 08:25 20.12.2019
6132 Drizzle 15 1004 100 10000 5.1 230 07:59 20.12.2019
6133 Drizzle 15 1004 93 10000 4.6 240 07:40 20.12.2019
6134 Drizzle 15 1004 93 10000 4.6 240 07:19 20.12.2019
6135 Drizzle 15 1004 93 10000 6.7 250 06:52 20.12.2019
6136 Drizzle 15 1003 100 10000 7.2 240 06:32 20.12.2019
6137 Drizzle 15 1003 100 10000 6.2 240 05:55 20.12.2019
6138 Drizzle 15 1003 100 10000 6.7 240 05:36 20.12.2019
6139 Drizzle 16 1001 93 7000 10.3 250 04:33 20.12.2019
6140 Clouds 16 1001 93 8000 11.3 240 03:30 20.12.2019
6141 Clouds 17 1001 93 10000 11.8 230 02:44 20.12.2019
6142 Clouds 17 1001 93 8000 12.3 230 01:52 20.12.2019
6143 Drizzle 17 1001 93 8000 12.3 230 01:33 20.12.2019
6144 Drizzle 16 1001 100 8000 10.3 220 00:44 20.12.2019
6145 Rain 16 1001 93 10000 7.7 230 00:25 20.12.2019
6146 Rain 15 1000 93 10000 9.8 220 23:44 19.12.2019
6147 Drizzle 15 1000 93 10000 9.3 230 23:26 19.12.2019
6148 Drizzle 15 1000 100 4000 14.9 210 22:59 19.12.2019
6149 Drizzle 16 1000 93 4500 14.9 220 22:37 19.12.2019
6150 Drizzle 17 1000 93 4500 14.9 220 22:19 19.12.2019
6151 Rain 16 999 100 2500 13.9 210 21:55 19.12.2019
6152 Drizzle 17 1000 93 6000 16.5 220 21:37 19.12.2019
6153 Drizzle 17 1000 93 6000 16.5 220 21:18 19.12.2019
6154 Drizzle 17 1000 93 6000 13.4 220 20:55 19.12.2019
6155 Clouds 17 1000 93 9000 15.9 210 20:36 19.12.2019
6156 Clouds 17 1000 93 9000 15.9 210 20:18 19.12.2019
6157 Drizzle 17 1000 93 8000 14.9 210 19:56 19.12.2019
6158 Drizzle 17 1001 93 7000 15.4 210 19:37 19.12.2019
6159 Drizzle 17 1001 93 7000 15.4 210 19:19 19.12.2019
6160 Drizzle 16 1000 100 3500 14.9 210 18:41 19.12.2019
6161 Drizzle 16 1000 100 2500 15.9 210 18:23 19.12.2019
6162 Drizzle 16 1001 100 4500 15.9 200 17:58 19.12.2019
6163 Drizzle 16 1002 100 5000 15.9 210 17:40 19.12.2019
6164 Drizzle 16 1002 100 5000 15.9 210 17:19 19.12.2019
6165 Drizzle 16 1002 93 6000 15.4 200 16:59 19.12.2019
6166 Drizzle 16 1002 93 6000 15.4 200 16:41 19.12.2019
6167 Clouds 16 1002 93 8000 13.4 200 16:22 19.12.2019
6168 Rain 16 1003 100 7000 12.9 200 15:59 19.12.2019
6169 Drizzle 16 1004 93 6000 11.8 220 15:40 19.12.2019
6170 Drizzle 16 1004 93 6000 11.8 220 15:20 19.12.2019
6171 Clouds 16 1004 93 9000 13.4 210 14:59 19.12.2019
6172 Drizzle 16 1005 93 3500 10.8 210 14:41 19.12.2019
6173 Drizzle 16 1005 93 3500 10.8 210 14:41 19.12.2019
6174 Drizzle 16 1005 93 3500 10.8 210 14:19 19.12.2019
6175 Rain 16 1006 93 7000 12.3 200 13:57 19.12.2019
6176 Drizzle 16 1006 100 4000 11.8 200 13:38 19.12.2019
6177 Drizzle 16 1006 100 4000 11.8 200 13:19 19.12.2019
6178 Rain 16 1007 93 5000 11.3 200 12:55 19.12.2019
6179 Rain 16 1008 93 8000 11.3 210 12:37 19.12.2019
6180 Rain 16 1008 93 8000 11.3 210 12:18 19.12.2019
6181 Clouds 16 1007 93 9000 11.8 210 11:57 19.12.2019
6182 Clouds 16 1007 93 9000 11.3 210 11:39 19.12.2019
6183 Clouds 16 1007 93 9000 11.3 210 11:18 19.12.2019
6184 Rain 16 1006 93 8000 11.3 210 10:55 19.12.2019
6185 Clouds 16 1007 100 6000 7.7 200 10:37 19.12.2019
6186 Clouds 16 1007 93 9000 10.8 210 10:18 19.12.2019
6187 Rain 16 1007 93 9000 8.7 220 09:40 19.12.2019
6188 Rain 16 1007 93 9000 8.7 220 09:21 19.12.2019
6189 Clouds 16 1008 93 10000 9.8 210 08:58 19.12.2019
6190 Clouds 16 1008 100 10000 9.3 210 08:40 19.12.2019
6191 Clouds 16 1008 100 10000 9.3 210 08:19 19.12.2019
6192 Clouds 16 1008 100 10000 7.7 210 07:57 19.12.2019
6193 Clouds 16 1008 100 10000 8.7 220 07:38 19.12.2019
6194 Clouds 16 1008 100 10000 8.7 220 07:19 19.12.2019
6195 Clouds 16 1008 100 10000 8.7 210 06:49 19.12.2019
6196 Clouds 16 1008 93 10000 8.2 220 06:29 19.12.2019
6197 Clouds 16 1009 93 10000 10.3 210 05:55 19.12.2019
6198 Clouds 16 1009 100 10000 9.8 210 05:34 19.12.2019
6199 Clouds 16 1009 100 10000 12.9 210 04:51 19.12.2019
6200 Clouds 16 1008 100 10000 10.8 200 02:54 19.12.2019
6201 Rain 16 1009 100 10000 13.9 190 02:22 19.12.2019
6202 Rain 16 1010 100 5000 12.3 200 01:22 19.12.2019
6203 Rain 16 1011 100 8000 13.9 190 00:41 19.12.2019
6204 Rain 16 1011 100 8000 13.9 190 00:22 19.12.2019
6205 Clouds 16 1011 100 10000 10.8 200 23:57 18.12.2019
6206 Clouds 16 1011 93 10000 12.9 190 23:38 18.12.2019
6207 Clouds 16 1011 93 10000 12.9 190 23:18 18.12.2019
6208 Clouds 16 1011 93 10000 13.4 190 22:55 18.12.2019
6209 Clouds 16 1011 93 10000 11.3 190 22:36 18.12.2019
6210 Clouds 16 1011 93 10000 11.3 190 22:18 18.12.2019
6211 Drizzle 16 1011 93 7000 11.8 190 21:56 18.12.2019
6212 Drizzle 16 1011 93 7000 11.8 190 21:56 18.12.2019
6213 Clouds 16 1011 93 10000 11.3 190 21:37 18.12.2019
6214 Clouds 16 1011 93 10000 11.3 190 21:19 18.12.2019
6215 Drizzle 16 1011 93 10000 10.8 200 20:55 18.12.2019
6216 Clouds 16 1011 100 10000 11.3 200 20:37 18.12.2019
6217 Clouds 16 1011 100 10000 11.3 200 20:18 18.12.2019
6218 Drizzle 16 1012 93 10000 11.8 200 19:55 18.12.2019
6219 Clouds 16 1012 93 10000 11.3 200 19:37 18.12.2019
6220 Clouds 16 1012 93 10000 11.3 200 19:18 18.12.2019
6221 Clouds 16 1012 93 10000 11.3 190 18:44 18.12.2019
6222 Clouds 16 1012 93 10000 10.8 190 18:25 18.12.2019
6223 Clouds 16 1012 93 10000 11.8 190 17:57 18.12.2019
6224 Clouds 16 1012 88 10000 12.3 190 17:39 18.12.2019
6225 Clouds 16 1012 88 10000 12.3 190 17:19 18.12.2019
6226 Clouds 16 1012 88 10000 10.8 190 16:55 18.12.2019
6227 Clouds 16 1012 88 10000 10.3 180 16:37 18.12.2019
6228 Clouds 16 1012 88 10000 9.3 180 16:18 18.12.2019
6229 Clouds 16 1012 88 10000 9.8 180 15:55 18.12.2019
6230 Clouds 16 1012 88 10000 9.8 180 15:37 18.12.2019
6231 Clouds 16 1012 88 10000 10.8 190 15:18 18.12.2019
6232 Clouds 16 1013 88 10000 9.8 180 14:40 18.12.2019
6233 Clouds 16 1014 93 10000 8.7 180 14:21 18.12.2019
6234 Clouds 16 1014 93 10000 8.7 180 13:57 18.12.2019
6235 Clouds 16 1014 93 10000 7.7 180 13:57 18.12.2019
6236 Clouds 16 1014 93 10000 7.7 180 13:38 18.12.2019
6237 Clouds 16 1015 93 10000 7.2 170 13:19 18.12.2019
6238 Clouds 16 1015 93 10000 7.2 170 12:57 18.12.2019
6239 Clouds 16 1015 93 10000 8.2 180 12:38 18.12.2019
6240 Clouds 16 1015 93 10000 8.7 190 12:19 18.12.2019
6241 Clouds 16 1015 93 10000 8.7 190 11:55 18.12.2019
6242 Clouds 16 1015 93 10000 8.7 190 11:55 18.12.2019
6243 Clouds 16 1015 93 10000 8.7 190 11:37 18.12.2019
6244 Clouds 16 1015 93 10000 9.8 180 11:19 18.12.2019
6245 Rain 15 1014 100 8000 7.7 200 10:55 18.12.2019
6246 Rain 15 1014 100 8000 7.7 200 10:37 18.12.2019
6247 Clouds 15 1014 100 10000 6.7 190 10:19 18.12.2019
6248 Clouds 15 1014 93 10000 7.2 180 09:50 18.12.2019
6249 Clouds 15 1014 93 10000 7.2 180 09:50 18.12.2019
6250 Clouds 15 1014 100 10000 8.7 190 09:18 18.12.2019
6251 Drizzle 15 1014 100 10000 8.2 190 08:41 18.12.2019
6252 Drizzle 14 1013 100 7000 7.2 190 08:22 18.12.2019
6253 Drizzle 14 1013 100 4000 7.7 180 07:43 18.12.2019
6254 Drizzle 14 1013 100 3000 7.7 180 07:23 18.12.2019
6255 Drizzle 14 1013 100 3000 7.7 180 06:56 18.12.2019
6256 Drizzle 14 1013 100 4000 7.2 180 06:27 18.12.2019
6257 Drizzle 14 1013 100 4000 7.7 180 05:54 18.12.2019
6258 Drizzle 13 1014 100 3000 6.2 180 04:57 18.12.2019
6259 Rain 13 1014 93 10000 4.6 180 02:55 18.12.2019
6260 Rain 13 1014 93 10000 4.6 180 02:37 18.12.2019
6261 Clouds 13 1014 93 10000 5.1 180 02:18 18.12.2019
6262 Clouds 13 1014 93 10000 5.1 180 01:41 18.12.2019
6263 Clouds 13 1014 93 10000 5.7 180 01:22 18.12.2019
6264 Rain 13 1015 93 10000 5.1 180 00:41 18.12.2019
6265 Rain 13 1015 82 10000 4.1 180 00:23 18.12.2019
6266 Rain 13 1015 82 10000 4.1 180 23:57 17.12.2019
6267 Rain 13 1015 82 10000 4.1 180 23:38 17.12.2019
6268 Rain 12 1014 87 10000 4.1 190 23:19 17.12.2019
6269 Clouds 12 1014 87 10000 4.6 190 22:56 17.12.2019
6270 Clouds 12 1014 87 10000 4.6 190 22:38 17.12.2019
6271 Rain 12 1014 81 10000 4.1 200 22:18 17.12.2019
6272 Rain 12 1014 81 10000 2.6 210 21:55 17.12.2019
6273 Rain 12 1014 81 10000 2.6 210 21:37 17.12.2019
6274 Rain 12 1014 81 10000 2.6 210 21:37 17.12.2019
6275 Clouds 12 1014 81 10000 2.6 200 21:19 17.12.2019
6276 Rain 12 1014 81 10000 3.1 210 20:57 17.12.2019
6277 Rain 13 1014 81 10000 3.1 210 20:38 17.12.2019
6278 Rain 13 1014 76 10000 2.1 190 20:18 17.12.2019
6279 Rain 13 1013 66 10000 3.6 220 19:55 17.12.2019
6280 Rain 13 1013 66 10000 3.6 220 19:37 17.12.2019
6281 Clouds 13 1013 66 10000 4.1 220 19:18 17.12.2019
6282 Clouds 13 1013 71 10000 3.6 210 18:43 17.12.2019
6283 Clouds 13 1013 71 10000 3.6 210 18:43 17.12.2019
6284 Clouds 13 1013 71 10000 3.6 210 18:23 17.12.2019
6285 Clouds 13 1012 66 10000 3.6 230 17:59 17.12.2019
6286 Clouds 13 1012 66 10000 3.6 230 17:41 17.12.2019
6287 Clouds 14 1012 58 10000 3.1 250 17:20 17.12.2019
6288 Clouds 14 1011 58 10000 4.6 240 16:56 17.12.2019
6289 Clouds 14 1011 58 10000 4.6 240 16:38 17.12.2019
6290 Clouds 14 1011 58 10000 3.1 260 16:19 17.12.2019
6291 Clouds 14 1011 58 10000 3.1 260 15:58 17.12.2019
6292 Clouds 14 1011 54 10000 4.1 260 15:37 17.12.2019
6293 Clouds 14 1011 54 10000 4.1 260 15:37 17.12.2019
6294 Clouds 14 1011 54 10000 3.6 290 15:19 17.12.2019
6295 Clouds 14 1010 54 10000 4.1 260 14:56 17.12.2019
6296 Clouds 14 1010 54 10000 4.1 260 14:37 17.12.2019
6297 Clouds 14 1010 62 10000 2.6 270 14:18 17.12.2019
6298 Clouds 14 1010 62 10000 2.6 270 14:18 17.12.2019
6299 Clouds 14 1010 62 10000 2.6 270 14:18 17.12.2019
6300 Clouds 14 1010 62 10000 2.6 270 13:56 17.12.2019
6301 Clouds 14 1010 62 10000 3.6 270 13:37 17.12.2019
6302 Clouds 13 1010 62 10000 1.5 320 13:18 17.12.2019
6303 Clouds 13 1010 62 10000 1.5 320 12:55 17.12.2019
6304 Clouds 13 1010 62 10000 1.5 320 12:37 17.12.2019
6305 Clouds 13 1010 62 10000 1.5 0 12:18 17.12.2019
6306 Clouds 13 1010 66 10000 1.5 300 11:54 17.12.2019
6307 Clouds 12 1010 66 10000 1.5 300 11:36 17.12.2019
6308 Clouds 12 1009 66 10000 2.1 280 11:18 17.12.2019
6309 Clouds 12 1009 66 10000 2.1 280 11:18 17.12.2019
6310 Clouds 11 1008 76 10000 1.5 250 10:54 17.12.2019
6311 Clouds 11 1008 76 10000 1.5 250 10:36 17.12.2019
6312 Clouds 10 1008 76 10000 2.1 270 10:18 17.12.2019
6313 Clouds 9 1007 81 10000 1 300 09:42 17.12.2019
6314 Clouds 9 1007 87 10000 2.6 310 09:21 17.12.2019
6315 Clear 9 1006 81 10000 2.1 310 08:58 17.12.2019
6316 Clear 9 1006 81 10000 2.1 310 08:39 17.12.2019
6317 Clouds 9 1006 81 10000 2.1 310 08:21 17.12.2019
6318 Clouds 9 1005 81 10000 2.6 320 07:56 17.12.2019
6319 Clouds 9 1005 81 10000 2.6 320 07:38 17.12.2019
6320 Clouds 9 1005 81 10000 3.6 320 07:18 17.12.2019
6321 Clouds 9 1005 81 10000 3.6 320 06:36 17.12.2019
6322 Clouds 10 1004 87 10000 2.1 340 06:18 17.12.2019
6323 Clouds 9 1004 87 10000 2.6 330 05:38 17.12.2019
6324 Clouds 9 1003 87 10000 4.1 320 04:46 17.12.2019
6325 Clouds 10 1001 81 10000 2.6 310 02:47 17.12.2019
6326 Clouds 10 1001 81 10000 2.6 320 01:56 17.12.2019
6327 Clouds 10 1000 76 10000 4.1 320 01:21 17.12.2019
6328 Clouds 10 999 81 10000 4.1 320 00:39 17.12.2019
6329 Clouds 11 999 81 10000 4.1 320 00:21 17.12.2019
6330 Clouds 11 999 81 10000 5.7 330 23:43 16.12.2019
6331 Clouds 11 999 87 10000 4.6 320 23:19 16.12.2019
6332 Clouds 11 998 81 10000 5.1 330 22:58 16.12.2019
6333 Clouds 11 998 81 10000 5.1 330 22:38 16.12.2019
6334 Clouds 11 998 81 10000 6.2 340 22:20 16.12.2019
6335 Clouds 11 998 81 10000 6.2 340 21:56 16.12.2019
6336 Clouds 11 997 87 10000 5.7 340 21:38 16.12.2019
6337 Clouds 11 997 93 10000 4.6 340 21:20 16.12.2019
6338 Clouds 10 996 93 10000 2.6 340 20:58 16.12.2019
6339 Clouds 10 996 93 10000 2.6 340 20:39 16.12.2019
6340 Rain 10 996 93 10000 4.1 330 20:19 16.12.2019
6341 Rain 10 996 93 10000 4.1 330 19:56 16.12.2019
6342 Rain 10 995 100 10000 4.6 330 19:37 16.12.2019
6343 Rain 10 995 100 10000 4.6 330 19:19 16.12.2019
6344 Rain 10 995 100 10000 4.6 330 18:58 16.12.2019
6345 Rain 10 995 100 10000 4.6 330 18:58 16.12.2019
6346 Rain 10 995 100 10000 4.6 330 18:40 16.12.2019
6347 Rain 10 995 100 10000 4.6 330 18:40 16.12.2019
6348 Rain 11 995 93 10000 5.1 350 18:20 16.12.2019
6349 Rain 11 995 93 10000 1.5 270 17:57 16.12.2019
6350 Rain 11 995 93 10000 1.5 270 17:39 16.12.2019
6351 Rain 11 994 93 10000 1.5 270 17:21 16.12.2019
6352 Rain 12 994 93 10000 3.1 330 16:57 16.12.2019
6353 Rain 12 994 93 10000 3.1 330 16:38 16.12.2019
6354 Rain 12 994 87 10000 2.1 300 16:19 16.12.2019
6355 Rain 12 994 87 10000 2.1 300 15:58 16.12.2019
6356 Rain 12 994 87 10000 3.1 330 15:38 16.12.2019
6357 Rain 12 994 87 10000 3.1 310 15:20 16.12.2019
6358 Rain 12 995 87 10000 3.6 320 14:57 16.12.2019
6359 Rain 12 995 87 10000 3.6 320 14:37 16.12.2019
6360 Rain 12 995 93 10000 3.6 330 14:19 16.12.2019
6361 Rain 12 995 93 10000 3.6 330 14:19 16.12.2019
6362 Rain 12 995 93 10000 3.6 330 14:19 16.12.2019
6363 Rain 12 995 93 10000 3.6 330 14:19 16.12.2019
6364 Rain 12 995 93 10000 3.6 330 14:19 16.12.2019
6365 Rain 12 996 87 10000 3.6 320 13:56 16.12.2019
6366 Rain 12 996 87 10000 3.6 320 13:37 16.12.2019
6367 Clouds 12 996 93 9000 4.1 320 13:19 16.12.2019
6368 Clouds 12 996 93 9000 4.1 320 12:57 16.12.2019
6369 Clouds 12 996 93 9000 4.1 320 12:39 16.12.2019
6370 Rain 12 996 93 6000 4.1 290 12:19 16.12.2019
6371 Drizzle 12 996 100 4500 4.1 290 11:58 16.12.2019
6372 Drizzle 12 996 100 4500 4.1 290 11:40 16.12.2019
6373 Drizzle 12 996 100 3500 4.1 300 11:20 16.12.2019
6374 Drizzle 11 996 100 1300 3.6 310 10:56 16.12.2019
6375 Drizzle 11 996 100 1300 3.6 310 10:38 16.12.2019
6376 Drizzle 11 997 100 4000 1 0 10:19 16.12.2019
6377 Rain 12 996 100 4000 2.1 50 09:45 16.12.2019
6378 Rain 12 996 100 4000 2.1 50 09:27 16.12.2019
6379 Rain 12 997 100 5000 0.5 0 08:55 16.12.2019
6380 Rain 12 997 100 5000 0.5 0 08:37 16.12.2019
6381 Clouds 12 998 100 10000 1 0 08:18 16.12.2019
6382 Rain 12 998 100 5000 1 0 07:42 16.12.2019
6383 Clouds 12 998 100 8000 1 0 07:21 16.12.2019
6384 Clouds 12 998 100 8000 1 0 06:45 16.12.2019
6385 Rain 13 999 100 7000 1.5 340 06:22 16.12.2019
6386 Clouds 13 1000 100 8000 2.27 172 05:49 16.12.2019
6387 Drizzle 13 1000 100 7000 1 0 05:30 16.12.2019
6388 Clouds 13 1001 100 10000 1.5 120 04:21 16.12.2019
6389 Rain 13 1003 100 10000 2.6 190 02:19 16.12.2019
6390 Clouds 13 1004 100 10000 3.1 210 01:44 16.12.2019
6391 Rain 14 1004 100 8000 3.1 200 00:42 16.12.2019
6392 Drizzle 14 1005 93 6000 4.6 210 00:24 16.12.2019
6393 Drizzle 14 1005 93 4000 6.7 230 23:58 15.12.2019
6394 Drizzle 14 1005 93 4000 6.7 230 23:38 15.12.2019
6395 Rain 14 1005 100 8000 7.7 180 23:20 15.12.2019
6396 Clouds 14 1006 100 10000 7.2 180 22:56 15.12.2019
6397 Clouds 14 1006 100 10000 7.2 180 22:37 15.12.2019
6398 Clouds 14 1006 93 10000 7.7 180 22:18 15.12.2019
6399 Rain 15 1007 93 10000 6.7 180 21:56 15.12.2019
6400 Rain 15 1007 93 10000 6.7 180 21:56 15.12.2019
6401 Rain 15 1007 93 10000 6.7 180 21:37 15.12.2019
6402 Rain 15 1007 93 10000 6.7 180 21:37 15.12.2019
6403 Clouds 14 1007 100 10000 6.7 170 21:19 15.12.2019
6404 Clouds 14 1007 100 10000 7.7 180 20:56 15.12.2019
6405 Clouds 15 1007 100 10000 7.7 180 20:37 15.12.2019
6406 Drizzle 15 1007 100 10000 7.2 180 20:18 15.12.2019
6407 Drizzle 14 1008 100 5000 6.2 180 19:57 15.12.2019
6408 Drizzle 14 1008 100 5000 6.2 180 19:57 15.12.2019
6409 Drizzle 14 1008 100 5000 6.2 180 19:38 15.12.2019
6410 Drizzle 14 1008 100 5000 6.2 180 19:18 15.12.2019
6411 Drizzle 15 1008 100 5000 6.2 180 18:56 15.12.2019
6412 Drizzle 15 1008 100 5000 6.2 180 18:56 15.12.2019
6413 Drizzle 15 1008 100 5000 6.2 180 18:38 15.12.2019
6414 Clouds 15 1009 93 10000 7.2 190 18:18 15.12.2019
6415 Clouds 15 1009 93 10000 7.2 190 18:18 15.12.2019
6416 Clouds 15 1009 87 10000 8.2 190 17:56 15.12.2019
6417 Clouds 15 1009 87 10000 8.2 190 17:37 15.12.2019
6418 Drizzle 15 1009 100 9000 8.2 180 17:18 15.12.2019
6419 Clouds 15 1010 93 10000 7.2 200 16:54 15.12.2019
6420 Clouds 15 1010 93 10000 7.2 200 16:36 15.12.2019
6421 Clouds 15 1010 82 10000 8.2 210 16:18 15.12.2019
6422 Drizzle 15 1011 87 10000 8.7 200 15:54 15.12.2019
6423 Drizzle 15 1011 87 10000 8.7 200 15:36 15.12.2019
6424 Drizzle 15 1011 82 10000 8.7 200 15:18 15.12.2019
6425 Clouds 15 1012 82 10000 8.7 200 14:54 15.12.2019
6426 Clouds 15 1012 82 10000 8.7 200 14:36 15.12.2019
6427 Clouds 15 1013 82 10000 9.3 200 14:18 15.12.2019
6428 Clouds 16 1013 82 10000 9.3 200 13:54 15.12.2019
6429 Clouds 15 1013 82 10000 9.3 200 13:36 15.12.2019
6430 Clouds 16 1014 82 10000 8.2 200 13:18 15.12.2019
6431 Clouds 16 1014 82 10000 8.2 200 12:55 15.12.2019
6432 Clouds 15 1014 82 10000 8.2 200 12:37 15.12.2019
6433 Clouds 15 1014 87 10000 7.2 200 12:19 15.12.2019
6434 Clouds 14 1014 93 10000 6.7 200 11:38 15.12.2019
6435 Clouds 14 1014 93 10000 6.2 190 11:19 15.12.2019
6436 Clouds 14 1015 100 10000 4.6 210 10:56 15.12.2019
6437 Clouds 14 1015 100 10000 4.6 210 10:38 15.12.2019
6438 Clouds 14 1015 93 10000 3.6 210 10:19 15.12.2019
6439 Clouds 14 1015 93 10000 3.6 210 09:58 15.12.2019
6440 Drizzle 14 1014 93 10000 3.6 220 09:37 15.12.2019
6441 Drizzle 13 1015 100 4500 4.6 190 09:19 15.12.2019
6442 Clouds 13 1015 100 10000 2.6 200 08:55 15.12.2019
6443 Clouds 13 1015 100 10000 2.6 200 08:36 15.12.2019
6444 Clouds 13 1015 100 10000 4.1 200 08:18 15.12.2019
6445 Clouds 13 1015 100 10000 4.1 200 07:47 15.12.2019
6446 Clouds 13 1015 100 10000 4.1 200 07:28 15.12.2019
6447 Clouds 13 1015 100 10000 1 0 06:26 15.12.2019
6448 Clouds 13 1016 93 10000 2.1 220 05:49 15.12.2019
6449 Clouds 13 1016 100 10000 2.1 230 05:22 15.12.2019
6450 Clouds 13 1017 100 10000 3.1 190 04:22 15.12.2019
6451 Drizzle 13 1018 100 9000 4.1 210 02:55 15.12.2019
6452 Drizzle 13 1018 100 9000 4.1 210 02:32 15.12.2019
6453 Clouds 13 1018 100 10000 2.1 240 01:41 15.12.2019
6454 Clouds 13 1019 93 10000 2.1 250 01:19 15.12.2019
6455 Clouds 13 1019 93 10000 2.1 250 00:51 15.12.2019
6456 Clouds 13 1019 93 10000 2.1 250 00:32 15.12.2019
6457 Drizzle 13 1019 100 9000 1 210 23:55 14.12.2019
6458 Drizzle 13 1019 100 9000 1 210 23:37 14.12.2019
6459 Clouds 13 1019 93 10000 3.1 200 23:18 14.12.2019
6460 Clouds 13 1019 93 10000 3.1 200 23:18 14.12.2019
6461 Drizzle 13 1019 93 9000 2.6 240 22:56 14.12.2019
6462 Drizzle 13 1019 93 9000 2.6 240 22:37 14.12.2019
6463 Clouds 13 1020 93 10000 4.1 200 22:18 14.12.2019
6464 Clouds 13 1020 93 10000 3.6 210 21:55 14.12.2019
6465 Clouds 13 1020 93 10000 3.6 210 21:36 14.12.2019
6466 Drizzle 14 1020 93 10000 3.1 200 21:18 14.12.2019
6467 Clouds 14 1020 93 10000 3.6 210 20:42 14.12.2019
6468 Clouds 14 1020 93 10000 4.1 210 20:20 14.12.2019
6469 Clouds 14 1020 87 10000 4.6 220 19:59 14.12.2019
6470 Clouds 14 1020 87 10000 4.6 220 19:39 14.12.2019
6471 Rain 14 1020 87 10000 5.1 210 19:21 14.12.2019
6472 Rain 14 1020 87 10000 5.1 210 18:56 14.12.2019
6473 Rain 14 1020 87 10000 5.1 210 18:38 14.12.2019
6474 Clouds 14 1020 82 10000 4.6 220 18:20 14.12.2019
6475 Clouds 15 1020 77 10000 4.6 230 17:54 14.12.2019
6476 Clouds 15 1020 77 10000 4.6 230 17:36 14.12.2019
6477 Clouds 15 1020 72 10000 4.6 220 17:18 14.12.2019
6478 Clouds 15 1020 72 10000 4.6 240 16:41 14.12.2019
6479 Clouds 15 1020 72 10000 5.7 240 16:19 14.12.2019
6480 Clouds 15 1020 67 10000 5.7 230 15:55 14.12.2019
6481 Clouds 16 1020 67 10000 5.7 230 15:36 14.12.2019
6482 Clouds 16 1020 72 10000 4.1 250 15:18 14.12.2019
6483 Clouds 16 1021 72 10000 4.6 250 14:40 14.12.2019
6484 Clouds 16 1021 82 10000 3.1 230 14:22 14.12.2019
6485 Clouds 16 1021 82 10000 3.1 230 13:59 14.12.2019
6486 Clouds 16 1022 87 10000 4.6 230 13:41 14.12.2019
6487 Clouds 16 1022 87 10000 4.6 230 13:41 14.12.2019
6488 Clouds 15 1022 87 10000 5.7 230 13:19 14.12.2019
6489 Clouds 15 1022 87 10000 5.7 230 12:57 14.12.2019
6490 Clouds 15 1022 87 10000 5.7 230 12:38 14.12.2019
6491 Clouds 15 1023 87 10000 4.1 230 12:20 14.12.2019
6492 Clouds 15 1023 87 10000 3.6 230 11:56 14.12.2019
6493 Clouds 14 1022 93 10000 3.1 230 11:38 14.12.2019
6494 Clouds 14 1022 93 10000 3.1 230 11:19 14.12.2019
6495 Clouds 13 1022 100 10000 2.6 250 10:56 14.12.2019
6496 Clouds 13 1022 100 10000 2.6 250 10:38 14.12.2019
6497 Clouds 13 1022 100 10000 1 0 10:19 14.12.2019
6498 Clouds 12 1022 93 10000 3.1 230 09:43 14.12.2019
6499 Clouds 12 1022 100 10000 2.6 220 09:23 14.12.2019
6500 Clouds 12 1022 100 10000 2.6 220 08:59 14.12.2019
6501 Clouds 12 1022 100 10000 2.6 250 08:40 14.12.2019
6502 Clouds 12 1022 100 10000 1.5 240 08:19 14.12.2019
6503 Clouds 13 1022 100 10000 2.6 240 07:40 14.12.2019
6504 Clouds 13 1022 100 10000 2.6 230 07:22 14.12.2019
6505 Clouds 12 1022 100 10000 2.6 230 06:55 14.12.2019
6506 Clouds 13 1022 100 10000 2.6 230 06:36 14.12.2019
6507 Clouds 13 1022 100 10000 2.1 260 05:52 14.12.2019
6508 Clouds 13 1023 93 10000 2.1 230 04:34 14.12.2019
6509 Clouds 13 1023 87 10000 1.5 280 02:25 14.12.2019
6510 Clouds 13 1023 93 10000 2.6 250 01:44 14.12.2019
6511 Clouds 13 1023 87 10000 1.5 240 01:22 14.12.2019
6512 Clouds 13 1024 93 10000 2.6 230 00:43 14.12.2019
6513 Clouds 13 1024 93 10000 2.6 240 00:24 14.12.2019
6514 Clouds 14 1024 82 10000 2.1 270 23:43 13.12.2019
6515 Clouds 14 1024 87 10000 3.1 260 23:22 13.12.2019
6516 Clouds 14 1024 87 10000 2.1 250 22:59 13.12.2019
6517 Clouds 14 1024 87 10000 2.1 250 22:40 13.12.2019
6518 Clouds 14 1024 87 10000 1.5 260 22:19 13.12.2019
6519 Clouds 15 1024 82 10000 2.1 280 21:55 13.12.2019
6520 Clouds 15 1024 82 10000 2.1 280 21:36 13.12.2019
6521 Clouds 14 1024 87 10000 2.6 280 21:18 13.12.2019
6522 Clouds 14 1024 87 10000 2.6 270 20:40 13.12.2019
6523 Clouds 15 1024 82 10000 3.1 280 20:21 13.12.2019
6524 Clouds 15 1024 82 10000 3.1 280 19:58 13.12.2019
6525 Clouds 15 1024 82 10000 3.1 280 19:40 13.12.2019
6526 Clouds 15 1024 82 10000 3.1 280 19:21 13.12.2019
6527 Clouds 15 1024 82 10000 3.1 290 18:58 13.12.2019
6528 Clouds 15 1024 82 10000 3.1 300 18:40 13.12.2019
6529 Clouds 15 1024 82 10000 3.1 300 18:19 13.12.2019
6530 Clouds 15 1024 82 10000 3.1 300 18:19 13.12.2019
6531 Clouds 15 1024 82 10000 4.1 290 17:42 13.12.2019
6532 Clouds 16 1024 82 10000 4.1 290 17:19 13.12.2019
6533 Clouds 16 1024 82 10000 4.6 300 16:59 13.12.2019
6534 Rain 16 1024 82 10000 4.6 300 16:39 13.12.2019
6535 Rain 16 1024 82 10000 4.6 300 16:20 13.12.2019
6536 Rain 16 1024 77 10000 4.6 280 15:43 13.12.2019
6537 Clouds 16 1024 77 10000 5.1 300 15:23 13.12.2019
6538 Clouds 16 1024 77 10000 5.1 300 15:23 13.12.2019
6539 Clouds 16 1024 82 10000 4.6 290 14:59 13.12.2019
6540 Clouds 16 1024 72 10000 5.1 290 14:41 13.12.2019
6541 Clouds 16 1024 72 10000 5.1 290 14:20 13.12.2019
6542 Clouds 16 1025 77 10000 5.1 300 13:57 13.12.2019
6543 Clouds 16 1025 82 10000 4.6 290 13:37 13.12.2019
6544 Clouds 16 1025 82 10000 4.6 290 13:19 13.12.2019
6545 Clouds 16 1026 82 10000 4.6 300 12:42 13.12.2019
6546 Clouds 16 1026 82 10000 4.6 300 12:20 13.12.2019
6547 Clouds 15 1025 87 10000 4.6 300 11:57 13.12.2019
6548 Clouds 15 1025 93 10000 4.6 290 11:39 13.12.2019
6549 Clouds 15 1025 93 10000 4.6 290 11:21 13.12.2019
6550 Drizzle 14 1025 93 4500 4.6 280 10:42 13.12.2019
6551 Clouds 14 1025 93 10000 4.6 260 10:23 13.12.2019
6552 Clouds 14 1025 93 10000 4.6 270 09:56 13.12.2019
6553 Clouds 14 1024 93 10000 4.1 260 09:38 13.12.2019
6554 Clouds 14 1024 93 10000 4.1 260 09:18 13.12.2019
6555 Clouds 14 1024 87 10000 3.1 270 08:41 13.12.2019
6556 Clouds 14 1024 87 10000 3.1 270 08:23 13.12.2019
6557 Clouds 14 1024 87 10000 3.6 290 07:45 13.12.2019
6558 Clouds 14 1024 87 10000 3.6 280 07:21 13.12.2019
6559 Clouds 14 1023 87 10000 4.1 300 06:54 13.12.2019
6560 Clouds 14 1024 87 10000 5.1 280 06:28 13.12.2019
6561 Clouds 14 1024 82 10000 5.7 290 05:46 13.12.2019
6562 Clouds 14 1024 87 10000 5.1 300 05:26 13.12.2019
6563 Clouds 14 1024 87 10000 5.1 290 04:35 13.12.2019
6564 Clouds 14 1024 87 10000 7.2 290 03:46 13.12.2019
6565 Drizzle 14 1024 93 9000 5.7 290 02:34 13.12.2019
6566 Drizzle 14 1024 100 6000 5.1 300 01:44 13.12.2019
6567 Clouds 14 1024 87 10000 6.7 300 00:56 13.12.2019
6568 Drizzle 14 1024 87 8000 7.2 300 00:37 13.12.2019
6569 Drizzle 14 1024 100 6000 4.1 290 23:57 12.12.2019
6570 Drizzle 14 1024 93 6000 6.2 300 23:39 12.12.2019
6571 Drizzle 14 1024 93 6000 6.2 300 23:20 12.12.2019
6572 Drizzle 15 1024 93 9000 6.2 300 22:55 12.12.2019
6573 Drizzle 15 1023 93 4000 6.2 300 22:37 12.12.2019
6574 Drizzle 15 1023 93 4000 6.2 300 22:18 12.12.2019
6575 Drizzle 14 1024 100 5000 4.6 290 21:54 12.12.2019
6576 Drizzle 14 1023 87 5000 5.7 280 21:36 12.12.2019
6577 Drizzle 14 1023 87 5000 5.7 280 21:18 12.12.2019
6578 Clouds 14 1024 93 10000 4.6 280 20:55 12.12.2019
6579 Drizzle 14 1024 87 6000 6.7 270 20:37 12.12.2019
6580 Drizzle 14 1024 87 6000 6.7 270 20:19 12.12.2019
6581 Clouds 14 1024 93 10000 5.7 280 19:42 12.12.2019
6582 Drizzle 14 1024 93 4500 5.7 260 19:22 12.12.2019
6583 Drizzle 14 1024 93 9000 6.2 260 18:58 12.12.2019
6584 Drizzle 14 1024 93 9000 6.2 250 18:40 12.12.2019
6585 Drizzle 14 1024 93 9000 6.2 250 18:20 12.12.2019
6586 Drizzle 14 1024 93 3500 6.2 260 17:57 12.12.2019
6587 Drizzle 14 1024 93 3500 6.2 260 17:57 12.12.2019
6588 Rain 14 1024 93 8000 6.2 260 17:39 12.12.2019
6589 Rain 14 1024 93 8000 6.2 260 17:20 12.12.2019
6590 Rain 14 1024 82 9000 7.7 260 16:57 12.12.2019
6591 Rain 14 1024 87 10000 6.2 270 16:39 12.12.2019
6592 Rain 14 1024 87 10000 6.2 270 16:20 12.12.2019
6593 Rain 14 1025 82 10000 6.2 260 15:56 12.12.2019
6594 Rain 14 1025 82 10000 6.2 260 15:56 12.12.2019
6595 Rain 15 1025 82 8000 6.2 270 15:38 12.12.2019
6596 Rain 15 1025 82 8000 6.2 270 15:18 12.12.2019
6597 Clouds 15 1026 77 10000 7.2 260 14:38 12.12.2019
6598 Clouds 15 1026 77 10000 7.2 260 14:38 12.12.2019
6599 Clouds 15 1026 77 10000 7.2 260 14:20 12.12.2019
6600 Rain 15 1027 77 10000 6.7 260 13:58 12.12.2019
6601 Clouds 15 1027 77 10000 5.1 270 13:40 12.12.2019
6602 Clouds 15 1027 77 10000 5.1 270 13:21 12.12.2019
6603 Clouds 14 1027 82 10000 4.6 280 12:59 12.12.2019
6604 Rain 14 1027 87 10000 4.1 280 12:40 12.12.2019
6605 Rain 14 1027 87 10000 4.1 280 12:21 12.12.2019
6606 Rain 14 1027 82 10000 5.1 260 11:57 12.12.2019
6607 Rain 14 1028 87 10000 4.1 250 11:38 12.12.2019
6608 Rain 13 1028 87 10000 4.1 250 11:19 12.12.2019
6609 Rain 13 1028 82 10000 4.6 260 10:56 12.12.2019
6610 Clouds 13 1028 76 10000 3.6 260 10:38 12.12.2019
6611 Clouds 13 1028 76 10000 3.6 260 10:20 12.12.2019
6612 Clouds 13 1027 81 10000 3.6 250 09:55 12.12.2019
6613 Clouds 13 1027 87 10000 3.6 250 09:37 12.12.2019
6614 Clouds 12 1027 87 10000 3.6 250 09:18 12.12.2019
6615 Clouds 12 1028 87 10000 3.6 250 08:43 12.12.2019
6616 Clouds 12 1028 87 10000 3.6 250 08:43 12.12.2019
6617 Clouds 12 1028 87 10000 3.6 260 08:25 12.12.2019
6618 Clouds 12 1028 81 10000 2.6 270 07:49 12.12.2019
6619 Clouds 12 1028 81 10000 4.1 270 07:27 12.12.2019
6620 Clouds 12 1028 87 10000 3.1 290 06:55 12.12.2019
6621 Clouds 12 1028 93 10000 4.1 260 06:35 12.12.2019
6622 Clouds 12 1028 93 10000 4.1 270 05:42 12.12.2019
6623 Clouds 12 1029 87 10000 3.6 300 04:55 12.12.2019
6624 Clouds 11 1029 87 10000 3.1 300 04:23 12.12.2019
6625 Clouds 11 1030 87 10000 2.6 260 02:40 12.12.2019
6626 Clouds 11 1030 93 10000 2.1 240 02:22 12.12.2019
6627 Clouds 11 1031 87 10000 2.6 250 01:54 12.12.2019
6628 Clouds 11 1031 87 10000 2.6 250 01:32 12.12.2019
6629 Clouds 11 1031 81 10000 2.1 260 00:47 12.12.2019
6630 Clouds 10 1031 87 10000 2.6 250 00:21 12.12.2019
6631 Clouds 10 1031 81 10000 2.6 230 23:45 11.12.2019
6632 Clouds 10 1031 87 10000 2.1 230 23:21 11.12.2019
6633 Clouds 10 1031 81 10000 1.5 240 22:59 11.12.2019
6634 Clear 10 1031 87 10000 2.1 240 22:39 11.12.2019
6635 Clear 9 1031 87 10000 2.1 240 22:20 11.12.2019
6636 Clear 10 1031 81 10000 1.5 270 21:59 11.12.2019
6637 Clouds 10 1031 81 10000 1 0 21:39 11.12.2019
6638 Clouds 10 1031 81 10000 1 0 21:20 11.12.2019
6639 Clouds 11 1031 76 10000 1.5 310 20:57 11.12.2019
6640 Clear 11 1031 76 10000 1.5 340 20:39 11.12.2019
6641 Clouds 11 1031 76 10000 1.5 340 20:19 11.12.2019
6642 Clouds 11 1031 71 10000 2.6 340 19:58 11.12.2019
6643 Clouds 11 1031 71 10000 3.1 350 19:40 11.12.2019
6644 Clouds 11 1031 71 10000 3.1 350 19:20 11.12.2019
6645 Clouds 12 1030 66 10000 4.6 350 18:55 11.12.2019
6646 Clouds 12 1030 66 10000 5.1 350 18:37 11.12.2019
6647 Clouds 12 1030 66 10000 5.1 350 18:18 11.12.2019
6648 Clouds 13 1030 62 10000 5.7 10 17:55 11.12.2019
6649 Clouds 13 1030 58 10000 6.7 360 17:36 11.12.2019
6650 Clouds 13 1030 58 10000 6.7 360 17:18 11.12.2019
6651 Clouds 14 1030 62 10000 7.2 350 16:55 11.12.2019
6652 Clouds 14 1030 62 10000 7.2 350 16:55 11.12.2019
6653 Clouds 14 1030 58 10000 7.2 340 16:36 11.12.2019
6654 Clouds 14 1030 58 10000 7.2 340 16:18 11.12.2019
6655 Clouds 14 1029 54 10000 8.2 350 15:41 11.12.2019
6656 Clouds 14 1029 54 10000 8.2 350 15:41 11.12.2019
6657 Clouds 14 1029 62 10000 8.2 360 15:23 11.12.2019
6658 Clouds 14 1029 62 10000 8.2 360 15:23 11.12.2019
6659 Clouds 14 1030 62 10000 8.7 340 14:57 11.12.2019
6660 Clouds 14 1030 62 10000 7.7 350 14:39 11.12.2019
6661 Clouds 14 1030 62 10000 7.7 350 14:20 11.12.2019
6662 Clouds 14 1030 58 10000 7.2 350 13:58 11.12.2019
6663 Clouds 14 1030 62 10000 8.7 350 13:39 11.12.2019
6664 Clouds 14 1030 62 10000 8.7 350 13:21 11.12.2019
6665 Clouds 14 1030 71 10000 6.2 350 12:57 11.12.2019
6666 Clouds 14 1030 76 10000 7.2 360 12:38 11.12.2019
6667 Clouds 14 1030 76 10000 7.2 360 12:38 11.12.2019
6668 Clouds 14 1030 76 10000 7.2 360 12:20 11.12.2019
6669 Clouds 13 1030 81 10000 7.7 350 11:58 11.12.2019
6670 Clouds 13 1029 87 10000 6.2 360 11:38 11.12.2019
6671 Clouds 13 1029 87 10000 6.2 360 11:18 11.12.2019
6672 Clouds 12 1029 87 10000 5.1 360 10:57 11.12.2019
6673 Clouds 12 1029 93 10000 6.7 360 10:38 11.12.2019
6674 Clouds 12 1029 93 10000 6.7 360 10:19 11.12.2019
6675 Drizzle 12 1028 93 8000 8.7 350 09:43 11.12.2019
6676 Drizzle 12 1028 93 8000